<?xml version="1.0" encoding="UTF-8" standalone="yes"?>
<gpx creator="GPSSpeed for iPhone" version="1.1"
xmlns="http://www.topografix.com/GPX/1/1"
xmlns:xsi="http://www.w3.org/2001/XMLSchema-instance"
xsi:schemaLocation="http://www.topografix.com/GPX/1/1 http://www.topografix.com/GPX/1/1/gpx.xsd">
<metadata>
<link href="http://www.mwaysolutions.com"><text>Visit M-Way Solutions WebSite</text></link>
<time>2015-01-07T11:07:32.648Z</time>
<bounds maxlat="52.256841" maxlon="10.571131" minlat="52.208124" minlon="10.571131"/>
</metadata>
<trk>
<name>Kita 070115</name>
<trkseg>
	<trkpt lat="52.250643" lon="10.483827"><ele>88</ele><time>2015-01-07T07:05:59.876Z</time></trkpt>
	<trkpt lat="52.250643" lon="10.483827"><ele>88</ele><time>2015-01-07T07:05:59.882Z</time></trkpt>
	<trkpt lat="52.250663" lon="10.483796"><ele>89</ele><time>2015-01-07T07:06:01.155Z</time></trkpt>
	<trkpt lat="52.250663" lon="10.483796"><ele>88</ele><time>2015-01-07T07:06:29.040Z</time></trkpt>
	<trkpt lat="52.250663" lon="10.483796"><ele>87</ele><time>2015-01-07T07:06:30.041Z</time></trkpt>
	<trkpt lat="52.250663" lon="10.483796"><ele>87</ele><time>2015-01-07T07:06:39.096Z</time></trkpt>
	<trkpt lat="52.250651" lon="10.483823"><ele>87</ele><time>2015-01-07T07:06:40.070Z</time></trkpt>
	<trkpt lat="52.250651" lon="10.483823"><ele>89</ele><time>2015-01-07T07:07:35.114Z</time></trkpt>
	<trkpt lat="52.250651" lon="10.483823"><ele>90</ele><time>2015-01-07T07:07:36.111Z</time></trkpt>
	<trkpt lat="52.250651" lon="10.483823"><ele>90</ele><time>2015-01-07T07:08:17.072Z</time></trkpt>
	<trkpt lat="52.250668" lon="10.483892"><ele>90</ele><time>2015-01-07T07:08:18.074Z</time></trkpt>
	<trkpt lat="52.250668" lon="10.483892"><ele>90</ele><time>2015-01-07T07:08:27.064Z</time></trkpt>
	<trkpt lat="52.250683" lon="10.483922"><ele>90</ele><time>2015-01-07T07:08:28.065Z</time></trkpt>
	<trkpt lat="52.250683" lon="10.483922"><ele>90</ele><time>2015-01-07T07:10:09.101Z</time></trkpt>
	<trkpt lat="52.250673" lon="10.483925"><ele>90</ele><time>2015-01-07T07:10:10.097Z</time></trkpt>
	<trkpt lat="52.250673" lon="10.483925"><ele>90</ele><time>2015-01-07T07:10:40.056Z</time></trkpt>
	<trkpt lat="52.250673" lon="10.483925"><ele>91</ele><time>2015-01-07T07:10:41.057Z</time></trkpt>
	<trkpt lat="52.250673" lon="10.483925"><ele>91</ele><time>2015-01-07T07:11:21.109Z</time></trkpt>
	<trkpt lat="52.250659" lon="10.483894"><ele>91</ele><time>2015-01-07T07:11:22.109Z</time></trkpt>
	<trkpt lat="52.250659" lon="10.483891"><ele>90</ele><time>2015-01-07T07:11:42.089Z</time></trkpt>
	<trkpt lat="52.250646" lon="10.483892"><ele>90</ele><time>2015-01-07T07:11:43.087Z</time></trkpt>
	<trkpt lat="52.250644" lon="10.483894"><ele>90</ele><time>2015-01-07T07:11:45.128Z</time></trkpt>
	<trkpt lat="52.250644" lon="10.483888"><ele>90</ele><time>2015-01-07T07:11:46.123Z</time></trkpt>
	<trkpt lat="52.250634" lon="10.483886"><ele>90</ele><time>2015-01-07T07:11:47.114Z</time></trkpt>
	<trkpt lat="52.250625" lon="10.483898"><ele>90</ele><time>2015-01-07T07:11:48.109Z</time></trkpt>
	<trkpt lat="52.250622" lon="10.483910"><ele>90</ele><time>2015-01-07T07:11:49.104Z</time></trkpt>
	<trkpt lat="52.250616" lon="10.483929"><ele>90</ele><time>2015-01-07T07:11:50.098Z</time></trkpt>
	<trkpt lat="52.250618" lon="10.483948"><ele>90</ele><time>2015-01-07T07:11:51.110Z</time></trkpt>
	<trkpt lat="52.250622" lon="10.483954"><ele>90</ele><time>2015-01-07T07:11:52.116Z</time></trkpt>
	<trkpt lat="52.250622" lon="10.483954"><ele>91</ele><time>2015-01-07T07:11:53.119Z</time></trkpt>
	<trkpt lat="52.250615" lon="10.483954"><ele>91</ele><time>2015-01-07T07:11:54.135Z</time></trkpt>
	<trkpt lat="52.250604" lon="10.483954"><ele>91</ele><time>2015-01-07T07:11:55.127Z</time></trkpt>
	<trkpt lat="52.250597" lon="10.483949"><ele>91</ele><time>2015-01-07T07:11:56.128Z</time></trkpt>
	<trkpt lat="52.250596" lon="10.483945"><ele>91</ele><time>2015-01-07T07:11:57.135Z</time></trkpt>
	<trkpt lat="52.250578" lon="10.483946"><ele>91</ele><time>2015-01-07T07:11:58.120Z</time></trkpt>
	<trkpt lat="52.250559" lon="10.483959"><ele>91</ele><time>2015-01-07T07:11:59.109Z</time></trkpt>
	<trkpt lat="52.250496" lon="10.484110"><ele>91</ele><time>2015-01-07T07:12:00.099Z</time></trkpt>
	<trkpt lat="52.250396" lon="10.484107"><ele>91</ele><time>2015-01-07T07:12:01.113Z</time></trkpt>
	<trkpt lat="52.250319" lon="10.484105"><ele>91</ele><time>2015-01-07T07:12:02.114Z</time></trkpt>
	<trkpt lat="52.250283" lon="10.484104"><ele>91</ele><time>2015-01-07T07:12:03.158Z</time></trkpt>
	<trkpt lat="52.250254" lon="10.484103"><ele>91</ele><time>2015-01-07T07:12:04.166Z</time></trkpt>
	<trkpt lat="52.250164" lon="10.484101"><ele>90</ele><time>2015-01-07T07:12:05.142Z</time></trkpt>
	<trkpt lat="52.250117" lon="10.484098"><ele>90</ele><time>2015-01-07T07:12:06.116Z</time></trkpt>
	<trkpt lat="52.250066" lon="10.484092"><ele>90</ele><time>2015-01-07T07:12:07.132Z</time></trkpt>
	<trkpt lat="52.249994" lon="10.484066"><ele>90</ele><time>2015-01-07T07:12:08.192Z</time></trkpt>
	<trkpt lat="52.249941" lon="10.484021"><ele>90</ele><time>2015-01-07T07:12:09.187Z</time></trkpt>
	<trkpt lat="52.249893" lon="10.483921"><ele>90</ele><time>2015-01-07T07:12:10.174Z</time></trkpt>
	<trkpt lat="52.249867" lon="10.483796"><ele>90</ele><time>2015-01-07T07:12:11.112Z</time></trkpt>
	<trkpt lat="52.249867" lon="10.483615"><ele>90</ele><time>2015-01-07T07:12:12.124Z</time></trkpt>
	<trkpt lat="52.249867" lon="10.483473"><ele>91</ele><time>2015-01-07T07:12:13.140Z</time></trkpt>
	<trkpt lat="52.249867" lon="10.483322"><ele>91</ele><time>2015-01-07T07:12:14.102Z</time></trkpt>
	<trkpt lat="52.249866" lon="10.483172"><ele>91</ele><time>2015-01-07T07:12:15.124Z</time></trkpt>
	<trkpt lat="52.249866" lon="10.483031"><ele>90</ele><time>2015-01-07T07:12:16.122Z</time></trkpt>
	<trkpt lat="52.249866" lon="10.482902"><ele>90</ele><time>2015-01-07T07:12:17.123Z</time></trkpt>
	<trkpt lat="52.249866" lon="10.482772"><ele>90</ele><time>2015-01-07T07:12:18.125Z</time></trkpt>
	<trkpt lat="52.249866" lon="10.482645"><ele>90</ele><time>2015-01-07T07:12:19.135Z</time></trkpt>
	<trkpt lat="52.249866" lon="10.482511"><ele>90</ele><time>2015-01-07T07:12:20.130Z</time></trkpt>
	<trkpt lat="52.249866" lon="10.482358"><ele>91</ele><time>2015-01-07T07:12:21.123Z</time></trkpt>
	<trkpt lat="52.249866" lon="10.482202"><ele>91</ele><time>2015-01-07T07:12:22.098Z</time></trkpt>
	<trkpt lat="52.249866" lon="10.482135"><ele>91</ele><time>2015-01-07T07:12:23.099Z</time></trkpt>
	<trkpt lat="52.249864" lon="10.481863"><ele>91</ele><time>2015-01-07T07:12:24.097Z</time></trkpt>
	<trkpt lat="52.249862" lon="10.481684"><ele>91</ele><time>2015-01-07T07:12:25.094Z</time></trkpt>
	<trkpt lat="52.249861" lon="10.481513"><ele>91</ele><time>2015-01-07T07:12:26.116Z</time></trkpt>
	<trkpt lat="52.249859" lon="10.481349"><ele>91</ele><time>2015-01-07T07:12:27.145Z</time></trkpt>
	<trkpt lat="52.249858" lon="10.481192"><ele>91</ele><time>2015-01-07T07:12:28.139Z</time></trkpt>
	<trkpt lat="52.249857" lon="10.481038"><ele>91</ele><time>2015-01-07T07:12:29.131Z</time></trkpt>
	<trkpt lat="52.249856" lon="10.480901"><ele>90</ele><time>2015-01-07T07:12:30.148Z</time></trkpt>
	<trkpt lat="52.249855" lon="10.480766"><ele>90</ele><time>2015-01-07T07:12:31.140Z</time></trkpt>
	<trkpt lat="52.249854" lon="10.480675"><ele>90</ele><time>2015-01-07T07:12:32.105Z</time></trkpt>
	<trkpt lat="52.249853" lon="10.480571"><ele>90</ele><time>2015-01-07T07:12:33.092Z</time></trkpt>
	<trkpt lat="52.249852" lon="10.480486"><ele>89</ele><time>2015-01-07T07:12:34.091Z</time></trkpt>
	<trkpt lat="52.249852" lon="10.480426"><ele>89</ele><time>2015-01-07T07:12:35.109Z</time></trkpt>
	<trkpt lat="52.249852" lon="10.480374"><ele>89</ele><time>2015-01-07T07:12:36.115Z</time></trkpt>
	<trkpt lat="52.249851" lon="10.480328"><ele>89</ele><time>2015-01-07T07:12:37.120Z</time></trkpt>
	<trkpt lat="52.249851" lon="10.480273"><ele>89</ele><time>2015-01-07T07:12:38.114Z</time></trkpt>
	<trkpt lat="52.249850" lon="10.480222"><ele>89</ele><time>2015-01-07T07:12:39.083Z</time></trkpt>
	<trkpt lat="52.249850" lon="10.480221"><ele>89</ele><time>2015-01-07T07:12:40.080Z</time></trkpt>
	<trkpt lat="52.249962" lon="10.480199"><ele>89</ele><time>2015-01-07T07:12:41.078Z</time></trkpt>
	<trkpt lat="52.249949" lon="10.480206"><ele>90</ele><time>2015-01-07T07:12:42.075Z</time></trkpt>
	<trkpt lat="52.249949" lon="10.480206"><ele>90</ele><time>2015-01-07T07:12:43.073Z</time></trkpt>
	<trkpt lat="52.250130" lon="10.480162"><ele>90</ele><time>2015-01-07T07:12:44.073Z</time></trkpt>
	<trkpt lat="52.250214" lon="10.480163"><ele>90</ele><time>2015-01-07T07:12:45.077Z</time></trkpt>
	<trkpt lat="52.250295" lon="10.480163"><ele>90</ele><time>2015-01-07T07:12:46.076Z</time></trkpt>
	<trkpt lat="52.250371" lon="10.480164"><ele>90</ele><time>2015-01-07T07:12:47.069Z</time></trkpt>
	<trkpt lat="52.250441" lon="10.480165"><ele>90</ele><time>2015-01-07T07:12:48.075Z</time></trkpt>
	<trkpt lat="52.250498" lon="10.480166"><ele>89</ele><time>2015-01-07T07:12:49.097Z</time></trkpt>
	<trkpt lat="52.250549" lon="10.480168"><ele>89</ele><time>2015-01-07T07:12:50.095Z</time></trkpt>
	<trkpt lat="52.250593" lon="10.480170"><ele>89</ele><time>2015-01-07T07:12:51.092Z</time></trkpt>
	<trkpt lat="52.250631" lon="10.480172"><ele>89</ele><time>2015-01-07T07:12:52.085Z</time></trkpt>
	<trkpt lat="52.250658" lon="10.480173"><ele>89</ele><time>2015-01-07T07:12:53.079Z</time></trkpt>
	<trkpt lat="52.250691" lon="10.480175"><ele>89</ele><time>2015-01-07T07:12:54.086Z</time></trkpt>
	<trkpt lat="52.250703" lon="10.480175"><ele>89</ele><time>2015-01-07T07:12:55.084Z</time></trkpt>
	<trkpt lat="52.250722" lon="10.480176"><ele>89</ele><time>2015-01-07T07:12:56.084Z</time></trkpt>
	<trkpt lat="52.250734" lon="10.480177"><ele>89</ele><time>2015-01-07T07:12:57.098Z</time></trkpt>
	<trkpt lat="52.250743" lon="10.480177"><ele>89</ele><time>2015-01-07T07:12:58.097Z</time></trkpt>
	<trkpt lat="52.250749" lon="10.480178"><ele>89</ele><time>2015-01-07T07:12:59.081Z</time></trkpt>
	<trkpt lat="52.250749" lon="10.480178"><ele>89</ele><time>2015-01-07T07:13:01.079Z</time></trkpt>
	<trkpt lat="52.250759" lon="10.480178"><ele>89</ele><time>2015-01-07T07:13:02.079Z</time></trkpt>
	<trkpt lat="52.250779" lon="10.480180"><ele>89</ele><time>2015-01-07T07:13:03.076Z</time></trkpt>
	<trkpt lat="52.250805" lon="10.480181"><ele>89</ele><time>2015-01-07T07:13:04.089Z</time></trkpt>
	<trkpt lat="52.250845" lon="10.480184"><ele>89</ele><time>2015-01-07T07:13:05.113Z</time></trkpt>
	<trkpt lat="52.250905" lon="10.480187"><ele>89</ele><time>2015-01-07T07:13:06.170Z</time></trkpt>
	<trkpt lat="52.250964" lon="10.480191"><ele>89</ele><time>2015-01-07T07:13:07.111Z</time></trkpt>
	<trkpt lat="52.251037" lon="10.480205"><ele>90</ele><time>2015-01-07T07:13:08.151Z</time></trkpt>
	<trkpt lat="52.251118" lon="10.480236"><ele>89</ele><time>2015-01-07T07:13:09.090Z</time></trkpt>
	<trkpt lat="52.251199" lon="10.480266"><ele>90</ele><time>2015-01-07T07:13:10.098Z</time></trkpt>
	<trkpt lat="52.251287" lon="10.480299"><ele>90</ele><time>2015-01-07T07:13:11.110Z</time></trkpt>
	<trkpt lat="52.251370" lon="10.480330"><ele>89</ele><time>2015-01-07T07:13:12.150Z</time></trkpt>
	<trkpt lat="52.251453" lon="10.480361"><ele>89</ele><time>2015-01-07T07:13:13.157Z</time></trkpt>
	<trkpt lat="52.251534" lon="10.480391"><ele>89</ele><time>2015-01-07T07:13:14.106Z</time></trkpt>
	<trkpt lat="52.251629" lon="10.480427"><ele>90</ele><time>2015-01-07T07:13:15.057Z</time></trkpt>
	<trkpt lat="52.251714" lon="10.480459"><ele>90</ele><time>2015-01-07T07:13:16.047Z</time></trkpt>
	<trkpt lat="52.251794" lon="10.480489"><ele>89</ele><time>2015-01-07T07:13:17.059Z</time></trkpt>
	<trkpt lat="52.251878" lon="10.480520"><ele>89</ele><time>2015-01-07T07:13:18.048Z</time></trkpt>
	<trkpt lat="52.251937" lon="10.480542"><ele>89</ele><time>2015-01-07T07:13:19.048Z</time></trkpt>
	<trkpt lat="52.252031" lon="10.480584"><ele>89</ele><time>2015-01-07T07:13:20.046Z</time></trkpt>
	<trkpt lat="52.252089" lon="10.480620"><ele>89</ele><time>2015-01-07T07:13:21.048Z</time></trkpt>
	<trkpt lat="52.252164" lon="10.480702"><ele>89</ele><time>2015-01-07T07:13:22.066Z</time></trkpt>
	<trkpt lat="52.252224" lon="10.480787"><ele>89</ele><time>2015-01-07T07:13:23.049Z</time></trkpt>
	<trkpt lat="52.252280" lon="10.480888"><ele>89</ele><time>2015-01-07T07:13:24.050Z</time></trkpt>
	<trkpt lat="52.252329" lon="10.480989"><ele>89</ele><time>2015-01-07T07:13:25.055Z</time></trkpt>
	<trkpt lat="52.252347" lon="10.481054"><ele>89</ele><time>2015-01-07T07:13:26.045Z</time></trkpt>
	<trkpt lat="52.252386" lon="10.481211"><ele>89</ele><time>2015-01-07T07:13:27.046Z</time></trkpt>
	<trkpt lat="52.252395" lon="10.481315"><ele>89</ele><time>2015-01-07T07:13:28.047Z</time></trkpt>
	<trkpt lat="52.252401" lon="10.481417"><ele>89</ele><time>2015-01-07T07:13:29.045Z</time></trkpt>
	<trkpt lat="52.252401" lon="10.481519"><ele>89</ele><time>2015-01-07T07:13:30.047Z</time></trkpt>
	<trkpt lat="52.252399" lon="10.481629"><ele>89</ele><time>2015-01-07T07:13:31.046Z</time></trkpt>
	<trkpt lat="52.252397" lon="10.481746"><ele>89</ele><time>2015-01-07T07:13:32.046Z</time></trkpt>
	<trkpt lat="52.252394" lon="10.481862"><ele>90</ele><time>2015-01-07T07:13:33.045Z</time></trkpt>
	<trkpt lat="52.252393" lon="10.482021"><ele>90</ele><time>2015-01-07T07:13:34.045Z</time></trkpt>
	<trkpt lat="52.252392" lon="10.482188"><ele>90</ele><time>2015-01-07T07:13:35.045Z</time></trkpt>
	<trkpt lat="52.252391" lon="10.482335"><ele>90</ele><time>2015-01-07T07:13:36.045Z</time></trkpt>
	<trkpt lat="52.252391" lon="10.482472"><ele>90</ele><time>2015-01-07T07:13:37.045Z</time></trkpt>
	<trkpt lat="52.252390" lon="10.482592"><ele>90</ele><time>2015-01-07T07:13:38.045Z</time></trkpt>
	<trkpt lat="52.252389" lon="10.482684"><ele>89</ele><time>2015-01-07T07:13:39.050Z</time></trkpt>
	<trkpt lat="52.252389" lon="10.482749"><ele>89</ele><time>2015-01-07T07:13:40.078Z</time></trkpt>
	<trkpt lat="52.252389" lon="10.482805"><ele>89</ele><time>2015-01-07T07:13:41.081Z</time></trkpt>
	<trkpt lat="52.252383" lon="10.482829"><ele>89</ele><time>2015-01-07T07:13:44.135Z</time></trkpt>
	<trkpt lat="52.252313" lon="10.482915"><ele>89</ele><time>2015-01-07T07:13:45.142Z</time></trkpt>
	<trkpt lat="52.252302" lon="10.482978"><ele>90</ele><time>2015-01-07T07:13:46.132Z</time></trkpt>
	<trkpt lat="52.252287" lon="10.483103"><ele>90</ele><time>2015-01-07T07:13:47.125Z</time></trkpt>
	<trkpt lat="52.252283" lon="10.483229"><ele>90</ele><time>2015-01-07T07:13:48.117Z</time></trkpt>
	<trkpt lat="52.252279" lon="10.483365"><ele>90</ele><time>2015-01-07T07:13:49.109Z</time></trkpt>
	<trkpt lat="52.252286" lon="10.483502"><ele>90</ele><time>2015-01-07T07:13:50.100Z</time></trkpt>
	<trkpt lat="52.252285" lon="10.483636"><ele>90</ele><time>2015-01-07T07:13:51.092Z</time></trkpt>
	<trkpt lat="52.252289" lon="10.483760"><ele>90</ele><time>2015-01-07T07:13:52.086Z</time></trkpt>
	<trkpt lat="52.252279" lon="10.483905"><ele>90</ele><time>2015-01-07T07:13:53.099Z</time></trkpt>
	<trkpt lat="52.252275" lon="10.484084"><ele>91</ele><time>2015-01-07T07:13:54.119Z</time></trkpt>
	<trkpt lat="52.252271" lon="10.484257"><ele>91</ele><time>2015-01-07T07:13:55.125Z</time></trkpt>
	<trkpt lat="52.252263" lon="10.484428"><ele>91</ele><time>2015-01-07T07:13:56.159Z</time></trkpt>
	<trkpt lat="52.252235" lon="10.484603"><ele>90</ele><time>2015-01-07T07:13:57.108Z</time></trkpt>
	<trkpt lat="52.252198" lon="10.484754"><ele>90</ele><time>2015-01-07T07:13:58.104Z</time></trkpt>
	<trkpt lat="52.252144" lon="10.484913"><ele>90</ele><time>2015-01-07T07:13:59.066Z</time></trkpt>
	<trkpt lat="52.252094" lon="10.485049"><ele>91</ele><time>2015-01-07T07:14:00.060Z</time></trkpt>
	<trkpt lat="52.252036" lon="10.485212"><ele>90</ele><time>2015-01-07T07:14:01.061Z</time></trkpt>
	<trkpt lat="52.251987" lon="10.485350"><ele>90</ele><time>2015-01-07T07:14:02.067Z</time></trkpt>
	<trkpt lat="52.251940" lon="10.485493"><ele>90</ele><time>2015-01-07T07:14:03.069Z</time></trkpt>
	<trkpt lat="52.251901" lon="10.485631"><ele>90</ele><time>2015-01-07T07:14:04.075Z</time></trkpt>
	<trkpt lat="52.251853" lon="10.485772"><ele>90</ele><time>2015-01-07T07:14:05.113Z</time></trkpt>
	<trkpt lat="52.251821" lon="10.485894"><ele>90</ele><time>2015-01-07T07:14:06.074Z</time></trkpt>
	<trkpt lat="52.251801" lon="10.486012"><ele>89</ele><time>2015-01-07T07:14:07.064Z</time></trkpt>
	<trkpt lat="52.251788" lon="10.486159"><ele>89</ele><time>2015-01-07T07:14:08.066Z</time></trkpt>
	<trkpt lat="52.251782" lon="10.486291"><ele>89</ele><time>2015-01-07T07:14:09.062Z</time></trkpt>
	<trkpt lat="52.251779" lon="10.486417"><ele>89</ele><time>2015-01-07T07:14:10.066Z</time></trkpt>
	<trkpt lat="52.251777" lon="10.486538"><ele>89</ele><time>2015-01-07T07:14:11.071Z</time></trkpt>
	<trkpt lat="52.251776" lon="10.486611"><ele>89</ele><time>2015-01-07T07:14:12.093Z</time></trkpt>
	<trkpt lat="52.251775" lon="10.486681"><ele>89</ele><time>2015-01-07T07:14:13.124Z</time></trkpt>
	<trkpt lat="52.251793" lon="10.486744"><ele>89</ele><time>2015-01-07T07:14:14.110Z</time></trkpt>
	<trkpt lat="52.251820" lon="10.486777"><ele>89</ele><time>2015-01-07T07:14:15.132Z</time></trkpt>
	<trkpt lat="52.251855" lon="10.486803"><ele>89</ele><time>2015-01-07T07:14:16.133Z</time></trkpt>
	<trkpt lat="52.251890" lon="10.486831"><ele>89</ele><time>2015-01-07T07:14:17.091Z</time></trkpt>
	<trkpt lat="52.251930" lon="10.486782"><ele>89</ele><time>2015-01-07T07:14:18.117Z</time></trkpt>
	<trkpt lat="52.251940" lon="10.486927"><ele>89</ele><time>2015-01-07T07:14:19.116Z</time></trkpt>
	<trkpt lat="52.251941" lon="10.487051"><ele>90</ele><time>2015-01-07T07:14:20.106Z</time></trkpt>
	<trkpt lat="52.251941" lon="10.487171"><ele>90</ele><time>2015-01-07T07:14:21.109Z</time></trkpt>
	<trkpt lat="52.251942" lon="10.487306"><ele>90</ele><time>2015-01-07T07:14:22.130Z</time></trkpt>
	<trkpt lat="52.251942" lon="10.487438"><ele>90</ele><time>2015-01-07T07:14:23.096Z</time></trkpt>
	<trkpt lat="52.251943" lon="10.487591"><ele>90</ele><time>2015-01-07T07:14:24.098Z</time></trkpt>
	<trkpt lat="52.251944" lon="10.487748"><ele>90</ele><time>2015-01-07T07:14:25.122Z</time></trkpt>
	<trkpt lat="52.251945" lon="10.487905"><ele>90</ele><time>2015-01-07T07:14:26.131Z</time></trkpt>
	<trkpt lat="52.251945" lon="10.488064"><ele>90</ele><time>2015-01-07T07:14:27.083Z</time></trkpt>
	<trkpt lat="52.251946" lon="10.488227"><ele>90</ele><time>2015-01-07T07:14:28.095Z</time></trkpt>
	<trkpt lat="52.251946" lon="10.488403"><ele>90</ele><time>2015-01-07T07:14:29.094Z</time></trkpt>
	<trkpt lat="52.251944" lon="10.488571"><ele>90</ele><time>2015-01-07T07:14:30.096Z</time></trkpt>
	<trkpt lat="52.251936" lon="10.488740"><ele>90</ele><time>2015-01-07T07:14:31.074Z</time></trkpt>
	<trkpt lat="52.251926" lon="10.488908"><ele>89</ele><time>2015-01-07T07:14:32.060Z</time></trkpt>
	<trkpt lat="52.251918" lon="10.489073"><ele>89</ele><time>2015-01-07T07:14:33.066Z</time></trkpt>
	<trkpt lat="52.251892" lon="10.489214"><ele>89</ele><time>2015-01-07T07:14:34.068Z</time></trkpt>
	<trkpt lat="52.251862" lon="10.489357"><ele>89</ele><time>2015-01-07T07:14:35.061Z</time></trkpt>
	<trkpt lat="52.251818" lon="10.489473"><ele>89</ele><time>2015-01-07T07:14:36.066Z</time></trkpt>
	<trkpt lat="52.251775" lon="10.489569"><ele>88</ele><time>2015-01-07T07:14:37.062Z</time></trkpt>
	<trkpt lat="52.251728" lon="10.489663"><ele>88</ele><time>2015-01-07T07:14:38.063Z</time></trkpt>
	<trkpt lat="52.251688" lon="10.489737"><ele>88</ele><time>2015-01-07T07:14:39.063Z</time></trkpt>
	<trkpt lat="52.251640" lon="10.489819"><ele>88</ele><time>2015-01-07T07:14:40.066Z</time></trkpt>
	<trkpt lat="52.251604" lon="10.489874"><ele>88</ele><time>2015-01-07T07:14:41.085Z</time></trkpt>
	<trkpt lat="52.251538" lon="10.489888"><ele>88</ele><time>2015-01-07T07:14:42.107Z</time></trkpt>
	<trkpt lat="52.251490" lon="10.489955"><ele>88</ele><time>2015-01-07T07:14:43.109Z</time></trkpt>
	<trkpt lat="52.251443" lon="10.490060"><ele>88</ele><time>2015-01-07T07:14:44.138Z</time></trkpt>
	<trkpt lat="52.251418" lon="10.490110"><ele>88</ele><time>2015-01-07T07:14:45.147Z</time></trkpt>
	<trkpt lat="52.251298" lon="10.490044"><ele>88</ele><time>2015-01-07T07:14:46.122Z</time></trkpt>
	<trkpt lat="52.251269" lon="10.490090"><ele>88</ele><time>2015-01-07T07:14:47.125Z</time></trkpt>
	<trkpt lat="52.251246" lon="10.490129"><ele>88</ele><time>2015-01-07T07:14:48.147Z</time></trkpt>
	<trkpt lat="52.251222" lon="10.490167"><ele>88</ele><time>2015-01-07T07:14:49.144Z</time></trkpt>
	<trkpt lat="52.251201" lon="10.490202"><ele>88</ele><time>2015-01-07T07:14:50.120Z</time></trkpt>
	<trkpt lat="52.251198" lon="10.490206"><ele>88</ele><time>2015-01-07T07:14:51.126Z</time></trkpt>
	<trkpt lat="52.251189" lon="10.490222"><ele>88</ele><time>2015-01-07T07:14:52.144Z</time></trkpt>
	<trkpt lat="52.251183" lon="10.490230"><ele>88</ele><time>2015-01-07T07:15:12.059Z</time></trkpt>
	<trkpt lat="52.251179" lon="10.490236"><ele>88</ele><time>2015-01-07T07:15:13.079Z</time></trkpt>
	<trkpt lat="52.251183" lon="10.490231"><ele>88</ele><time>2015-01-07T07:15:15.091Z</time></trkpt>
	<trkpt lat="52.251158" lon="10.490271"><ele>88</ele><time>2015-01-07T07:15:16.096Z</time></trkpt>
	<trkpt lat="52.251147" lon="10.490288"><ele>88</ele><time>2015-01-07T07:15:17.117Z</time></trkpt>
	<trkpt lat="52.251126" lon="10.490322"><ele>88</ele><time>2015-01-07T07:15:18.125Z</time></trkpt>
	<trkpt lat="52.251090" lon="10.490380"><ele>88</ele><time>2015-01-07T07:15:19.116Z</time></trkpt>
	<trkpt lat="52.251059" lon="10.490428"><ele>88</ele><time>2015-01-07T07:15:20.109Z</time></trkpt>
	<trkpt lat="52.251032" lon="10.490471"><ele>88</ele><time>2015-01-07T07:15:21.139Z</time></trkpt>
	<trkpt lat="52.251000" lon="10.490519"><ele>88</ele><time>2015-01-07T07:15:22.184Z</time></trkpt>
	<trkpt lat="52.250961" lon="10.490575"><ele>88</ele><time>2015-01-07T07:15:23.187Z</time></trkpt>
	<trkpt lat="52.250954" lon="10.490586"><ele>88</ele><time>2015-01-07T07:15:24.109Z</time></trkpt>
	<trkpt lat="52.250892" lon="10.490676"><ele>88</ele><time>2015-01-07T07:15:25.130Z</time></trkpt>
	<trkpt lat="52.250863" lon="10.490718"><ele>88</ele><time>2015-01-07T07:15:26.136Z</time></trkpt>
	<trkpt lat="52.250840" lon="10.490750"><ele>88</ele><time>2015-01-07T07:15:27.102Z</time></trkpt>
	<trkpt lat="52.250802" lon="10.490818"><ele>88</ele><time>2015-01-07T07:15:28.085Z</time></trkpt>
	<trkpt lat="52.250870" lon="10.490891"><ele>88</ele><time>2015-01-07T07:15:29.135Z</time></trkpt>
	<trkpt lat="52.251048" lon="10.491203"><ele>88</ele><time>2015-01-07T07:15:30.174Z</time></trkpt>
	<trkpt lat="52.251112" lon="10.491311"><ele>88</ele><time>2015-01-07T07:15:31.172Z</time></trkpt>
	<trkpt lat="52.251182" lon="10.491428"><ele>88</ele><time>2015-01-07T07:15:32.171Z</time></trkpt>
	<trkpt lat="52.251253" lon="10.491548"><ele>88</ele><time>2015-01-07T07:15:33.165Z</time></trkpt>
	<trkpt lat="52.251334" lon="10.491684"><ele>88</ele><time>2015-01-07T07:15:34.131Z</time></trkpt>
	<trkpt lat="52.251421" lon="10.491830"><ele>89</ele><time>2015-01-07T07:15:35.123Z</time></trkpt>
	<trkpt lat="52.251518" lon="10.491980"><ele>89</ele><time>2015-01-07T07:15:36.182Z</time></trkpt>
	<trkpt lat="52.251610" lon="10.492136"><ele>88</ele><time>2015-01-07T07:15:37.198Z</time></trkpt>
	<trkpt lat="52.251698" lon="10.492276"><ele>88</ele><time>2015-01-07T07:15:38.105Z</time></trkpt>
	<trkpt lat="52.251800" lon="10.492441"><ele>88</ele><time>2015-01-07T07:15:39.107Z</time></trkpt>
	<trkpt lat="52.251895" lon="10.492604"><ele>88</ele><time>2015-01-07T07:15:40.113Z</time></trkpt>
	<trkpt lat="52.251994" lon="10.492764"><ele>88</ele><time>2015-01-07T07:15:41.099Z</time></trkpt>
	<trkpt lat="52.252094" lon="10.492921"><ele>88</ele><time>2015-01-07T07:15:42.111Z</time></trkpt>
	<trkpt lat="52.252186" lon="10.493076"><ele>88</ele><time>2015-01-07T07:15:43.118Z</time></trkpt>
	<trkpt lat="52.252275" lon="10.493228"><ele>87</ele><time>2015-01-07T07:15:44.089Z</time></trkpt>
	<trkpt lat="52.252362" lon="10.493370"><ele>87</ele><time>2015-01-07T07:15:45.090Z</time></trkpt>
	<trkpt lat="52.252447" lon="10.493506"><ele>87</ele><time>2015-01-07T07:15:46.137Z</time></trkpt>
	<trkpt lat="52.252522" lon="10.493632"><ele>86</ele><time>2015-01-07T07:15:47.148Z</time></trkpt>
	<trkpt lat="52.252587" lon="10.493735"><ele>86</ele><time>2015-01-07T07:15:48.156Z</time></trkpt>
	<trkpt lat="52.252638" lon="10.493821"><ele>85</ele><time>2015-01-07T07:15:49.152Z</time></trkpt>
	<trkpt lat="52.252683" lon="10.493898"><ele>85</ele><time>2015-01-07T07:15:50.120Z</time></trkpt>
	<trkpt lat="52.252719" lon="10.493958"><ele>84</ele><time>2015-01-07T07:15:51.140Z</time></trkpt>
	<trkpt lat="52.252744" lon="10.494002"><ele>84</ele><time>2015-01-07T07:15:52.140Z</time></trkpt>
	<trkpt lat="52.252766" lon="10.494040"><ele>84</ele><time>2015-01-07T07:15:53.140Z</time></trkpt>
	<trkpt lat="52.252784" lon="10.494069"><ele>84</ele><time>2015-01-07T07:15:54.077Z</time></trkpt>
	<trkpt lat="52.252791" lon="10.494082"><ele>84</ele><time>2015-01-07T07:15:55.090Z</time></trkpt>
	<trkpt lat="52.252804" lon="10.494063"><ele>84</ele><time>2015-01-07T07:15:56.089Z</time></trkpt>
	<trkpt lat="52.252798" lon="10.494054"><ele>84</ele><time>2015-01-07T07:16:05.084Z</time></trkpt>
	<trkpt lat="52.252793" lon="10.494046"><ele>84</ele><time>2015-01-07T07:16:06.068Z</time></trkpt>
	<trkpt lat="52.252795" lon="10.494049"><ele>84</ele><time>2015-01-07T07:16:43.135Z</time></trkpt>
	<trkpt lat="52.252792" lon="10.494069"><ele>84</ele><time>2015-01-07T07:16:44.146Z</time></trkpt>
	<trkpt lat="52.252802" lon="10.494089"><ele>84</ele><time>2015-01-07T07:16:45.150Z</time></trkpt>
	<trkpt lat="52.252819" lon="10.494121"><ele>84</ele><time>2015-01-07T07:16:46.158Z</time></trkpt>
	<trkpt lat="52.252842" lon="10.494162"><ele>84</ele><time>2015-01-07T07:16:47.116Z</time></trkpt>
	<trkpt lat="52.252859" lon="10.494193"><ele>84</ele><time>2015-01-07T07:16:48.123Z</time></trkpt>
	<trkpt lat="52.252872" lon="10.494220"><ele>83</ele><time>2015-01-07T07:16:49.143Z</time></trkpt>
	<trkpt lat="52.252880" lon="10.494240"><ele>83</ele><time>2015-01-07T07:16:50.117Z</time></trkpt>
	<trkpt lat="52.252888" lon="10.494257"><ele>83</ele><time>2015-01-07T07:16:51.134Z</time></trkpt>
	<trkpt lat="52.252892" lon="10.494267"><ele>83</ele><time>2015-01-07T07:16:52.136Z</time></trkpt>
	<trkpt lat="52.252894" lon="10.494276"><ele>83</ele><time>2015-01-07T07:16:53.113Z</time></trkpt>
	<trkpt lat="52.252896" lon="10.494281"><ele>83</ele><time>2015-01-07T07:16:54.117Z</time></trkpt>
	<trkpt lat="52.252900" lon="10.494289"><ele>84</ele><time>2015-01-07T07:16:55.124Z</time></trkpt>
	<trkpt lat="52.252907" lon="10.494306"><ele>84</ele><time>2015-01-07T07:16:56.123Z</time></trkpt>
	<trkpt lat="52.252920" lon="10.494331"><ele>83</ele><time>2015-01-07T07:16:57.130Z</time></trkpt>
	<trkpt lat="52.252918" lon="10.494391"><ele>84</ele><time>2015-01-07T07:16:58.137Z</time></trkpt>
	<trkpt lat="52.252917" lon="10.494475"><ele>83</ele><time>2015-01-07T07:16:59.128Z</time></trkpt>
	<trkpt lat="52.252902" lon="10.494562"><ele>83</ele><time>2015-01-07T07:17:00.115Z</time></trkpt>
	<trkpt lat="52.252881" lon="10.494649"><ele>83</ele><time>2015-01-07T07:17:01.120Z</time></trkpt>
	<trkpt lat="52.252791" lon="10.494743"><ele>83</ele><time>2015-01-07T07:17:02.137Z</time></trkpt>
	<trkpt lat="52.252713" lon="10.494821"><ele>84</ele><time>2015-01-07T07:17:03.122Z</time></trkpt>
	<trkpt lat="52.252619" lon="10.494916"><ele>84</ele><time>2015-01-07T07:17:04.118Z</time></trkpt>
	<trkpt lat="52.252513" lon="10.495023"><ele>84</ele><time>2015-01-07T07:17:05.132Z</time></trkpt>
	<trkpt lat="52.252428" lon="10.495116"><ele>84</ele><time>2015-01-07T07:17:06.119Z</time></trkpt>
	<trkpt lat="52.252324" lon="10.495229"><ele>85</ele><time>2015-01-07T07:17:07.112Z</time></trkpt>
	<trkpt lat="52.252205" lon="10.495366"><ele>86</ele><time>2015-01-07T07:17:08.091Z</time></trkpt>
	<trkpt lat="52.252088" lon="10.495504"><ele>87</ele><time>2015-01-07T07:17:09.129Z</time></trkpt>
	<trkpt lat="52.251958" lon="10.495658"><ele>88</ele><time>2015-01-07T07:17:10.211Z</time></trkpt>
	<trkpt lat="52.251829" lon="10.495812"><ele>88</ele><time>2015-01-07T07:17:11.125Z</time></trkpt>
	<trkpt lat="52.251701" lon="10.495969"><ele>89</ele><time>2015-01-07T07:17:12.173Z</time></trkpt>
	<trkpt lat="52.251573" lon="10.496137"><ele>90</ele><time>2015-01-07T07:17:13.164Z</time></trkpt>
	<trkpt lat="52.251449" lon="10.496306"><ele>90</ele><time>2015-01-07T07:17:14.159Z</time></trkpt>
	<trkpt lat="52.251315" lon="10.496497"><ele>91</ele><time>2015-01-07T07:17:15.136Z</time></trkpt>
	<trkpt lat="52.251187" lon="10.496684"><ele>91</ele><time>2015-01-07T07:17:16.143Z</time></trkpt>
	<trkpt lat="52.251062" lon="10.496882"><ele>92</ele><time>2015-01-07T07:17:17.134Z</time></trkpt>
	<trkpt lat="52.250935" lon="10.497083"><ele>92</ele><time>2015-01-07T07:17:18.127Z</time></trkpt>
	<trkpt lat="52.250807" lon="10.497296"><ele>92</ele><time>2015-01-07T07:17:19.174Z</time></trkpt>
	<trkpt lat="52.250682" lon="10.497511"><ele>92</ele><time>2015-01-07T07:17:20.167Z</time></trkpt>
	<trkpt lat="52.250557" lon="10.497736"><ele>92</ele><time>2015-01-07T07:17:21.125Z</time></trkpt>
	<trkpt lat="52.250433" lon="10.497964"><ele>92</ele><time>2015-01-07T07:17:22.109Z</time></trkpt>
	<trkpt lat="52.250298" lon="10.498217"><ele>92</ele><time>2015-01-07T07:17:23.110Z</time></trkpt>
	<trkpt lat="52.250174" lon="10.498468"><ele>93</ele><time>2015-01-07T07:17:24.128Z</time></trkpt>
	<trkpt lat="52.250041" lon="10.498755"><ele>93</ele><time>2015-01-07T07:17:25.169Z</time></trkpt>
	<trkpt lat="52.249912" lon="10.499056"><ele>94</ele><time>2015-01-07T07:17:26.182Z</time></trkpt>
	<trkpt lat="52.249784" lon="10.499368"><ele>94</ele><time>2015-01-07T07:17:27.119Z</time></trkpt>
	<trkpt lat="52.249656" lon="10.499684"><ele>95</ele><time>2015-01-07T07:17:28.151Z</time></trkpt>
	<trkpt lat="52.249537" lon="10.499998"><ele>95</ele><time>2015-01-07T07:17:29.190Z</time></trkpt>
	<trkpt lat="52.249419" lon="10.500320"><ele>96</ele><time>2015-01-07T07:17:30.113Z</time></trkpt>
	<trkpt lat="52.249303" lon="10.500654"><ele>97</ele><time>2015-01-07T07:17:31.143Z</time></trkpt>
	<trkpt lat="52.249195" lon="10.500973"><ele>97</ele><time>2015-01-07T07:17:32.119Z</time></trkpt>
	<trkpt lat="52.249092" lon="10.501314"><ele>96</ele><time>2015-01-07T07:17:33.096Z</time></trkpt>
	<trkpt lat="52.248994" lon="10.501643"><ele>96</ele><time>2015-01-07T07:17:34.180Z</time></trkpt>
	<trkpt lat="52.248902" lon="10.501978"><ele>96</ele><time>2015-01-07T07:17:35.194Z</time></trkpt>
	<trkpt lat="52.248814" lon="10.502304"><ele>96</ele><time>2015-01-07T07:17:36.103Z</time></trkpt>
	<trkpt lat="52.248726" lon="10.502646"><ele>96</ele><time>2015-01-07T07:17:37.137Z</time></trkpt>
	<trkpt lat="52.248632" lon="10.502990"><ele>96</ele><time>2015-01-07T07:17:38.223Z</time></trkpt>
	<trkpt lat="52.248533" lon="10.503347"><ele>96</ele><time>2015-01-07T07:17:39.107Z</time></trkpt>
	<trkpt lat="52.248447" lon="10.503672"><ele>95</ele><time>2015-01-07T07:17:40.161Z</time></trkpt>
	<trkpt lat="52.248321" lon="10.504012"><ele>95</ele><time>2015-01-07T07:17:41.111Z</time></trkpt>
	<trkpt lat="52.248202" lon="10.504344"><ele>95</ele><time>2015-01-07T07:17:42.091Z</time></trkpt>
	<trkpt lat="52.248075" lon="10.504662"><ele>95</ele><time>2015-01-07T07:17:43.115Z</time></trkpt>
	<trkpt lat="52.247947" lon="10.504969"><ele>95</ele><time>2015-01-07T07:17:44.109Z</time></trkpt>
	<trkpt lat="52.247813" lon="10.505266"><ele>94</ele><time>2015-01-07T07:17:45.094Z</time></trkpt>
	<trkpt lat="52.247676" lon="10.505539"><ele>94</ele><time>2015-01-07T07:17:46.091Z</time></trkpt>
	<trkpt lat="52.247517" lon="10.505847"><ele>93</ele><time>2015-01-07T07:17:47.093Z</time></trkpt>
	<trkpt lat="52.247344" lon="10.506120"><ele>93</ele><time>2015-01-07T07:17:48.084Z</time></trkpt>
	<trkpt lat="52.247190" lon="10.506392"><ele>93</ele><time>2015-01-07T07:17:49.083Z</time></trkpt>
	<trkpt lat="52.247017" lon="10.506646"><ele>92</ele><time>2015-01-07T07:17:50.086Z</time></trkpt>
	<trkpt lat="52.246828" lon="10.506888"><ele>92</ele><time>2015-01-07T07:17:51.084Z</time></trkpt>
	<trkpt lat="52.246645" lon="10.507116"><ele>91</ele><time>2015-01-07T07:17:52.093Z</time></trkpt>
	<trkpt lat="52.246456" lon="10.507343"><ele>90</ele><time>2015-01-07T07:17:53.096Z</time></trkpt>
	<trkpt lat="52.246268" lon="10.507559"><ele>90</ele><time>2015-01-07T07:17:54.098Z</time></trkpt>
	<trkpt lat="52.246075" lon="10.507766"><ele>90</ele><time>2015-01-07T07:17:55.098Z</time></trkpt>
	<trkpt lat="52.245887" lon="10.507962"><ele>89</ele><time>2015-01-07T07:17:56.095Z</time></trkpt>
	<trkpt lat="52.245694" lon="10.508139"><ele>89</ele><time>2015-01-07T07:17:57.102Z</time></trkpt>
	<trkpt lat="52.245490" lon="10.508314"><ele>89</ele><time>2015-01-07T07:17:58.092Z</time></trkpt>
	<trkpt lat="52.245285" lon="10.508486"><ele>88</ele><time>2015-01-07T07:17:59.091Z</time></trkpt>
	<trkpt lat="52.245081" lon="10.508657"><ele>87</ele><time>2015-01-07T07:18:00.104Z</time></trkpt>
	<trkpt lat="52.244870" lon="10.508830"><ele>86</ele><time>2015-01-07T07:18:01.088Z</time></trkpt>
	<trkpt lat="52.244664" lon="10.509000"><ele>86</ele><time>2015-01-07T07:18:02.092Z</time></trkpt>
	<trkpt lat="52.244447" lon="10.509172"><ele>86</ele><time>2015-01-07T07:18:03.093Z</time></trkpt>
	<trkpt lat="52.244238" lon="10.509306"><ele>85</ele><time>2015-01-07T07:18:04.083Z</time></trkpt>
	<trkpt lat="52.244023" lon="10.509442"><ele>84</ele><time>2015-01-07T07:18:05.085Z</time></trkpt>
	<trkpt lat="52.243789" lon="10.509553"><ele>84</ele><time>2015-01-07T07:18:06.089Z</time></trkpt>
	<trkpt lat="52.243568" lon="10.509636"><ele>83</ele><time>2015-01-07T07:18:07.093Z</time></trkpt>
	<trkpt lat="52.243337" lon="10.509702"><ele>83</ele><time>2015-01-07T07:18:08.086Z</time></trkpt>
	<trkpt lat="52.243108" lon="10.509757"><ele>83</ele><time>2015-01-07T07:18:09.091Z</time></trkpt>
	<trkpt lat="52.242883" lon="10.509795"><ele>82</ele><time>2015-01-07T07:18:10.089Z</time></trkpt>
	<trkpt lat="52.242657" lon="10.509796"><ele>82</ele><time>2015-01-07T07:18:11.090Z</time></trkpt>
	<trkpt lat="52.242420" lon="10.509788"><ele>82</ele><time>2015-01-07T07:18:12.093Z</time></trkpt>
	<trkpt lat="52.242198" lon="10.509753"><ele>82</ele><time>2015-01-07T07:18:13.092Z</time></trkpt>
	<trkpt lat="52.241968" lon="10.509710"><ele>82</ele><time>2015-01-07T07:18:14.091Z</time></trkpt>
	<trkpt lat="52.241747" lon="10.509639"><ele>82</ele><time>2015-01-07T07:18:15.090Z</time></trkpt>
	<trkpt lat="52.241517" lon="10.509566"><ele>82</ele><time>2015-01-07T07:18:16.090Z</time></trkpt>
	<trkpt lat="52.241293" lon="10.509491"><ele>83</ele><time>2015-01-07T07:18:17.099Z</time></trkpt>
	<trkpt lat="52.241059" lon="10.509423"><ele>83</ele><time>2015-01-07T07:18:18.089Z</time></trkpt>
	<trkpt lat="52.240835" lon="10.509359"><ele>83</ele><time>2015-01-07T07:18:19.100Z</time></trkpt>
	<trkpt lat="52.240608" lon="10.509296"><ele>84</ele><time>2015-01-07T07:18:20.077Z</time></trkpt>
	<trkpt lat="52.240373" lon="10.509226"><ele>84</ele><time>2015-01-07T07:18:21.062Z</time></trkpt>
	<trkpt lat="52.240150" lon="10.509159"><ele>85</ele><time>2015-01-07T07:18:22.083Z</time></trkpt>
	<trkpt lat="52.239930" lon="10.509100"><ele>83</ele><time>2015-01-07T07:18:23.093Z</time></trkpt>
	<trkpt lat="52.239702" lon="10.509040"><ele>82</ele><time>2015-01-07T07:18:24.092Z</time></trkpt>
	<trkpt lat="52.239464" lon="10.508992"><ele>82</ele><time>2015-01-07T07:18:25.090Z</time></trkpt>
	<trkpt lat="52.239234" lon="10.508973"><ele>82</ele><time>2015-01-07T07:18:26.102Z</time></trkpt>
	<trkpt lat="52.239009" lon="10.508966"><ele>82</ele><time>2015-01-07T07:18:27.072Z</time></trkpt>
	<trkpt lat="52.238788" lon="10.508970"><ele>83</ele><time>2015-01-07T07:18:28.087Z</time></trkpt>
	<trkpt lat="52.238560" lon="10.508992"><ele>83</ele><time>2015-01-07T07:18:29.092Z</time></trkpt>
	<trkpt lat="52.238336" lon="10.509003"><ele>82</ele><time>2015-01-07T07:18:30.095Z</time></trkpt>
	<trkpt lat="52.238107" lon="10.509037"><ele>82</ele><time>2015-01-07T07:18:31.098Z</time></trkpt>
	<trkpt lat="52.237878" lon="10.509057"><ele>82</ele><time>2015-01-07T07:18:32.091Z</time></trkpt>
	<trkpt lat="52.237639" lon="10.509067"><ele>82</ele><time>2015-01-07T07:18:33.107Z</time></trkpt>
	<trkpt lat="52.237420" lon="10.509086"><ele>81</ele><time>2015-01-07T07:18:34.089Z</time></trkpt>
	<trkpt lat="52.237188" lon="10.509090"><ele>81</ele><time>2015-01-07T07:18:35.101Z</time></trkpt>
	<trkpt lat="52.236961" lon="10.509045"><ele>81</ele><time>2015-01-07T07:18:36.097Z</time></trkpt>
	<trkpt lat="52.236744" lon="10.508991"><ele>80</ele><time>2015-01-07T07:18:37.082Z</time></trkpt>
	<trkpt lat="52.236500" lon="10.508928"><ele>80</ele><time>2015-01-07T07:18:38.082Z</time></trkpt>
	<trkpt lat="52.236271" lon="10.508837"><ele>80</ele><time>2015-01-07T07:18:39.080Z</time></trkpt>
	<trkpt lat="52.236049" lon="10.508748"><ele>80</ele><time>2015-01-07T07:18:40.078Z</time></trkpt>
	<trkpt lat="52.235831" lon="10.508666"><ele>80</ele><time>2015-01-07T07:18:41.071Z</time></trkpt>
	<trkpt lat="52.235613" lon="10.508564"><ele>80</ele><time>2015-01-07T07:18:42.071Z</time></trkpt>
	<trkpt lat="52.235402" lon="10.508463"><ele>81</ele><time>2015-01-07T07:18:43.079Z</time></trkpt>
	<trkpt lat="52.235178" lon="10.508353"><ele>80</ele><time>2015-01-07T07:18:44.074Z</time></trkpt>
	<trkpt lat="52.234971" lon="10.508254"><ele>80</ele><time>2015-01-07T07:18:45.067Z</time></trkpt>
	<trkpt lat="52.234767" lon="10.508168"><ele>79</ele><time>2015-01-07T07:18:46.072Z</time></trkpt>
	<trkpt lat="52.234569" lon="10.508081"><ele>79</ele><time>2015-01-07T07:18:47.072Z</time></trkpt>
	<trkpt lat="52.234386" lon="10.507994"><ele>78</ele><time>2015-01-07T07:18:48.082Z</time></trkpt>
	<trkpt lat="52.234230" lon="10.507925"><ele>77</ele><time>2015-01-07T07:18:49.082Z</time></trkpt>
	<trkpt lat="52.234059" lon="10.507848"><ele>78</ele><time>2015-01-07T07:18:50.073Z</time></trkpt>
	<trkpt lat="52.233903" lon="10.507770"><ele>78</ele><time>2015-01-07T07:18:51.069Z</time></trkpt>
	<trkpt lat="52.233750" lon="10.507694"><ele>78</ele><time>2015-01-07T07:18:52.068Z</time></trkpt>
	<trkpt lat="52.233606" lon="10.507623"><ele>78</ele><time>2015-01-07T07:18:53.073Z</time></trkpt>
	<trkpt lat="52.233447" lon="10.507548"><ele>79</ele><time>2015-01-07T07:18:54.103Z</time></trkpt>
	<trkpt lat="52.233290" lon="10.507467"><ele>80</ele><time>2015-01-07T07:18:55.103Z</time></trkpt>
	<trkpt lat="52.233134" lon="10.507395"><ele>80</ele><time>2015-01-07T07:18:56.088Z</time></trkpt>
	<trkpt lat="52.232981" lon="10.507322"><ele>80</ele><time>2015-01-07T07:18:57.093Z</time></trkpt>
	<trkpt lat="52.232821" lon="10.507263"><ele>80</ele><time>2015-01-07T07:18:58.086Z</time></trkpt>
	<trkpt lat="52.232669" lon="10.507211"><ele>80</ele><time>2015-01-07T07:18:59.081Z</time></trkpt>
	<trkpt lat="52.232508" lon="10.507191"><ele>80</ele><time>2015-01-07T07:19:00.102Z</time></trkpt>
	<trkpt lat="52.232351" lon="10.507191"><ele>81</ele><time>2015-01-07T07:19:01.098Z</time></trkpt>
	<trkpt lat="52.232194" lon="10.507233"><ele>81</ele><time>2015-01-07T07:19:02.095Z</time></trkpt>
	<trkpt lat="52.232043" lon="10.507290"><ele>82</ele><time>2015-01-07T07:19:03.101Z</time></trkpt>
	<trkpt lat="52.231897" lon="10.507384"><ele>83</ele><time>2015-01-07T07:19:04.095Z</time></trkpt>
	<trkpt lat="52.231744" lon="10.507506"><ele>84</ele><time>2015-01-07T07:19:05.098Z</time></trkpt>
	<trkpt lat="52.231622" lon="10.507646"><ele>85</ele><time>2015-01-07T07:19:06.095Z</time></trkpt>
	<trkpt lat="52.231509" lon="10.507801"><ele>85</ele><time>2015-01-07T07:19:07.113Z</time></trkpt>
	<trkpt lat="52.231410" lon="10.507979"><ele>86</ele><time>2015-01-07T07:19:08.122Z</time></trkpt>
	<trkpt lat="52.231322" lon="10.508186"><ele>86</ele><time>2015-01-07T07:19:09.099Z</time></trkpt>
	<trkpt lat="52.231240" lon="10.508407"><ele>87</ele><time>2015-01-07T07:19:10.117Z</time></trkpt>
	<trkpt lat="52.231175" lon="10.508627"><ele>87</ele><time>2015-01-07T07:19:11.135Z</time></trkpt>
	<trkpt lat="52.231125" lon="10.508871"><ele>87</ele><time>2015-01-07T07:19:12.144Z</time></trkpt>
	<trkpt lat="52.231089" lon="10.509128"><ele>87</ele><time>2015-01-07T07:19:13.119Z</time></trkpt>
	<trkpt lat="52.231072" lon="10.509387"><ele>86</ele><time>2015-01-07T07:19:14.106Z</time></trkpt>
	<trkpt lat="52.231076" lon="10.509643"><ele>86</ele><time>2015-01-07T07:19:15.102Z</time></trkpt>
	<trkpt lat="52.231094" lon="10.509895"><ele>86</ele><time>2015-01-07T07:19:16.105Z</time></trkpt>
	<trkpt lat="52.231132" lon="10.510151"><ele>85</ele><time>2015-01-07T07:19:17.109Z</time></trkpt>
	<trkpt lat="52.231185" lon="10.510396"><ele>85</ele><time>2015-01-07T07:19:18.112Z</time></trkpt>
	<trkpt lat="52.231269" lon="10.510634"><ele>85</ele><time>2015-01-07T07:19:19.113Z</time></trkpt>
	<trkpt lat="52.231350" lon="10.510844"><ele>84</ele><time>2015-01-07T07:19:20.138Z</time></trkpt>
	<trkpt lat="52.231453" lon="10.511053"><ele>84</ele><time>2015-01-07T07:19:21.138Z</time></trkpt>
	<trkpt lat="52.231564" lon="10.511230"><ele>84</ele><time>2015-01-07T07:19:22.125Z</time></trkpt>
	<trkpt lat="52.231692" lon="10.511383"><ele>84</ele><time>2015-01-07T07:19:23.103Z</time></trkpt>
	<trkpt lat="52.231845" lon="10.511524"><ele>83</ele><time>2015-01-07T07:19:24.111Z</time></trkpt>
	<trkpt lat="52.231999" lon="10.511633"><ele>84</ele><time>2015-01-07T07:19:25.107Z</time></trkpt>
	<trkpt lat="52.232183" lon="10.511709"><ele>84</ele><time>2015-01-07T07:19:26.127Z</time></trkpt>
	<trkpt lat="52.232361" lon="10.511780"><ele>84</ele><time>2015-01-07T07:19:27.135Z</time></trkpt>
	<trkpt lat="52.232544" lon="10.511840"><ele>84</ele><time>2015-01-07T07:19:28.133Z</time></trkpt>
	<trkpt lat="52.232724" lon="10.511918"><ele>84</ele><time>2015-01-07T07:19:29.114Z</time></trkpt>
	<trkpt lat="52.232894" lon="10.512004"><ele>84</ele><time>2015-01-07T07:19:30.081Z</time></trkpt>
	<trkpt lat="52.233066" lon="10.512113"><ele>84</ele><time>2015-01-07T07:19:31.073Z</time></trkpt>
	<trkpt lat="52.233231" lon="10.512234"><ele>84</ele><time>2015-01-07T07:19:32.079Z</time></trkpt>
	<trkpt lat="52.233385" lon="10.512415"><ele>85</ele><time>2015-01-07T07:19:33.105Z</time></trkpt>
	<trkpt lat="52.233549" lon="10.512591"><ele>85</ele><time>2015-01-07T07:19:34.109Z</time></trkpt>
	<trkpt lat="52.233702" lon="10.512795"><ele>85</ele><time>2015-01-07T07:19:35.163Z</time></trkpt>
	<trkpt lat="52.233845" lon="10.513022"><ele>86</ele><time>2015-01-07T07:19:36.155Z</time></trkpt>
	<trkpt lat="52.233976" lon="10.513287"><ele>86</ele><time>2015-01-07T07:19:37.097Z</time></trkpt>
	<trkpt lat="52.234109" lon="10.513557"><ele>86</ele><time>2015-01-07T07:19:38.096Z</time></trkpt>
	<trkpt lat="52.234249" lon="10.513841"><ele>86</ele><time>2015-01-07T07:19:39.119Z</time></trkpt>
	<trkpt lat="52.234384" lon="10.514121"><ele>86</ele><time>2015-01-07T07:19:40.142Z</time></trkpt>
	<trkpt lat="52.234522" lon="10.514407"><ele>86</ele><time>2015-01-07T07:19:41.109Z</time></trkpt>
	<trkpt lat="52.234666" lon="10.514691"><ele>86</ele><time>2015-01-07T07:19:42.162Z</time></trkpt>
	<trkpt lat="52.234794" lon="10.515002"><ele>86</ele><time>2015-01-07T07:19:43.150Z</time></trkpt>
	<trkpt lat="52.234924" lon="10.515323"><ele>85</ele><time>2015-01-07T07:19:44.108Z</time></trkpt>
	<trkpt lat="52.235051" lon="10.515652"><ele>85</ele><time>2015-01-07T07:19:45.110Z</time></trkpt>
	<trkpt lat="52.235182" lon="10.515981"><ele>85</ele><time>2015-01-07T07:19:46.089Z</time></trkpt>
	<trkpt lat="52.235299" lon="10.516316"><ele>84</ele><time>2015-01-07T07:19:47.108Z</time></trkpt>
	<trkpt lat="52.235424" lon="10.516657"><ele>84</ele><time>2015-01-07T07:19:48.116Z</time></trkpt>
	<trkpt lat="52.235547" lon="10.517008"><ele>84</ele><time>2015-01-07T07:19:49.177Z</time></trkpt>
	<trkpt lat="52.235667" lon="10.517359"><ele>84</ele><time>2015-01-07T07:19:50.142Z</time></trkpt>
	<trkpt lat="52.235784" lon="10.517707"><ele>84</ele><time>2015-01-07T07:19:51.096Z</time></trkpt>
	<trkpt lat="52.235897" lon="10.518065"><ele>84</ele><time>2015-01-07T07:19:52.095Z</time></trkpt>
	<trkpt lat="52.236013" lon="10.518435"><ele>83</ele><time>2015-01-07T07:19:53.091Z</time></trkpt>
	<trkpt lat="52.236119" lon="10.518802"><ele>82</ele><time>2015-01-07T07:19:54.081Z</time></trkpt>
	<trkpt lat="52.236225" lon="10.519176"><ele>82</ele><time>2015-01-07T07:19:55.094Z</time></trkpt>
	<trkpt lat="52.236325" lon="10.519546"><ele>82</ele><time>2015-01-07T07:19:56.106Z</time></trkpt>
	<trkpt lat="52.236419" lon="10.519915"><ele>82</ele><time>2015-01-07T07:19:57.096Z</time></trkpt>
	<trkpt lat="52.236511" lon="10.520301"><ele>82</ele><time>2015-01-07T07:19:58.100Z</time></trkpt>
	<trkpt lat="52.236596" lon="10.520662"><ele>82</ele><time>2015-01-07T07:19:59.105Z</time></trkpt>
	<trkpt lat="52.236674" lon="10.521027"><ele>82</ele><time>2015-01-07T07:20:00.103Z</time></trkpt>
	<trkpt lat="52.236748" lon="10.521400"><ele>83</ele><time>2015-01-07T07:20:01.096Z</time></trkpt>
	<trkpt lat="52.236816" lon="10.521772"><ele>84</ele><time>2015-01-07T07:20:02.098Z</time></trkpt>
	<trkpt lat="52.236878" lon="10.522151"><ele>84</ele><time>2015-01-07T07:20:03.093Z</time></trkpt>
	<trkpt lat="52.236929" lon="10.522535"><ele>84</ele><time>2015-01-07T07:20:04.069Z</time></trkpt>
	<trkpt lat="52.236977" lon="10.522923"><ele>83</ele><time>2015-01-07T07:20:05.070Z</time></trkpt>
	<trkpt lat="52.237011" lon="10.523298"><ele>82</ele><time>2015-01-07T07:20:06.075Z</time></trkpt>
	<trkpt lat="52.237051" lon="10.523690"><ele>82</ele><time>2015-01-07T07:20:07.091Z</time></trkpt>
	<trkpt lat="52.237076" lon="10.524084"><ele>83</ele><time>2015-01-07T07:20:08.086Z</time></trkpt>
	<trkpt lat="52.237111" lon="10.524474"><ele>83</ele><time>2015-01-07T07:20:09.086Z</time></trkpt>
	<trkpt lat="52.237122" lon="10.524854"><ele>82</ele><time>2015-01-07T07:20:10.093Z</time></trkpt>
	<trkpt lat="52.237142" lon="10.525249"><ele>82</ele><time>2015-01-07T07:20:11.106Z</time></trkpt>
	<trkpt lat="52.237143" lon="10.525641"><ele>81</ele><time>2015-01-07T07:20:12.104Z</time></trkpt>
	<trkpt lat="52.237139" lon="10.526027"><ele>81</ele><time>2015-01-07T07:20:13.090Z</time></trkpt>
	<trkpt lat="52.237139" lon="10.526421"><ele>80</ele><time>2015-01-07T07:20:14.091Z</time></trkpt>
	<trkpt lat="52.237118" lon="10.526803"><ele>80</ele><time>2015-01-07T07:20:15.093Z</time></trkpt>
	<trkpt lat="52.237094" lon="10.527185"><ele>80</ele><time>2015-01-07T07:20:16.080Z</time></trkpt>
	<trkpt lat="52.237067" lon="10.527580"><ele>79</ele><time>2015-01-07T07:20:17.106Z</time></trkpt>
	<trkpt lat="52.237036" lon="10.527962"><ele>79</ele><time>2015-01-07T07:20:18.085Z</time></trkpt>
	<trkpt lat="52.237009" lon="10.528321"><ele>79</ele><time>2015-01-07T07:20:19.061Z</time></trkpt>
	<trkpt lat="52.236966" lon="10.528680"><ele>79</ele><time>2015-01-07T07:20:20.078Z</time></trkpt>
	<trkpt lat="52.236917" lon="10.529038"><ele>79</ele><time>2015-01-07T07:20:21.073Z</time></trkpt>
	<trkpt lat="52.236867" lon="10.529394"><ele>79</ele><time>2015-01-07T07:20:22.088Z</time></trkpt>
	<trkpt lat="52.236822" lon="10.529755"><ele>79</ele><time>2015-01-07T07:20:23.111Z</time></trkpt>
	<trkpt lat="52.236782" lon="10.530119"><ele>79</ele><time>2015-01-07T07:20:24.112Z</time></trkpt>
	<trkpt lat="52.236734" lon="10.530475"><ele>79</ele><time>2015-01-07T07:20:25.103Z</time></trkpt>
	<trkpt lat="52.236688" lon="10.530828"><ele>79</ele><time>2015-01-07T07:20:26.088Z</time></trkpt>
	<trkpt lat="52.236638" lon="10.531173"><ele>79</ele><time>2015-01-07T07:20:27.073Z</time></trkpt>
	<trkpt lat="52.236589" lon="10.531525"><ele>80</ele><time>2015-01-07T07:20:28.080Z</time></trkpt>
	<trkpt lat="52.236538" lon="10.531874"><ele>80</ele><time>2015-01-07T07:20:29.087Z</time></trkpt>
	<trkpt lat="52.236481" lon="10.532219"><ele>80</ele><time>2015-01-07T07:20:30.090Z</time></trkpt>
	<trkpt lat="52.236430" lon="10.532565"><ele>80</ele><time>2015-01-07T07:20:31.079Z</time></trkpt>
	<trkpt lat="52.236389" lon="10.532931"><ele>80</ele><time>2015-01-07T07:20:32.082Z</time></trkpt>
	<trkpt lat="52.236371" lon="10.533298"><ele>81</ele><time>2015-01-07T07:20:33.092Z</time></trkpt>
	<trkpt lat="52.236334" lon="10.533669"><ele>81</ele><time>2015-01-07T07:20:34.086Z</time></trkpt>
	<trkpt lat="52.236355" lon="10.534000"><ele>81</ele><time>2015-01-07T07:20:35.086Z</time></trkpt>
	<trkpt lat="52.236359" lon="10.534327"><ele>81</ele><time>2015-01-07T07:20:36.087Z</time></trkpt>
	<trkpt lat="52.236410" lon="10.534689"><ele>81</ele><time>2015-01-07T07:20:37.091Z</time></trkpt>
	<trkpt lat="52.236470" lon="10.535034"><ele>81</ele><time>2015-01-07T07:20:38.085Z</time></trkpt>
	<trkpt lat="52.236546" lon="10.535387"><ele>81</ele><time>2015-01-07T07:20:39.088Z</time></trkpt>
	<trkpt lat="52.236605" lon="10.535719"><ele>81</ele><time>2015-01-07T07:20:40.091Z</time></trkpt>
	<trkpt lat="52.236666" lon="10.536030"><ele>81</ele><time>2015-01-07T07:20:41.086Z</time></trkpt>
	<trkpt lat="52.236759" lon="10.536361"><ele>81</ele><time>2015-01-07T07:20:42.088Z</time></trkpt>
	<trkpt lat="52.236894" lon="10.536654"><ele>81</ele><time>2015-01-07T07:20:43.091Z</time></trkpt>
	<trkpt lat="52.237007" lon="10.537000"><ele>82</ele><time>2015-01-07T07:20:44.087Z</time></trkpt>
	<trkpt lat="52.237131" lon="10.537282"><ele>82</ele><time>2015-01-07T07:20:45.102Z</time></trkpt>
	<trkpt lat="52.237276" lon="10.537566"><ele>82</ele><time>2015-01-07T07:20:46.089Z</time></trkpt>
	<trkpt lat="52.237431" lon="10.537836"><ele>82</ele><time>2015-01-07T07:20:47.076Z</time></trkpt>
	<trkpt lat="52.237597" lon="10.538093"><ele>82</ele><time>2015-01-07T07:20:48.075Z</time></trkpt>
	<trkpt lat="52.237760" lon="10.538352"><ele>83</ele><time>2015-01-07T07:20:49.094Z</time></trkpt>
	<trkpt lat="52.237925" lon="10.538617"><ele>83</ele><time>2015-01-07T07:20:50.089Z</time></trkpt>
	<trkpt lat="52.238086" lon="10.538881"><ele>83</ele><time>2015-01-07T07:20:51.090Z</time></trkpt>
	<trkpt lat="52.238260" lon="10.539147"><ele>83</ele><time>2015-01-07T07:20:52.095Z</time></trkpt>
	<trkpt lat="52.238431" lon="10.539419"><ele>83</ele><time>2015-01-07T07:20:53.090Z</time></trkpt>
	<trkpt lat="52.238603" lon="10.539702"><ele>83</ele><time>2015-01-07T07:20:54.084Z</time></trkpt>
	<trkpt lat="52.238767" lon="10.539967"><ele>82</ele><time>2015-01-07T07:20:55.094Z</time></trkpt>
	<trkpt lat="52.238939" lon="10.540255"><ele>82</ele><time>2015-01-07T07:20:56.079Z</time></trkpt>
	<trkpt lat="52.239104" lon="10.540535"><ele>82</ele><time>2015-01-07T07:20:57.064Z</time></trkpt>
	<trkpt lat="52.239278" lon="10.540842"><ele>83</ele><time>2015-01-07T07:20:58.113Z</time></trkpt>
	<trkpt lat="52.239440" lon="10.541157"><ele>84</ele><time>2015-01-07T07:20:59.129Z</time></trkpt>
	<trkpt lat="52.239603" lon="10.541501"><ele>84</ele><time>2015-01-07T07:21:00.095Z</time></trkpt>
	<trkpt lat="52.239773" lon="10.541815"><ele>84</ele><time>2015-01-07T07:21:01.096Z</time></trkpt>
	<trkpt lat="52.239924" lon="10.542147"><ele>84</ele><time>2015-01-07T07:21:02.094Z</time></trkpt>
	<trkpt lat="52.240073" lon="10.542485"><ele>84</ele><time>2015-01-07T07:21:03.075Z</time></trkpt>
	<trkpt lat="52.240214" lon="10.542826"><ele>84</ele><time>2015-01-07T07:21:04.083Z</time></trkpt>
	<trkpt lat="52.240353" lon="10.543190"><ele>85</ele><time>2015-01-07T07:21:05.105Z</time></trkpt>
	<trkpt lat="52.240491" lon="10.543532"><ele>84</ele><time>2015-01-07T07:21:06.096Z</time></trkpt>
	<trkpt lat="52.240624" lon="10.543880"><ele>84</ele><time>2015-01-07T07:21:07.082Z</time></trkpt>
	<trkpt lat="52.240749" lon="10.544232"><ele>84</ele><time>2015-01-07T07:21:08.081Z</time></trkpt>
	<trkpt lat="52.240877" lon="10.544586"><ele>85</ele><time>2015-01-07T07:21:09.093Z</time></trkpt>
	<trkpt lat="52.240993" lon="10.544947"><ele>85</ele><time>2015-01-07T07:21:10.104Z</time></trkpt>
	<trkpt lat="52.241118" lon="10.545307"><ele>85</ele><time>2015-01-07T07:21:11.101Z</time></trkpt>
	<trkpt lat="52.241248" lon="10.545650"><ele>85</ele><time>2015-01-07T07:21:12.092Z</time></trkpt>
	<trkpt lat="52.241375" lon="10.545999"><ele>85</ele><time>2015-01-07T07:21:13.098Z</time></trkpt>
	<trkpt lat="52.241501" lon="10.546353"><ele>85</ele><time>2015-01-07T07:21:14.088Z</time></trkpt>
	<trkpt lat="52.241624" lon="10.546703"><ele>85</ele><time>2015-01-07T07:21:15.081Z</time></trkpt>
	<trkpt lat="52.241742" lon="10.547045"><ele>85</ele><time>2015-01-07T07:21:16.076Z</time></trkpt>
	<trkpt lat="52.241854" lon="10.547380"><ele>85</ele><time>2015-01-07T07:21:17.079Z</time></trkpt>
	<trkpt lat="52.241973" lon="10.547723"><ele>85</ele><time>2015-01-07T07:21:18.083Z</time></trkpt>
	<trkpt lat="52.242090" lon="10.548069"><ele>86</ele><time>2015-01-07T07:21:19.100Z</time></trkpt>
	<trkpt lat="52.242201" lon="10.548417"><ele>86</ele><time>2015-01-07T07:21:20.108Z</time></trkpt>
	<trkpt lat="52.242316" lon="10.548766"><ele>86</ele><time>2015-01-07T07:21:21.102Z</time></trkpt>
	<trkpt lat="52.242432" lon="10.549108"><ele>86</ele><time>2015-01-07T07:21:22.093Z</time></trkpt>
	<trkpt lat="52.242552" lon="10.549448"><ele>86</ele><time>2015-01-07T07:21:23.094Z</time></trkpt>
	<trkpt lat="52.242674" lon="10.549774"><ele>86</ele><time>2015-01-07T07:21:24.094Z</time></trkpt>
	<trkpt lat="52.242789" lon="10.550093"><ele>86</ele><time>2015-01-07T07:21:25.089Z</time></trkpt>
	<trkpt lat="52.242898" lon="10.550402"><ele>86</ele><time>2015-01-07T07:21:26.097Z</time></trkpt>
	<trkpt lat="52.243005" lon="10.550704"><ele>86</ele><time>2015-01-07T07:21:27.081Z</time></trkpt>
	<trkpt lat="52.243104" lon="10.551014"><ele>86</ele><time>2015-01-07T07:21:28.087Z</time></trkpt>
	<trkpt lat="52.243210" lon="10.551320"><ele>85</ele><time>2015-01-07T07:21:29.097Z</time></trkpt>
	<trkpt lat="52.243310" lon="10.551609"><ele>85</ele><time>2015-01-07T07:21:30.094Z</time></trkpt>
	<trkpt lat="52.243408" lon="10.551894"><ele>85</ele><time>2015-01-07T07:21:31.094Z</time></trkpt>
	<trkpt lat="52.243505" lon="10.552176"><ele>86</ele><time>2015-01-07T07:21:32.077Z</time></trkpt>
	<trkpt lat="52.243602" lon="10.552455"><ele>86</ele><time>2015-01-07T07:21:33.066Z</time></trkpt>
	<trkpt lat="52.243703" lon="10.552739"><ele>86</ele><time>2015-01-07T07:21:34.076Z</time></trkpt>
	<trkpt lat="52.243805" lon="10.553019"><ele>86</ele><time>2015-01-07T07:21:35.090Z</time></trkpt>
	<trkpt lat="52.243905" lon="10.553314"><ele>86</ele><time>2015-01-07T07:21:36.097Z</time></trkpt>
	<trkpt lat="52.244009" lon="10.553594"><ele>86</ele><time>2015-01-07T07:21:37.095Z</time></trkpt>
	<trkpt lat="52.244108" lon="10.553892"><ele>87</ele><time>2015-01-07T07:21:38.093Z</time></trkpt>
	<trkpt lat="52.244217" lon="10.554184"><ele>86</ele><time>2015-01-07T07:21:39.079Z</time></trkpt>
	<trkpt lat="52.244319" lon="10.554464"><ele>86</ele><time>2015-01-07T07:21:40.078Z</time></trkpt>
	<trkpt lat="52.244421" lon="10.554734"><ele>86</ele><time>2015-01-07T07:21:41.071Z</time></trkpt>
	<trkpt lat="52.244522" lon="10.555011"><ele>86</ele><time>2015-01-07T07:21:42.109Z</time></trkpt>
	<trkpt lat="52.244620" lon="10.555289"><ele>86</ele><time>2015-01-07T07:21:43.121Z</time></trkpt>
	<trkpt lat="52.244721" lon="10.555572"><ele>87</ele><time>2015-01-07T07:21:44.099Z</time></trkpt>
	<trkpt lat="52.244818" lon="10.555852"><ele>86</ele><time>2015-01-07T07:21:45.087Z</time></trkpt>
	<trkpt lat="52.244920" lon="10.556137"><ele>86</ele><time>2015-01-07T07:21:46.097Z</time></trkpt>
	<trkpt lat="52.245022" lon="10.556423"><ele>86</ele><time>2015-01-07T07:21:47.096Z</time></trkpt>
	<trkpt lat="52.245124" lon="10.556706"><ele>86</ele><time>2015-01-07T07:21:48.115Z</time></trkpt>
	<trkpt lat="52.245226" lon="10.556992"><ele>86</ele><time>2015-01-07T07:21:49.066Z</time></trkpt>
	<trkpt lat="52.245326" lon="10.557293"><ele>86</ele><time>2015-01-07T07:21:50.054Z</time></trkpt>
	<trkpt lat="52.245425" lon="10.557587"><ele>86</ele><time>2015-01-07T07:21:51.053Z</time></trkpt>
	<trkpt lat="52.245530" lon="10.557890"><ele>86</ele><time>2015-01-07T07:21:52.054Z</time></trkpt>
	<trkpt lat="52.245637" lon="10.558210"><ele>86</ele><time>2015-01-07T07:21:53.056Z</time></trkpt>
	<trkpt lat="52.245750" lon="10.558515"><ele>85</ele><time>2015-01-07T07:21:54.065Z</time></trkpt>
	<trkpt lat="52.245850" lon="10.558803"><ele>86</ele><time>2015-01-07T07:21:55.066Z</time></trkpt>
	<trkpt lat="52.245950" lon="10.559114"><ele>85</ele><time>2015-01-07T07:21:56.060Z</time></trkpt>
	<trkpt lat="52.246048" lon="10.559414"><ele>85</ele><time>2015-01-07T07:21:57.052Z</time></trkpt>
	<trkpt lat="52.246142" lon="10.559703"><ele>85</ele><time>2015-01-07T07:21:58.057Z</time></trkpt>
	<trkpt lat="52.246247" lon="10.559997"><ele>85</ele><time>2015-01-07T07:21:59.062Z</time></trkpt>
	<trkpt lat="52.246364" lon="10.560266"><ele>85</ele><time>2015-01-07T07:22:00.056Z</time></trkpt>
	<trkpt lat="52.246487" lon="10.560555"><ele>86</ele><time>2015-01-07T07:22:01.054Z</time></trkpt>
	<trkpt lat="52.246589" lon="10.560843"><ele>86</ele><time>2015-01-07T07:22:02.062Z</time></trkpt>
	<trkpt lat="52.246708" lon="10.561143"><ele>86</ele><time>2015-01-07T07:22:03.090Z</time></trkpt>
	<trkpt lat="52.246845" lon="10.561391"><ele>86</ele><time>2015-01-07T07:22:04.080Z</time></trkpt>
	<trkpt lat="52.246961" lon="10.561681"><ele>86</ele><time>2015-01-07T07:22:05.081Z</time></trkpt>
	<trkpt lat="52.247094" lon="10.561933"><ele>86</ele><time>2015-01-07T07:22:06.099Z</time></trkpt>
	<trkpt lat="52.247228" lon="10.562205"><ele>86</ele><time>2015-01-07T07:22:07.095Z</time></trkpt>
	<trkpt lat="52.247369" lon="10.562455"><ele>86</ele><time>2015-01-07T07:22:08.108Z</time></trkpt>
	<trkpt lat="52.247504" lon="10.562713"><ele>86</ele><time>2015-01-07T07:22:09.096Z</time></trkpt>
	<trkpt lat="52.247645" lon="10.562979"><ele>86</ele><time>2015-01-07T07:22:10.117Z</time></trkpt>
	<trkpt lat="52.247782" lon="10.563234"><ele>87</ele><time>2015-01-07T07:22:11.110Z</time></trkpt>
	<trkpt lat="52.247918" lon="10.563461"><ele>87</ele><time>2015-01-07T07:22:12.096Z</time></trkpt>
	<trkpt lat="52.248056" lon="10.563707"><ele>87</ele><time>2015-01-07T07:22:13.093Z</time></trkpt>
	<trkpt lat="52.248187" lon="10.563928"><ele>87</ele><time>2015-01-07T07:22:14.096Z</time></trkpt>
	<trkpt lat="52.248318" lon="10.564150"><ele>87</ele><time>2015-01-07T07:22:15.085Z</time></trkpt>
	<trkpt lat="52.248470" lon="10.564379"><ele>87</ele><time>2015-01-07T07:22:16.082Z</time></trkpt>
	<trkpt lat="52.248563" lon="10.564589"><ele>86</ele><time>2015-01-07T07:22:17.080Z</time></trkpt>
	<trkpt lat="52.248675" lon="10.564833"><ele>87</ele><time>2015-01-07T07:22:18.088Z</time></trkpt>
	<trkpt lat="52.248830" lon="10.565064"><ele>87</ele><time>2015-01-07T07:22:19.088Z</time></trkpt>
	<trkpt lat="52.248995" lon="10.565318"><ele>87</ele><time>2015-01-07T07:22:20.091Z</time></trkpt>
	<trkpt lat="52.249117" lon="10.565506"><ele>87</ele><time>2015-01-07T07:22:21.085Z</time></trkpt>
	<trkpt lat="52.249241" lon="10.565708"><ele>86</ele><time>2015-01-07T07:22:22.085Z</time></trkpt>
	<trkpt lat="52.249351" lon="10.565915"><ele>87</ele><time>2015-01-07T07:22:23.086Z</time></trkpt>
	<trkpt lat="52.249458" lon="10.566133"><ele>87</ele><time>2015-01-07T07:22:24.083Z</time></trkpt>
	<trkpt lat="52.249557" lon="10.566344"><ele>87</ele><time>2015-01-07T07:22:25.082Z</time></trkpt>
	<trkpt lat="52.249648" lon="10.566545"><ele>87</ele><time>2015-01-07T07:22:26.079Z</time></trkpt>
	<trkpt lat="52.249742" lon="10.566759"><ele>87</ele><time>2015-01-07T07:22:27.078Z</time></trkpt>
	<trkpt lat="52.249826" lon="10.566949"><ele>87</ele><time>2015-01-07T07:22:28.081Z</time></trkpt>
	<trkpt lat="52.249903" lon="10.567142"><ele>87</ele><time>2015-01-07T07:22:29.075Z</time></trkpt>
	<trkpt lat="52.249979" lon="10.567342"><ele>87</ele><time>2015-01-07T07:22:30.075Z</time></trkpt>
	<trkpt lat="52.250040" lon="10.567549"><ele>87</ele><time>2015-01-07T07:22:31.074Z</time></trkpt>
	<trkpt lat="52.250088" lon="10.567760"><ele>87</ele><time>2015-01-07T07:22:32.079Z</time></trkpt>
	<trkpt lat="52.250124" lon="10.567972"><ele>86</ele><time>2015-01-07T07:22:33.077Z</time></trkpt>
	<trkpt lat="52.250143" lon="10.568200"><ele>87</ele><time>2015-01-07T07:22:34.077Z</time></trkpt>
	<trkpt lat="52.250140" lon="10.568432"><ele>87</ele><time>2015-01-07T07:22:35.073Z</time></trkpt>
	<trkpt lat="52.250116" lon="10.568681"><ele>87</ele><time>2015-01-07T07:22:36.078Z</time></trkpt>
	<trkpt lat="52.250079" lon="10.568910"><ele>88</ele><time>2015-01-07T07:22:37.118Z</time></trkpt>
	<trkpt lat="52.250032" lon="10.569142"><ele>89</ele><time>2015-01-07T07:22:38.124Z</time></trkpt>
	<trkpt lat="52.249990" lon="10.569359"><ele>89</ele><time>2015-01-07T07:22:39.121Z</time></trkpt>
	<trkpt lat="52.249952" lon="10.569581"><ele>89</ele><time>2015-01-07T07:22:40.120Z</time></trkpt>
	<trkpt lat="52.249937" lon="10.569808"><ele>89</ele><time>2015-01-07T07:22:41.116Z</time></trkpt>
	<trkpt lat="52.249921" lon="10.570010"><ele>89</ele><time>2015-01-07T07:22:42.142Z</time></trkpt>
	<trkpt lat="52.249921" lon="10.570198"><ele>90</ele><time>2015-01-07T07:22:43.144Z</time></trkpt>
	<trkpt lat="52.249912" lon="10.570358"><ele>90</ele><time>2015-01-07T07:22:44.092Z</time></trkpt>
	<trkpt lat="52.249907" lon="10.570499"><ele>90</ele><time>2015-01-07T07:22:45.111Z</time></trkpt>
	<trkpt lat="52.249906" lon="10.570595"><ele>89</ele><time>2015-01-07T07:22:46.086Z</time></trkpt>
	<trkpt lat="52.249907" lon="10.570656"><ele>89</ele><time>2015-01-07T07:22:47.133Z</time></trkpt>
	<trkpt lat="52.249906" lon="10.570718"><ele>89</ele><time>2015-01-07T07:22:48.108Z</time></trkpt>
	<trkpt lat="52.249910" lon="10.570741"><ele>90</ele><time>2015-01-07T07:22:49.092Z</time></trkpt>
	<trkpt lat="52.249914" lon="10.570760"><ele>90</ele><time>2015-01-07T07:22:50.108Z</time></trkpt>
	<trkpt lat="52.249916" lon="10.570779"><ele>90</ele><time>2015-01-07T07:22:51.119Z</time></trkpt>
	<trkpt lat="52.249914" lon="10.570805"><ele>90</ele><time>2015-01-07T07:22:52.119Z</time></trkpt>
	<trkpt lat="52.249908" lon="10.570836"><ele>90</ele><time>2015-01-07T07:22:53.089Z</time></trkpt>
	<trkpt lat="52.249896" lon="10.570876"><ele>90</ele><time>2015-01-07T07:22:54.114Z</time></trkpt>
	<trkpt lat="52.249896" lon="10.570900"><ele>90</ele><time>2015-01-07T07:22:55.127Z</time></trkpt>
	<trkpt lat="52.249893" lon="10.570916"><ele>90</ele><time>2015-01-07T07:22:56.113Z</time></trkpt>
	<trkpt lat="52.249888" lon="10.570934"><ele>90</ele><time>2015-01-07T07:22:57.122Z</time></trkpt>
	<trkpt lat="52.249875" lon="10.570964"><ele>90</ele><time>2015-01-07T07:22:58.095Z</time></trkpt>
	<trkpt lat="52.249864" lon="10.570979"><ele>90</ele><time>2015-01-07T07:22:59.142Z</time></trkpt>
	<trkpt lat="52.249792" lon="10.571021"><ele>90</ele><time>2015-01-07T07:23:00.104Z</time></trkpt>
	<trkpt lat="52.249733" lon="10.571032"><ele>90</ele><time>2015-01-07T07:23:01.099Z</time></trkpt>
	<trkpt lat="52.249663" lon="10.571030"><ele>91</ele><time>2015-01-07T07:23:02.097Z</time></trkpt>
	<trkpt lat="52.249582" lon="10.571018"><ele>92</ele><time>2015-01-07T07:23:03.114Z</time></trkpt>
	<trkpt lat="52.249489" lon="10.571034"><ele>92</ele><time>2015-01-07T07:23:04.144Z</time></trkpt>
	<trkpt lat="52.249381" lon="10.571043"><ele>92</ele><time>2015-01-07T07:23:05.139Z</time></trkpt>
	<trkpt lat="52.249267" lon="10.571050"><ele>92</ele><time>2015-01-07T07:23:06.136Z</time></trkpt>
	<trkpt lat="52.249144" lon="10.571059"><ele>92</ele><time>2015-01-07T07:23:07.158Z</time></trkpt>
	<trkpt lat="52.249001" lon="10.571064"><ele>93</ele><time>2015-01-07T07:23:08.127Z</time></trkpt>
	<trkpt lat="52.248859" lon="10.571064"><ele>93</ele><time>2015-01-07T07:23:09.108Z</time></trkpt>
	<trkpt lat="52.248721" lon="10.571064"><ele>93</ele><time>2015-01-07T07:23:10.119Z</time></trkpt>
	<trkpt lat="52.248573" lon="10.571071"><ele>93</ele><time>2015-01-07T07:23:11.149Z</time></trkpt>
	<trkpt lat="52.248422" lon="10.571062"><ele>93</ele><time>2015-01-07T07:23:12.156Z</time></trkpt>
	<trkpt lat="52.248279" lon="10.571063"><ele>93</ele><time>2015-01-07T07:23:13.153Z</time></trkpt>
	<trkpt lat="52.248142" lon="10.571056"><ele>93</ele><time>2015-01-07T07:23:14.125Z</time></trkpt>
	<trkpt lat="52.247999" lon="10.571049"><ele>93</ele><time>2015-01-07T07:23:15.089Z</time></trkpt>
	<trkpt lat="52.247857" lon="10.571051"><ele>93</ele><time>2015-01-07T07:23:16.125Z</time></trkpt>
	<trkpt lat="52.247730" lon="10.571049"><ele>93</ele><time>2015-01-07T07:23:17.131Z</time></trkpt>
	<trkpt lat="52.247607" lon="10.571053"><ele>93</ele><time>2015-01-07T07:23:18.099Z</time></trkpt>
	<trkpt lat="52.247497" lon="10.571052"><ele>93</ele><time>2015-01-07T07:23:19.080Z</time></trkpt>
	<trkpt lat="52.247398" lon="10.571057"><ele>93</ele><time>2015-01-07T07:23:20.075Z</time></trkpt>
	<trkpt lat="52.247314" lon="10.571053"><ele>92</ele><time>2015-01-07T07:23:21.090Z</time></trkpt>
	<trkpt lat="52.247244" lon="10.571043"><ele>92</ele><time>2015-01-07T07:23:22.105Z</time></trkpt>
	<trkpt lat="52.247193" lon="10.571014"><ele>92</ele><time>2015-01-07T07:23:23.105Z</time></trkpt>
	<trkpt lat="52.247161" lon="10.570995"><ele>92</ele><time>2015-01-07T07:23:24.100Z</time></trkpt>
	<trkpt lat="52.247104" lon="10.570872"><ele>92</ele><time>2015-01-07T07:23:25.113Z</time></trkpt>
	<trkpt lat="52.247084" lon="10.570837"><ele>92</ele><time>2015-01-07T07:23:26.102Z</time></trkpt>
	<trkpt lat="52.247085" lon="10.570688"><ele>92</ele><time>2015-01-07T07:23:27.102Z</time></trkpt>
	<trkpt lat="52.247075" lon="10.570681"><ele>93</ele><time>2015-01-07T07:23:28.084Z</time></trkpt>
	<trkpt lat="52.247137" lon="10.570439"><ele>93</ele><time>2015-01-07T07:23:29.084Z</time></trkpt>
	<trkpt lat="52.247186" lon="10.570302"><ele>94</ele><time>2015-01-07T07:23:30.095Z</time></trkpt>
	<trkpt lat="52.247246" lon="10.570160"><ele>94</ele><time>2015-01-07T07:23:31.153Z</time></trkpt>
	<trkpt lat="52.247309" lon="10.570025"><ele>93</ele><time>2015-01-07T07:23:32.163Z</time></trkpt>
	<trkpt lat="52.247356" lon="10.569873"><ele>94</ele><time>2015-01-07T07:23:33.178Z</time></trkpt>
	<trkpt lat="52.247419" lon="10.569695"><ele>94</ele><time>2015-01-07T07:23:34.142Z</time></trkpt>
	<trkpt lat="52.247484" lon="10.569522"><ele>94</ele><time>2015-01-07T07:23:35.132Z</time></trkpt>
	<trkpt lat="52.247546" lon="10.569338"><ele>94</ele><time>2015-01-07T07:23:36.124Z</time></trkpt>
	<trkpt lat="52.247608" lon="10.569162"><ele>94</ele><time>2015-01-07T07:23:37.116Z</time></trkpt>
	<trkpt lat="52.247673" lon="10.569000"><ele>95</ele><time>2015-01-07T07:23:38.140Z</time></trkpt>
	<trkpt lat="52.247741" lon="10.568827"><ele>94</ele><time>2015-01-07T07:23:39.154Z</time></trkpt>
	<trkpt lat="52.247802" lon="10.568630"><ele>94</ele><time>2015-01-07T07:23:40.107Z</time></trkpt>
	<trkpt lat="52.247868" lon="10.568448"><ele>94</ele><time>2015-01-07T07:23:41.126Z</time></trkpt>
	<trkpt lat="52.247937" lon="10.568275"><ele>94</ele><time>2015-01-07T07:23:42.160Z</time></trkpt>
	<trkpt lat="52.248003" lon="10.568085"><ele>94</ele><time>2015-01-07T07:23:43.097Z</time></trkpt>
	<trkpt lat="52.248084" lon="10.567910"><ele>94</ele><time>2015-01-07T07:23:44.130Z</time></trkpt>
	<trkpt lat="52.248146" lon="10.567719"><ele>93</ele><time>2015-01-07T07:23:45.121Z</time></trkpt>
	<trkpt lat="52.248205" lon="10.567545"><ele>93</ele><time>2015-01-07T07:23:46.107Z</time></trkpt>
	<trkpt lat="52.248267" lon="10.567355"><ele>93</ele><time>2015-01-07T07:23:47.076Z</time></trkpt>
	<trkpt lat="52.248328" lon="10.567179"><ele>93</ele><time>2015-01-07T07:23:48.079Z</time></trkpt>
	<trkpt lat="52.248385" lon="10.567000"><ele>92</ele><time>2015-01-07T07:23:49.076Z</time></trkpt>
	<trkpt lat="52.248444" lon="10.566838"><ele>92</ele><time>2015-01-07T07:23:50.073Z</time></trkpt>
	<trkpt lat="52.248494" lon="10.566684"><ele>92</ele><time>2015-01-07T07:23:51.067Z</time></trkpt>
	<trkpt lat="52.248533" lon="10.566560"><ele>91</ele><time>2015-01-07T07:23:52.071Z</time></trkpt>
	<trkpt lat="52.248576" lon="10.566438"><ele>91</ele><time>2015-01-07T07:23:53.077Z</time></trkpt>
	<trkpt lat="52.248593" lon="10.566333"><ele>91</ele><time>2015-01-07T07:23:54.080Z</time></trkpt>
	<trkpt lat="52.248621" lon="10.566184"><ele>90</ele><time>2015-01-07T07:23:55.092Z</time></trkpt>
	<trkpt lat="52.248601" lon="10.566186"><ele>90</ele><time>2015-01-07T07:23:56.093Z</time></trkpt>
	<trkpt lat="52.248556" lon="10.566053"><ele>91</ele><time>2015-01-07T07:23:57.105Z</time></trkpt>
	<trkpt lat="52.248491" lon="10.565962"><ele>90</ele><time>2015-01-07T07:23:58.110Z</time></trkpt>
	<trkpt lat="52.248437" lon="10.565918"><ele>90</ele><time>2015-01-07T07:23:59.086Z</time></trkpt>
	<trkpt lat="52.248335" lon="10.565901"><ele>91</ele><time>2015-01-07T07:24:00.117Z</time></trkpt>
	<trkpt lat="52.248243" lon="10.565895"><ele>91</ele><time>2015-01-07T07:24:01.112Z</time></trkpt>
	<trkpt lat="52.248137" lon="10.565884"><ele>91</ele><time>2015-01-07T07:24:02.134Z</time></trkpt>
	<trkpt lat="52.248034" lon="10.565874"><ele>90</ele><time>2015-01-07T07:24:03.144Z</time></trkpt>
	<trkpt lat="52.247933" lon="10.565867"><ele>91</ele><time>2015-01-07T07:24:04.153Z</time></trkpt>
	<trkpt lat="52.247831" lon="10.565872"><ele>91</ele><time>2015-01-07T07:24:05.124Z</time></trkpt>
	<trkpt lat="52.247733" lon="10.565888"><ele>91</ele><time>2015-01-07T07:24:06.118Z</time></trkpt>
	<trkpt lat="52.247625" lon="10.565906"><ele>91</ele><time>2015-01-07T07:24:07.137Z</time></trkpt>
	<trkpt lat="52.247520" lon="10.565929"><ele>91</ele><time>2015-01-07T07:24:08.134Z</time></trkpt>
	<trkpt lat="52.247401" lon="10.565937"><ele>91</ele><time>2015-01-07T07:24:09.114Z</time></trkpt>
	<trkpt lat="52.247279" lon="10.565953"><ele>91</ele><time>2015-01-07T07:24:10.124Z</time></trkpt>
	<trkpt lat="52.247175" lon="10.565957"><ele>91</ele><time>2015-01-07T07:24:11.157Z</time></trkpt>
	<trkpt lat="52.247041" lon="10.565943"><ele>91</ele><time>2015-01-07T07:24:12.126Z</time></trkpt>
	<trkpt lat="52.246929" lon="10.565957"><ele>91</ele><time>2015-01-07T07:24:13.089Z</time></trkpt>
	<trkpt lat="52.246833" lon="10.565960"><ele>91</ele><time>2015-01-07T07:24:14.105Z</time></trkpt>
	<trkpt lat="52.246708" lon="10.565966"><ele>91</ele><time>2015-01-07T07:24:15.088Z</time></trkpt>
	<trkpt lat="52.246589" lon="10.565973"><ele>91</ele><time>2015-01-07T07:24:16.079Z</time></trkpt>
	<trkpt lat="52.246497" lon="10.565975"><ele>91</ele><time>2015-01-07T07:24:17.078Z</time></trkpt>
	<trkpt lat="52.246408" lon="10.565974"><ele>91</ele><time>2015-01-07T07:24:18.076Z</time></trkpt>
	<trkpt lat="52.246300" lon="10.565983"><ele>91</ele><time>2015-01-07T07:24:19.070Z</time></trkpt>
	<trkpt lat="52.246182" lon="10.565986"><ele>91</ele><time>2015-01-07T07:24:20.078Z</time></trkpt>
	<trkpt lat="52.246079" lon="10.566005"><ele>92</ele><time>2015-01-07T07:24:21.074Z</time></trkpt>
	<trkpt lat="52.245961" lon="10.566021"><ele>92</ele><time>2015-01-07T07:24:22.072Z</time></trkpt>
	<trkpt lat="52.245829" lon="10.566022"><ele>92</ele><time>2015-01-07T07:24:23.089Z</time></trkpt>
	<trkpt lat="52.245715" lon="10.566020"><ele>92</ele><time>2015-01-07T07:24:24.088Z</time></trkpt>
	<trkpt lat="52.245632" lon="10.566003"><ele>92</ele><time>2015-01-07T07:24:25.082Z</time></trkpt>
	<trkpt lat="52.245496" lon="10.565984"><ele>92</ele><time>2015-01-07T07:24:26.078Z</time></trkpt>
	<trkpt lat="52.245388" lon="10.565993"><ele>93</ele><time>2015-01-07T07:24:27.107Z</time></trkpt>
	<trkpt lat="52.245258" lon="10.565997"><ele>93</ele><time>2015-01-07T07:24:28.112Z</time></trkpt>
	<trkpt lat="52.245155" lon="10.565982"><ele>93</ele><time>2015-01-07T07:24:29.150Z</time></trkpt>
	<trkpt lat="52.245020" lon="10.565992"><ele>94</ele><time>2015-01-07T07:24:30.152Z</time></trkpt>
	<trkpt lat="52.244895" lon="10.565993"><ele>94</ele><time>2015-01-07T07:24:31.136Z</time></trkpt>
	<trkpt lat="52.244772" lon="10.565997"><ele>94</ele><time>2015-01-07T07:24:32.142Z</time></trkpt>
	<trkpt lat="52.244648" lon="10.565992"><ele>94</ele><time>2015-01-07T07:24:33.131Z</time></trkpt>
	<trkpt lat="52.244568" lon="10.565975"><ele>95</ele><time>2015-01-07T07:24:34.139Z</time></trkpt>
	<trkpt lat="52.244417" lon="10.565979"><ele>95</ele><time>2015-01-07T07:24:35.132Z</time></trkpt>
	<trkpt lat="52.244284" lon="10.565988"><ele>95</ele><time>2015-01-07T07:24:36.115Z</time></trkpt>
	<trkpt lat="52.244135" lon="10.565976"><ele>95</ele><time>2015-01-07T07:24:37.147Z</time></trkpt>
	<trkpt lat="52.243992" lon="10.565989"><ele>95</ele><time>2015-01-07T07:24:38.133Z</time></trkpt>
	<trkpt lat="52.243857" lon="10.565989"><ele>95</ele><time>2015-01-07T07:24:39.079Z</time></trkpt>
	<trkpt lat="52.243724" lon="10.566004"><ele>96</ele><time>2015-01-07T07:24:40.090Z</time></trkpt>
	<trkpt lat="52.243620" lon="10.566011"><ele>96</ele><time>2015-01-07T07:24:41.095Z</time></trkpt>
	<trkpt lat="52.243497" lon="10.566019"><ele>96</ele><time>2015-01-07T07:24:42.094Z</time></trkpt>
	<trkpt lat="52.243388" lon="10.566036"><ele>96</ele><time>2015-01-07T07:24:43.078Z</time></trkpt>
	<trkpt lat="52.243280" lon="10.566040"><ele>95</ele><time>2015-01-07T07:24:44.079Z</time></trkpt>
	<trkpt lat="52.243185" lon="10.566057"><ele>95</ele><time>2015-01-07T07:24:45.067Z</time></trkpt>
	<trkpt lat="52.243096" lon="10.566053"><ele>95</ele><time>2015-01-07T07:24:46.068Z</time></trkpt>
	<trkpt lat="52.243022" lon="10.566048"><ele>95</ele><time>2015-01-07T07:24:47.064Z</time></trkpt>
	<trkpt lat="52.242986" lon="10.566051"><ele>95</ele><time>2015-01-07T07:24:48.061Z</time></trkpt>
	<trkpt lat="52.242985" lon="10.566055"><ele>95</ele><time>2015-01-07T07:24:49.061Z</time></trkpt>
	<trkpt lat="52.242925" lon="10.565930"><ele>95</ele><time>2015-01-07T07:24:50.063Z</time></trkpt>
	<trkpt lat="52.242918" lon="10.565958"><ele>95</ele><time>2015-01-07T07:24:51.064Z</time></trkpt>
	<trkpt lat="52.242931" lon="10.566016"><ele>96</ele><time>2015-01-07T07:24:52.060Z</time></trkpt>
	<trkpt lat="52.242929" lon="10.566016"><ele>96</ele><time>2015-01-07T07:24:53.064Z</time></trkpt>
	<trkpt lat="52.242795" lon="10.565688"><ele>96</ele><time>2015-01-07T07:24:54.068Z</time></trkpt>
	<trkpt lat="52.242790" lon="10.565579"><ele>96</ele><time>2015-01-07T07:24:55.069Z</time></trkpt>
	<trkpt lat="52.242786" lon="10.565460"><ele>96</ele><time>2015-01-07T07:24:56.069Z</time></trkpt>
	<trkpt lat="52.242785" lon="10.565434"><ele>96</ele><time>2015-01-07T07:24:57.080Z</time></trkpt>
	<trkpt lat="52.242777" lon="10.565189"><ele>96</ele><time>2015-01-07T07:24:58.091Z</time></trkpt>
	<trkpt lat="52.242773" lon="10.565047"><ele>97</ele><time>2015-01-07T07:24:59.091Z</time></trkpt>
	<trkpt lat="52.242769" lon="10.564913"><ele>97</ele><time>2015-01-07T07:25:00.090Z</time></trkpt>
	<trkpt lat="52.242766" lon="10.564782"><ele>96</ele><time>2015-01-07T07:25:01.093Z</time></trkpt>
	<trkpt lat="52.242762" lon="10.564663"><ele>96</ele><time>2015-01-07T07:25:02.092Z</time></trkpt>
	<trkpt lat="52.242759" lon="10.564552"><ele>96</ele><time>2015-01-07T07:25:03.116Z</time></trkpt>
	<trkpt lat="52.242756" lon="10.564454"><ele>96</ele><time>2015-01-07T07:25:04.106Z</time></trkpt>
	<trkpt lat="52.242756" lon="10.564447"><ele>96</ele><time>2015-01-07T07:25:06.094Z</time></trkpt>
	<trkpt lat="52.242745" lon="10.564190"><ele>96</ele><time>2015-01-07T07:25:07.105Z</time></trkpt>
	<trkpt lat="52.242741" lon="10.564090"><ele>96</ele><time>2015-01-07T07:25:08.115Z</time></trkpt>
	<trkpt lat="52.242736" lon="10.563965"><ele>96</ele><time>2015-01-07T07:25:09.105Z</time></trkpt>
	<trkpt lat="52.242731" lon="10.563860"><ele>97</ele><time>2015-01-07T07:25:10.089Z</time></trkpt>
	<trkpt lat="52.242732" lon="10.563866"><ele>97</ele><time>2015-01-07T07:25:11.114Z</time></trkpt>
	<trkpt lat="52.242723" lon="10.563624"><ele>96</ele><time>2015-01-07T07:25:12.092Z</time></trkpt>
	<trkpt lat="52.242720" lon="10.563550"><ele>96</ele><time>2015-01-07T07:25:13.086Z</time></trkpt>
	<trkpt lat="52.242719" lon="10.563487"><ele>96</ele><time>2015-01-07T07:25:14.095Z</time></trkpt>
	<trkpt lat="52.242728" lon="10.563470"><ele>96</ele><time>2015-01-07T07:25:15.094Z</time></trkpt>
	<trkpt lat="52.242811" lon="10.563453"><ele>96</ele><time>2015-01-07T07:25:16.074Z</time></trkpt>
	<trkpt lat="52.242862" lon="10.563446"><ele>97</ele><time>2015-01-07T07:25:17.072Z</time></trkpt>
	<trkpt lat="52.242904" lon="10.563440"><ele>97</ele><time>2015-01-07T07:25:18.072Z</time></trkpt>
	<trkpt lat="52.242926" lon="10.563437"><ele>96</ele><time>2015-01-07T07:25:19.105Z</time></trkpt>
	<trkpt lat="52.242953" lon="10.563434"><ele>96</ele><time>2015-01-07T07:25:20.110Z</time></trkpt>
	<trkpt lat="52.242964" lon="10.563417"><ele>96</ele><time>2015-01-07T07:25:21.111Z</time></trkpt>
	<trkpt lat="52.242959" lon="10.563244"><ele>96</ele><time>2015-01-07T07:25:22.107Z</time></trkpt>
	<trkpt lat="52.242963" lon="10.563202"><ele>96</ele><time>2015-01-07T07:25:23.075Z</time></trkpt>
	<trkpt lat="52.242966" lon="10.563157"><ele>96</ele><time>2015-01-07T07:25:24.095Z</time></trkpt>
	<trkpt lat="52.242972" lon="10.563115"><ele>96</ele><time>2015-01-07T07:25:25.102Z</time></trkpt>
	<trkpt lat="52.242980" lon="10.563080"><ele>96</ele><time>2015-01-07T07:25:26.111Z</time></trkpt>
	<trkpt lat="52.242984" lon="10.563047"><ele>96</ele><time>2015-01-07T07:25:27.155Z</time></trkpt>
	<trkpt lat="52.242982" lon="10.563007"><ele>96</ele><time>2015-01-07T07:25:28.146Z</time></trkpt>
	<trkpt lat="52.242976" lon="10.562981"><ele>96</ele><time>2015-01-07T07:25:29.140Z</time></trkpt>
	<trkpt lat="52.242969" lon="10.562970"><ele>96</ele><time>2015-01-07T07:25:30.135Z</time></trkpt>
	<trkpt lat="52.242966" lon="10.562976"><ele>96</ele><time>2015-01-07T07:25:41.106Z</time></trkpt>
	<trkpt lat="52.242982" lon="10.562973"><ele>96</ele><time>2015-01-07T07:25:42.101Z</time></trkpt>
	<trkpt lat="52.242982" lon="10.562973"><ele>96</ele><time>2015-01-07T07:25:48.131Z</time></trkpt>
	<trkpt lat="52.243012" lon="10.563028"><ele>96</ele><time>2015-01-07T07:25:49.132Z</time></trkpt>
	<trkpt lat="52.243008" lon="10.563032"><ele>96</ele><time>2015-01-07T07:25:53.171Z</time></trkpt>
	<trkpt lat="52.243007" lon="10.563052"><ele>96</ele><time>2015-01-07T07:25:54.155Z</time></trkpt>
	<trkpt lat="52.243007" lon="10.563052"><ele>96</ele><time>2015-01-07T07:25:59.151Z</time></trkpt>
	<trkpt lat="52.243021" lon="10.563070"><ele>96</ele><time>2015-01-07T07:26:00.147Z</time></trkpt>
	<trkpt lat="52.243021" lon="10.563070"><ele>96</ele><time>2015-01-07T07:26:01.148Z</time></trkpt>
	<trkpt lat="52.243015" lon="10.563057"><ele>96</ele><time>2015-01-07T07:26:02.149Z</time></trkpt>
	<trkpt lat="52.243015" lon="10.563057"><ele>96</ele><time>2015-01-07T07:26:13.094Z</time></trkpt>
	<trkpt lat="52.243029" lon="10.563035"><ele>96</ele><time>2015-01-07T07:26:14.093Z</time></trkpt>
	<trkpt lat="52.243029" lon="10.563035"><ele>96</ele><time>2015-01-07T07:26:19.093Z</time></trkpt>
	<trkpt lat="52.243017" lon="10.563029"><ele>96</ele><time>2015-01-07T07:26:20.095Z</time></trkpt>
	<trkpt lat="52.243017" lon="10.563029"><ele>96</ele><time>2015-01-07T07:26:40.094Z</time></trkpt>
	<trkpt lat="52.243024" lon="10.563015"><ele>96</ele><time>2015-01-07T07:26:41.095Z</time></trkpt>
	<trkpt lat="52.243019" lon="10.563014"><ele>96</ele><time>2015-01-07T07:26:42.094Z</time></trkpt>
	<trkpt lat="52.243003" lon="10.563004"><ele>96</ele><time>2015-01-07T07:26:43.097Z</time></trkpt>
	<trkpt lat="52.242973" lon="10.562994"><ele>96</ele><time>2015-01-07T07:26:44.092Z</time></trkpt>
	<trkpt lat="52.242936" lon="10.562984"><ele>96</ele><time>2015-01-07T07:26:45.092Z</time></trkpt>
	<trkpt lat="52.242898" lon="10.562971"><ele>95</ele><time>2015-01-07T07:26:46.094Z</time></trkpt>
	<trkpt lat="52.242877" lon="10.562953"><ele>95</ele><time>2015-01-07T07:26:47.094Z</time></trkpt>
	<trkpt lat="52.242869" lon="10.562944"><ele>96</ele><time>2015-01-07T07:26:48.093Z</time></trkpt>
	<trkpt lat="52.242869" lon="10.562944"><ele>96</ele><time>2015-01-07T07:26:49.115Z</time></trkpt>
	<trkpt lat="52.242872" lon="10.562974"><ele>97</ele><time>2015-01-07T07:26:50.114Z</time></trkpt>
	<trkpt lat="52.242872" lon="10.562974"><ele>97</ele><time>2015-01-07T07:27:03.119Z</time></trkpt>
	<trkpt lat="52.242880" lon="10.562999"><ele>96</ele><time>2015-01-07T07:27:04.135Z</time></trkpt>
	<trkpt lat="52.242880" lon="10.562999"><ele>97</ele><time>2015-01-07T07:27:27.119Z</time></trkpt>
	<trkpt lat="52.242876" lon="10.563063"><ele>96</ele><time>2015-01-07T07:27:28.129Z</time></trkpt>
	<trkpt lat="52.242874" lon="10.563064"><ele>96</ele><time>2015-01-07T07:27:42.082Z</time></trkpt>
	<trkpt lat="52.242881" lon="10.563045"><ele>96</ele><time>2015-01-07T07:27:43.081Z</time></trkpt>
	<trkpt lat="52.242869" lon="10.563043"><ele>96</ele><time>2015-01-07T07:27:44.086Z</time></trkpt>
	<trkpt lat="52.242859" lon="10.563039"><ele>96</ele><time>2015-01-07T07:27:45.085Z</time></trkpt>
	<trkpt lat="52.242843" lon="10.563036"><ele>96</ele><time>2015-01-07T07:27:46.082Z</time></trkpt>
	<trkpt lat="52.242825" lon="10.563049"><ele>96</ele><time>2015-01-07T07:27:47.082Z</time></trkpt>
	<trkpt lat="52.242816" lon="10.563069"><ele>96</ele><time>2015-01-07T07:27:48.083Z</time></trkpt>
	<trkpt lat="52.242810" lon="10.563116"><ele>96</ele><time>2015-01-07T07:27:49.083Z</time></trkpt>
	<trkpt lat="52.242808" lon="10.563175"><ele>96</ele><time>2015-01-07T07:27:50.080Z</time></trkpt>
	<trkpt lat="52.242718" lon="10.563505"><ele>96</ele><time>2015-01-07T07:27:51.080Z</time></trkpt>
	<trkpt lat="52.242718" lon="10.563501"><ele>96</ele><time>2015-01-07T07:27:54.081Z</time></trkpt>
	<trkpt lat="52.242718" lon="10.563499"><ele>96</ele><time>2015-01-07T07:27:55.076Z</time></trkpt>
	<trkpt lat="52.242718" lon="10.563509"><ele>96</ele><time>2015-01-07T07:27:57.078Z</time></trkpt>
	<trkpt lat="52.242720" lon="10.563543"><ele>96</ele><time>2015-01-07T07:27:58.075Z</time></trkpt>
	<trkpt lat="52.242722" lon="10.563601"><ele>96</ele><time>2015-01-07T07:27:59.095Z</time></trkpt>
	<trkpt lat="52.242724" lon="10.563660"><ele>96</ele><time>2015-01-07T07:28:00.091Z</time></trkpt>
	<trkpt lat="52.242727" lon="10.563744"><ele>96</ele><time>2015-01-07T07:28:01.074Z</time></trkpt>
	<trkpt lat="52.242731" lon="10.563846"><ele>96</ele><time>2015-01-07T07:28:02.075Z</time></trkpt>
	<trkpt lat="52.242731" lon="10.563855"><ele>96</ele><time>2015-01-07T07:28:03.073Z</time></trkpt>
	<trkpt lat="52.242731" lon="10.563855"><ele>96</ele><time>2015-01-07T07:28:04.068Z</time></trkpt>
	<trkpt lat="52.242743" lon="10.564147"><ele>96</ele><time>2015-01-07T07:28:05.078Z</time></trkpt>
	<trkpt lat="52.242747" lon="10.564238"><ele>96</ele><time>2015-01-07T07:28:06.111Z</time></trkpt>
	<trkpt lat="52.242751" lon="10.564329"><ele>96</ele><time>2015-01-07T07:28:07.099Z</time></trkpt>
	<trkpt lat="52.242755" lon="10.564418"><ele>96</ele><time>2015-01-07T07:28:08.125Z</time></trkpt>
	<trkpt lat="52.242756" lon="10.564445"><ele>96</ele><time>2015-01-07T07:28:10.119Z</time></trkpt>
	<trkpt lat="52.242763" lon="10.564708"><ele>95</ele><time>2015-01-07T07:28:11.145Z</time></trkpt>
	<trkpt lat="52.242766" lon="10.564782"><ele>95</ele><time>2015-01-07T07:28:12.125Z</time></trkpt>
	<trkpt lat="52.242767" lon="10.564840"><ele>95</ele><time>2015-01-07T07:28:13.114Z</time></trkpt>
	<trkpt lat="52.242769" lon="10.564892"><ele>95</ele><time>2015-01-07T07:28:14.161Z</time></trkpt>
	<trkpt lat="52.242770" lon="10.564917"><ele>95</ele><time>2015-01-07T07:28:15.129Z</time></trkpt>
	<trkpt lat="52.242770" lon="10.564929"><ele>95</ele><time>2015-01-07T07:28:16.143Z</time></trkpt>
	<trkpt lat="52.242770" lon="10.564929"><ele>95</ele><time>2015-01-07T07:28:17.099Z</time></trkpt>
	<trkpt lat="52.242770" lon="10.564937"><ele>95</ele><time>2015-01-07T07:28:39.120Z</time></trkpt>
	<trkpt lat="52.242771" lon="10.564955"><ele>95</ele><time>2015-01-07T07:28:40.117Z</time></trkpt>
	<trkpt lat="52.242771" lon="10.564967"><ele>96</ele><time>2015-01-07T07:28:41.132Z</time></trkpt>
	<trkpt lat="52.242772" lon="10.564992"><ele>96</ele><time>2015-01-07T07:28:42.119Z</time></trkpt>
	<trkpt lat="52.242773" lon="10.565040"><ele>96</ele><time>2015-01-07T07:28:43.129Z</time></trkpt>
	<trkpt lat="52.242775" lon="10.565108"><ele>96</ele><time>2015-01-07T07:28:44.109Z</time></trkpt>
	<trkpt lat="52.242777" lon="10.565180"><ele>95</ele><time>2015-01-07T07:28:45.093Z</time></trkpt>
	<trkpt lat="52.242780" lon="10.565272"><ele>96</ele><time>2015-01-07T07:28:46.102Z</time></trkpt>
	<trkpt lat="52.242783" lon="10.565382"><ele>96</ele><time>2015-01-07T07:28:47.104Z</time></trkpt>
	<trkpt lat="52.242785" lon="10.565434"><ele>96</ele><time>2015-01-07T07:28:48.118Z</time></trkpt>
	<trkpt lat="52.242791" lon="10.565597"><ele>96</ele><time>2015-01-07T07:28:49.110Z</time></trkpt>
	<trkpt lat="52.242795" lon="10.565695"><ele>96</ele><time>2015-01-07T07:28:50.170Z</time></trkpt>
	<trkpt lat="52.242798" lon="10.565778"><ele>95</ele><time>2015-01-07T07:28:51.162Z</time></trkpt>
	<trkpt lat="52.242801" lon="10.565858"><ele>96</ele><time>2015-01-07T07:28:52.157Z</time></trkpt>
	<trkpt lat="52.242801" lon="10.565868"><ele>96</ele><time>2015-01-07T07:28:54.209Z</time></trkpt>
	<trkpt lat="52.242631" lon="10.566019"><ele>96</ele><time>2015-01-07T07:28:55.184Z</time></trkpt>
	<trkpt lat="52.242611" lon="10.566086"><ele>96</ele><time>2015-01-07T07:28:56.151Z</time></trkpt>
	<trkpt lat="52.242854" lon="10.566316"><ele>96</ele><time>2015-01-07T07:28:57.155Z</time></trkpt>
	<trkpt lat="52.242855" lon="10.566294"><ele>96</ele><time>2015-01-07T07:28:58.153Z</time></trkpt>
	<trkpt lat="52.242994" lon="10.566193"><ele>96</ele><time>2015-01-07T07:28:59.183Z</time></trkpt>
	<trkpt lat="52.242996" lon="10.566194"><ele>97</ele><time>2015-01-07T07:29:00.145Z</time></trkpt>
	<trkpt lat="52.243001" lon="10.566140"><ele>96</ele><time>2015-01-07T07:29:01.118Z</time></trkpt>
	<trkpt lat="52.243084" lon="10.566127"><ele>96</ele><time>2015-01-07T07:29:02.158Z</time></trkpt>
	<trkpt lat="52.243167" lon="10.566120"><ele>96</ele><time>2015-01-07T07:29:03.096Z</time></trkpt>
	<trkpt lat="52.243254" lon="10.566110"><ele>96</ele><time>2015-01-07T07:29:04.094Z</time></trkpt>
	<trkpt lat="52.243348" lon="10.566103"><ele>96</ele><time>2015-01-07T07:29:05.096Z</time></trkpt>
	<trkpt lat="52.243448" lon="10.566096"><ele>96</ele><time>2015-01-07T07:29:06.100Z</time></trkpt>
	<trkpt lat="52.243556" lon="10.566092"><ele>97</ele><time>2015-01-07T07:29:07.104Z</time></trkpt>
	<trkpt lat="52.243668" lon="10.566091"><ele>97</ele><time>2015-01-07T07:29:08.088Z</time></trkpt>
	<trkpt lat="52.243789" lon="10.566094"><ele>97</ele><time>2015-01-07T07:29:09.088Z</time></trkpt>
	<trkpt lat="52.243911" lon="10.566091"><ele>96</ele><time>2015-01-07T07:29:10.094Z</time></trkpt>
	<trkpt lat="52.244037" lon="10.566090"><ele>96</ele><time>2015-01-07T07:29:11.097Z</time></trkpt>
	<trkpt lat="52.244164" lon="10.566091"><ele>96</ele><time>2015-01-07T07:29:12.102Z</time></trkpt>
	<trkpt lat="52.244291" lon="10.566087"><ele>96</ele><time>2015-01-07T07:29:13.097Z</time></trkpt>
	<trkpt lat="52.244413" lon="10.566087"><ele>96</ele><time>2015-01-07T07:29:14.088Z</time></trkpt>
	<trkpt lat="52.244548" lon="10.566077"><ele>95</ele><time>2015-01-07T07:29:15.084Z</time></trkpt>
	<trkpt lat="52.244686" lon="10.566071"><ele>95</ele><time>2015-01-07T07:29:16.081Z</time></trkpt>
	<trkpt lat="52.244823" lon="10.566064"><ele>95</ele><time>2015-01-07T07:29:17.106Z</time></trkpt>
	<trkpt lat="52.244958" lon="10.566069"><ele>95</ele><time>2015-01-07T07:29:18.173Z</time></trkpt>
	<trkpt lat="52.245088" lon="10.566067"><ele>95</ele><time>2015-01-07T07:29:19.172Z</time></trkpt>
	<trkpt lat="52.245221" lon="10.566070"><ele>94</ele><time>2015-01-07T07:29:20.174Z</time></trkpt>
	<trkpt lat="52.245350" lon="10.566071"><ele>94</ele><time>2015-01-07T07:29:21.172Z</time></trkpt>
	<trkpt lat="52.245471" lon="10.566070"><ele>94</ele><time>2015-01-07T07:29:22.149Z</time></trkpt>
	<trkpt lat="52.245603" lon="10.566064"><ele>94</ele><time>2015-01-07T07:29:23.151Z</time></trkpt>
	<trkpt lat="52.245732" lon="10.566058"><ele>93</ele><time>2015-01-07T07:29:24.143Z</time></trkpt>
	<trkpt lat="52.245852" lon="10.566043"><ele>93</ele><time>2015-01-07T07:29:25.151Z</time></trkpt>
	<trkpt lat="52.245984" lon="10.566033"><ele>93</ele><time>2015-01-07T07:29:26.148Z</time></trkpt>
	<trkpt lat="52.246115" lon="10.566028"><ele>93</ele><time>2015-01-07T07:29:27.187Z</time></trkpt>
	<trkpt lat="52.246245" lon="10.566023"><ele>93</ele><time>2015-01-07T07:29:28.215Z</time></trkpt>
	<trkpt lat="52.246370" lon="10.566017"><ele>93</ele><time>2015-01-07T07:29:29.141Z</time></trkpt>
	<trkpt lat="52.246496" lon="10.566016"><ele>92</ele><time>2015-01-07T07:29:30.185Z</time></trkpt>
	<trkpt lat="52.246626" lon="10.566011"><ele>92</ele><time>2015-01-07T07:29:31.171Z</time></trkpt>
	<trkpt lat="52.246752" lon="10.566008"><ele>92</ele><time>2015-01-07T07:29:32.119Z</time></trkpt>
	<trkpt lat="52.246882" lon="10.566002"><ele>92</ele><time>2015-01-07T07:29:33.176Z</time></trkpt>
	<trkpt lat="52.247011" lon="10.566001"><ele>92</ele><time>2015-01-07T07:29:34.094Z</time></trkpt>
	<trkpt lat="52.247136" lon="10.565997"><ele>92</ele><time>2015-01-07T07:29:35.088Z</time></trkpt>
	<trkpt lat="52.247262" lon="10.565995"><ele>92</ele><time>2015-01-07T07:29:36.089Z</time></trkpt>
	<trkpt lat="52.247373" lon="10.566000"><ele>91</ele><time>2015-01-07T07:29:37.107Z</time></trkpt>
	<trkpt lat="52.247459" lon="10.565998"><ele>90</ele><time>2015-01-07T07:29:38.087Z</time></trkpt>
	<trkpt lat="52.247528" lon="10.565999"><ele>90</ele><time>2015-01-07T07:29:39.094Z</time></trkpt>
	<trkpt lat="52.247575" lon="10.566000"><ele>89</ele><time>2015-01-07T07:29:40.085Z</time></trkpt>
	<trkpt lat="52.247608" lon="10.565998"><ele>90</ele><time>2015-01-07T07:29:41.086Z</time></trkpt>
	<trkpt lat="52.247607" lon="10.566000"><ele>90</ele><time>2015-01-07T07:29:42.088Z</time></trkpt>
	<trkpt lat="52.247607" lon="10.566002"><ele>90</ele><time>2015-01-07T07:29:43.086Z</time></trkpt>
	<trkpt lat="52.247773" lon="10.566002"><ele>90</ele><time>2015-01-07T07:29:44.091Z</time></trkpt>
	<trkpt lat="52.247851" lon="10.565996"><ele>91</ele><time>2015-01-07T07:29:45.084Z</time></trkpt>
	<trkpt lat="52.247946" lon="10.565991"><ele>91</ele><time>2015-01-07T07:29:46.104Z</time></trkpt>
	<trkpt lat="52.248042" lon="10.565982"><ele>91</ele><time>2015-01-07T07:29:47.167Z</time></trkpt>
	<trkpt lat="52.248142" lon="10.565970"><ele>91</ele><time>2015-01-07T07:29:48.159Z</time></trkpt>
	<trkpt lat="52.248237" lon="10.565967"><ele>91</ele><time>2015-01-07T07:29:49.116Z</time></trkpt>
	<trkpt lat="52.248304" lon="10.565970"><ele>91</ele><time>2015-01-07T07:29:50.149Z</time></trkpt>
	<trkpt lat="52.248414" lon="10.565984"><ele>91</ele><time>2015-01-07T07:29:51.151Z</time></trkpt>
	<trkpt lat="52.248480" lon="10.566025"><ele>90</ele><time>2015-01-07T07:29:52.166Z</time></trkpt>
	<trkpt lat="52.248536" lon="10.566090"><ele>90</ele><time>2015-01-07T07:29:53.130Z</time></trkpt>
	<trkpt lat="52.248566" lon="10.566188"><ele>90</ele><time>2015-01-07T07:29:54.144Z</time></trkpt>
	<trkpt lat="52.248541" lon="10.566151"><ele>90</ele><time>2015-01-07T07:29:55.147Z</time></trkpt>
	<trkpt lat="52.248553" lon="10.566414"><ele>90</ele><time>2015-01-07T07:29:56.132Z</time></trkpt>
	<trkpt lat="52.248523" lon="10.566526"><ele>91</ele><time>2015-01-07T07:29:57.108Z</time></trkpt>
	<trkpt lat="52.248472" lon="10.566658"><ele>91</ele><time>2015-01-07T07:29:58.108Z</time></trkpt>
	<trkpt lat="52.248421" lon="10.566788"><ele>91</ele><time>2015-01-07T07:29:59.142Z</time></trkpt>
	<trkpt lat="52.248365" lon="10.566921"><ele>91</ele><time>2015-01-07T07:30:00.193Z</time></trkpt>
	<trkpt lat="52.248307" lon="10.567066"><ele>92</ele><time>2015-01-07T07:30:01.151Z</time></trkpt>
	<trkpt lat="52.248242" lon="10.567229"><ele>92</ele><time>2015-01-07T07:30:02.127Z</time></trkpt>
	<trkpt lat="52.248178" lon="10.567422"><ele>93</ele><time>2015-01-07T07:30:03.100Z</time></trkpt>
	<trkpt lat="52.248118" lon="10.567628"><ele>93</ele><time>2015-01-07T07:30:04.094Z</time></trkpt>
	<trkpt lat="52.248062" lon="10.567817"><ele>93</ele><time>2015-01-07T07:30:05.085Z</time></trkpt>
	<trkpt lat="52.247995" lon="10.568018"><ele>92</ele><time>2015-01-07T07:30:06.100Z</time></trkpt>
	<trkpt lat="52.247932" lon="10.568200"><ele>93</ele><time>2015-01-07T07:30:07.111Z</time></trkpt>
	<trkpt lat="52.247867" lon="10.568386"><ele>93</ele><time>2015-01-07T07:30:08.092Z</time></trkpt>
	<trkpt lat="52.247800" lon="10.568571"><ele>93</ele><time>2015-01-07T07:30:09.098Z</time></trkpt>
	<trkpt lat="52.247737" lon="10.568750"><ele>93</ele><time>2015-01-07T07:30:10.113Z</time></trkpt>
	<trkpt lat="52.247672" lon="10.568935"><ele>93</ele><time>2015-01-07T07:30:11.093Z</time></trkpt>
	<trkpt lat="52.247610" lon="10.569109"><ele>93</ele><time>2015-01-07T07:30:12.097Z</time></trkpt>
	<trkpt lat="52.247548" lon="10.569281"><ele>93</ele><time>2015-01-07T07:30:13.083Z</time></trkpt>
	<trkpt lat="52.247491" lon="10.569442"><ele>93</ele><time>2015-01-07T07:30:14.104Z</time></trkpt>
	<trkpt lat="52.247435" lon="10.569600"><ele>93</ele><time>2015-01-07T07:30:15.173Z</time></trkpt>
	<trkpt lat="52.247382" lon="10.569745"><ele>93</ele><time>2015-01-07T07:30:16.178Z</time></trkpt>
	<trkpt lat="52.247331" lon="10.569894"><ele>93</ele><time>2015-01-07T07:30:17.169Z</time></trkpt>
	<trkpt lat="52.247286" lon="10.570026"><ele>92</ele><time>2015-01-07T07:30:18.162Z</time></trkpt>
	<trkpt lat="52.247238" lon="10.570161"><ele>92</ele><time>2015-01-07T07:30:19.158Z</time></trkpt>
	<trkpt lat="52.247199" lon="10.570273"><ele>92</ele><time>2015-01-07T07:30:20.147Z</time></trkpt>
	<trkpt lat="52.247162" lon="10.570372"><ele>92</ele><time>2015-01-07T07:30:21.143Z</time></trkpt>
	<trkpt lat="52.247129" lon="10.570470"><ele>92</ele><time>2015-01-07T07:30:22.153Z</time></trkpt>
	<trkpt lat="52.247102" lon="10.570551"><ele>92</ele><time>2015-01-07T07:30:23.149Z</time></trkpt>
	<trkpt lat="52.247075" lon="10.570625"><ele>92</ele><time>2015-01-07T07:30:24.172Z</time></trkpt>
	<trkpt lat="52.247066" lon="10.570668"><ele>92</ele><time>2015-01-07T07:30:25.169Z</time></trkpt>
	<trkpt lat="52.247073" lon="10.570671"><ele>92</ele><time>2015-01-07T07:30:26.171Z</time></trkpt>
	<trkpt lat="52.247080" lon="10.570678"><ele>92</ele><time>2015-01-07T07:30:27.167Z</time></trkpt>
	<trkpt lat="52.247089" lon="10.570686"><ele>92</ele><time>2015-01-07T07:30:28.116Z</time></trkpt>
	<trkpt lat="52.247094" lon="10.570691"><ele>92</ele><time>2015-01-07T07:30:29.114Z</time></trkpt>
	<trkpt lat="52.247097" lon="10.570693"><ele>92</ele><time>2015-01-07T07:30:30.098Z</time></trkpt>
	<trkpt lat="52.247100" lon="10.570698"><ele>92</ele><time>2015-01-07T07:30:35.090Z</time></trkpt>
	<trkpt lat="52.246999" lon="10.570899"><ele>92</ele><time>2015-01-07T07:30:36.090Z</time></trkpt>
	<trkpt lat="52.246995" lon="10.570910"><ele>93</ele><time>2015-01-07T07:30:44.101Z</time></trkpt>
	<trkpt lat="52.246992" lon="10.570918"><ele>92</ele><time>2015-01-07T07:30:45.120Z</time></trkpt>
	<trkpt lat="52.246986" lon="10.570935"><ele>92</ele><time>2015-01-07T07:30:46.109Z</time></trkpt>
	<trkpt lat="52.246987" lon="10.570954"><ele>93</ele><time>2015-01-07T07:30:47.109Z</time></trkpt>
	<trkpt lat="52.247079" lon="10.571051"><ele>93</ele><time>2015-01-07T07:30:48.110Z</time></trkpt>
	<trkpt lat="52.247121" lon="10.571075"><ele>93</ele><time>2015-01-07T07:30:49.128Z</time></trkpt>
	<trkpt lat="52.247175" lon="10.571084"><ele>93</ele><time>2015-01-07T07:30:50.121Z</time></trkpt>
	<trkpt lat="52.247249" lon="10.571088"><ele>94</ele><time>2015-01-07T07:30:51.124Z</time></trkpt>
	<trkpt lat="52.247341" lon="10.571088"><ele>94</ele><time>2015-01-07T07:30:52.116Z</time></trkpt>
	<trkpt lat="52.247443" lon="10.571089"><ele>94</ele><time>2015-01-07T07:30:53.120Z</time></trkpt>
	<trkpt lat="52.247554" lon="10.571087"><ele>94</ele><time>2015-01-07T07:30:54.147Z</time></trkpt>
	<trkpt lat="52.247668" lon="10.571085"><ele>94</ele><time>2015-01-07T07:30:55.148Z</time></trkpt>
	<trkpt lat="52.247794" lon="10.571086"><ele>94</ele><time>2015-01-07T07:30:56.104Z</time></trkpt>
	<trkpt lat="52.247928" lon="10.571088"><ele>94</ele><time>2015-01-07T07:30:57.134Z</time></trkpt>
	<trkpt lat="52.248066" lon="10.571088"><ele>94</ele><time>2015-01-07T07:30:58.108Z</time></trkpt>
	<trkpt lat="52.248203" lon="10.571088"><ele>94</ele><time>2015-01-07T07:30:59.113Z</time></trkpt>
	<trkpt lat="52.248336" lon="10.571087"><ele>93</ele><time>2015-01-07T07:31:00.108Z</time></trkpt>
	<trkpt lat="52.248466" lon="10.571087"><ele>93</ele><time>2015-01-07T07:31:01.084Z</time></trkpt>
	<trkpt lat="52.248599" lon="10.571088"><ele>92</ele><time>2015-01-07T07:31:02.096Z</time></trkpt>
	<trkpt lat="52.248720" lon="10.571091"><ele>92</ele><time>2015-01-07T07:31:03.078Z</time></trkpt>
	<trkpt lat="52.248842" lon="10.571092"><ele>92</ele><time>2015-01-07T07:31:04.085Z</time></trkpt>
	<trkpt lat="52.248965" lon="10.571093"><ele>92</ele><time>2015-01-07T07:31:05.099Z</time></trkpt>
	<trkpt lat="52.249089" lon="10.571094"><ele>93</ele><time>2015-01-07T07:31:06.079Z</time></trkpt>
	<trkpt lat="52.249224" lon="10.571095"><ele>93</ele><time>2015-01-07T07:31:07.083Z</time></trkpt>
	<trkpt lat="52.249365" lon="10.571094"><ele>93</ele><time>2015-01-07T07:31:08.083Z</time></trkpt>
	<trkpt lat="52.249503" lon="10.571091"><ele>93</ele><time>2015-01-07T07:31:09.080Z</time></trkpt>
	<trkpt lat="52.249651" lon="10.571086"><ele>93</ele><time>2015-01-07T07:31:10.089Z</time></trkpt>
	<trkpt lat="52.249777" lon="10.571087"><ele>93</ele><time>2015-01-07T07:31:11.098Z</time></trkpt>
	<trkpt lat="52.249887" lon="10.571088"><ele>93</ele><time>2015-01-07T07:31:12.100Z</time></trkpt>
	<trkpt lat="52.249972" lon="10.571088"><ele>93</ele><time>2015-01-07T07:31:13.129Z</time></trkpt>
	<trkpt lat="52.250151" lon="10.571085"><ele>93</ele><time>2015-01-07T07:31:14.121Z</time></trkpt>
	<trkpt lat="52.250281" lon="10.571076"><ele>93</ele><time>2015-01-07T07:31:15.138Z</time></trkpt>
	<trkpt lat="52.250407" lon="10.571062"><ele>93</ele><time>2015-01-07T07:31:16.139Z</time></trkpt>
	<trkpt lat="52.250532" lon="10.571055"><ele>93</ele><time>2015-01-07T07:31:17.139Z</time></trkpt>
	<trkpt lat="52.250653" lon="10.571051"><ele>94</ele><time>2015-01-07T07:31:18.134Z</time></trkpt>
	<trkpt lat="52.250769" lon="10.571052"><ele>94</ele><time>2015-01-07T07:31:19.127Z</time></trkpt>
	<trkpt lat="52.250875" lon="10.571057"><ele>94</ele><time>2015-01-07T07:31:20.124Z</time></trkpt>
	<trkpt lat="52.250973" lon="10.571064"><ele>94</ele><time>2015-01-07T07:31:21.131Z</time></trkpt>
	<trkpt lat="52.251069" lon="10.571073"><ele>94</ele><time>2015-01-07T07:31:22.123Z</time></trkpt>
	<trkpt lat="52.251144" lon="10.571088"><ele>93</ele><time>2015-01-07T07:31:23.118Z</time></trkpt>
	<trkpt lat="52.251200" lon="10.571102"><ele>93</ele><time>2015-01-07T07:31:24.121Z</time></trkpt>
	<trkpt lat="52.251250" lon="10.571114"><ele>93</ele><time>2015-01-07T07:31:25.124Z</time></trkpt>
	<trkpt lat="52.251284" lon="10.571124"><ele>93</ele><time>2015-01-07T07:31:26.123Z</time></trkpt>
	<trkpt lat="52.251302" lon="10.571127"><ele>93</ele><time>2015-01-07T07:31:27.184Z</time></trkpt>
	<trkpt lat="52.251313" lon="10.571128"><ele>93</ele><time>2015-01-07T07:31:28.173Z</time></trkpt>
	<trkpt lat="52.251315" lon="10.571129"><ele>93</ele><time>2015-01-07T07:31:29.134Z</time></trkpt>
	<trkpt lat="52.251325" lon="10.571131"><ele>93</ele><time>2015-01-07T07:31:30.188Z</time></trkpt>
	<trkpt lat="52.251341" lon="10.571130"><ele>93</ele><time>2015-01-07T07:31:31.146Z</time></trkpt>
	<trkpt lat="52.251368" lon="10.571123"><ele>94</ele><time>2015-01-07T07:31:32.125Z</time></trkpt>
	<trkpt lat="52.251382" lon="10.571108"><ele>94</ele><time>2015-01-07T07:31:33.146Z</time></trkpt>
	<trkpt lat="52.251427" lon="10.571104"><ele>94</ele><time>2015-01-07T07:31:34.186Z</time></trkpt>
	<trkpt lat="52.251460" lon="10.570982"><ele>94</ele><time>2015-01-07T07:31:35.186Z</time></trkpt>
	<trkpt lat="52.251470" lon="10.570927"><ele>94</ele><time>2015-01-07T07:31:36.186Z</time></trkpt>
	<trkpt lat="52.251459" lon="10.570773"><ele>95</ele><time>2015-01-07T07:31:37.208Z</time></trkpt>
	<trkpt lat="52.251427" lon="10.570643"><ele>95</ele><time>2015-01-07T07:31:38.183Z</time></trkpt>
	<trkpt lat="52.251384" lon="10.570497"><ele>95</ele><time>2015-01-07T07:31:39.184Z</time></trkpt>
	<trkpt lat="52.251332" lon="10.570329"><ele>95</ele><time>2015-01-07T07:31:40.176Z</time></trkpt>
	<trkpt lat="52.251281" lon="10.570157"><ele>94</ele><time>2015-01-07T07:31:41.140Z</time></trkpt>
	<trkpt lat="52.251224" lon="10.569964"><ele>94</ele><time>2015-01-07T07:31:42.172Z</time></trkpt>
	<trkpt lat="52.251163" lon="10.569763"><ele>94</ele><time>2015-01-07T07:31:43.162Z</time></trkpt>
	<trkpt lat="52.251092" lon="10.569545"><ele>94</ele><time>2015-01-07T07:31:44.155Z</time></trkpt>
	<trkpt lat="52.251017" lon="10.569326"><ele>93</ele><time>2015-01-07T07:31:45.178Z</time></trkpt>
	<trkpt lat="52.250935" lon="10.569095"><ele>92</ele><time>2015-01-07T07:31:46.197Z</time></trkpt>
	<trkpt lat="52.250845" lon="10.568853"><ele>92</ele><time>2015-01-07T07:31:47.177Z</time></trkpt>
	<trkpt lat="52.250750" lon="10.568607"><ele>92</ele><time>2015-01-07T07:31:48.175Z</time></trkpt>
	<trkpt lat="52.250651" lon="10.568363"><ele>91</ele><time>2015-01-07T07:31:49.207Z</time></trkpt>
	<trkpt lat="52.250543" lon="10.568110"><ele>91</ele><time>2015-01-07T07:31:50.209Z</time></trkpt>
	<trkpt lat="52.250435" lon="10.567871"><ele>91</ele><time>2015-01-07T07:31:51.211Z</time></trkpt>
	<trkpt lat="52.250320" lon="10.567615"><ele>90</ele><time>2015-01-07T07:31:52.210Z</time></trkpt>
	<trkpt lat="52.250208" lon="10.567360"><ele>90</ele><time>2015-01-07T07:31:53.194Z</time></trkpt>
	<trkpt lat="52.250092" lon="10.567102"><ele>90</ele><time>2015-01-07T07:31:54.182Z</time></trkpt>
	<trkpt lat="52.249979" lon="10.566849"><ele>90</ele><time>2015-01-07T07:31:55.204Z</time></trkpt>
	<trkpt lat="52.249851" lon="10.566572"><ele>90</ele><time>2015-01-07T07:31:56.169Z</time></trkpt>
	<trkpt lat="52.249725" lon="10.566311"><ele>90</ele><time>2015-01-07T07:31:57.156Z</time></trkpt>
	<trkpt lat="52.249591" lon="10.566048"><ele>89</ele><time>2015-01-07T07:31:58.172Z</time></trkpt>
	<trkpt lat="52.249458" lon="10.565795"><ele>89</ele><time>2015-01-07T07:31:59.189Z</time></trkpt>
	<trkpt lat="52.249320" lon="10.565537"><ele>89</ele><time>2015-01-07T07:32:00.200Z</time></trkpt>
	<trkpt lat="52.249184" lon="10.565283"><ele>88</ele><time>2015-01-07T07:32:01.198Z</time></trkpt>
	<trkpt lat="52.249043" lon="10.565022"><ele>88</ele><time>2015-01-07T07:32:02.156Z</time></trkpt>
	<trkpt lat="52.248902" lon="10.564758"><ele>88</ele><time>2015-01-07T07:32:03.079Z</time></trkpt>
	<trkpt lat="52.248757" lon="10.564493"><ele>88</ele><time>2015-01-07T07:32:04.099Z</time></trkpt>
	<trkpt lat="52.248610" lon="10.564233"><ele>88</ele><time>2015-01-07T07:32:05.150Z</time></trkpt>
	<trkpt lat="52.248458" lon="10.563964"><ele>88</ele><time>2015-01-07T07:32:06.165Z</time></trkpt>
	<trkpt lat="52.248309" lon="10.563700"><ele>88</ele><time>2015-01-07T07:32:07.228Z</time></trkpt>
	<trkpt lat="52.248168" lon="10.563450"><ele>88</ele><time>2015-01-07T07:32:08.199Z</time></trkpt>
	<trkpt lat="52.248019" lon="10.563183"><ele>87</ele><time>2015-01-07T07:32:09.177Z</time></trkpt>
	<trkpt lat="52.247873" lon="10.562922"><ele>87</ele><time>2015-01-07T07:32:10.195Z</time></trkpt>
	<trkpt lat="52.247719" lon="10.562642"><ele>86</ele><time>2015-01-07T07:32:11.184Z</time></trkpt>
	<trkpt lat="52.247572" lon="10.562367"><ele>86</ele><time>2015-01-07T07:32:12.163Z</time></trkpt>
	<trkpt lat="52.247437" lon="10.562110"><ele>86</ele><time>2015-01-07T07:32:13.156Z</time></trkpt>
	<trkpt lat="52.247287" lon="10.561824"><ele>86</ele><time>2015-01-07T07:32:14.180Z</time></trkpt>
	<trkpt lat="52.247147" lon="10.561549"><ele>86</ele><time>2015-01-07T07:32:15.169Z</time></trkpt>
	<trkpt lat="52.247008" lon="10.561276"><ele>86</ele><time>2015-01-07T07:32:16.127Z</time></trkpt>
	<trkpt lat="52.246855" lon="10.560955"><ele>86</ele><time>2015-01-07T07:32:17.120Z</time></trkpt>
	<trkpt lat="52.246719" lon="10.560669"><ele>86</ele><time>2015-01-07T07:32:18.100Z</time></trkpt>
	<trkpt lat="52.246587" lon="10.560380"><ele>86</ele><time>2015-01-07T07:32:19.104Z</time></trkpt>
	<trkpt lat="52.246457" lon="10.560074"><ele>86</ele><time>2015-01-07T07:32:20.130Z</time></trkpt>
	<trkpt lat="52.246336" lon="10.559764"><ele>85</ele><time>2015-01-07T07:32:21.095Z</time></trkpt>
	<trkpt lat="52.246220" lon="10.559462"><ele>85</ele><time>2015-01-07T07:32:22.099Z</time></trkpt>
	<trkpt lat="52.246109" lon="10.559160"><ele>85</ele><time>2015-01-07T07:32:23.117Z</time></trkpt>
	<trkpt lat="52.245998" lon="10.558869"><ele>85</ele><time>2015-01-07T07:32:24.110Z</time></trkpt>
	<trkpt lat="52.245892" lon="10.558558"><ele>85</ele><time>2015-01-07T07:32:25.109Z</time></trkpt>
	<trkpt lat="52.245782" lon="10.558252"><ele>85</ele><time>2015-01-07T07:32:26.108Z</time></trkpt>
	<trkpt lat="52.245676" lon="10.557957"><ele>85</ele><time>2015-01-07T07:32:27.103Z</time></trkpt>
	<trkpt lat="52.245565" lon="10.557651"><ele>85</ele><time>2015-01-07T07:32:28.101Z</time></trkpt>
	<trkpt lat="52.245453" lon="10.557349"><ele>85</ele><time>2015-01-07T07:32:29.115Z</time></trkpt>
	<trkpt lat="52.245337" lon="10.557060"><ele>86</ele><time>2015-01-07T07:32:30.126Z</time></trkpt>
	<trkpt lat="52.245246" lon="10.556778"><ele>86</ele><time>2015-01-07T07:32:31.116Z</time></trkpt>
	<trkpt lat="52.245143" lon="10.556458"><ele>86</ele><time>2015-01-07T07:32:32.124Z</time></trkpt>
	<trkpt lat="52.245035" lon="10.556137"><ele>86</ele><time>2015-01-07T07:32:33.111Z</time></trkpt>
	<trkpt lat="52.244921" lon="10.555813"><ele>86</ele><time>2015-01-07T07:32:34.110Z</time></trkpt>
	<trkpt lat="52.244820" lon="10.555517"><ele>86</ele><time>2015-01-07T07:32:35.104Z</time></trkpt>
	<trkpt lat="52.244712" lon="10.555207"><ele>86</ele><time>2015-01-07T07:32:36.111Z</time></trkpt>
	<trkpt lat="52.244607" lon="10.554907"><ele>86</ele><time>2015-01-07T07:32:37.100Z</time></trkpt>
	<trkpt lat="52.244500" lon="10.554590"><ele>86</ele><time>2015-01-07T07:32:38.098Z</time></trkpt>
	<trkpt lat="52.244410" lon="10.554291"><ele>88</ele><time>2015-01-07T07:32:39.127Z</time></trkpt>
	<trkpt lat="52.244299" lon="10.553973"><ele>87</ele><time>2015-01-07T07:32:40.127Z</time></trkpt>
	<trkpt lat="52.244197" lon="10.553662"><ele>87</ele><time>2015-01-07T07:32:41.106Z</time></trkpt>
	<trkpt lat="52.244080" lon="10.553348"><ele>87</ele><time>2015-01-07T07:32:42.122Z</time></trkpt>
	<trkpt lat="52.243970" lon="10.553044"><ele>87</ele><time>2015-01-07T07:32:43.118Z</time></trkpt>
	<trkpt lat="52.243859" lon="10.552740"><ele>87</ele><time>2015-01-07T07:32:44.102Z</time></trkpt>
	<trkpt lat="52.243747" lon="10.552427"><ele>87</ele><time>2015-01-07T07:32:45.104Z</time></trkpt>
	<trkpt lat="52.243632" lon="10.552114"><ele>87</ele><time>2015-01-07T07:32:46.106Z</time></trkpt>
	<trkpt lat="52.243521" lon="10.551794"><ele>86</ele><time>2015-01-07T07:32:47.122Z</time></trkpt>
	<trkpt lat="52.243415" lon="10.551479"><ele>86</ele><time>2015-01-07T07:32:48.117Z</time></trkpt>
	<trkpt lat="52.243299" lon="10.551155"><ele>86</ele><time>2015-01-07T07:32:49.105Z</time></trkpt>
	<trkpt lat="52.243183" lon="10.550832"><ele>86</ele><time>2015-01-07T07:32:50.115Z</time></trkpt>
	<trkpt lat="52.243074" lon="10.550520"><ele>86</ele><time>2015-01-07T07:32:51.110Z</time></trkpt>
	<trkpt lat="52.242960" lon="10.550202"><ele>86</ele><time>2015-01-07T07:32:52.108Z</time></trkpt>
	<trkpt lat="52.242848" lon="10.549866"><ele>86</ele><time>2015-01-07T07:32:53.105Z</time></trkpt>
	<trkpt lat="52.242728" lon="10.549546"><ele>86</ele><time>2015-01-07T07:32:54.096Z</time></trkpt>
	<trkpt lat="52.242616" lon="10.549209"><ele>86</ele><time>2015-01-07T07:32:55.124Z</time></trkpt>
	<trkpt lat="52.242500" lon="10.548877"><ele>86</ele><time>2015-01-07T07:32:56.190Z</time></trkpt>
	<trkpt lat="52.242393" lon="10.548581"><ele>86</ele><time>2015-01-07T07:32:57.095Z</time></trkpt>
	<trkpt lat="52.242268" lon="10.548256"><ele>85</ele><time>2015-01-07T07:32:58.101Z</time></trkpt>
	<trkpt lat="52.242154" lon="10.547920"><ele>85</ele><time>2015-01-07T07:32:59.104Z</time></trkpt>
	<trkpt lat="52.242044" lon="10.547609"><ele>85</ele><time>2015-01-07T07:33:00.113Z</time></trkpt>
	<trkpt lat="52.241935" lon="10.547279"><ele>85</ele><time>2015-01-07T07:33:01.105Z</time></trkpt>
	<trkpt lat="52.241824" lon="10.546968"><ele>85</ele><time>2015-01-07T07:33:02.105Z</time></trkpt>
	<trkpt lat="52.241716" lon="10.546655"><ele>85</ele><time>2015-01-07T07:33:03.102Z</time></trkpt>
	<trkpt lat="52.241598" lon="10.546337"><ele>84</ele><time>2015-01-07T07:33:04.117Z</time></trkpt>
	<trkpt lat="52.241482" lon="10.546005"><ele>84</ele><time>2015-01-07T07:33:05.153Z</time></trkpt>
	<trkpt lat="52.241367" lon="10.545670"><ele>84</ele><time>2015-01-07T07:33:06.117Z</time></trkpt>
	<trkpt lat="52.241264" lon="10.545346"><ele>83</ele><time>2015-01-07T07:33:07.097Z</time></trkpt>
	<trkpt lat="52.241156" lon="10.545039"><ele>83</ele><time>2015-01-07T07:33:08.099Z</time></trkpt>
	<trkpt lat="52.241059" lon="10.544754"><ele>83</ele><time>2015-01-07T07:33:09.109Z</time></trkpt>
	<trkpt lat="52.240925" lon="10.544393"><ele>83</ele><time>2015-01-07T07:33:10.133Z</time></trkpt>
	<trkpt lat="52.240811" lon="10.544070"><ele>83</ele><time>2015-01-07T07:33:11.121Z</time></trkpt>
	<trkpt lat="52.240692" lon="10.543751"><ele>83</ele><time>2015-01-07T07:33:12.104Z</time></trkpt>
	<trkpt lat="52.240571" lon="10.543437"><ele>82</ele><time>2015-01-07T07:33:13.110Z</time></trkpt>
	<trkpt lat="52.240452" lon="10.543130"><ele>82</ele><time>2015-01-07T07:33:14.105Z</time></trkpt>
	<trkpt lat="52.240332" lon="10.542823"><ele>82</ele><time>2015-01-07T07:33:15.102Z</time></trkpt>
	<trkpt lat="52.240206" lon="10.542520"><ele>82</ele><time>2015-01-07T07:33:16.099Z</time></trkpt>
	<trkpt lat="52.240084" lon="10.542235"><ele>82</ele><time>2015-01-07T07:33:17.110Z</time></trkpt>
	<trkpt lat="52.239938" lon="10.541943"><ele>82</ele><time>2015-01-07T07:33:18.131Z</time></trkpt>
	<trkpt lat="52.239797" lon="10.541663"><ele>82</ele><time>2015-01-07T07:33:19.112Z</time></trkpt>
	<trkpt lat="52.239658" lon="10.541385"><ele>81</ele><time>2015-01-07T07:33:20.115Z</time></trkpt>
	<trkpt lat="52.239513" lon="10.541102"><ele>81</ele><time>2015-01-07T07:33:21.111Z</time></trkpt>
	<trkpt lat="52.239356" lon="10.540825"><ele>81</ele><time>2015-01-07T07:33:22.111Z</time></trkpt>
	<trkpt lat="52.239214" lon="10.540552"><ele>81</ele><time>2015-01-07T07:33:23.096Z</time></trkpt>
	<trkpt lat="52.239062" lon="10.540285"><ele>81</ele><time>2015-01-07T07:33:24.077Z</time></trkpt>
	<trkpt lat="52.238913" lon="10.540022"><ele>81</ele><time>2015-01-07T07:33:25.075Z</time></trkpt>
	<trkpt lat="52.238751" lon="10.539751"><ele>81</ele><time>2015-01-07T07:33:26.117Z</time></trkpt>
	<trkpt lat="52.238596" lon="10.539507"><ele>80</ele><time>2015-01-07T07:33:27.123Z</time></trkpt>
	<trkpt lat="52.238442" lon="10.539248"><ele>80</ele><time>2015-01-07T07:33:28.107Z</time></trkpt>
	<trkpt lat="52.238267" lon="10.538992"><ele>80</ele><time>2015-01-07T07:33:29.119Z</time></trkpt>
	<trkpt lat="52.238101" lon="10.538717"><ele>80</ele><time>2015-01-07T07:33:30.109Z</time></trkpt>
	<trkpt lat="52.237942" lon="10.538445"><ele>80</ele><time>2015-01-07T07:33:31.089Z</time></trkpt>
	<trkpt lat="52.237780" lon="10.538188"><ele>80</ele><time>2015-01-07T07:33:32.108Z</time></trkpt>
	<trkpt lat="52.237618" lon="10.537934"><ele>80</ele><time>2015-01-07T07:33:33.134Z</time></trkpt>
	<trkpt lat="52.237461" lon="10.537673"><ele>80</ele><time>2015-01-07T07:33:34.112Z</time></trkpt>
	<trkpt lat="52.237321" lon="10.537401"><ele>79</ele><time>2015-01-07T07:33:35.120Z</time></trkpt>
	<trkpt lat="52.237189" lon="10.537118"><ele>79</ele><time>2015-01-07T07:33:36.128Z</time></trkpt>
	<trkpt lat="52.237055" lon="10.536820"><ele>79</ele><time>2015-01-07T07:33:37.113Z</time></trkpt>
	<trkpt lat="52.236943" lon="10.536513"><ele>79</ele><time>2015-01-07T07:33:38.107Z</time></trkpt>
	<trkpt lat="52.236834" lon="10.536203"><ele>79</ele><time>2015-01-07T07:33:39.076Z</time></trkpt>
	<trkpt lat="52.236751" lon="10.535849"><ele>79</ele><time>2015-01-07T07:33:40.089Z</time></trkpt>
	<trkpt lat="52.236692" lon="10.535529"><ele>79</ele><time>2015-01-07T07:33:41.105Z</time></trkpt>
	<trkpt lat="52.236610" lon="10.535171"><ele>79</ele><time>2015-01-07T07:33:42.098Z</time></trkpt>
	<trkpt lat="52.236568" lon="10.534828"><ele>79</ele><time>2015-01-07T07:33:43.089Z</time></trkpt>
	<trkpt lat="52.236541" lon="10.534452"><ele>79</ele><time>2015-01-07T07:33:44.086Z</time></trkpt>
	<trkpt lat="52.236527" lon="10.534071"><ele>79</ele><time>2015-01-07T07:33:45.093Z</time></trkpt>
	<trkpt lat="52.236532" lon="10.533692"><ele>78</ele><time>2015-01-07T07:33:46.106Z</time></trkpt>
	<trkpt lat="52.236539" lon="10.533316"><ele>79</ele><time>2015-01-07T07:33:47.084Z</time></trkpt>
	<trkpt lat="52.236559" lon="10.532941"><ele>79</ele><time>2015-01-07T07:33:48.082Z</time></trkpt>
	<trkpt lat="52.236585" lon="10.532562"><ele>79</ele><time>2015-01-07T07:33:49.082Z</time></trkpt>
	<trkpt lat="52.236618" lon="10.532199"><ele>79</ele><time>2015-01-07T07:33:50.085Z</time></trkpt>
	<trkpt lat="52.236662" lon="10.531826"><ele>78</ele><time>2015-01-07T07:33:51.091Z</time></trkpt>
	<trkpt lat="52.236699" lon="10.531439"><ele>78</ele><time>2015-01-07T07:33:52.094Z</time></trkpt>
	<trkpt lat="52.236758" lon="10.531079"><ele>78</ele><time>2015-01-07T07:33:53.095Z</time></trkpt>
	<trkpt lat="52.236804" lon="10.530703"><ele>78</ele><time>2015-01-07T07:33:54.084Z</time></trkpt>
	<trkpt lat="52.236845" lon="10.530346"><ele>78</ele><time>2015-01-07T07:33:55.093Z</time></trkpt>
	<trkpt lat="52.236884" lon="10.529982"><ele>79</ele><time>2015-01-07T07:33:56.084Z</time></trkpt>
	<trkpt lat="52.236938" lon="10.529645"><ele>79</ele><time>2015-01-07T07:33:57.084Z</time></trkpt>
	<trkpt lat="52.236986" lon="10.529307"><ele>78</ele><time>2015-01-07T07:33:58.083Z</time></trkpt>
	<trkpt lat="52.237025" lon="10.528942"><ele>78</ele><time>2015-01-07T07:33:59.084Z</time></trkpt>
	<trkpt lat="52.237070" lon="10.528596"><ele>78</ele><time>2015-01-07T07:34:00.112Z</time></trkpt>
	<trkpt lat="52.237102" lon="10.528252"><ele>78</ele><time>2015-01-07T07:34:01.088Z</time></trkpt>
	<trkpt lat="52.237132" lon="10.527930"><ele>78</ele><time>2015-01-07T07:34:02.076Z</time></trkpt>
	<trkpt lat="52.237164" lon="10.527574"><ele>78</ele><time>2015-01-07T07:34:03.067Z</time></trkpt>
	<trkpt lat="52.237190" lon="10.527232"><ele>78</ele><time>2015-01-07T07:34:04.090Z</time></trkpt>
	<trkpt lat="52.237214" lon="10.526894"><ele>78</ele><time>2015-01-07T07:34:05.094Z</time></trkpt>
	<trkpt lat="52.237222" lon="10.526552"><ele>78</ele><time>2015-01-07T07:34:06.093Z</time></trkpt>
	<trkpt lat="52.237234" lon="10.526217"><ele>78</ele><time>2015-01-07T07:34:07.096Z</time></trkpt>
	<trkpt lat="52.237234" lon="10.525874"><ele>79</ele><time>2015-01-07T07:34:08.094Z</time></trkpt>
	<trkpt lat="52.237232" lon="10.525543"><ele>79</ele><time>2015-01-07T07:34:09.094Z</time></trkpt>
	<trkpt lat="52.237227" lon="10.525198"><ele>79</ele><time>2015-01-07T07:34:10.113Z</time></trkpt>
	<trkpt lat="52.237214" lon="10.524854"><ele>79</ele><time>2015-01-07T07:34:11.128Z</time></trkpt>
	<trkpt lat="52.237203" lon="10.524528"><ele>79</ele><time>2015-01-07T07:34:12.105Z</time></trkpt>
	<trkpt lat="52.237189" lon="10.524181"><ele>79</ele><time>2015-01-07T07:34:13.096Z</time></trkpt>
	<trkpt lat="52.237166" lon="10.523834"><ele>80</ele><time>2015-01-07T07:34:14.114Z</time></trkpt>
	<trkpt lat="52.237138" lon="10.523483"><ele>80</ele><time>2015-01-07T07:34:15.163Z</time></trkpt>
	<trkpt lat="52.237103" lon="10.523147"><ele>80</ele><time>2015-01-07T07:34:16.186Z</time></trkpt>
	<trkpt lat="52.237066" lon="10.522820"><ele>80</ele><time>2015-01-07T07:34:17.144Z</time></trkpt>
	<trkpt lat="52.237019" lon="10.522493"><ele>79</ele><time>2015-01-07T07:34:18.158Z</time></trkpt>
	<trkpt lat="52.236973" lon="10.522170"><ele>79</ele><time>2015-01-07T07:34:19.148Z</time></trkpt>
	<trkpt lat="52.236922" lon="10.521858"><ele>79</ele><time>2015-01-07T07:34:20.151Z</time></trkpt>
	<trkpt lat="52.236870" lon="10.521547"><ele>79</ele><time>2015-01-07T07:34:21.110Z</time></trkpt>
	<trkpt lat="52.236811" lon="10.521231"><ele>79</ele><time>2015-01-07T07:34:22.152Z</time></trkpt>
	<trkpt lat="52.236760" lon="10.520928"><ele>79</ele><time>2015-01-07T07:34:23.150Z</time></trkpt>
	<trkpt lat="52.236692" lon="10.520618"><ele>79</ele><time>2015-01-07T07:34:24.150Z</time></trkpt>
	<trkpt lat="52.236619" lon="10.520296"><ele>79</ele><time>2015-01-07T07:34:25.152Z</time></trkpt>
	<trkpt lat="52.236547" lon="10.519994"><ele>79</ele><time>2015-01-07T07:34:26.152Z</time></trkpt>
	<trkpt lat="52.236466" lon="10.519687"><ele>79</ele><time>2015-01-07T07:34:27.152Z</time></trkpt>
	<trkpt lat="52.236378" lon="10.519367"><ele>78</ele><time>2015-01-07T07:34:28.166Z</time></trkpt>
	<trkpt lat="52.236289" lon="10.519056"><ele>79</ele><time>2015-01-07T07:34:29.155Z</time></trkpt>
	<trkpt lat="52.236198" lon="10.518753"><ele>79</ele><time>2015-01-07T07:34:30.137Z</time></trkpt>
	<trkpt lat="52.236106" lon="10.518444"><ele>78</ele><time>2015-01-07T07:34:31.108Z</time></trkpt>
	<trkpt lat="52.236015" lon="10.518142"><ele>79</ele><time>2015-01-07T07:34:32.165Z</time></trkpt>
	<trkpt lat="52.235920" lon="10.517843"><ele>79</ele><time>2015-01-07T07:34:33.152Z</time></trkpt>
	<trkpt lat="52.235821" lon="10.517544"><ele>79</ele><time>2015-01-07T07:34:34.134Z</time></trkpt>
	<trkpt lat="52.235719" lon="10.517242"><ele>79</ele><time>2015-01-07T07:34:35.119Z</time></trkpt>
	<trkpt lat="52.235622" lon="10.516953"><ele>80</ele><time>2015-01-07T07:34:36.112Z</time></trkpt>
	<trkpt lat="52.235524" lon="10.516652"><ele>80</ele><time>2015-01-07T07:34:37.094Z</time></trkpt>
	<trkpt lat="52.235414" lon="10.516345"><ele>80</ele><time>2015-01-07T07:34:38.092Z</time></trkpt>
	<trkpt lat="52.235303" lon="10.516047"><ele>81</ele><time>2015-01-07T07:34:39.110Z</time></trkpt>
	<trkpt lat="52.235191" lon="10.515749"><ele>82</ele><time>2015-01-07T07:34:40.143Z</time></trkpt>
	<trkpt lat="52.235074" lon="10.515449"><ele>82</ele><time>2015-01-07T07:34:41.161Z</time></trkpt>
	<trkpt lat="52.234952" lon="10.515151"><ele>83</ele><time>2015-01-07T07:34:42.109Z</time></trkpt>
	<trkpt lat="52.234825" lon="10.514854"><ele>83</ele><time>2015-01-07T07:34:43.104Z</time></trkpt>
	<trkpt lat="52.234695" lon="10.514553"><ele>84</ele><time>2015-01-07T07:34:44.128Z</time></trkpt>
	<trkpt lat="52.234573" lon="10.514270"><ele>84</ele><time>2015-01-07T07:34:45.145Z</time></trkpt>
	<trkpt lat="52.234446" lon="10.513981"><ele>85</ele><time>2015-01-07T07:34:46.144Z</time></trkpt>
	<trkpt lat="52.234317" lon="10.513700"><ele>85</ele><time>2015-01-07T07:34:47.165Z</time></trkpt>
	<trkpt lat="52.234187" lon="10.513419"><ele>85</ele><time>2015-01-07T07:34:48.142Z</time></trkpt>
	<trkpt lat="52.234055" lon="10.513135"><ele>85</ele><time>2015-01-07T07:34:49.142Z</time></trkpt>
	<trkpt lat="52.233922" lon="10.512859"><ele>86</ele><time>2015-01-07T07:34:50.101Z</time></trkpt>
	<trkpt lat="52.233780" lon="10.512595"><ele>86</ele><time>2015-01-07T07:34:51.092Z</time></trkpt>
	<trkpt lat="52.233641" lon="10.512330"><ele>87</ele><time>2015-01-07T07:34:52.101Z</time></trkpt>
	<trkpt lat="52.233503" lon="10.512064"><ele>86</ele><time>2015-01-07T07:34:53.110Z</time></trkpt>
	<trkpt lat="52.233367" lon="10.511808"><ele>86</ele><time>2015-01-07T07:34:54.110Z</time></trkpt>
	<trkpt lat="52.233226" lon="10.511547"><ele>85</ele><time>2015-01-07T07:34:55.114Z</time></trkpt>
	<trkpt lat="52.233097" lon="10.511298"><ele>85</ele><time>2015-01-07T07:34:56.106Z</time></trkpt>
	<trkpt lat="52.232965" lon="10.511057"><ele>84</ele><time>2015-01-07T07:34:57.104Z</time></trkpt>
	<trkpt lat="52.232830" lon="10.510817"><ele>84</ele><time>2015-01-07T07:34:58.098Z</time></trkpt>
	<trkpt lat="52.232700" lon="10.510587"><ele>83</ele><time>2015-01-07T07:34:59.099Z</time></trkpt>
	<trkpt lat="52.232567" lon="10.510356"><ele>83</ele><time>2015-01-07T07:35:00.133Z</time></trkpt>
	<trkpt lat="52.232438" lon="10.510136"><ele>82</ele><time>2015-01-07T07:35:01.128Z</time></trkpt>
	<trkpt lat="52.232310" lon="10.509925"><ele>82</ele><time>2015-01-07T07:35:02.122Z</time></trkpt>
	<trkpt lat="52.232186" lon="10.509722"><ele>81</ele><time>2015-01-07T07:35:03.107Z</time></trkpt>
	<trkpt lat="52.232072" lon="10.509528"><ele>80</ele><time>2015-01-07T07:35:04.115Z</time></trkpt>
	<trkpt lat="52.231968" lon="10.509346"><ele>79</ele><time>2015-01-07T07:35:05.089Z</time></trkpt>
	<trkpt lat="52.231874" lon="10.509168"><ele>79</ele><time>2015-01-07T07:35:06.081Z</time></trkpt>
	<trkpt lat="52.231772" lon="10.508993"><ele>78</ele><time>2015-01-07T07:35:07.075Z</time></trkpt>
	<trkpt lat="52.231695" lon="10.508787"><ele>78</ele><time>2015-01-07T07:35:08.071Z</time></trkpt>
	<trkpt lat="52.231616" lon="10.508581"><ele>78</ele><time>2015-01-07T07:35:09.072Z</time></trkpt>
	<trkpt lat="52.231540" lon="10.508361"><ele>78</ele><time>2015-01-07T07:35:10.072Z</time></trkpt>
	<trkpt lat="52.231461" lon="10.508126"><ele>78</ele><time>2015-01-07T07:35:11.072Z</time></trkpt>
	<trkpt lat="52.231393" lon="10.507899"><ele>78</ele><time>2015-01-07T07:35:12.072Z</time></trkpt>
	<trkpt lat="52.231324" lon="10.507656"><ele>77</ele><time>2015-01-07T07:35:13.069Z</time></trkpt>
	<trkpt lat="52.231258" lon="10.507419"><ele>77</ele><time>2015-01-07T07:35:14.073Z</time></trkpt>
	<trkpt lat="52.231174" lon="10.507161"><ele>76</ele><time>2015-01-07T07:35:15.073Z</time></trkpt>
	<trkpt lat="52.231091" lon="10.506909"><ele>76</ele><time>2015-01-07T07:35:16.073Z</time></trkpt>
	<trkpt lat="52.230997" lon="10.506655"><ele>76</ele><time>2015-01-07T07:35:17.073Z</time></trkpt>
	<trkpt lat="52.230894" lon="10.506439"><ele>76</ele><time>2015-01-07T07:35:18.083Z</time></trkpt>
	<trkpt lat="52.230769" lon="10.506204"><ele>76</ele><time>2015-01-07T07:35:19.122Z</time></trkpt>
	<trkpt lat="52.230655" lon="10.505993"><ele>76</ele><time>2015-01-07T07:35:20.146Z</time></trkpt>
	<trkpt lat="52.230524" lon="10.505785"><ele>75</ele><time>2015-01-07T07:35:21.115Z</time></trkpt>
	<trkpt lat="52.230386" lon="10.505614"><ele>76</ele><time>2015-01-07T07:35:22.112Z</time></trkpt>
	<trkpt lat="52.230246" lon="10.505451"><ele>75</ele><time>2015-01-07T07:35:23.114Z</time></trkpt>
	<trkpt lat="52.230104" lon="10.505313"><ele>75</ele><time>2015-01-07T07:35:24.114Z</time></trkpt>
	<trkpt lat="52.229937" lon="10.505192"><ele>75</ele><time>2015-01-07T07:35:25.143Z</time></trkpt>
	<trkpt lat="52.229776" lon="10.505100"><ele>75</ele><time>2015-01-07T07:35:26.130Z</time></trkpt>
	<trkpt lat="52.229615" lon="10.505027"><ele>75</ele><time>2015-01-07T07:35:27.116Z</time></trkpt>
	<trkpt lat="52.229457" lon="10.504966"><ele>74</ele><time>2015-01-07T07:35:28.114Z</time></trkpt>
	<trkpt lat="52.229305" lon="10.504922"><ele>74</ele><time>2015-01-07T07:35:29.113Z</time></trkpt>
	<trkpt lat="52.229157" lon="10.504881"><ele>75</ele><time>2015-01-07T07:35:30.114Z</time></trkpt>
	<trkpt lat="52.229002" lon="10.504846"><ele>75</ele><time>2015-01-07T07:35:31.088Z</time></trkpt>
	<trkpt lat="52.228548" lon="10.504738"><ele>75</ele><time>2015-01-07T07:35:34.074Z</time></trkpt>
	<trkpt lat="52.228383" lon="10.504689"><ele>75</ele><time>2015-01-07T07:35:35.093Z</time></trkpt>
	<trkpt lat="52.228250" lon="10.504633"><ele>75</ele><time>2015-01-07T07:35:36.104Z</time></trkpt>
	<trkpt lat="52.228104" lon="10.504597"><ele>75</ele><time>2015-01-07T07:35:37.110Z</time></trkpt>
	<trkpt lat="52.227963" lon="10.504565"><ele>75</ele><time>2015-01-07T07:35:38.104Z</time></trkpt>
	<trkpt lat="52.227854" lon="10.504523"><ele>75</ele><time>2015-01-07T07:35:39.105Z</time></trkpt>
	<trkpt lat="52.227720" lon="10.504487"><ele>75</ele><time>2015-01-07T07:35:40.103Z</time></trkpt>
	<trkpt lat="52.227583" lon="10.504454"><ele>75</ele><time>2015-01-07T07:35:41.104Z</time></trkpt>
	<trkpt lat="52.227471" lon="10.504435"><ele>75</ele><time>2015-01-07T07:35:42.102Z</time></trkpt>
	<trkpt lat="52.227371" lon="10.504424"><ele>75</ele><time>2015-01-07T07:35:43.102Z</time></trkpt>
	<trkpt lat="52.227283" lon="10.504408"><ele>74</ele><time>2015-01-07T07:35:44.102Z</time></trkpt>
	<trkpt lat="52.227199" lon="10.504389"><ele>74</ele><time>2015-01-07T07:35:45.102Z</time></trkpt>
	<trkpt lat="52.227115" lon="10.504375"><ele>74</ele><time>2015-01-07T07:35:46.104Z</time></trkpt>
	<trkpt lat="52.227058" lon="10.504375"><ele>73</ele><time>2015-01-07T07:35:47.104Z</time></trkpt>
	<trkpt lat="52.227007" lon="10.504367"><ele>73</ele><time>2015-01-07T07:35:48.104Z</time></trkpt>
	<trkpt lat="52.226989" lon="10.504333"><ele>73</ele><time>2015-01-07T07:35:50.102Z</time></trkpt>
	<trkpt lat="52.226939" lon="10.504236"><ele>73</ele><time>2015-01-07T07:35:51.105Z</time></trkpt>
	<trkpt lat="52.226951" lon="10.504119"><ele>73</ele><time>2015-01-07T07:35:52.107Z</time></trkpt>
	<trkpt lat="52.226978" lon="10.504009"><ele>73</ele><time>2015-01-07T07:35:53.123Z</time></trkpt>
	<trkpt lat="52.226997" lon="10.503876"><ele>74</ele><time>2015-01-07T07:35:54.123Z</time></trkpt>
	<trkpt lat="52.227028" lon="10.503738"><ele>74</ele><time>2015-01-07T07:35:55.124Z</time></trkpt>
	<trkpt lat="52.227065" lon="10.503604"><ele>74</ele><time>2015-01-07T07:35:56.164Z</time></trkpt>
	<trkpt lat="52.227101" lon="10.503455"><ele>74</ele><time>2015-01-07T07:35:57.149Z</time></trkpt>
	<trkpt lat="52.227137" lon="10.503306"><ele>75</ele><time>2015-01-07T07:35:58.174Z</time></trkpt>
	<trkpt lat="52.227169" lon="10.503145"><ele>75</ele><time>2015-01-07T07:35:59.177Z</time></trkpt>
	<trkpt lat="52.227193" lon="10.502977"><ele>75</ele><time>2015-01-07T07:36:00.112Z</time></trkpt>
	<trkpt lat="52.227237" lon="10.502796"><ele>75</ele><time>2015-01-07T07:36:01.121Z</time></trkpt>
	<trkpt lat="52.227278" lon="10.502618"><ele>76</ele><time>2015-01-07T07:36:02.133Z</time></trkpt>
	<trkpt lat="52.227323" lon="10.502451"><ele>76</ele><time>2015-01-07T07:36:03.115Z</time></trkpt>
	<trkpt lat="52.227378" lon="10.502246"><ele>77</ele><time>2015-01-07T07:36:04.088Z</time></trkpt>
	<trkpt lat="52.227427" lon="10.502063"><ele>77</ele><time>2015-01-07T07:36:05.094Z</time></trkpt>
	<trkpt lat="52.227477" lon="10.501901"><ele>77</ele><time>2015-01-07T07:36:06.089Z</time></trkpt>
	<trkpt lat="52.227528" lon="10.501689"><ele>77</ele><time>2015-01-07T07:36:07.099Z</time></trkpt>
	<trkpt lat="52.227573" lon="10.501487"><ele>77</ele><time>2015-01-07T07:36:08.132Z</time></trkpt>
	<trkpt lat="52.227624" lon="10.501268"><ele>78</ele><time>2015-01-07T07:36:09.135Z</time></trkpt>
	<trkpt lat="52.227686" lon="10.501041"><ele>78</ele><time>2015-01-07T07:36:10.164Z</time></trkpt>
	<trkpt lat="52.227738" lon="10.500822"><ele>79</ele><time>2015-01-07T07:36:11.180Z</time></trkpt>
	<trkpt lat="52.227797" lon="10.500584"><ele>79</ele><time>2015-01-07T07:36:12.116Z</time></trkpt>
	<trkpt lat="52.227853" lon="10.500314"><ele>79</ele><time>2015-01-07T07:36:13.118Z</time></trkpt>
	<trkpt lat="52.227912" lon="10.500043"><ele>80</ele><time>2015-01-07T07:36:14.105Z</time></trkpt>
	<trkpt lat="52.227970" lon="10.499780"><ele>81</ele><time>2015-01-07T07:36:15.118Z</time></trkpt>
	<trkpt lat="52.228036" lon="10.499508"><ele>81</ele><time>2015-01-07T07:36:16.129Z</time></trkpt>
	<trkpt lat="52.228094" lon="10.499268"><ele>81</ele><time>2015-01-07T07:36:17.115Z</time></trkpt>
	<trkpt lat="52.228154" lon="10.498997"><ele>82</ele><time>2015-01-07T07:36:18.158Z</time></trkpt>
	<trkpt lat="52.228214" lon="10.498744"><ele>82</ele><time>2015-01-07T07:36:19.159Z</time></trkpt>
	<trkpt lat="52.228281" lon="10.498466"><ele>83</ele><time>2015-01-07T07:36:20.160Z</time></trkpt>
	<trkpt lat="52.228345" lon="10.498185"><ele>83</ele><time>2015-01-07T07:36:21.163Z</time></trkpt>
	<trkpt lat="52.228409" lon="10.497908"><ele>83</ele><time>2015-01-07T07:36:22.156Z</time></trkpt>
	<trkpt lat="52.228472" lon="10.497625"><ele>84</ele><time>2015-01-07T07:36:23.163Z</time></trkpt>
	<trkpt lat="52.228536" lon="10.497346"><ele>83</ele><time>2015-01-07T07:36:24.143Z</time></trkpt>
	<trkpt lat="52.228601" lon="10.497071"><ele>84</ele><time>2015-01-07T07:36:25.142Z</time></trkpt>
	<trkpt lat="52.228670" lon="10.496797"><ele>84</ele><time>2015-01-07T07:36:26.126Z</time></trkpt>
	<trkpt lat="52.228734" lon="10.496525"><ele>84</ele><time>2015-01-07T07:36:27.116Z</time></trkpt>
	<trkpt lat="52.228803" lon="10.496256"><ele>84</ele><time>2015-01-07T07:36:28.127Z</time></trkpt>
	<trkpt lat="52.228870" lon="10.495986"><ele>85</ele><time>2015-01-07T07:36:29.137Z</time></trkpt>
	<trkpt lat="52.228932" lon="10.495715"><ele>85</ele><time>2015-01-07T07:36:30.119Z</time></trkpt>
	<trkpt lat="52.228996" lon="10.495460"><ele>85</ele><time>2015-01-07T07:36:31.125Z</time></trkpt>
	<trkpt lat="52.229058" lon="10.495188"><ele>86</ele><time>2015-01-07T07:36:32.119Z</time></trkpt>
	<trkpt lat="52.229127" lon="10.494917"><ele>86</ele><time>2015-01-07T07:36:33.122Z</time></trkpt>
	<trkpt lat="52.229191" lon="10.494639"><ele>86</ele><time>2015-01-07T07:36:34.103Z</time></trkpt>
	<trkpt lat="52.229254" lon="10.494365"><ele>86</ele><time>2015-01-07T07:36:35.130Z</time></trkpt>
	<trkpt lat="52.229312" lon="10.494116"><ele>87</ele><time>2015-01-07T07:36:36.114Z</time></trkpt>
	<trkpt lat="52.229382" lon="10.493844"><ele>87</ele><time>2015-01-07T07:36:37.140Z</time></trkpt>
	<trkpt lat="52.229448" lon="10.493578"><ele>87</ele><time>2015-01-07T07:36:38.132Z</time></trkpt>
	<trkpt lat="52.229517" lon="10.493313"><ele>88</ele><time>2015-01-07T07:36:39.095Z</time></trkpt>
	<trkpt lat="52.229580" lon="10.493043"><ele>88</ele><time>2015-01-07T07:36:40.101Z</time></trkpt>
	<trkpt lat="52.229644" lon="10.492788"><ele>88</ele><time>2015-01-07T07:36:41.100Z</time></trkpt>
	<trkpt lat="52.229710" lon="10.492525"><ele>88</ele><time>2015-01-07T07:36:42.106Z</time></trkpt>
	<trkpt lat="52.229780" lon="10.492265"><ele>88</ele><time>2015-01-07T07:36:43.107Z</time></trkpt>
	<trkpt lat="52.229842" lon="10.491995"><ele>88</ele><time>2015-01-07T07:36:44.098Z</time></trkpt>
	<trkpt lat="52.229908" lon="10.491720"><ele>89</ele><time>2015-01-07T07:36:45.106Z</time></trkpt>
	<trkpt lat="52.229978" lon="10.491448"><ele>89</ele><time>2015-01-07T07:36:46.102Z</time></trkpt>
	<trkpt lat="52.230046" lon="10.491161"><ele>89</ele><time>2015-01-07T07:36:47.132Z</time></trkpt>
	<trkpt lat="52.230126" lon="10.490885"><ele>89</ele><time>2015-01-07T07:36:48.100Z</time></trkpt>
	<trkpt lat="52.230198" lon="10.490619"><ele>89</ele><time>2015-01-07T07:36:49.127Z</time></trkpt>
	<trkpt lat="52.230271" lon="10.490358"><ele>89</ele><time>2015-01-07T07:36:50.126Z</time></trkpt>
	<trkpt lat="52.230353" lon="10.490083"><ele>88</ele><time>2015-01-07T07:36:51.117Z</time></trkpt>
	<trkpt lat="52.230426" lon="10.489837"><ele>88</ele><time>2015-01-07T07:36:52.107Z</time></trkpt>
	<trkpt lat="52.230508" lon="10.489604"><ele>87</ele><time>2015-01-07T07:36:53.100Z</time></trkpt>
	<trkpt lat="52.230594" lon="10.489379"><ele>87</ele><time>2015-01-07T07:36:54.103Z</time></trkpt>
	<trkpt lat="52.230689" lon="10.489165"><ele>86</ele><time>2015-01-07T07:36:55.097Z</time></trkpt>
	<trkpt lat="52.230785" lon="10.488972"><ele>86</ele><time>2015-01-07T07:36:56.118Z</time></trkpt>
	<trkpt lat="52.230870" lon="10.488801"><ele>85</ele><time>2015-01-07T07:36:57.124Z</time></trkpt>
	<trkpt lat="52.230957" lon="10.488657"><ele>84</ele><time>2015-01-07T07:36:58.109Z</time></trkpt>
	<trkpt lat="52.231043" lon="10.488531"><ele>84</ele><time>2015-01-07T07:36:59.086Z</time></trkpt>
	<trkpt lat="52.231117" lon="10.488430"><ele>83</ele><time>2015-01-07T07:37:00.095Z</time></trkpt>
	<trkpt lat="52.231181" lon="10.488357"><ele>82</ele><time>2015-01-07T07:37:01.105Z</time></trkpt>
	<trkpt lat="52.231225" lon="10.488298"><ele>82</ele><time>2015-01-07T07:37:02.102Z</time></trkpt>
	<trkpt lat="52.231234" lon="10.488304"><ele>82</ele><time>2015-01-07T07:37:03.102Z</time></trkpt>
	<trkpt lat="52.231237" lon="10.488309"><ele>81</ele><time>2015-01-07T07:37:04.101Z</time></trkpt>
	<trkpt lat="52.231238" lon="10.488310"><ele>81</ele><time>2015-01-07T07:37:05.101Z</time></trkpt>
	<trkpt lat="52.231234" lon="10.488303"><ele>81</ele><time>2015-01-07T07:37:09.093Z</time></trkpt>
	<trkpt lat="52.231285" lon="10.488250"><ele>82</ele><time>2015-01-07T07:37:10.089Z</time></trkpt>
	<trkpt lat="52.231306" lon="10.488234"><ele>82</ele><time>2015-01-07T07:37:11.115Z</time></trkpt>
	<trkpt lat="52.231339" lon="10.488199"><ele>82</ele><time>2015-01-07T07:37:12.132Z</time></trkpt>
	<trkpt lat="52.231380" lon="10.488160"><ele>82</ele><time>2015-01-07T07:37:13.161Z</time></trkpt>
	<trkpt lat="52.231435" lon="10.488098"><ele>82</ele><time>2015-01-07T07:37:14.149Z</time></trkpt>
	<trkpt lat="52.231492" lon="10.488033"><ele>82</ele><time>2015-01-07T07:37:15.141Z</time></trkpt>
	<trkpt lat="52.231560" lon="10.487980"><ele>82</ele><time>2015-01-07T07:37:16.135Z</time></trkpt>
	<trkpt lat="52.231676" lon="10.487905"><ele>82</ele><time>2015-01-07T07:37:17.125Z</time></trkpt>
	<trkpt lat="52.231781" lon="10.487838"><ele>83</ele><time>2015-01-07T07:37:18.155Z</time></trkpt>
	<trkpt lat="52.231909" lon="10.487783"><ele>82</ele><time>2015-01-07T07:37:19.170Z</time></trkpt>
	<trkpt lat="52.232024" lon="10.487738"><ele>82</ele><time>2015-01-07T07:37:20.173Z</time></trkpt>
	<trkpt lat="52.232149" lon="10.487700"><ele>82</ele><time>2015-01-07T07:37:21.191Z</time></trkpt>
	<trkpt lat="52.232271" lon="10.487671"><ele>82</ele><time>2015-01-07T07:37:22.133Z</time></trkpt>
	<trkpt lat="52.232409" lon="10.487654"><ele>82</ele><time>2015-01-07T07:37:23.169Z</time></trkpt>
	<trkpt lat="52.232545" lon="10.487660"><ele>81</ele><time>2015-01-07T07:37:24.117Z</time></trkpt>
	<trkpt lat="52.232678" lon="10.487668"><ele>81</ele><time>2015-01-07T07:37:25.092Z</time></trkpt>
	<trkpt lat="52.232809" lon="10.487680"><ele>81</ele><time>2015-01-07T07:37:26.099Z</time></trkpt>
	<trkpt lat="52.232944" lon="10.487694"><ele>81</ele><time>2015-01-07T07:37:27.090Z</time></trkpt>
	<trkpt lat="52.233067" lon="10.487717"><ele>81</ele><time>2015-01-07T07:37:28.090Z</time></trkpt>
	<trkpt lat="52.233197" lon="10.487809"><ele>81</ele><time>2015-01-07T07:37:29.090Z</time></trkpt>
	<trkpt lat="52.233334" lon="10.487802"><ele>80</ele><time>2015-01-07T07:37:30.098Z</time></trkpt>
	<trkpt lat="52.233471" lon="10.487810"><ele>80</ele><time>2015-01-07T07:37:31.096Z</time></trkpt>
	<trkpt lat="52.233605" lon="10.487840"><ele>80</ele><time>2015-01-07T07:37:32.114Z</time></trkpt>
	<trkpt lat="52.233762" lon="10.487865"><ele>81</ele><time>2015-01-07T07:37:33.098Z</time></trkpt>
	<trkpt lat="52.233922" lon="10.487884"><ele>80</ele><time>2015-01-07T07:37:34.114Z</time></trkpt>
	<trkpt lat="52.234068" lon="10.487899"><ele>80</ele><time>2015-01-07T07:37:35.091Z</time></trkpt>
	<trkpt lat="52.234224" lon="10.487900"><ele>80</ele><time>2015-01-07T07:37:36.088Z</time></trkpt>
	<trkpt lat="52.234375" lon="10.487907"><ele>79</ele><time>2015-01-07T07:37:37.137Z</time></trkpt>
	<trkpt lat="52.234526" lon="10.487923"><ele>80</ele><time>2015-01-07T07:37:38.133Z</time></trkpt>
	<trkpt lat="52.234682" lon="10.487944"><ele>80</ele><time>2015-01-07T07:37:39.133Z</time></trkpt>
	<trkpt lat="52.234835" lon="10.487966"><ele>80</ele><time>2015-01-07T07:37:40.123Z</time></trkpt>
	<trkpt lat="52.234984" lon="10.487986"><ele>80</ele><time>2015-01-07T07:37:41.134Z</time></trkpt>
	<trkpt lat="52.235125" lon="10.488006"><ele>80</ele><time>2015-01-07T07:37:42.137Z</time></trkpt>
	<trkpt lat="52.235281" lon="10.488031"><ele>80</ele><time>2015-01-07T07:37:43.137Z</time></trkpt>
	<trkpt lat="52.235436" lon="10.488056"><ele>81</ele><time>2015-01-07T07:37:44.136Z</time></trkpt>
	<trkpt lat="52.235575" lon="10.488080"><ele>81</ele><time>2015-01-07T07:37:45.154Z</time></trkpt>
	<trkpt lat="52.235723" lon="10.488107"><ele>82</ele><time>2015-01-07T07:37:46.149Z</time></trkpt>
	<trkpt lat="52.235879" lon="10.488135"><ele>82</ele><time>2015-01-07T07:37:47.141Z</time></trkpt>
	<trkpt lat="52.236020" lon="10.488160"><ele>82</ele><time>2015-01-07T07:37:48.161Z</time></trkpt>
	<trkpt lat="52.236159" lon="10.488186"><ele>83</ele><time>2015-01-07T07:37:49.137Z</time></trkpt>
	<trkpt lat="52.236296" lon="10.488212"><ele>83</ele><time>2015-01-07T07:37:50.115Z</time></trkpt>
	<trkpt lat="52.236434" lon="10.488238"><ele>84</ele><time>2015-01-07T07:37:51.147Z</time></trkpt>
	<trkpt lat="52.236560" lon="10.488259"><ele>84</ele><time>2015-01-07T07:37:52.108Z</time></trkpt>
	<trkpt lat="52.236676" lon="10.488281"><ele>85</ele><time>2015-01-07T07:37:53.128Z</time></trkpt>
	<trkpt lat="52.236780" lon="10.488300"><ele>85</ele><time>2015-01-07T07:37:54.094Z</time></trkpt>
	<trkpt lat="52.236874" lon="10.488318"><ele>85</ele><time>2015-01-07T07:37:55.095Z</time></trkpt>
	<trkpt lat="52.236968" lon="10.488336"><ele>85</ele><time>2015-01-07T07:37:56.098Z</time></trkpt>
	<trkpt lat="52.237058" lon="10.488357"><ele>85</ele><time>2015-01-07T07:37:57.133Z</time></trkpt>
	<trkpt lat="52.237141" lon="10.488372"><ele>85</ele><time>2015-01-07T07:37:58.095Z</time></trkpt>
	<trkpt lat="52.237219" lon="10.488387"><ele>85</ele><time>2015-01-07T07:37:59.098Z</time></trkpt>
	<trkpt lat="52.237284" lon="10.488395"><ele>84</ele><time>2015-01-07T07:38:00.098Z</time></trkpt>
	<trkpt lat="52.237342" lon="10.488402"><ele>84</ele><time>2015-01-07T07:38:01.094Z</time></trkpt>
	<trkpt lat="52.237386" lon="10.488412"><ele>84</ele><time>2015-01-07T07:38:02.103Z</time></trkpt>
	<trkpt lat="52.237429" lon="10.488420"><ele>84</ele><time>2015-01-07T07:38:03.122Z</time></trkpt>
	<trkpt lat="52.237452" lon="10.488421"><ele>83</ele><time>2015-01-07T07:38:04.101Z</time></trkpt>
	<trkpt lat="52.237471" lon="10.488428"><ele>83</ele><time>2015-01-07T07:38:05.110Z</time></trkpt>
	<trkpt lat="52.237488" lon="10.488428"><ele>83</ele><time>2015-01-07T07:38:06.127Z</time></trkpt>
	<trkpt lat="52.237496" lon="10.488426"><ele>83</ele><time>2015-01-07T07:38:07.175Z</time></trkpt>
	<trkpt lat="52.237497" lon="10.488426"><ele>83</ele><time>2015-01-07T07:38:08.176Z</time></trkpt>
	<trkpt lat="52.237496" lon="10.488426"><ele>83</ele><time>2015-01-07T07:38:09.163Z</time></trkpt>
	<trkpt lat="52.237487" lon="10.488417"><ele>83</ele><time>2015-01-07T07:38:10.149Z</time></trkpt>
	<trkpt lat="52.237485" lon="10.488406"><ele>84</ele><time>2015-01-07T07:38:35.158Z</time></trkpt>
	<trkpt lat="52.237498" lon="10.488415"><ele>84</ele><time>2015-01-07T07:38:36.163Z</time></trkpt>
	<trkpt lat="52.237523" lon="10.488413"><ele>84</ele><time>2015-01-07T07:38:37.159Z</time></trkpt>
	<trkpt lat="52.237576" lon="10.488417"><ele>84</ele><time>2015-01-07T07:38:38.140Z</time></trkpt>
	<trkpt lat="52.237598" lon="10.488421"><ele>84</ele><time>2015-01-07T07:38:39.137Z</time></trkpt>
	<trkpt lat="52.237704" lon="10.488433"><ele>84</ele><time>2015-01-07T07:38:40.145Z</time></trkpt>
	<trkpt lat="52.237785" lon="10.488433"><ele>84</ele><time>2015-01-07T07:38:41.158Z</time></trkpt>
	<trkpt lat="52.237882" lon="10.488441"><ele>85</ele><time>2015-01-07T07:38:42.142Z</time></trkpt>
	<trkpt lat="52.237987" lon="10.488438"><ele>84</ele><time>2015-01-07T07:38:43.126Z</time></trkpt>
	<trkpt lat="52.238101" lon="10.488444"><ele>84</ele><time>2015-01-07T07:38:44.114Z</time></trkpt>
	<trkpt lat="52.238222" lon="10.488443"><ele>84</ele><time>2015-01-07T07:38:45.122Z</time></trkpt>
	<trkpt lat="52.238368" lon="10.488432"><ele>84</ele><time>2015-01-07T07:38:46.137Z</time></trkpt>
	<trkpt lat="52.238502" lon="10.488420"><ele>84</ele><time>2015-01-07T07:38:47.109Z</time></trkpt>
	<trkpt lat="52.238637" lon="10.488410"><ele>83</ele><time>2015-01-07T07:38:48.124Z</time></trkpt>
	<trkpt lat="52.238776" lon="10.488398"><ele>83</ele><time>2015-01-07T07:38:49.111Z</time></trkpt>
	<trkpt lat="52.238918" lon="10.488389"><ele>82</ele><time>2015-01-07T07:38:50.094Z</time></trkpt>
	<trkpt lat="52.239070" lon="10.488381"><ele>82</ele><time>2015-01-07T07:38:51.090Z</time></trkpt>
	<trkpt lat="52.239214" lon="10.488374"><ele>81</ele><time>2015-01-07T07:38:52.085Z</time></trkpt>
	<trkpt lat="52.239361" lon="10.488367"><ele>81</ele><time>2015-01-07T07:38:53.087Z</time></trkpt>
	<trkpt lat="52.239508" lon="10.488361"><ele>81</ele><time>2015-01-07T07:38:54.087Z</time></trkpt>
	<trkpt lat="52.239656" lon="10.488356"><ele>81</ele><time>2015-01-07T07:38:55.084Z</time></trkpt>
	<trkpt lat="52.239798" lon="10.488356"><ele>80</ele><time>2015-01-07T07:38:56.086Z</time></trkpt>
	<trkpt lat="52.239944" lon="10.488363"><ele>79</ele><time>2015-01-07T07:38:57.085Z</time></trkpt>
	<trkpt lat="52.240079" lon="10.488374"><ele>79</ele><time>2015-01-07T07:38:58.086Z</time></trkpt>
	<trkpt lat="52.240209" lon="10.488386"><ele>78</ele><time>2015-01-07T07:38:59.087Z</time></trkpt>
	<trkpt lat="52.240329" lon="10.488400"><ele>78</ele><time>2015-01-07T07:39:00.086Z</time></trkpt>
	<trkpt lat="52.240442" lon="10.488411"><ele>77</ele><time>2015-01-07T07:39:01.121Z</time></trkpt>
	<trkpt lat="52.240549" lon="10.488423"><ele>77</ele><time>2015-01-07T07:39:02.124Z</time></trkpt>
	<trkpt lat="52.240647" lon="10.488437"><ele>77</ele><time>2015-01-07T07:39:03.133Z</time></trkpt>
	<trkpt lat="52.240745" lon="10.488457"><ele>77</ele><time>2015-01-07T07:39:04.168Z</time></trkpt>
	<trkpt lat="52.240830" lon="10.488476"><ele>76</ele><time>2015-01-07T07:39:05.151Z</time></trkpt>
	<trkpt lat="52.240903" lon="10.488494"><ele>76</ele><time>2015-01-07T07:39:06.140Z</time></trkpt>
	<trkpt lat="52.240968" lon="10.488510"><ele>76</ele><time>2015-01-07T07:39:07.157Z</time></trkpt>
	<trkpt lat="52.240988" lon="10.488514"><ele>76</ele><time>2015-01-07T07:39:08.183Z</time></trkpt>
	<trkpt lat="52.241056" lon="10.488530"><ele>76</ele><time>2015-01-07T07:39:09.182Z</time></trkpt>
	<trkpt lat="52.241076" lon="10.488382"><ele>76</ele><time>2015-01-07T07:39:10.189Z</time></trkpt>
	<trkpt lat="52.241083" lon="10.488300"><ele>76</ele><time>2015-01-07T07:39:11.103Z</time></trkpt>
	<trkpt lat="52.241088" lon="10.488211"><ele>76</ele><time>2015-01-07T07:39:12.131Z</time></trkpt>
	<trkpt lat="52.241094" lon="10.488125"><ele>76</ele><time>2015-01-07T07:39:13.163Z</time></trkpt>
	<trkpt lat="52.241099" lon="10.488049"><ele>76</ele><time>2015-01-07T07:39:14.151Z</time></trkpt>
	<trkpt lat="52.241104" lon="10.487982"><ele>76</ele><time>2015-01-07T07:39:15.155Z</time></trkpt>
	<trkpt lat="52.241107" lon="10.487938"><ele>75</ele><time>2015-01-07T07:39:16.122Z</time></trkpt>
	<trkpt lat="52.241109" lon="10.487909"><ele>75</ele><time>2015-01-07T07:39:17.140Z</time></trkpt>
	<trkpt lat="52.241110" lon="10.487896"><ele>75</ele><time>2015-01-07T07:39:18.108Z</time></trkpt>
	<trkpt lat="52.241110" lon="10.487898"><ele>75</ele><time>2015-01-07T07:39:19.101Z</time></trkpt>
	<trkpt lat="52.241110" lon="10.487897"><ele>76</ele><time>2015-01-07T07:39:41.124Z</time></trkpt>
	<trkpt lat="52.241112" lon="10.487867"><ele>76</ele><time>2015-01-07T07:39:42.099Z</time></trkpt>
	<trkpt lat="52.241115" lon="10.487824"><ele>76</ele><time>2015-01-07T07:39:43.110Z</time></trkpt>
	<trkpt lat="52.241120" lon="10.487746"><ele>76</ele><time>2015-01-07T07:39:44.115Z</time></trkpt>
	<trkpt lat="52.241126" lon="10.487660"><ele>76</ele><time>2015-01-07T07:39:45.089Z</time></trkpt>
	<trkpt lat="52.241130" lon="10.487595"><ele>76</ele><time>2015-01-07T07:39:46.095Z</time></trkpt>
	<trkpt lat="52.241138" lon="10.487461"><ele>77</ele><time>2015-01-07T07:39:47.091Z</time></trkpt>
	<trkpt lat="52.241145" lon="10.487335"><ele>77</ele><time>2015-01-07T07:39:48.099Z</time></trkpt>
	<trkpt lat="52.241153" lon="10.487195"><ele>77</ele><time>2015-01-07T07:39:49.099Z</time></trkpt>
	<trkpt lat="52.241161" lon="10.487049"><ele>77</ele><time>2015-01-07T07:39:50.080Z</time></trkpt>
	<trkpt lat="52.241168" lon="10.486914"><ele>78</ele><time>2015-01-07T07:39:51.101Z</time></trkpt>
	<trkpt lat="52.241160" lon="10.486734"><ele>78</ele><time>2015-01-07T07:39:52.127Z</time></trkpt>
	<trkpt lat="52.241182" lon="10.486559"><ele>78</ele><time>2015-01-07T07:39:53.136Z</time></trkpt>
	<trkpt lat="52.241204" lon="10.486387"><ele>78</ele><time>2015-01-07T07:39:54.119Z</time></trkpt>
	<trkpt lat="52.241218" lon="10.486275"><ele>78</ele><time>2015-01-07T07:39:55.104Z</time></trkpt>
	<trkpt lat="52.241241" lon="10.486018"><ele>78</ele><time>2015-01-07T07:39:56.115Z</time></trkpt>
	<trkpt lat="52.241258" lon="10.485826"><ele>79</ele><time>2015-01-07T07:39:57.117Z</time></trkpt>
	<trkpt lat="52.241275" lon="10.485627"><ele>78</ele><time>2015-01-07T07:39:58.118Z</time></trkpt>
	<trkpt lat="52.241293" lon="10.485424"><ele>78</ele><time>2015-01-07T07:39:59.113Z</time></trkpt>
	<trkpt lat="52.241312" lon="10.485226"><ele>78</ele><time>2015-01-07T07:40:00.138Z</time></trkpt>
	<trkpt lat="52.241332" lon="10.485029"><ele>78</ele><time>2015-01-07T07:40:01.144Z</time></trkpt>
	<trkpt lat="52.241350" lon="10.484843"><ele>78</ele><time>2015-01-07T07:40:02.134Z</time></trkpt>
	<trkpt lat="52.241369" lon="10.484659"><ele>78</ele><time>2015-01-07T07:40:03.143Z</time></trkpt>
	<trkpt lat="52.241389" lon="10.484472"><ele>78</ele><time>2015-01-07T07:40:04.199Z</time></trkpt>
	<trkpt lat="52.241409" lon="10.484292"><ele>78</ele><time>2015-01-07T07:40:05.196Z</time></trkpt>
	<trkpt lat="52.241432" lon="10.484116"><ele>78</ele><time>2015-01-07T07:40:06.147Z</time></trkpt>
	<trkpt lat="52.241456" lon="10.483955"><ele>78</ele><time>2015-01-07T07:40:07.200Z</time></trkpt>
	<trkpt lat="52.241479" lon="10.483799"><ele>78</ele><time>2015-01-07T07:40:08.194Z</time></trkpt>
	<trkpt lat="52.241502" lon="10.483645"><ele>78</ele><time>2015-01-07T07:40:09.193Z</time></trkpt>
	<trkpt lat="52.241526" lon="10.483491"><ele>78</ele><time>2015-01-07T07:40:10.194Z</time></trkpt>
	<trkpt lat="52.241550" lon="10.483338"><ele>79</ele><time>2015-01-07T07:40:11.191Z</time></trkpt>
	<trkpt lat="52.241572" lon="10.483199"><ele>79</ele><time>2015-01-07T07:40:12.196Z</time></trkpt>
	<trkpt lat="52.241591" lon="10.483080"><ele>78</ele><time>2015-01-07T07:40:13.199Z</time></trkpt>
	<trkpt lat="52.241610" lon="10.482966"><ele>78</ele><time>2015-01-07T07:40:14.189Z</time></trkpt>
	<trkpt lat="52.241624" lon="10.482881"><ele>78</ele><time>2015-01-07T07:40:15.147Z</time></trkpt>
	<trkpt lat="52.241634" lon="10.482818"><ele>77</ele><time>2015-01-07T07:40:16.152Z</time></trkpt>
	<trkpt lat="52.241641" lon="10.482772"><ele>77</ele><time>2015-01-07T07:40:17.177Z</time></trkpt>
	<trkpt lat="52.241712" lon="10.482783"><ele>77</ele><time>2015-01-07T07:40:18.171Z</time></trkpt>
	<trkpt lat="52.241749" lon="10.482797"><ele>78</ele><time>2015-01-07T07:40:19.188Z</time></trkpt>
	<trkpt lat="52.241787" lon="10.482812"><ele>78</ele><time>2015-01-07T07:40:20.209Z</time></trkpt>
	<trkpt lat="52.241833" lon="10.482829"><ele>78</ele><time>2015-01-07T07:40:21.188Z</time></trkpt>
	<trkpt lat="52.241890" lon="10.482851"><ele>78</ele><time>2015-01-07T07:40:22.137Z</time></trkpt>
	<trkpt lat="52.241957" lon="10.482876"><ele>79</ele><time>2015-01-07T07:40:23.140Z</time></trkpt>
	<trkpt lat="52.242026" lon="10.482902"><ele>79</ele><time>2015-01-07T07:40:24.185Z</time></trkpt>
	<trkpt lat="52.242106" lon="10.482933"><ele>79</ele><time>2015-01-07T07:40:25.192Z</time></trkpt>
	<trkpt lat="52.242179" lon="10.482960"><ele>79</ele><time>2015-01-07T07:40:26.234Z</time></trkpt>
	<trkpt lat="52.242256" lon="10.482990"><ele>79</ele><time>2015-01-07T07:40:27.191Z</time></trkpt>
	<trkpt lat="52.242333" lon="10.483019"><ele>79</ele><time>2015-01-07T07:40:28.172Z</time></trkpt>
	<trkpt lat="52.242406" lon="10.483047"><ele>79</ele><time>2015-01-07T07:40:29.184Z</time></trkpt>
	<trkpt lat="52.242475" lon="10.483073"><ele>79</ele><time>2015-01-07T07:40:30.183Z</time></trkpt>
	<trkpt lat="52.242542" lon="10.483099"><ele>79</ele><time>2015-01-07T07:40:31.130Z</time></trkpt>
	<trkpt lat="52.242606" lon="10.483124"><ele>79</ele><time>2015-01-07T07:40:32.133Z</time></trkpt>
	<trkpt lat="52.242665" lon="10.483150"><ele>79</ele><time>2015-01-07T07:40:33.144Z</time></trkpt>
	<trkpt lat="52.242718" lon="10.483176"><ele>79</ele><time>2015-01-07T07:40:34.178Z</time></trkpt>
	<trkpt lat="52.242774" lon="10.483209"><ele>79</ele><time>2015-01-07T07:40:35.182Z</time></trkpt>
	<trkpt lat="52.242821" lon="10.483241"><ele>79</ele><time>2015-01-07T07:40:36.185Z</time></trkpt>
	<trkpt lat="52.242855" lon="10.483268"><ele>79</ele><time>2015-01-07T07:40:37.180Z</time></trkpt>
	<trkpt lat="52.242888" lon="10.483299"><ele>79</ele><time>2015-01-07T07:40:38.142Z</time></trkpt>
	<trkpt lat="52.242921" lon="10.483330"><ele>79</ele><time>2015-01-07T07:40:39.173Z</time></trkpt>
	<trkpt lat="52.242936" lon="10.483346"><ele>79</ele><time>2015-01-07T07:40:40.187Z</time></trkpt>
	<trkpt lat="52.242950" lon="10.483361"><ele>79</ele><time>2015-01-07T07:40:41.179Z</time></trkpt>
	<trkpt lat="52.242966" lon="10.483378"><ele>79</ele><time>2015-01-07T07:40:42.173Z</time></trkpt>
	<trkpt lat="52.242968" lon="10.483380"><ele>79</ele><time>2015-01-07T07:40:43.176Z</time></trkpt>
	<trkpt lat="52.242976" lon="10.483389"><ele>79</ele><time>2015-01-07T07:40:44.171Z</time></trkpt>
	<trkpt lat="52.242978" lon="10.483391"><ele>79</ele><time>2015-01-07T07:40:46.219Z</time></trkpt>
	<trkpt lat="52.242984" lon="10.483397"><ele>79</ele><time>2015-01-07T07:40:47.217Z</time></trkpt>
	<trkpt lat="52.242993" lon="10.483406"><ele>79</ele><time>2015-01-07T07:40:48.158Z</time></trkpt>
	<trkpt lat="52.243003" lon="10.483417"><ele>79</ele><time>2015-01-07T07:40:49.120Z</time></trkpt>
	<trkpt lat="52.243010" lon="10.483425"><ele>79</ele><time>2015-01-07T07:40:51.201Z</time></trkpt>
	<trkpt lat="52.243010" lon="10.483425"><ele>79</ele><time>2015-01-07T07:40:52.201Z</time></trkpt>
	<trkpt lat="52.243015" lon="10.483430"><ele>79</ele><time>2015-01-07T07:40:54.167Z</time></trkpt>
	<trkpt lat="52.243018" lon="10.483433"><ele>79</ele><time>2015-01-07T07:40:55.180Z</time></trkpt>
	<trkpt lat="52.243017" lon="10.483432"><ele>79</ele><time>2015-01-07T07:41:29.234Z</time></trkpt>
	<trkpt lat="52.243039" lon="10.483455"><ele>79</ele><time>2015-01-07T07:41:30.192Z</time></trkpt>
	<trkpt lat="52.243032" lon="10.483448"><ele>80</ele><time>2015-01-07T07:42:03.120Z</time></trkpt>
	<trkpt lat="52.243030" lon="10.483446"><ele>80</ele><time>2015-01-07T07:42:04.122Z</time></trkpt>
	<trkpt lat="52.243031" lon="10.483447"><ele>80</ele><time>2015-01-07T07:42:49.123Z</time></trkpt>
	<trkpt lat="52.243043" lon="10.483460"><ele>80</ele><time>2015-01-07T07:42:50.125Z</time></trkpt>
	<trkpt lat="52.243036" lon="10.483452"><ele>84</ele><time>2015-01-07T07:51:50.137Z</time></trkpt>
	<trkpt lat="52.243034" lon="10.483450"><ele>84</ele><time>2015-01-07T07:51:51.093Z</time></trkpt>
	<trkpt lat="52.243032" lon="10.483448"><ele>84</ele><time>2015-01-07T07:52:21.084Z</time></trkpt>
	<trkpt lat="52.243026" lon="10.483442"><ele>84</ele><time>2015-01-07T07:52:22.079Z</time></trkpt>
	<trkpt lat="52.243026" lon="10.483441"><ele>84</ele><time>2015-01-07T07:52:41.163Z</time></trkpt>
	<trkpt lat="52.243034" lon="10.483450"><ele>84</ele><time>2015-01-07T07:52:42.106Z</time></trkpt>
	<trkpt lat="52.243035" lon="10.483451"><ele>84</ele><time>2015-01-07T07:53:09.177Z</time></trkpt>
	<trkpt lat="52.243043" lon="10.483460"><ele>84</ele><time>2015-01-07T07:53:10.105Z</time></trkpt>
	<trkpt lat="52.243043" lon="10.483460"><ele>84</ele><time>2015-01-07T08:00:20.171Z</time></trkpt>
	<trkpt lat="52.243043" lon="10.483460"><ele>84</ele><time>2015-01-07T08:00:21.137Z</time></trkpt>
	<trkpt lat="52.243046" lon="10.483463"><ele>84</ele><time>2015-01-07T08:00:22.139Z</time></trkpt>
	<trkpt lat="52.243050" lon="10.483444"><ele>84</ele><time>2015-01-07T08:00:23.099Z</time></trkpt>
	<trkpt lat="52.243029" lon="10.483384"><ele>84</ele><time>2015-01-07T08:00:24.100Z</time></trkpt>
	<trkpt lat="52.242992" lon="10.483314"><ele>84</ele><time>2015-01-07T08:00:25.073Z</time></trkpt>
	<trkpt lat="52.242948" lon="10.483261"><ele>84</ele><time>2015-01-07T08:00:26.071Z</time></trkpt>
	<trkpt lat="52.242868" lon="10.483281"><ele>84</ele><time>2015-01-07T08:00:27.061Z</time></trkpt>
	<trkpt lat="52.242838" lon="10.483254"><ele>85</ele><time>2015-01-07T08:00:28.086Z</time></trkpt>
	<trkpt lat="52.242731" lon="10.483183"><ele>85</ele><time>2015-01-07T08:00:29.063Z</time></trkpt>
	<trkpt lat="52.242628" lon="10.483133"><ele>85</ele><time>2015-01-07T08:00:30.089Z</time></trkpt>
	<trkpt lat="52.242493" lon="10.483080"><ele>85</ele><time>2015-01-07T08:00:31.071Z</time></trkpt>
	<trkpt lat="52.242381" lon="10.483037"><ele>85</ele><time>2015-01-07T08:00:32.071Z</time></trkpt>
	<trkpt lat="52.242287" lon="10.483002"><ele>85</ele><time>2015-01-07T08:00:33.070Z</time></trkpt>
	<trkpt lat="52.242158" lon="10.482953"><ele>85</ele><time>2015-01-07T08:00:34.067Z</time></trkpt>
	<trkpt lat="52.242061" lon="10.482916"><ele>84</ele><time>2015-01-07T08:00:35.101Z</time></trkpt>
	<trkpt lat="52.241976" lon="10.482883"><ele>84</ele><time>2015-01-07T08:00:36.170Z</time></trkpt>
	<trkpt lat="52.241900" lon="10.482855"><ele>83</ele><time>2015-01-07T08:00:37.221Z</time></trkpt>
	<trkpt lat="52.241859" lon="10.482839"><ele>83</ele><time>2015-01-07T08:00:38.147Z</time></trkpt>
	<trkpt lat="52.241805" lon="10.482818"><ele>82</ele><time>2015-01-07T08:00:39.131Z</time></trkpt>
	<trkpt lat="52.241769" lon="10.482805"><ele>82</ele><time>2015-01-07T08:00:40.154Z</time></trkpt>
	<trkpt lat="52.241745" lon="10.482796"><ele>82</ele><time>2015-01-07T08:00:41.153Z</time></trkpt>
	<trkpt lat="52.241736" lon="10.482792"><ele>82</ele><time>2015-01-07T08:00:42.130Z</time></trkpt>
	<trkpt lat="52.241726" lon="10.482788"><ele>82</ele><time>2015-01-07T08:00:43.136Z</time></trkpt>
	<trkpt lat="52.241726" lon="10.482788"><ele>83</ele><time>2015-01-07T08:00:44.135Z</time></trkpt>
	<trkpt lat="52.241710" lon="10.482782"><ele>83</ele><time>2015-01-07T08:00:45.144Z</time></trkpt>
	<trkpt lat="52.241703" lon="10.482780"><ele>83</ele><time>2015-01-07T08:00:46.165Z</time></trkpt>
	<trkpt lat="52.241631" lon="10.482836"><ele>83</ele><time>2015-01-07T08:00:47.122Z</time></trkpt>
	<trkpt lat="52.241619" lon="10.482907"><ele>83</ele><time>2015-01-07T08:00:48.081Z</time></trkpt>
	<trkpt lat="52.241605" lon="10.482996"><ele>83</ele><time>2015-01-07T08:00:49.121Z</time></trkpt>
	<trkpt lat="52.241587" lon="10.483106"><ele>83</ele><time>2015-01-07T08:00:50.127Z</time></trkpt>
	<trkpt lat="52.241563" lon="10.483255"><ele>83</ele><time>2015-01-07T08:00:51.103Z</time></trkpt>
	<trkpt lat="52.241538" lon="10.483416"><ele>83</ele><time>2015-01-07T08:00:52.122Z</time></trkpt>
	<trkpt lat="52.241511" lon="10.483587"><ele>83</ele><time>2015-01-07T08:00:53.105Z</time></trkpt>
	<trkpt lat="52.241482" lon="10.483778"><ele>84</ele><time>2015-01-07T08:00:54.077Z</time></trkpt>
	<trkpt lat="52.241453" lon="10.483974"><ele>84</ele><time>2015-01-07T08:00:55.075Z</time></trkpt>
	<trkpt lat="52.241425" lon="10.484174"><ele>83</ele><time>2015-01-07T08:00:56.086Z</time></trkpt>
	<trkpt lat="52.241403" lon="10.484348"><ele>83</ele><time>2015-01-07T08:00:57.085Z</time></trkpt>
	<trkpt lat="52.241382" lon="10.484535"><ele>83</ele><time>2015-01-07T08:00:58.082Z</time></trkpt>
	<trkpt lat="52.241363" lon="10.484716"><ele>83</ele><time>2015-01-07T08:00:59.077Z</time></trkpt>
	<trkpt lat="52.241346" lon="10.484883"><ele>82</ele><time>2015-01-07T08:01:00.094Z</time></trkpt>
	<trkpt lat="52.241330" lon="10.485043"><ele>82</ele><time>2015-01-07T08:01:01.091Z</time></trkpt>
	<trkpt lat="52.241312" lon="10.485229"><ele>83</ele><time>2015-01-07T08:01:02.085Z</time></trkpt>
	<trkpt lat="52.241294" lon="10.485415"><ele>83</ele><time>2015-01-07T08:01:03.066Z</time></trkpt>
	<trkpt lat="52.241277" lon="10.485610"><ele>83</ele><time>2015-01-07T08:01:04.057Z</time></trkpt>
	<trkpt lat="52.241314" lon="10.485810"><ele>83</ele><time>2015-01-07T08:01:05.097Z</time></trkpt>
	<trkpt lat="52.241294" lon="10.485992"><ele>83</ele><time>2015-01-07T08:01:06.147Z</time></trkpt>
	<trkpt lat="52.241273" lon="10.486173"><ele>83</ele><time>2015-01-07T08:01:07.137Z</time></trkpt>
	<trkpt lat="52.241220" lon="10.486263"><ele>83</ele><time>2015-01-07T08:01:08.129Z</time></trkpt>
	<trkpt lat="52.241188" lon="10.486507"><ele>83</ele><time>2015-01-07T08:01:09.098Z</time></trkpt>
	<trkpt lat="52.241167" lon="10.486672"><ele>83</ele><time>2015-01-07T08:01:10.086Z</time></trkpt>
	<trkpt lat="52.241158" lon="10.486758"><ele>83</ele><time>2015-01-07T08:01:11.137Z</time></trkpt>
	<trkpt lat="52.241096" lon="10.486986"><ele>83</ele><time>2015-01-07T08:01:12.108Z</time></trkpt>
	<trkpt lat="52.241081" lon="10.487147"><ele>83</ele><time>2015-01-07T08:01:13.102Z</time></trkpt>
	<trkpt lat="52.241067" lon="10.487295"><ele>83</ele><time>2015-01-07T08:01:14.105Z</time></trkpt>
	<trkpt lat="52.241052" lon="10.487451"><ele>82</ele><time>2015-01-07T08:01:15.108Z</time></trkpt>
	<trkpt lat="52.241040" lon="10.487575"><ele>82</ele><time>2015-01-07T08:01:16.116Z</time></trkpt>
	<trkpt lat="52.241032" lon="10.487737"><ele>82</ele><time>2015-01-07T08:01:17.132Z</time></trkpt>
	<trkpt lat="52.241024" lon="10.487874"><ele>82</ele><time>2015-01-07T08:01:18.074Z</time></trkpt>
	<trkpt lat="52.241017" lon="10.487997"><ele>82</ele><time>2015-01-07T08:01:19.093Z</time></trkpt>
	<trkpt lat="52.241011" lon="10.488109"><ele>82</ele><time>2015-01-07T08:01:20.099Z</time></trkpt>
	<trkpt lat="52.241006" lon="10.488209"><ele>81</ele><time>2015-01-07T08:01:21.071Z</time></trkpt>
	<trkpt lat="52.241001" lon="10.488291"><ele>82</ele><time>2015-01-07T08:01:22.072Z</time></trkpt>
	<trkpt lat="52.240997" lon="10.488368"><ele>81</ele><time>2015-01-07T08:01:23.064Z</time></trkpt>
	<trkpt lat="52.240994" lon="10.488431"><ele>82</ele><time>2015-01-07T08:01:24.063Z</time></trkpt>
	<trkpt lat="52.240993" lon="10.488500"><ele>82</ele><time>2015-01-07T08:01:25.059Z</time></trkpt>
	<trkpt lat="52.241063" lon="10.488532"><ele>82</ele><time>2015-01-07T08:01:26.057Z</time></trkpt>
	<trkpt lat="52.241216" lon="10.488570"><ele>83</ele><time>2015-01-07T08:01:27.047Z</time></trkpt>
	<trkpt lat="52.241287" lon="10.488583"><ele>83</ele><time>2015-01-07T08:01:28.050Z</time></trkpt>
	<trkpt lat="52.241379" lon="10.488600"><ele>83</ele><time>2015-01-07T08:01:29.061Z</time></trkpt>
	<trkpt lat="52.241474" lon="10.488621"><ele>83</ele><time>2015-01-07T08:01:30.084Z</time></trkpt>
	<trkpt lat="52.241579" lon="10.488642"><ele>83</ele><time>2015-01-07T08:01:31.072Z</time></trkpt>
	<trkpt lat="52.241683" lon="10.488664"><ele>83</ele><time>2015-01-07T08:01:32.051Z</time></trkpt>
	<trkpt lat="52.241799" lon="10.488687"><ele>83</ele><time>2015-01-07T08:01:33.054Z</time></trkpt>
	<trkpt lat="52.241921" lon="10.488711"><ele>84</ele><time>2015-01-07T08:01:34.058Z</time></trkpt>
	<trkpt lat="52.242044" lon="10.488734"><ele>84</ele><time>2015-01-07T08:01:35.081Z</time></trkpt>
	<trkpt lat="52.242167" lon="10.488758"><ele>84</ele><time>2015-01-07T08:01:36.102Z</time></trkpt>
	<trkpt lat="52.242289" lon="10.488786"><ele>84</ele><time>2015-01-07T08:01:37.106Z</time></trkpt>
	<trkpt lat="52.242406" lon="10.488812"><ele>84</ele><time>2015-01-07T08:01:38.130Z</time></trkpt>
	<trkpt lat="52.242531" lon="10.488847"><ele>84</ele><time>2015-01-07T08:01:39.122Z</time></trkpt>
	<trkpt lat="52.242657" lon="10.488885"><ele>84</ele><time>2015-01-07T08:01:40.118Z</time></trkpt>
	<trkpt lat="52.242781" lon="10.488925"><ele>84</ele><time>2015-01-07T08:01:41.113Z</time></trkpt>
	<trkpt lat="52.242905" lon="10.488964"><ele>84</ele><time>2015-01-07T08:01:42.106Z</time></trkpt>
	<trkpt lat="52.243022" lon="10.489008"><ele>84</ele><time>2015-01-07T08:01:43.105Z</time></trkpt>
	<trkpt lat="52.243139" lon="10.489056"><ele>84</ele><time>2015-01-07T08:01:44.114Z</time></trkpt>
	<trkpt lat="52.243252" lon="10.489106"><ele>84</ele><time>2015-01-07T08:01:45.124Z</time></trkpt>
	<trkpt lat="52.243357" lon="10.489153"><ele>84</ele><time>2015-01-07T08:01:46.117Z</time></trkpt>
	<trkpt lat="52.243464" lon="10.489209"><ele>84</ele><time>2015-01-07T08:01:47.134Z</time></trkpt>
	<trkpt lat="52.243567" lon="10.489263"><ele>84</ele><time>2015-01-07T08:01:48.177Z</time></trkpt>
	<trkpt lat="52.243668" lon="10.489315"><ele>84</ele><time>2015-01-07T08:01:49.180Z</time></trkpt>
	<trkpt lat="52.243772" lon="10.489368"><ele>84</ele><time>2015-01-07T08:01:50.199Z</time></trkpt>
	<trkpt lat="52.243873" lon="10.489418"><ele>84</ele><time>2015-01-07T08:01:51.170Z</time></trkpt>
	<trkpt lat="52.243965" lon="10.489461"><ele>84</ele><time>2015-01-07T08:01:52.119Z</time></trkpt>
	<trkpt lat="52.244042" lon="10.489493"><ele>84</ele><time>2015-01-07T08:01:53.158Z</time></trkpt>
	<trkpt lat="52.244119" lon="10.489525"><ele>84</ele><time>2015-01-07T08:01:54.125Z</time></trkpt>
	<trkpt lat="52.244180" lon="10.489550"><ele>84</ele><time>2015-01-07T08:01:55.126Z</time></trkpt>
	<trkpt lat="52.244262" lon="10.489579"><ele>84</ele><time>2015-01-07T08:01:56.097Z</time></trkpt>
	<trkpt lat="52.244320" lon="10.489599"><ele>84</ele><time>2015-01-07T08:01:57.069Z</time></trkpt>
	<trkpt lat="52.244380" lon="10.489616"><ele>84</ele><time>2015-01-07T08:01:58.080Z</time></trkpt>
	<trkpt lat="52.244424" lon="10.489628"><ele>84</ele><time>2015-01-07T08:01:59.100Z</time></trkpt>
	<trkpt lat="52.244467" lon="10.489638"><ele>84</ele><time>2015-01-07T08:02:00.099Z</time></trkpt>
	<trkpt lat="52.244507" lon="10.489644"><ele>83</ele><time>2015-01-07T08:02:01.084Z</time></trkpt>
	<trkpt lat="52.244536" lon="10.489652"><ele>83</ele><time>2015-01-07T08:02:02.076Z</time></trkpt>
	<trkpt lat="52.244554" lon="10.489653"><ele>83</ele><time>2015-01-07T08:02:03.077Z</time></trkpt>
	<trkpt lat="52.244566" lon="10.489651"><ele>83</ele><time>2015-01-07T08:02:04.082Z</time></trkpt>
	<trkpt lat="52.244572" lon="10.489653"><ele>83</ele><time>2015-01-07T08:02:05.078Z</time></trkpt>
	<trkpt lat="52.244576" lon="10.489626"><ele>83</ele><time>2015-01-07T08:02:06.098Z</time></trkpt>
	<trkpt lat="52.244582" lon="10.489627"><ele>84</ele><time>2015-01-07T08:02:21.105Z</time></trkpt>
	<trkpt lat="52.244587" lon="10.489628"><ele>84</ele><time>2015-01-07T08:02:22.092Z</time></trkpt>
	<trkpt lat="52.244590" lon="10.489629"><ele>84</ele><time>2015-01-07T08:02:24.098Z</time></trkpt>
	<trkpt lat="52.244588" lon="10.489660"><ele>84</ele><time>2015-01-07T08:02:25.145Z</time></trkpt>
	<trkpt lat="52.244597" lon="10.489660"><ele>84</ele><time>2015-01-07T08:02:26.140Z</time></trkpt>
	<trkpt lat="52.244619" lon="10.489656"><ele>85</ele><time>2015-01-07T08:02:27.144Z</time></trkpt>
	<trkpt lat="52.244620" lon="10.489657"><ele>85</ele><time>2015-01-07T08:02:28.143Z</time></trkpt>
	<trkpt lat="52.244707" lon="10.489664"><ele>85</ele><time>2015-01-07T08:02:29.129Z</time></trkpt>
	<trkpt lat="52.244753" lon="10.489663"><ele>85</ele><time>2015-01-07T08:02:30.105Z</time></trkpt>
	<trkpt lat="52.244805" lon="10.489658"><ele>85</ele><time>2015-01-07T08:02:31.126Z</time></trkpt>
	<trkpt lat="52.244852" lon="10.489658"><ele>85</ele><time>2015-01-07T08:02:32.162Z</time></trkpt>
	<trkpt lat="52.244897" lon="10.489653"><ele>85</ele><time>2015-01-07T08:02:33.156Z</time></trkpt>
	<trkpt lat="52.244935" lon="10.489647"><ele>84</ele><time>2015-01-07T08:02:34.140Z</time></trkpt>
	<trkpt lat="52.244952" lon="10.489644"><ele>84</ele><time>2015-01-07T08:02:35.140Z</time></trkpt>
	<trkpt lat="52.244957" lon="10.489643"><ele>85</ele><time>2015-01-07T08:02:36.139Z</time></trkpt>
	<trkpt lat="52.245009" lon="10.489633"><ele>85</ele><time>2015-01-07T08:02:37.133Z</time></trkpt>
	<trkpt lat="52.245026" lon="10.489630"><ele>85</ele><time>2015-01-07T08:02:38.130Z</time></trkpt>
	<trkpt lat="52.245034" lon="10.489629"><ele>85</ele><time>2015-01-07T08:02:39.121Z</time></trkpt>
	<trkpt lat="52.245035" lon="10.489628"><ele>85</ele><time>2015-01-07T08:02:40.097Z</time></trkpt>
	<trkpt lat="52.245036" lon="10.489628"><ele>86</ele><time>2015-01-07T08:02:47.139Z</time></trkpt>
	<trkpt lat="52.245045" lon="10.489627"><ele>85</ele><time>2015-01-07T08:02:48.127Z</time></trkpt>
	<trkpt lat="52.245045" lon="10.489627"><ele>85</ele><time>2015-01-07T08:02:51.081Z</time></trkpt>
	<trkpt lat="52.245016" lon="10.489621"><ele>85</ele><time>2015-01-07T08:02:52.133Z</time></trkpt>
	<trkpt lat="52.245054" lon="10.489625"><ele>86</ele><time>2015-01-07T08:02:53.147Z</time></trkpt>
	<trkpt lat="52.245050" lon="10.489626"><ele>85</ele><time>2015-01-07T08:02:58.070Z</time></trkpt>
	<trkpt lat="52.245060" lon="10.489624"><ele>85</ele><time>2015-01-07T08:02:59.065Z</time></trkpt>
	<trkpt lat="52.245069" lon="10.489622"><ele>85</ele><time>2015-01-07T08:03:00.080Z</time></trkpt>
	<trkpt lat="52.245060" lon="10.489626"><ele>85</ele><time>2015-01-07T08:03:01.068Z</time></trkpt>
	<trkpt lat="52.245053" lon="10.489625"><ele>85</ele><time>2015-01-07T08:03:02.065Z</time></trkpt>
	<trkpt lat="52.245045" lon="10.489627"><ele>85</ele><time>2015-01-07T08:03:03.063Z</time></trkpt>
	<trkpt lat="52.245040" lon="10.489628"><ele>85</ele><time>2015-01-07T08:03:04.062Z</time></trkpt>
	<trkpt lat="52.245029" lon="10.489630"><ele>85</ele><time>2015-01-07T08:03:05.062Z</time></trkpt>
	<trkpt lat="52.245030" lon="10.489629"><ele>85</ele><time>2015-01-07T08:03:07.064Z</time></trkpt>
	<trkpt lat="52.245015" lon="10.489632"><ele>85</ele><time>2015-01-07T08:03:08.072Z</time></trkpt>
	<trkpt lat="52.245008" lon="10.489634"><ele>85</ele><time>2015-01-07T08:03:10.063Z</time></trkpt>
	<trkpt lat="52.245002" lon="10.489635"><ele>85</ele><time>2015-01-07T08:03:11.058Z</time></trkpt>
	<trkpt lat="52.245010" lon="10.489633"><ele>85</ele><time>2015-01-07T08:03:21.050Z</time></trkpt>
	<trkpt lat="52.245016" lon="10.489632"><ele>85</ele><time>2015-01-07T08:03:22.051Z</time></trkpt>
	<trkpt lat="52.245022" lon="10.489631"><ele>85</ele><time>2015-01-07T08:03:23.051Z</time></trkpt>
	<trkpt lat="52.245031" lon="10.489632"><ele>85</ele><time>2015-01-07T08:03:24.050Z</time></trkpt>
	<trkpt lat="52.245042" lon="10.489627"><ele>85</ele><time>2015-01-07T08:03:25.082Z</time></trkpt>
	<trkpt lat="52.245057" lon="10.489624"><ele>85</ele><time>2015-01-07T08:03:26.082Z</time></trkpt>
	<trkpt lat="52.245075" lon="10.489621"><ele>85</ele><time>2015-01-07T08:03:27.081Z</time></trkpt>
	<trkpt lat="52.245090" lon="10.489618"><ele>85</ele><time>2015-01-07T08:03:28.091Z</time></trkpt>
	<trkpt lat="52.245104" lon="10.489615"><ele>85</ele><time>2015-01-07T08:03:29.088Z</time></trkpt>
	<trkpt lat="52.245117" lon="10.489613"><ele>85</ele><time>2015-01-07T08:03:30.089Z</time></trkpt>
	<trkpt lat="52.245130" lon="10.489610"><ele>85</ele><time>2015-01-07T08:03:31.091Z</time></trkpt>
	<trkpt lat="52.245143" lon="10.489607"><ele>85</ele><time>2015-01-07T08:03:32.091Z</time></trkpt>
	<trkpt lat="52.245152" lon="10.489605"><ele>85</ele><time>2015-01-07T08:03:33.090Z</time></trkpt>
	<trkpt lat="52.245152" lon="10.489605"><ele>85</ele><time>2015-01-07T08:03:34.089Z</time></trkpt>
	<trkpt lat="52.245193" lon="10.489733"><ele>85</ele><time>2015-01-07T08:03:35.092Z</time></trkpt>
	<trkpt lat="52.245216" lon="10.489741"><ele>85</ele><time>2015-01-07T08:03:36.088Z</time></trkpt>
	<trkpt lat="52.245238" lon="10.489752"><ele>85</ele><time>2015-01-07T08:03:37.087Z</time></trkpt>
	<trkpt lat="52.245253" lon="10.489761"><ele>85</ele><time>2015-01-07T08:03:38.086Z</time></trkpt>
	<trkpt lat="52.245262" lon="10.489766"><ele>85</ele><time>2015-01-07T08:03:39.102Z</time></trkpt>
	<trkpt lat="52.245273" lon="10.489762"><ele>86</ele><time>2015-01-07T08:03:40.087Z</time></trkpt>
	<trkpt lat="52.245286" lon="10.489755"><ele>86</ele><time>2015-01-07T08:03:41.087Z</time></trkpt>
	<trkpt lat="52.245300" lon="10.489748"><ele>85</ele><time>2015-01-07T08:03:42.086Z</time></trkpt>
	<trkpt lat="52.245313" lon="10.489742"><ele>85</ele><time>2015-01-07T08:03:43.083Z</time></trkpt>
	<trkpt lat="52.245327" lon="10.489741"><ele>85</ele><time>2015-01-07T08:03:44.075Z</time></trkpt>
	<trkpt lat="52.245342" lon="10.489742"><ele>85</ele><time>2015-01-07T08:03:45.079Z</time></trkpt>
	<trkpt lat="52.245353" lon="10.489744"><ele>85</ele><time>2015-01-07T08:03:46.082Z</time></trkpt>
	<trkpt lat="52.245365" lon="10.489745"><ele>85</ele><time>2015-01-07T08:03:47.084Z</time></trkpt>
	<trkpt lat="52.245378" lon="10.489747"><ele>85</ele><time>2015-01-07T08:03:48.086Z</time></trkpt>
	<trkpt lat="52.245385" lon="10.489748"><ele>86</ele><time>2015-01-07T08:03:49.086Z</time></trkpt>
	<trkpt lat="52.245391" lon="10.489750"><ele>86</ele><time>2015-01-07T08:03:50.084Z</time></trkpt>
	<trkpt lat="52.245398" lon="10.489757"><ele>86</ele><time>2015-01-07T08:03:51.087Z</time></trkpt>
	<trkpt lat="52.245404" lon="10.489772"><ele>86</ele><time>2015-01-07T08:03:52.078Z</time></trkpt>
	<trkpt lat="52.245410" lon="10.489790"><ele>86</ele><time>2015-01-07T08:03:53.077Z</time></trkpt>
	<trkpt lat="52.245416" lon="10.489808"><ele>86</ele><time>2015-01-07T08:03:54.081Z</time></trkpt>
	<trkpt lat="52.245423" lon="10.489828"><ele>86</ele><time>2015-01-07T08:03:55.084Z</time></trkpt>
	<trkpt lat="52.245430" lon="10.489850"><ele>86</ele><time>2015-01-07T08:03:56.084Z</time></trkpt>
	<trkpt lat="52.245435" lon="10.489874"><ele>86</ele><time>2015-01-07T08:03:57.085Z</time></trkpt>
	<trkpt lat="52.245438" lon="10.489901"><ele>86</ele><time>2015-01-07T08:03:58.083Z</time></trkpt>
	<trkpt lat="52.245442" lon="10.489925"><ele>86</ele><time>2015-01-07T08:03:59.068Z</time></trkpt>
	<trkpt lat="52.245445" lon="10.489948"><ele>86</ele><time>2015-01-07T08:04:00.066Z</time></trkpt>
	<trkpt lat="52.245449" lon="10.489969"><ele>86</ele><time>2015-01-07T08:04:01.082Z</time></trkpt>
	<trkpt lat="52.245453" lon="10.489989"><ele>86</ele><time>2015-01-07T08:04:02.088Z</time></trkpt>
	<trkpt lat="52.245457" lon="10.490008"><ele>86</ele><time>2015-01-07T08:04:03.089Z</time></trkpt>
	<trkpt lat="52.245461" lon="10.490025"><ele>86</ele><time>2015-01-07T08:04:04.084Z</time></trkpt>
	<trkpt lat="52.245463" lon="10.490045"><ele>86</ele><time>2015-01-07T08:04:05.085Z</time></trkpt>
	<trkpt lat="52.245461" lon="10.490064"><ele>86</ele><time>2015-01-07T08:04:06.086Z</time></trkpt>
	<trkpt lat="52.245452" lon="10.490079"><ele>86</ele><time>2015-01-07T08:04:07.080Z</time></trkpt>
	<trkpt lat="52.245441" lon="10.490092"><ele>87</ele><time>2015-01-07T08:04:08.063Z</time></trkpt>
	<trkpt lat="52.245426" lon="10.490103"><ele>87</ele><time>2015-01-07T08:04:09.061Z</time></trkpt>
	<trkpt lat="52.245415" lon="10.490110"><ele>86</ele><time>2015-01-07T08:04:10.071Z</time></trkpt>
	<trkpt lat="52.245409" lon="10.490110"><ele>87</ele><time>2015-01-07T08:04:11.064Z</time></trkpt>
	<trkpt lat="52.245404" lon="10.490109"><ele>87</ele><time>2015-01-07T08:04:12.057Z</time></trkpt>
	<trkpt lat="52.245400" lon="10.490105"><ele>87</ele><time>2015-01-07T08:04:13.050Z</time></trkpt>
	<trkpt lat="52.245392" lon="10.490101"><ele>87</ele><time>2015-01-07T08:04:14.052Z</time></trkpt>
	<trkpt lat="52.245385" lon="10.490097"><ele>87</ele><time>2015-01-07T08:04:15.054Z</time></trkpt>
	<trkpt lat="52.245377" lon="10.490095"><ele>87</ele><time>2015-01-07T08:04:16.054Z</time></trkpt>
	<trkpt lat="52.245368" lon="10.490095"><ele>87</ele><time>2015-01-07T08:04:17.053Z</time></trkpt>
	<trkpt lat="52.245361" lon="10.490096"><ele>87</ele><time>2015-01-07T08:04:18.052Z</time></trkpt>
	<trkpt lat="52.245353" lon="10.490096"><ele>87</ele><time>2015-01-07T08:04:19.051Z</time></trkpt>
	<trkpt lat="52.245346" lon="10.490096"><ele>87</ele><time>2015-01-07T08:04:20.052Z</time></trkpt>
	<trkpt lat="52.245338" lon="10.490096"><ele>87</ele><time>2015-01-07T08:04:21.053Z</time></trkpt>
	<trkpt lat="52.245331" lon="10.490095"><ele>87</ele><time>2015-01-07T08:04:22.054Z</time></trkpt>
	<trkpt lat="52.245324" lon="10.490098"><ele>87</ele><time>2015-01-07T08:04:23.050Z</time></trkpt>
	<trkpt lat="52.245314" lon="10.490100"><ele>87</ele><time>2015-01-07T08:04:24.048Z</time></trkpt>
	<trkpt lat="52.245305" lon="10.490105"><ele>87</ele><time>2015-01-07T08:04:25.050Z</time></trkpt>
	<trkpt lat="52.245298" lon="10.490111"><ele>87</ele><time>2015-01-07T08:04:26.050Z</time></trkpt>
	<trkpt lat="52.245297" lon="10.490123"><ele>87</ele><time>2015-01-07T08:04:27.051Z</time></trkpt>
	<trkpt lat="52.245300" lon="10.490136"><ele>87</ele><time>2015-01-07T08:04:28.054Z</time></trkpt>
	<trkpt lat="52.245304" lon="10.490150"><ele>87</ele><time>2015-01-07T08:04:29.050Z</time></trkpt>
	<trkpt lat="52.245308" lon="10.490169"><ele>87</ele><time>2015-01-07T08:04:30.049Z</time></trkpt>
	<trkpt lat="52.245313" lon="10.490187"><ele>87</ele><time>2015-01-07T08:04:31.050Z</time></trkpt>
	<trkpt lat="52.245317" lon="10.490203"><ele>87</ele><time>2015-01-07T08:04:32.061Z</time></trkpt>
	<trkpt lat="52.245321" lon="10.490217"><ele>87</ele><time>2015-01-07T08:04:33.059Z</time></trkpt>
	<trkpt lat="52.245324" lon="10.490231"><ele>87</ele><time>2015-01-07T08:04:34.060Z</time></trkpt>
	<trkpt lat="52.245322" lon="10.490250"><ele>87</ele><time>2015-01-07T08:04:35.074Z</time></trkpt>
	<trkpt lat="52.245328" lon="10.490252"><ele>87</ele><time>2015-01-07T08:04:36.077Z</time></trkpt>
	<trkpt lat="52.245338" lon="10.490248"><ele>87</ele><time>2015-01-07T08:04:37.072Z</time></trkpt>
	<trkpt lat="52.245349" lon="10.490240"><ele>87</ele><time>2015-01-07T08:04:38.061Z</time></trkpt>
	<trkpt lat="52.245358" lon="10.490239"><ele>87</ele><time>2015-01-07T08:04:39.074Z</time></trkpt>
	<trkpt lat="52.245369" lon="10.490251"><ele>87</ele><time>2015-01-07T08:04:40.074Z</time></trkpt>
	<trkpt lat="52.245371" lon="10.490266"><ele>87</ele><time>2015-01-07T08:04:41.076Z</time></trkpt>
	<trkpt lat="52.245359" lon="10.490252"><ele>87</ele><time>2015-01-07T08:04:42.080Z</time></trkpt>
	<trkpt lat="52.245370" lon="10.490203"><ele>87</ele><time>2015-01-07T08:04:43.079Z</time></trkpt>
	<trkpt lat="52.245370" lon="10.490203"><ele>87</ele><time>2015-01-07T08:04:44.079Z</time></trkpt>
	<trkpt lat="52.245429" lon="10.490071"><ele>87</ele><time>2015-01-07T08:04:45.081Z</time></trkpt>
	<trkpt lat="52.245417" lon="10.490053"><ele>87</ele><time>2015-01-07T08:04:46.081Z</time></trkpt>
	<trkpt lat="52.245418" lon="10.490051"><ele>87</ele><time>2015-01-07T08:04:47.069Z</time></trkpt>
	<trkpt lat="52.245425" lon="10.490053"><ele>87</ele><time>2015-01-07T08:04:48.069Z</time></trkpt>
	<trkpt lat="52.245428" lon="10.490047"><ele>87</ele><time>2015-01-07T08:04:49.080Z</time></trkpt>
	<trkpt lat="52.245428" lon="10.490036"><ele>86</ele><time>2015-01-07T08:04:50.082Z</time></trkpt>
	<trkpt lat="52.245427" lon="10.490021"><ele>87</ele><time>2015-01-07T08:04:51.082Z</time></trkpt>
	<trkpt lat="52.245423" lon="10.490004"><ele>87</ele><time>2015-01-07T08:04:52.081Z</time></trkpt>
	<trkpt lat="52.245418" lon="10.489992"><ele>86</ele><time>2015-01-07T08:04:53.079Z</time></trkpt>
	<trkpt lat="52.245413" lon="10.489978"><ele>86</ele><time>2015-01-07T08:04:54.082Z</time></trkpt>
	<trkpt lat="52.245409" lon="10.489969"><ele>86</ele><time>2015-01-07T08:04:55.083Z</time></trkpt>
	<trkpt lat="52.245405" lon="10.489961"><ele>86</ele><time>2015-01-07T08:04:56.082Z</time></trkpt>
	<trkpt lat="52.245397" lon="10.489946"><ele>86</ele><time>2015-01-07T08:04:57.081Z</time></trkpt>
	<trkpt lat="52.245392" lon="10.489930"><ele>86</ele><time>2015-01-07T08:04:58.086Z</time></trkpt>
	<trkpt lat="52.245386" lon="10.489913"><ele>86</ele><time>2015-01-07T08:04:59.085Z</time></trkpt>
	<trkpt lat="52.245381" lon="10.489898"><ele>86</ele><time>2015-01-07T08:05:00.084Z</time></trkpt>
	<trkpt lat="52.245376" lon="10.489884"><ele>86</ele><time>2015-01-07T08:05:01.090Z</time></trkpt>
	<trkpt lat="52.245373" lon="10.489867"><ele>86</ele><time>2015-01-07T08:05:02.088Z</time></trkpt>
	<trkpt lat="52.245372" lon="10.489850"><ele>86</ele><time>2015-01-07T08:05:03.070Z</time></trkpt>
	<trkpt lat="52.245371" lon="10.489830"><ele>86</ele><time>2015-01-07T08:05:04.071Z</time></trkpt>
	<trkpt lat="52.245369" lon="10.489811"><ele>86</ele><time>2015-01-07T08:05:05.072Z</time></trkpt>
	<trkpt lat="52.245369" lon="10.489801"><ele>86</ele><time>2015-01-07T08:05:06.102Z</time></trkpt>
	<trkpt lat="52.245372" lon="10.489796"><ele>86</ele><time>2015-01-07T08:05:07.120Z</time></trkpt>
	<trkpt lat="52.245373" lon="10.489789"><ele>86</ele><time>2015-01-07T08:05:08.093Z</time></trkpt>
	<trkpt lat="52.245369" lon="10.489781"><ele>86</ele><time>2015-01-07T08:05:09.089Z</time></trkpt>
	<trkpt lat="52.245360" lon="10.489774"><ele>85</ele><time>2015-01-07T08:05:10.087Z</time></trkpt>
	<trkpt lat="52.245350" lon="10.489772"><ele>85</ele><time>2015-01-07T08:05:11.084Z</time></trkpt>
	<trkpt lat="52.245338" lon="10.489768"><ele>85</ele><time>2015-01-07T08:05:12.086Z</time></trkpt>
	<trkpt lat="52.245325" lon="10.489766"><ele>85</ele><time>2015-01-07T08:05:13.084Z</time></trkpt>
	<trkpt lat="52.245306" lon="10.489770"><ele>85</ele><time>2015-01-07T08:05:14.095Z</time></trkpt>
	<trkpt lat="52.245288" lon="10.489780"><ele>85</ele><time>2015-01-07T08:05:15.097Z</time></trkpt>
	<trkpt lat="52.245272" lon="10.489786"><ele>85</ele><time>2015-01-07T08:05:16.086Z</time></trkpt>
	<trkpt lat="52.245255" lon="10.489792"><ele>85</ele><time>2015-01-07T08:05:17.086Z</time></trkpt>
	<trkpt lat="52.245238" lon="10.489797"><ele>85</ele><time>2015-01-07T08:05:18.087Z</time></trkpt>
	<trkpt lat="52.245226" lon="10.489797"><ele>85</ele><time>2015-01-07T08:05:19.078Z</time></trkpt>
	<trkpt lat="52.245212" lon="10.489798"><ele>85</ele><time>2015-01-07T08:05:20.078Z</time></trkpt>
	<trkpt lat="52.245195" lon="10.489796"><ele>85</ele><time>2015-01-07T08:05:21.087Z</time></trkpt>
	<trkpt lat="52.245178" lon="10.489791"><ele>85</ele><time>2015-01-07T08:05:22.085Z</time></trkpt>
	<trkpt lat="52.245161" lon="10.489786"><ele>85</ele><time>2015-01-07T08:05:23.085Z</time></trkpt>
	<trkpt lat="52.245146" lon="10.489779"><ele>85</ele><time>2015-01-07T08:05:24.084Z</time></trkpt>
	<trkpt lat="52.245134" lon="10.489770"><ele>85</ele><time>2015-01-07T08:05:25.089Z</time></trkpt>
	<trkpt lat="52.245124" lon="10.489761"><ele>85</ele><time>2015-01-07T08:05:26.086Z</time></trkpt>
	<trkpt lat="52.245112" lon="10.489751"><ele>85</ele><time>2015-01-07T08:05:27.085Z</time></trkpt>
	<trkpt lat="52.245100" lon="10.489742"><ele>85</ele><time>2015-01-07T08:05:28.087Z</time></trkpt>
	<trkpt lat="52.245087" lon="10.489733"><ele>85</ele><time>2015-01-07T08:05:29.086Z</time></trkpt>
	<trkpt lat="52.245073" lon="10.489722"><ele>85</ele><time>2015-01-07T08:05:30.087Z</time></trkpt>
	<trkpt lat="52.245064" lon="10.489710"><ele>85</ele><time>2015-01-07T08:05:31.087Z</time></trkpt>
	<trkpt lat="52.245056" lon="10.489696"><ele>84</ele><time>2015-01-07T08:05:32.087Z</time></trkpt>
	<trkpt lat="52.245049" lon="10.489685"><ele>85</ele><time>2015-01-07T08:05:33.085Z</time></trkpt>
	<trkpt lat="52.245042" lon="10.489676"><ele>85</ele><time>2015-01-07T08:05:34.067Z</time></trkpt>
	<trkpt lat="52.245036" lon="10.489670"><ele>84</ele><time>2015-01-07T08:05:35.072Z</time></trkpt>
	<trkpt lat="52.245043" lon="10.489674"><ele>85</ele><time>2015-01-07T08:05:38.081Z</time></trkpt>
	<trkpt lat="52.245047" lon="10.489675"><ele>85</ele><time>2015-01-07T08:05:39.090Z</time></trkpt>
	<trkpt lat="52.245051" lon="10.489677"><ele>85</ele><time>2015-01-07T08:05:42.104Z</time></trkpt>
	<trkpt lat="52.245050" lon="10.489689"><ele>85</ele><time>2015-01-07T08:05:43.094Z</time></trkpt>
	<trkpt lat="52.245046" lon="10.489699"><ele>85</ele><time>2015-01-07T08:05:44.088Z</time></trkpt>
	<trkpt lat="52.245043" lon="10.489704"><ele>85</ele><time>2015-01-07T08:05:45.087Z</time></trkpt>
	<trkpt lat="52.245048" lon="10.489715"><ele>85</ele><time>2015-01-07T08:06:35.098Z</time></trkpt>
	<trkpt lat="52.245051" lon="10.489717"><ele>85</ele><time>2015-01-07T08:06:36.090Z</time></trkpt>
	<trkpt lat="52.245056" lon="10.489709"><ele>85</ele><time>2015-01-07T08:07:22.073Z</time></trkpt>
	<trkpt lat="52.245061" lon="10.489707"><ele>85</ele><time>2015-01-07T08:07:23.076Z</time></trkpt>
	<trkpt lat="52.245072" lon="10.489700"><ele>85</ele><time>2015-01-07T08:07:24.090Z</time></trkpt>
	<trkpt lat="52.245099" lon="10.489674"><ele>85</ele><time>2015-01-07T08:07:25.100Z</time></trkpt>
	<trkpt lat="52.245137" lon="10.489635"><ele>85</ele><time>2015-01-07T08:07:26.119Z</time></trkpt>
	<trkpt lat="52.245179" lon="10.489595"><ele>85</ele><time>2015-01-07T08:07:27.096Z</time></trkpt>
	<trkpt lat="52.245226" lon="10.489560"><ele>85</ele><time>2015-01-07T08:07:28.081Z</time></trkpt>
	<trkpt lat="52.245289" lon="10.489525"><ele>85</ele><time>2015-01-07T08:07:29.089Z</time></trkpt>
	<trkpt lat="52.245368" lon="10.489492"><ele>86</ele><time>2015-01-07T08:07:30.088Z</time></trkpt>
	<trkpt lat="52.245446" lon="10.489458"><ele>86</ele><time>2015-01-07T08:07:31.118Z</time></trkpt>
	<trkpt lat="52.245517" lon="10.489425"><ele>85</ele><time>2015-01-07T08:07:32.137Z</time></trkpt>
	<trkpt lat="52.245590" lon="10.489394"><ele>85</ele><time>2015-01-07T08:07:33.106Z</time></trkpt>
	<trkpt lat="52.245638" lon="10.489373"><ele>85</ele><time>2015-01-07T08:07:34.110Z</time></trkpt>
	<trkpt lat="52.245707" lon="10.489321"><ele>85</ele><time>2015-01-07T08:07:35.118Z</time></trkpt>
	<trkpt lat="52.245756" lon="10.489309"><ele>85</ele><time>2015-01-07T08:07:36.102Z</time></trkpt>
	<trkpt lat="52.245796" lon="10.489287"><ele>85</ele><time>2015-01-07T08:07:37.092Z</time></trkpt>
	<trkpt lat="52.245829" lon="10.489267"><ele>85</ele><time>2015-01-07T08:07:38.093Z</time></trkpt>
	<trkpt lat="52.245861" lon="10.489244"><ele>85</ele><time>2015-01-07T08:07:39.091Z</time></trkpt>
	<trkpt lat="52.245888" lon="10.489225"><ele>85</ele><time>2015-01-07T08:07:40.110Z</time></trkpt>
	<trkpt lat="52.245903" lon="10.489212"><ele>85</ele><time>2015-01-07T08:07:41.130Z</time></trkpt>
	<trkpt lat="52.245922" lon="10.489196"><ele>85</ele><time>2015-01-07T08:07:42.127Z</time></trkpt>
	<trkpt lat="52.245937" lon="10.489184"><ele>85</ele><time>2015-01-07T08:07:43.122Z</time></trkpt>
	<trkpt lat="52.245945" lon="10.489177"><ele>85</ele><time>2015-01-07T08:07:44.078Z</time></trkpt>
	<trkpt lat="52.245948" lon="10.489164"><ele>85</ele><time>2015-01-07T08:07:45.112Z</time></trkpt>
	<trkpt lat="52.245979" lon="10.489133"><ele>85</ele><time>2015-01-07T08:07:46.120Z</time></trkpt>
	<trkpt lat="52.246027" lon="10.489096"><ele>86</ele><time>2015-01-07T08:07:47.117Z</time></trkpt>
	<trkpt lat="52.246075" lon="10.489045"><ele>85</ele><time>2015-01-07T08:07:48.117Z</time></trkpt>
	<trkpt lat="52.246110" lon="10.489005"><ele>86</ele><time>2015-01-07T08:07:49.107Z</time></trkpt>
	<trkpt lat="52.246110" lon="10.489005"><ele>86</ele><time>2015-01-07T08:07:50.081Z</time></trkpt>
	<trkpt lat="52.246248" lon="10.488820"><ele>86</ele><time>2015-01-07T08:07:51.066Z</time></trkpt>
	<trkpt lat="52.246319" lon="10.488724"><ele>86</ele><time>2015-01-07T08:07:52.071Z</time></trkpt>
	<trkpt lat="52.246385" lon="10.488635"><ele>86</ele><time>2015-01-07T08:07:53.077Z</time></trkpt>
	<trkpt lat="52.246464" lon="10.488525"><ele>87</ele><time>2015-01-07T08:07:54.071Z</time></trkpt>
	<trkpt lat="52.246527" lon="10.488422"><ele>87</ele><time>2015-01-07T08:07:55.103Z</time></trkpt>
	<trkpt lat="52.246588" lon="10.488321"><ele>86</ele><time>2015-01-07T08:07:56.110Z</time></trkpt>
	<trkpt lat="52.246656" lon="10.488209"><ele>86</ele><time>2015-01-07T08:07:57.101Z</time></trkpt>
	<trkpt lat="52.246712" lon="10.488115"><ele>86</ele><time>2015-01-07T08:07:58.099Z</time></trkpt>
	<trkpt lat="52.246773" lon="10.488014"><ele>87</ele><time>2015-01-07T08:07:59.097Z</time></trkpt>
	<trkpt lat="52.246833" lon="10.487916"><ele>87</ele><time>2015-01-07T08:08:00.105Z</time></trkpt>
	<trkpt lat="52.246884" lon="10.487831"><ele>86</ele><time>2015-01-07T08:08:01.111Z</time></trkpt>
	<trkpt lat="52.246934" lon="10.487748"><ele>86</ele><time>2015-01-07T08:08:02.106Z</time></trkpt>
	<trkpt lat="52.246977" lon="10.487678"><ele>86</ele><time>2015-01-07T08:08:03.104Z</time></trkpt>
	<trkpt lat="52.247004" lon="10.487628"><ele>86</ele><time>2015-01-07T08:08:04.109Z</time></trkpt>
	<trkpt lat="52.247021" lon="10.487600"><ele>86</ele><time>2015-01-07T08:08:05.100Z</time></trkpt>
	<trkpt lat="52.247034" lon="10.487569"><ele>86</ele><time>2015-01-07T08:08:06.094Z</time></trkpt>
	<trkpt lat="52.247023" lon="10.487560"><ele>86</ele><time>2015-01-07T08:08:07.095Z</time></trkpt>
	<trkpt lat="52.247012" lon="10.487543"><ele>86</ele><time>2015-01-07T08:08:08.105Z</time></trkpt>
	<trkpt lat="52.247018" lon="10.487533"><ele>86</ele><time>2015-01-07T08:08:34.199Z</time></trkpt>
	<trkpt lat="52.247019" lon="10.487532"><ele>86</ele><time>2015-01-07T08:08:35.087Z</time></trkpt>
	<trkpt lat="52.247018" lon="10.487532"><ele>86</ele><time>2015-01-07T08:08:38.116Z</time></trkpt>
	<trkpt lat="52.247047" lon="10.487503"><ele>86</ele><time>2015-01-07T08:08:39.143Z</time></trkpt>
	<trkpt lat="52.247062" lon="10.487481"><ele>87</ele><time>2015-01-07T08:08:40.143Z</time></trkpt>
	<trkpt lat="52.247089" lon="10.487442"><ele>87</ele><time>2015-01-07T08:08:41.109Z</time></trkpt>
	<trkpt lat="52.247122" lon="10.487378"><ele>87</ele><time>2015-01-07T08:08:42.156Z</time></trkpt>
	<trkpt lat="52.247163" lon="10.487314"><ele>87</ele><time>2015-01-07T08:08:43.192Z</time></trkpt>
	<trkpt lat="52.247210" lon="10.487235"><ele>87</ele><time>2015-01-07T08:08:44.124Z</time></trkpt>
	<trkpt lat="52.247265" lon="10.487144"><ele>88</ele><time>2015-01-07T08:08:45.170Z</time></trkpt>
	<trkpt lat="52.247336" lon="10.487028"><ele>88</ele><time>2015-01-07T08:08:46.133Z</time></trkpt>
	<trkpt lat="52.247403" lon="10.486906"><ele>89</ele><time>2015-01-07T08:08:47.144Z</time></trkpt>
	<trkpt lat="52.247473" lon="10.486793"><ele>89</ele><time>2015-01-07T08:08:48.098Z</time></trkpt>
	<trkpt lat="52.247530" lon="10.486687"><ele>88</ele><time>2015-01-07T08:08:49.116Z</time></trkpt>
	<trkpt lat="52.247585" lon="10.486590"><ele>88</ele><time>2015-01-07T08:08:50.076Z</time></trkpt>
	<trkpt lat="52.247644" lon="10.486497"><ele>88</ele><time>2015-01-07T08:08:51.113Z</time></trkpt>
	<trkpt lat="52.247687" lon="10.486428"><ele>88</ele><time>2015-01-07T08:08:52.134Z</time></trkpt>
	<trkpt lat="52.247718" lon="10.486380"><ele>88</ele><time>2015-01-07T08:08:53.087Z</time></trkpt>
	<trkpt lat="52.247735" lon="10.486348"><ele>88</ele><time>2015-01-07T08:08:54.119Z</time></trkpt>
	<trkpt lat="52.247746" lon="10.486325"><ele>88</ele><time>2015-01-07T08:08:55.086Z</time></trkpt>
	<trkpt lat="52.247762" lon="10.486305"><ele>88</ele><time>2015-01-07T08:08:56.121Z</time></trkpt>
	<trkpt lat="52.247760" lon="10.486296"><ele>88</ele><time>2015-01-07T08:08:57.094Z</time></trkpt>
	<trkpt lat="52.247758" lon="10.486299"><ele>88</ele><time>2015-01-07T08:08:59.142Z</time></trkpt>
	<trkpt lat="52.247770" lon="10.486310"><ele>88</ele><time>2015-01-07T08:09:00.092Z</time></trkpt>
	<trkpt lat="52.247777" lon="10.486299"><ele>88</ele><time>2015-01-07T08:09:01.127Z</time></trkpt>
	<trkpt lat="52.247801" lon="10.486261"><ele>88</ele><time>2015-01-07T08:09:02.076Z</time></trkpt>
	<trkpt lat="52.247835" lon="10.486230"><ele>88</ele><time>2015-01-07T08:09:03.110Z</time></trkpt>
	<trkpt lat="52.247864" lon="10.486186"><ele>88</ele><time>2015-01-07T08:09:04.102Z</time></trkpt>
	<trkpt lat="52.247892" lon="10.486158"><ele>88</ele><time>2015-01-07T08:09:05.097Z</time></trkpt>
	<trkpt lat="52.247886" lon="10.486145"><ele>88</ele><time>2015-01-07T08:09:06.094Z</time></trkpt>
	<trkpt lat="52.247947" lon="10.486033"><ele>88</ele><time>2015-01-07T08:09:07.104Z</time></trkpt>
	<trkpt lat="52.247945" lon="10.485952"><ele>89</ele><time>2015-01-07T08:09:08.106Z</time></trkpt>
	<trkpt lat="52.247932" lon="10.485870"><ele>89</ele><time>2015-01-07T08:09:09.091Z</time></trkpt>
	<trkpt lat="52.247902" lon="10.485782"><ele>89</ele><time>2015-01-07T08:09:10.109Z</time></trkpt>
	<trkpt lat="52.247912" lon="10.485809"><ele>89</ele><time>2015-01-07T08:09:11.094Z</time></trkpt>
	<trkpt lat="52.247812" lon="10.485638"><ele>89</ele><time>2015-01-07T08:09:12.105Z</time></trkpt>
	<trkpt lat="52.247766" lon="10.485558"><ele>90</ele><time>2015-01-07T08:09:13.120Z</time></trkpt>
	<trkpt lat="52.247708" lon="10.485463"><ele>90</ele><time>2015-01-07T08:09:14.124Z</time></trkpt>
	<trkpt lat="52.247645" lon="10.485364"><ele>89</ele><time>2015-01-07T08:09:15.132Z</time></trkpt>
	<trkpt lat="52.247575" lon="10.485269"><ele>89</ele><time>2015-01-07T08:09:16.162Z</time></trkpt>
	<trkpt lat="52.247499" lon="10.485171"><ele>89</ele><time>2015-01-07T08:09:17.120Z</time></trkpt>
	<trkpt lat="52.247420" lon="10.485056"><ele>90</ele><time>2015-01-07T08:09:18.111Z</time></trkpt>
	<trkpt lat="52.247343" lon="10.484917"><ele>90</ele><time>2015-01-07T08:09:19.090Z</time></trkpt>
	<trkpt lat="52.247262" lon="10.484778"><ele>90</ele><time>2015-01-07T08:09:20.093Z</time></trkpt>
	<trkpt lat="52.247177" lon="10.484640"><ele>90</ele><time>2015-01-07T08:09:21.145Z</time></trkpt>
	<trkpt lat="52.247095" lon="10.484503"><ele>90</ele><time>2015-01-07T08:09:22.110Z</time></trkpt>
	<trkpt lat="52.247007" lon="10.484356"><ele>90</ele><time>2015-01-07T08:09:23.104Z</time></trkpt>
	<trkpt lat="52.246920" lon="10.484210"><ele>90</ele><time>2015-01-07T08:09:24.101Z</time></trkpt>
	<trkpt lat="52.246828" lon="10.484058"><ele>90</ele><time>2015-01-07T08:09:25.110Z</time></trkpt>
	<trkpt lat="52.246735" lon="10.483900"><ele>89</ele><time>2015-01-07T08:09:26.104Z</time></trkpt>
	<trkpt lat="52.246648" lon="10.483756"><ele>90</ele><time>2015-01-07T08:09:27.175Z</time></trkpt>
	<trkpt lat="52.246562" lon="10.483619"><ele>89</ele><time>2015-01-07T08:09:28.186Z</time></trkpt>
	<trkpt lat="52.246478" lon="10.483471"><ele>89</ele><time>2015-01-07T08:09:29.194Z</time></trkpt>
	<trkpt lat="52.246396" lon="10.483335"><ele>89</ele><time>2015-01-07T08:09:30.205Z</time></trkpt>
	<trkpt lat="52.246312" lon="10.483189"><ele>89</ele><time>2015-01-07T08:09:31.186Z</time></trkpt>
	<trkpt lat="52.246237" lon="10.483056"><ele>89</ele><time>2015-01-07T08:09:32.153Z</time></trkpt>
	<trkpt lat="52.246158" lon="10.482910"><ele>89</ele><time>2015-01-07T08:09:33.152Z</time></trkpt>
	<trkpt lat="52.246076" lon="10.482777"><ele>89</ele><time>2015-01-07T08:09:34.146Z</time></trkpt>
	<trkpt lat="52.245999" lon="10.482650"><ele>89</ele><time>2015-01-07T08:09:35.132Z</time></trkpt>
	<trkpt lat="52.245926" lon="10.482526"><ele>88</ele><time>2015-01-07T08:09:36.110Z</time></trkpt>
	<trkpt lat="52.245861" lon="10.482416"><ele>88</ele><time>2015-01-07T08:09:37.152Z</time></trkpt>
	<trkpt lat="52.245801" lon="10.482318"><ele>88</ele><time>2015-01-07T08:09:38.175Z</time></trkpt>
	<trkpt lat="52.245746" lon="10.482231"><ele>88</ele><time>2015-01-07T08:09:39.188Z</time></trkpt>
	<trkpt lat="52.245702" lon="10.482152"><ele>87</ele><time>2015-01-07T08:09:40.136Z</time></trkpt>
	<trkpt lat="52.245680" lon="10.482092"><ele>87</ele><time>2015-01-07T08:09:41.136Z</time></trkpt>
	<trkpt lat="52.245659" lon="10.482018"><ele>87</ele><time>2015-01-07T08:09:42.086Z</time></trkpt>
	<trkpt lat="52.245648" lon="10.481919"><ele>87</ele><time>2015-01-07T08:09:43.087Z</time></trkpt>
	<trkpt lat="52.245646" lon="10.481880"><ele>87</ele><time>2015-01-07T08:09:44.069Z</time></trkpt>
	<trkpt lat="52.245650" lon="10.481828"><ele>87</ele><time>2015-01-07T08:09:45.080Z</time></trkpt>
	<trkpt lat="52.245652" lon="10.481812"><ele>87</ele><time>2015-01-07T08:09:46.085Z</time></trkpt>
	<trkpt lat="52.245658" lon="10.481771"><ele>87</ele><time>2015-01-07T08:09:47.082Z</time></trkpt>
	<trkpt lat="52.245663" lon="10.481730"><ele>87</ele><time>2015-01-07T08:09:48.081Z</time></trkpt>
	<trkpt lat="52.245664" lon="10.481719"><ele>87</ele><time>2015-01-07T08:09:49.090Z</time></trkpt>
	<trkpt lat="52.245665" lon="10.481719"><ele>87</ele><time>2015-01-07T08:09:50.084Z</time></trkpt>
	<trkpt lat="52.245665" lon="10.481717"><ele>87</ele><time>2015-01-07T08:09:52.087Z</time></trkpt>
	<trkpt lat="52.245666" lon="10.481710"><ele>88</ele><time>2015-01-07T08:09:53.079Z</time></trkpt>
	<trkpt lat="52.245667" lon="10.481663"><ele>88</ele><time>2015-01-07T08:09:54.080Z</time></trkpt>
	<trkpt lat="52.245621" lon="10.481635"><ele>88</ele><time>2015-01-07T08:09:55.074Z</time></trkpt>
	<trkpt lat="52.245608" lon="10.481621"><ele>87</ele><time>2015-01-07T08:09:56.113Z</time></trkpt>
	<trkpt lat="52.245561" lon="10.481600"><ele>87</ele><time>2015-01-07T08:09:57.169Z</time></trkpt>
	<trkpt lat="52.245495" lon="10.481579"><ele>88</ele><time>2015-01-07T08:09:58.162Z</time></trkpt>
	<trkpt lat="52.245424" lon="10.481551"><ele>88</ele><time>2015-01-07T08:09:59.113Z</time></trkpt>
	<trkpt lat="52.245352" lon="10.481515"><ele>88</ele><time>2015-01-07T08:10:00.131Z</time></trkpt>
	<trkpt lat="52.245275" lon="10.481479"><ele>88</ele><time>2015-01-07T08:10:01.153Z</time></trkpt>
	<trkpt lat="52.245209" lon="10.481447"><ele>88</ele><time>2015-01-07T08:10:02.173Z</time></trkpt>
	<trkpt lat="52.245149" lon="10.481407"><ele>88</ele><time>2015-01-07T08:10:03.143Z</time></trkpt>
	<trkpt lat="52.245097" lon="10.481366"><ele>87</ele><time>2015-01-07T08:10:04.169Z</time></trkpt>
	<trkpt lat="52.245061" lon="10.481321"><ele>87</ele><time>2015-01-07T08:10:05.169Z</time></trkpt>
	<trkpt lat="52.245041" lon="10.481308"><ele>87</ele><time>2015-01-07T08:10:06.165Z</time></trkpt>
	<trkpt lat="52.244991" lon="10.481210"><ele>87</ele><time>2015-01-07T08:10:07.183Z</time></trkpt>
	<trkpt lat="52.244990" lon="10.481115"><ele>87</ele><time>2015-01-07T08:10:08.184Z</time></trkpt>
	<trkpt lat="52.244989" lon="10.481016"><ele>87</ele><time>2015-01-07T08:10:09.191Z</time></trkpt>
	<trkpt lat="52.244988" lon="10.480927"><ele>87</ele><time>2015-01-07T08:10:10.126Z</time></trkpt>
	<trkpt lat="52.244987" lon="10.480833"><ele>87</ele><time>2015-01-07T08:10:11.165Z</time></trkpt>
	<trkpt lat="52.244986" lon="10.480737"><ele>87</ele><time>2015-01-07T08:10:12.126Z</time></trkpt>
	<trkpt lat="52.244984" lon="10.480631"><ele>88</ele><time>2015-01-07T08:10:13.122Z</time></trkpt>
	<trkpt lat="52.244983" lon="10.480518"><ele>88</ele><time>2015-01-07T08:10:14.111Z</time></trkpt>
	<trkpt lat="52.244982" lon="10.480395"><ele>88</ele><time>2015-01-07T08:10:15.093Z</time></trkpt>
	<trkpt lat="52.244980" lon="10.480279"><ele>88</ele><time>2015-01-07T08:10:16.089Z</time></trkpt>
	<trkpt lat="52.244979" lon="10.480161"><ele>88</ele><time>2015-01-07T08:10:17.077Z</time></trkpt>
	<trkpt lat="52.244978" lon="10.480046"><ele>88</ele><time>2015-01-07T08:10:18.080Z</time></trkpt>
	<trkpt lat="52.244976" lon="10.479932"><ele>88</ele><time>2015-01-07T08:10:19.079Z</time></trkpt>
	<trkpt lat="52.244975" lon="10.479827"><ele>88</ele><time>2015-01-07T08:10:20.084Z</time></trkpt>
	<trkpt lat="52.244974" lon="10.479718"><ele>88</ele><time>2015-01-07T08:10:21.082Z</time></trkpt>
	<trkpt lat="52.244972" lon="10.479599"><ele>88</ele><time>2015-01-07T08:10:22.080Z</time></trkpt>
	<trkpt lat="52.244971" lon="10.479488"><ele>88</ele><time>2015-01-07T08:10:23.075Z</time></trkpt>
	<trkpt lat="52.244970" lon="10.479379"><ele>88</ele><time>2015-01-07T08:10:24.075Z</time></trkpt>
	<trkpt lat="52.244969" lon="10.479273"><ele>88</ele><time>2015-01-07T08:10:25.079Z</time></trkpt>
	<trkpt lat="52.244967" lon="10.479164"><ele>88</ele><time>2015-01-07T08:10:26.070Z</time></trkpt>
	<trkpt lat="52.244965" lon="10.479046"><ele>88</ele><time>2015-01-07T08:10:27.072Z</time></trkpt>
	<trkpt lat="52.244963" lon="10.478949"><ele>88</ele><time>2015-01-07T08:10:28.111Z</time></trkpt>
	<trkpt lat="52.244962" lon="10.478861"><ele>88</ele><time>2015-01-07T08:10:29.159Z</time></trkpt>
	<trkpt lat="52.244960" lon="10.478763"><ele>88</ele><time>2015-01-07T08:10:30.139Z</time></trkpt>
	<trkpt lat="52.244959" lon="10.478674"><ele>88</ele><time>2015-01-07T08:10:31.154Z</time></trkpt>
	<trkpt lat="52.244958" lon="10.478595"><ele>88</ele><time>2015-01-07T08:10:32.172Z</time></trkpt>
	<trkpt lat="52.244956" lon="10.478504"><ele>88</ele><time>2015-01-07T08:10:33.129Z</time></trkpt>
	<trkpt lat="52.244955" lon="10.478411"><ele>88</ele><time>2015-01-07T08:10:34.151Z</time></trkpt>
	<trkpt lat="52.244953" lon="10.478319"><ele>88</ele><time>2015-01-07T08:10:35.221Z</time></trkpt>
	<trkpt lat="52.244952" lon="10.478221"><ele>88</ele><time>2015-01-07T08:10:36.221Z</time></trkpt>
	<trkpt lat="52.244950" lon="10.478131"><ele>88</ele><time>2015-01-07T08:10:37.169Z</time></trkpt>
	<trkpt lat="52.244950" lon="10.478124"><ele>88</ele><time>2015-01-07T08:10:39.096Z</time></trkpt>
	<trkpt lat="52.244950" lon="10.478127"><ele>88</ele><time>2015-01-07T08:10:40.111Z</time></trkpt>
	<trkpt lat="52.244950" lon="10.478123"><ele>88</ele><time>2015-01-07T08:10:41.168Z</time></trkpt>
	<trkpt lat="52.244950" lon="10.478123"><ele>88</ele><time>2015-01-07T08:10:42.139Z</time></trkpt>
	<trkpt lat="52.244950" lon="10.478123"><ele>88</ele><time>2015-01-07T08:10:43.136Z</time></trkpt>
	<trkpt lat="52.244950" lon="10.478100"><ele>88</ele><time>2015-01-07T08:10:46.101Z</time></trkpt>
	<trkpt lat="52.244913" lon="10.477623"><ele>88</ele><time>2015-01-07T08:10:47.083Z</time></trkpt>
	<trkpt lat="52.244887" lon="10.477614"><ele>88</ele><time>2015-01-07T08:10:48.087Z</time></trkpt>
	<trkpt lat="52.244856" lon="10.477611"><ele>88</ele><time>2015-01-07T08:10:49.108Z</time></trkpt>
	<trkpt lat="52.244830" lon="10.477615"><ele>88</ele><time>2015-01-07T08:10:50.089Z</time></trkpt>
	<trkpt lat="52.244814" lon="10.477616"><ele>88</ele><time>2015-01-07T08:10:51.075Z</time></trkpt>
	<trkpt lat="52.244803" lon="10.477617"><ele>88</ele><time>2015-01-07T08:10:52.081Z</time></trkpt>
	<trkpt lat="52.244803" lon="10.477617"><ele>88</ele><time>2015-01-07T08:10:54.074Z</time></trkpt>
	<trkpt lat="52.244795" lon="10.477626"><ele>88</ele><time>2015-01-07T08:10:55.082Z</time></trkpt>
	<trkpt lat="52.244781" lon="10.477632"><ele>88</ele><time>2015-01-07T08:10:56.073Z</time></trkpt>
	<trkpt lat="52.244756" lon="10.477642"><ele>88</ele><time>2015-01-07T08:10:57.076Z</time></trkpt>
	<trkpt lat="52.244724" lon="10.477648"><ele>88</ele><time>2015-01-07T08:10:58.082Z</time></trkpt>
	<trkpt lat="52.244687" lon="10.477652"><ele>88</ele><time>2015-01-07T08:10:59.089Z</time></trkpt>
	<trkpt lat="52.244654" lon="10.477651"><ele>88</ele><time>2015-01-07T08:11:00.090Z</time></trkpt>
	<trkpt lat="52.244627" lon="10.477654"><ele>88</ele><time>2015-01-07T08:11:01.089Z</time></trkpt>
	<trkpt lat="52.244610" lon="10.477659"><ele>87</ele><time>2015-01-07T08:11:02.090Z</time></trkpt>
	<trkpt lat="52.244603" lon="10.477661"><ele>87</ele><time>2015-01-07T08:11:03.088Z</time></trkpt>
	<trkpt lat="52.244610" lon="10.477666"><ele>87</ele><time>2015-01-07T08:11:08.088Z</time></trkpt>
	<trkpt lat="52.244616" lon="10.477663"><ele>88</ele><time>2015-01-07T08:11:09.088Z</time></trkpt>
	<trkpt lat="52.244625" lon="10.477663"><ele>87</ele><time>2015-01-07T08:11:10.086Z</time></trkpt>
	<trkpt lat="52.244635" lon="10.477662"><ele>88</ele><time>2015-01-07T08:11:11.075Z</time></trkpt>
	<trkpt lat="52.244644" lon="10.477663"><ele>88</ele><time>2015-01-07T08:11:12.070Z</time></trkpt>
	<trkpt lat="52.244649" lon="10.477664"><ele>88</ele><time>2015-01-07T08:11:13.081Z</time></trkpt>
	<trkpt lat="52.244657" lon="10.477664"><ele>88</ele><time>2015-01-07T08:11:14.090Z</time></trkpt>
	<trkpt lat="52.244662" lon="10.477666"><ele>88</ele><time>2015-01-07T08:11:15.088Z</time></trkpt>
	<trkpt lat="52.244670" lon="10.477665"><ele>88</ele><time>2015-01-07T08:11:16.081Z</time></trkpt>
	<trkpt lat="52.244678" lon="10.477665"><ele>88</ele><time>2015-01-07T08:11:17.083Z</time></trkpt>
	<trkpt lat="52.244687" lon="10.477662"><ele>88</ele><time>2015-01-07T08:11:18.104Z</time></trkpt>
	<trkpt lat="52.244697" lon="10.477662"><ele>88</ele><time>2015-01-07T08:11:19.136Z</time></trkpt>
	<trkpt lat="52.244707" lon="10.477661"><ele>88</ele><time>2015-01-07T08:11:20.118Z</time></trkpt>
	<trkpt lat="52.244717" lon="10.477659"><ele>88</ele><time>2015-01-07T08:11:21.145Z</time></trkpt>
	<trkpt lat="52.244727" lon="10.477657"><ele>88</ele><time>2015-01-07T08:11:22.214Z</time></trkpt>
	<trkpt lat="52.244738" lon="10.477658"><ele>88</ele><time>2015-01-07T08:11:23.206Z</time></trkpt>
	<trkpt lat="52.244745" lon="10.477659"><ele>88</ele><time>2015-01-07T08:11:24.183Z</time></trkpt>
	<trkpt lat="52.244753" lon="10.477657"><ele>88</ele><time>2015-01-07T08:11:25.183Z</time></trkpt>
	<trkpt lat="52.244763" lon="10.477657"><ele>88</ele><time>2015-01-07T08:11:26.179Z</time></trkpt>
	<trkpt lat="52.244771" lon="10.477656"><ele>88</ele><time>2015-01-07T08:11:27.195Z</time></trkpt>
	<trkpt lat="52.244776" lon="10.477655"><ele>88</ele><time>2015-01-07T08:11:28.184Z</time></trkpt>
	<trkpt lat="52.244786" lon="10.477653"><ele>88</ele><time>2015-01-07T08:11:29.164Z</time></trkpt>
	<trkpt lat="52.244791" lon="10.477652"><ele>88</ele><time>2015-01-07T08:11:32.175Z</time></trkpt>
	<trkpt lat="52.244800" lon="10.477652"><ele>88</ele><time>2015-01-07T08:11:33.181Z</time></trkpt>
	<trkpt lat="52.244805" lon="10.477650"><ele>88</ele><time>2015-01-07T08:11:34.168Z</time></trkpt>
	<trkpt lat="52.244810" lon="10.477647"><ele>88</ele><time>2015-01-07T08:11:35.125Z</time></trkpt>
	<trkpt lat="52.244814" lon="10.477645"><ele>88</ele><time>2015-01-07T08:11:37.166Z</time></trkpt>
	<trkpt lat="52.244820" lon="10.477641"><ele>88</ele><time>2015-01-07T08:11:38.168Z</time></trkpt>
	<trkpt lat="52.244828" lon="10.477638"><ele>88</ele><time>2015-01-07T08:11:39.192Z</time></trkpt>
	<trkpt lat="52.244834" lon="10.477637"><ele>88</ele><time>2015-01-07T08:11:40.199Z</time></trkpt>
	<trkpt lat="52.244841" lon="10.477639"><ele>88</ele><time>2015-01-07T08:11:43.203Z</time></trkpt>
	<trkpt lat="52.244845" lon="10.477637"><ele>88</ele><time>2015-01-07T08:11:44.166Z</time></trkpt>
	<trkpt lat="52.244853" lon="10.477636"><ele>88</ele><time>2015-01-07T08:11:49.097Z</time></trkpt>
	<trkpt lat="52.244855" lon="10.477630"><ele>88</ele><time>2015-01-07T08:11:50.112Z</time></trkpt>
	<trkpt lat="52.244861" lon="10.477620"><ele>88</ele><time>2015-01-07T08:11:52.117Z</time></trkpt>
	<trkpt lat="52.244864" lon="10.477611"><ele>88</ele><time>2015-01-07T08:11:53.150Z</time></trkpt>
	<trkpt lat="52.244867" lon="10.477601"><ele>88</ele><time>2015-01-07T08:11:54.140Z</time></trkpt>
	<trkpt lat="52.244868" lon="10.477596"><ele>88</ele><time>2015-01-07T08:11:55.154Z</time></trkpt>
	<trkpt lat="52.244871" lon="10.477589"><ele>88</ele><time>2015-01-07T08:12:03.122Z</time></trkpt>
	<trkpt lat="52.244873" lon="10.477583"><ele>88</ele><time>2015-01-07T08:12:04.119Z</time></trkpt>
	<trkpt lat="52.244876" lon="10.477584"><ele>88</ele><time>2015-01-07T08:12:25.186Z</time></trkpt>
	<trkpt lat="52.244881" lon="10.477567"><ele>88</ele><time>2015-01-07T08:12:26.137Z</time></trkpt>
	<trkpt lat="52.244879" lon="10.477569"><ele>89</ele><time>2015-01-07T08:12:33.113Z</time></trkpt>
	<trkpt lat="52.244895" lon="10.477549"><ele>88</ele><time>2015-01-07T08:12:34.117Z</time></trkpt>
	<trkpt lat="52.244896" lon="10.477546"><ele>88</ele><time>2015-01-07T08:12:43.139Z</time></trkpt>
	<trkpt lat="52.244855" lon="10.477547"><ele>84</ele><time>2015-01-07T08:28:11.053Z</time></trkpt>
	<trkpt lat="52.244855" lon="10.477547"><ele>85</ele><time>2015-01-07T08:28:12.067Z</time></trkpt>
	<trkpt lat="52.244855" lon="10.477547"><ele>90</ele><time>2015-01-07T08:28:24.040Z</time></trkpt>
	<trkpt lat="52.244866" lon="10.477590"><ele>90</ele><time>2015-01-07T08:28:25.048Z</time></trkpt>
	<trkpt lat="52.244870" lon="10.477604"><ele>91</ele><time>2015-01-07T08:28:26.042Z</time></trkpt>
	<trkpt lat="52.244880" lon="10.477622"><ele>91</ele><time>2015-01-07T08:28:27.040Z</time></trkpt>
	<trkpt lat="52.244899" lon="10.477639"><ele>91</ele><time>2015-01-07T08:28:28.039Z</time></trkpt>
	<trkpt lat="52.244925" lon="10.477651"><ele>91</ele><time>2015-01-07T08:28:29.038Z</time></trkpt>
	<trkpt lat="52.244956" lon="10.477667"><ele>91</ele><time>2015-01-07T08:28:30.039Z</time></trkpt>
	<trkpt lat="52.244987" lon="10.477694"><ele>91</ele><time>2015-01-07T08:28:31.040Z</time></trkpt>
	<trkpt lat="52.245010" lon="10.477740"><ele>91</ele><time>2015-01-07T08:28:32.040Z</time></trkpt>
	<trkpt lat="52.245021" lon="10.477802"><ele>91</ele><time>2015-01-07T08:28:33.039Z</time></trkpt>
	<trkpt lat="52.245008" lon="10.477908"><ele>91</ele><time>2015-01-07T08:28:34.065Z</time></trkpt>
	<trkpt lat="52.245003" lon="10.478012"><ele>91</ele><time>2015-01-07T08:28:35.071Z</time></trkpt>
	<trkpt lat="52.245000" lon="10.478133"><ele>91</ele><time>2015-01-07T08:28:36.070Z</time></trkpt>
	<trkpt lat="52.244953" lon="10.478274"><ele>91</ele><time>2015-01-07T08:28:37.059Z</time></trkpt>
	<trkpt lat="52.244955" lon="10.478409"><ele>91</ele><time>2015-01-07T08:28:38.051Z</time></trkpt>
	<trkpt lat="52.244957" lon="10.478559"><ele>90</ele><time>2015-01-07T08:28:39.070Z</time></trkpt>
	<trkpt lat="52.244960" lon="10.478720"><ele>90</ele><time>2015-01-07T08:28:40.067Z</time></trkpt>
	<trkpt lat="52.244963" lon="10.478894"><ele>91</ele><time>2015-01-07T08:28:41.075Z</time></trkpt>
	<trkpt lat="52.244965" lon="10.479063"><ele>90</ele><time>2015-01-07T08:28:42.128Z</time></trkpt>
	<trkpt lat="52.244968" lon="10.479232"><ele>90</ele><time>2015-01-07T08:28:43.113Z</time></trkpt>
	<trkpt lat="52.244970" lon="10.479394"><ele>90</ele><time>2015-01-07T08:28:44.088Z</time></trkpt>
	<trkpt lat="52.244972" lon="10.479569"><ele>90</ele><time>2015-01-07T08:28:45.093Z</time></trkpt>
	<trkpt lat="52.244974" lon="10.479739"><ele>90</ele><time>2015-01-07T08:28:46.092Z</time></trkpt>
	<trkpt lat="52.244976" lon="10.479901"><ele>90</ele><time>2015-01-07T08:28:47.059Z</time></trkpt>
	<trkpt lat="52.244978" lon="10.480069"><ele>90</ele><time>2015-01-07T08:28:48.080Z</time></trkpt>
	<trkpt lat="52.244980" lon="10.480220"><ele>90</ele><time>2015-01-07T08:28:49.113Z</time></trkpt>
	<trkpt lat="52.244981" lon="10.480383"><ele>89</ele><time>2015-01-07T08:28:50.121Z</time></trkpt>
	<trkpt lat="52.244983" lon="10.480533"><ele>89</ele><time>2015-01-07T08:28:51.138Z</time></trkpt>
	<trkpt lat="52.244985" lon="10.480686"><ele>89</ele><time>2015-01-07T08:28:52.177Z</time></trkpt>
	<trkpt lat="52.244986" lon="10.480813"><ele>89</ele><time>2015-01-07T08:28:53.077Z</time></trkpt>
	<trkpt lat="52.244988" lon="10.480931"><ele>88</ele><time>2015-01-07T08:28:54.094Z</time></trkpt>
	<trkpt lat="52.244989" lon="10.481039"><ele>88</ele><time>2015-01-07T08:28:55.108Z</time></trkpt>
	<trkpt lat="52.244990" lon="10.481108"><ele>88</ele><time>2015-01-07T08:28:56.097Z</time></trkpt>
	<trkpt lat="52.244991" lon="10.481176"><ele>88</ele><time>2015-01-07T08:28:57.087Z</time></trkpt>
	<trkpt lat="52.244991" lon="10.481204"><ele>88</ele><time>2015-01-07T08:28:58.088Z</time></trkpt>
	<trkpt lat="52.244991" lon="10.481222"><ele>88</ele><time>2015-01-07T08:28:59.128Z</time></trkpt>
	<trkpt lat="52.244991" lon="10.481246"><ele>88</ele><time>2015-01-07T08:29:00.130Z</time></trkpt>
	<trkpt lat="52.244991" lon="10.481256"><ele>88</ele><time>2015-01-07T08:29:02.103Z</time></trkpt>
	<trkpt lat="52.244992" lon="10.481269"><ele>88</ele><time>2015-01-07T08:29:03.094Z</time></trkpt>
	<trkpt lat="52.244992" lon="10.481304"><ele>89</ele><time>2015-01-07T08:29:04.085Z</time></trkpt>
	<trkpt lat="52.244992" lon="10.481342"><ele>88</ele><time>2015-01-07T08:29:05.085Z</time></trkpt>
	<trkpt lat="52.245057" lon="10.481369"><ele>89</ele><time>2015-01-07T08:29:06.086Z</time></trkpt>
	<trkpt lat="52.245092" lon="10.481416"><ele>89</ele><time>2015-01-07T08:29:07.115Z</time></trkpt>
	<trkpt lat="52.245145" lon="10.481451"><ele>89</ele><time>2015-01-07T08:29:08.065Z</time></trkpt>
	<trkpt lat="52.245191" lon="10.481470"><ele>88</ele><time>2015-01-07T08:29:09.095Z</time></trkpt>
	<trkpt lat="52.245204" lon="10.481474"><ele>87</ele><time>2015-01-07T08:29:10.090Z</time></trkpt>
	<trkpt lat="52.245202" lon="10.481496"><ele>88</ele><time>2015-01-07T08:29:11.068Z</time></trkpt>
	<trkpt lat="52.245201" lon="10.481495"><ele>88</ele><time>2015-01-07T08:29:25.083Z</time></trkpt>
	<trkpt lat="52.245215" lon="10.481488"><ele>88</ele><time>2015-01-07T08:29:26.072Z</time></trkpt>
	<trkpt lat="52.245233" lon="10.481492"><ele>88</ele><time>2015-01-07T08:29:27.091Z</time></trkpt>
	<trkpt lat="52.245257" lon="10.481504"><ele>88</ele><time>2015-01-07T08:29:28.133Z</time></trkpt>
	<trkpt lat="52.245307" lon="10.481528"><ele>88</ele><time>2015-01-07T08:29:29.132Z</time></trkpt>
	<trkpt lat="52.245342" lon="10.481545"><ele>88</ele><time>2015-01-07T08:29:30.126Z</time></trkpt>
	<trkpt lat="52.245341" lon="10.481549"><ele>89</ele><time>2015-01-07T08:29:31.114Z</time></trkpt>
	<trkpt lat="52.245504" lon="10.481604"><ele>89</ele><time>2015-01-07T08:29:32.106Z</time></trkpt>
	<trkpt lat="52.245580" lon="10.481628"><ele>89</ele><time>2015-01-07T08:29:33.124Z</time></trkpt>
	<trkpt lat="52.245678" lon="10.481596"><ele>89</ele><time>2015-01-07T08:29:34.151Z</time></trkpt>
	<trkpt lat="52.245778" lon="10.481590"><ele>89</ele><time>2015-01-07T08:29:35.166Z</time></trkpt>
	<trkpt lat="52.245881" lon="10.481582"><ele>89</ele><time>2015-01-07T08:29:36.161Z</time></trkpt>
	<trkpt lat="52.245985" lon="10.481567"><ele>89</ele><time>2015-01-07T08:29:37.090Z</time></trkpt>
	<trkpt lat="52.246090" lon="10.481550"><ele>89</ele><time>2015-01-07T08:29:38.160Z</time></trkpt>
	<trkpt lat="52.246205" lon="10.481523"><ele>90</ele><time>2015-01-07T08:29:39.176Z</time></trkpt>
	<trkpt lat="52.246306" lon="10.481486"><ele>90</ele><time>2015-01-07T08:29:40.096Z</time></trkpt>
	<trkpt lat="52.246414" lon="10.481438"><ele>90</ele><time>2015-01-07T08:29:41.129Z</time></trkpt>
	<trkpt lat="52.246536" lon="10.481382"><ele>91</ele><time>2015-01-07T08:29:42.075Z</time></trkpt>
	<trkpt lat="52.246650" lon="10.481329"><ele>91</ele><time>2015-01-07T08:29:43.066Z</time></trkpt>
	<trkpt lat="52.246735" lon="10.481290"><ele>91</ele><time>2015-01-07T08:29:44.057Z</time></trkpt>
	<trkpt lat="52.246885" lon="10.481210"><ele>91</ele><time>2015-01-07T08:29:45.053Z</time></trkpt>
	<trkpt lat="52.246999" lon="10.481149"><ele>92</ele><time>2015-01-07T08:29:46.062Z</time></trkpt>
	<trkpt lat="52.247113" lon="10.481087"><ele>91</ele><time>2015-01-07T08:29:47.054Z</time></trkpt>
	<trkpt lat="52.247226" lon="10.481027"><ele>91</ele><time>2015-01-07T08:29:48.086Z</time></trkpt>
	<trkpt lat="52.247345" lon="10.480963"><ele>91</ele><time>2015-01-07T08:29:49.064Z</time></trkpt>
	<trkpt lat="52.247472" lon="10.480895"><ele>91</ele><time>2015-01-07T08:29:50.072Z</time></trkpt>
	<trkpt lat="52.247594" lon="10.480830"><ele>91</ele><time>2015-01-07T08:29:51.078Z</time></trkpt>
	<trkpt lat="52.247709" lon="10.480767"><ele>91</ele><time>2015-01-07T08:29:52.071Z</time></trkpt>
	<trkpt lat="52.247817" lon="10.480709"><ele>91</ele><time>2015-01-07T08:29:53.058Z</time></trkpt>
	<trkpt lat="52.247916" lon="10.480656"><ele>91</ele><time>2015-01-07T08:29:54.057Z</time></trkpt>
	<trkpt lat="52.248000" lon="10.480611"><ele>91</ele><time>2015-01-07T08:29:55.052Z</time></trkpt>
	<trkpt lat="52.248094" lon="10.480559"><ele>91</ele><time>2015-01-07T08:29:56.076Z</time></trkpt>
	<trkpt lat="52.248169" lon="10.480517"><ele>90</ele><time>2015-01-07T08:29:57.101Z</time></trkpt>
	<trkpt lat="52.248246" lon="10.480472"><ele>91</ele><time>2015-01-07T08:29:58.094Z</time></trkpt>
	<trkpt lat="52.248321" lon="10.480428"><ele>90</ele><time>2015-01-07T08:29:59.127Z</time></trkpt>
	<trkpt lat="52.248404" lon="10.480374"><ele>91</ele><time>2015-01-07T08:30:00.161Z</time></trkpt>
	<trkpt lat="52.248486" lon="10.480317"><ele>91</ele><time>2015-01-07T08:30:01.176Z</time></trkpt>
	<trkpt lat="52.248564" lon="10.480261"><ele>91</ele><time>2015-01-07T08:30:02.145Z</time></trkpt>
	<trkpt lat="52.248567" lon="10.480258"><ele>91</ele><time>2015-01-07T08:30:03.126Z</time></trkpt>
	<trkpt lat="52.248725" lon="10.480260"><ele>90</ele><time>2015-01-07T08:30:04.115Z</time></trkpt>
	<trkpt lat="52.248774" lon="10.480255"><ele>90</ele><time>2015-01-07T08:30:05.113Z</time></trkpt>
	<trkpt lat="52.248809" lon="10.480251"><ele>90</ele><time>2015-01-07T08:30:06.117Z</time></trkpt>
	<trkpt lat="52.248839" lon="10.480248"><ele>90</ele><time>2015-01-07T08:30:07.084Z</time></trkpt>
	<trkpt lat="52.248848" lon="10.480247"><ele>90</ele><time>2015-01-07T08:30:08.081Z</time></trkpt>
	<trkpt lat="52.248848" lon="10.480247"><ele>91</ele><time>2015-01-07T08:30:18.052Z</time></trkpt>
	<trkpt lat="52.248862" lon="10.480246"><ele>91</ele><time>2015-01-07T08:30:19.061Z</time></trkpt>
	<trkpt lat="52.248875" lon="10.480244"><ele>91</ele><time>2015-01-07T08:30:20.055Z</time></trkpt>
	<trkpt lat="52.248907" lon="10.480241"><ele>91</ele><time>2015-01-07T08:30:21.070Z</time></trkpt>
	<trkpt lat="52.248944" lon="10.480237"><ele>91</ele><time>2015-01-07T08:30:22.069Z</time></trkpt>
	<trkpt lat="52.248978" lon="10.480234"><ele>91</ele><time>2015-01-07T08:30:23.057Z</time></trkpt>
	<trkpt lat="52.249006" lon="10.480231"><ele>91</ele><time>2015-01-07T08:30:24.055Z</time></trkpt>
	<trkpt lat="52.249030" lon="10.480228"><ele>91</ele><time>2015-01-07T08:30:25.085Z</time></trkpt>
	<trkpt lat="52.249045" lon="10.480227"><ele>91</ele><time>2015-01-07T08:30:26.146Z</time></trkpt>
	<trkpt lat="52.249063" lon="10.480225"><ele>91</ele><time>2015-01-07T08:30:27.145Z</time></trkpt>
	<trkpt lat="52.249064" lon="10.480225"><ele>92</ele><time>2015-01-07T08:30:28.145Z</time></trkpt>
	<trkpt lat="52.249059" lon="10.480225"><ele>92</ele><time>2015-01-07T08:30:29.158Z</time></trkpt>
	<trkpt lat="52.249159" lon="10.480221"><ele>92</ele><time>2015-01-07T08:30:30.125Z</time></trkpt>
	<trkpt lat="52.249197" lon="10.480218"><ele>92</ele><time>2015-01-07T08:30:31.139Z</time></trkpt>
	<trkpt lat="52.249228" lon="10.480214"><ele>92</ele><time>2015-01-07T08:30:32.214Z</time></trkpt>
	<trkpt lat="52.249237" lon="10.480064"><ele>92</ele><time>2015-01-07T08:30:33.207Z</time></trkpt>
	<trkpt lat="52.249236" lon="10.480039"><ele>93</ele><time>2015-01-07T08:30:34.145Z</time></trkpt>
	<trkpt lat="52.249235" lon="10.479854"><ele>93</ele><time>2015-01-07T08:30:35.126Z</time></trkpt>
	<trkpt lat="52.249235" lon="10.479722"><ele>93</ele><time>2015-01-07T08:30:36.147Z</time></trkpt>
	<trkpt lat="52.249234" lon="10.479584"><ele>93</ele><time>2015-01-07T08:30:37.141Z</time></trkpt>
	<trkpt lat="52.249233" lon="10.479447"><ele>93</ele><time>2015-01-07T08:30:38.077Z</time></trkpt>
	<trkpt lat="52.249233" lon="10.479330"><ele>93</ele><time>2015-01-07T08:30:39.102Z</time></trkpt>
	<trkpt lat="52.249232" lon="10.479224"><ele>92</ele><time>2015-01-07T08:30:40.090Z</time></trkpt>
	<trkpt lat="52.249232" lon="10.479133"><ele>92</ele><time>2015-01-07T08:30:41.097Z</time></trkpt>
	<trkpt lat="52.249231" lon="10.479062"><ele>92</ele><time>2015-01-07T08:30:42.105Z</time></trkpt>
	<trkpt lat="52.249231" lon="10.479007"><ele>92</ele><time>2015-01-07T08:30:43.110Z</time></trkpt>
	<trkpt lat="52.249231" lon="10.478970"><ele>92</ele><time>2015-01-07T08:30:44.086Z</time></trkpt>
	<trkpt lat="52.249231" lon="10.478952"><ele>92</ele><time>2015-01-07T08:30:45.085Z</time></trkpt>
	<trkpt lat="52.249231" lon="10.478942"><ele>92</ele><time>2015-01-07T08:30:46.077Z</time></trkpt>
	<trkpt lat="52.249231" lon="10.478935"><ele>92</ele><time>2015-01-07T08:30:47.054Z</time></trkpt>
	<trkpt lat="52.249231" lon="10.478923"><ele>92</ele><time>2015-01-07T08:30:54.064Z</time></trkpt>
	<trkpt lat="52.249231" lon="10.478920"><ele>92</ele><time>2015-01-07T08:30:55.069Z</time></trkpt>
	<trkpt lat="52.249230" lon="10.478910"><ele>92</ele><time>2015-01-07T08:30:56.120Z</time></trkpt>
	<trkpt lat="52.249230" lon="10.478876"><ele>93</ele><time>2015-01-07T08:30:57.151Z</time></trkpt>
	<trkpt lat="52.249230" lon="10.478819"><ele>93</ele><time>2015-01-07T08:30:58.136Z</time></trkpt>
	<trkpt lat="52.249230" lon="10.478735"><ele>93</ele><time>2015-01-07T08:30:59.129Z</time></trkpt>
	<trkpt lat="52.249230" lon="10.478651"><ele>92</ele><time>2015-01-07T08:31:00.128Z</time></trkpt>
	<trkpt lat="52.249230" lon="10.478554"><ele>93</ele><time>2015-01-07T08:31:01.117Z</time></trkpt>
	<trkpt lat="52.249230" lon="10.478439"><ele>93</ele><time>2015-01-07T08:31:02.110Z</time></trkpt>
	<trkpt lat="52.249230" lon="10.478294"><ele>94</ele><time>2015-01-07T08:31:03.134Z</time></trkpt>
	<trkpt lat="52.249231" lon="10.478145"><ele>93</ele><time>2015-01-07T08:31:04.187Z</time></trkpt>
	<trkpt lat="52.249231" lon="10.477991"><ele>94</ele><time>2015-01-07T08:31:05.144Z</time></trkpt>
	<trkpt lat="52.249231" lon="10.477827"><ele>94</ele><time>2015-01-07T08:31:06.175Z</time></trkpt>
	<trkpt lat="52.249232" lon="10.477650"><ele>94</ele><time>2015-01-07T08:31:07.182Z</time></trkpt>
	<trkpt lat="52.249233" lon="10.477466"><ele>94</ele><time>2015-01-07T08:31:08.100Z</time></trkpt>
	<trkpt lat="52.249234" lon="10.477278"><ele>94</ele><time>2015-01-07T08:31:09.135Z</time></trkpt>
	<trkpt lat="52.249236" lon="10.477074"><ele>94</ele><time>2015-01-07T08:31:10.096Z</time></trkpt>
	<trkpt lat="52.249238" lon="10.476878"><ele>94</ele><time>2015-01-07T08:31:11.096Z</time></trkpt>
	<trkpt lat="52.249239" lon="10.476684"><ele>94</ele><time>2015-01-07T08:31:12.115Z</time></trkpt>
	<trkpt lat="52.249241" lon="10.476505"><ele>94</ele><time>2015-01-07T08:31:13.122Z</time></trkpt>
	<trkpt lat="52.249243" lon="10.476334"><ele>94</ele><time>2015-01-07T08:31:14.135Z</time></trkpt>
	<trkpt lat="52.249246" lon="10.476138"><ele>94</ele><time>2015-01-07T08:31:15.128Z</time></trkpt>
	<trkpt lat="52.249248" lon="10.475938"><ele>94</ele><time>2015-01-07T08:31:16.153Z</time></trkpt>
	<trkpt lat="52.249251" lon="10.475726"><ele>95</ele><time>2015-01-07T08:31:17.146Z</time></trkpt>
	<trkpt lat="52.249254" lon="10.475500"><ele>95</ele><time>2015-01-07T08:31:18.112Z</time></trkpt>
	<trkpt lat="52.249257" lon="10.475266"><ele>95</ele><time>2015-01-07T08:31:19.167Z</time></trkpt>
	<trkpt lat="52.249260" lon="10.475035"><ele>95</ele><time>2015-01-07T08:31:20.130Z</time></trkpt>
	<trkpt lat="52.249257" lon="10.474823"><ele>95</ele><time>2015-01-07T08:31:21.164Z</time></trkpt>
	<trkpt lat="52.249243" lon="10.474599"><ele>95</ele><time>2015-01-07T08:31:22.169Z</time></trkpt>
	<trkpt lat="52.249224" lon="10.474376"><ele>95</ele><time>2015-01-07T08:31:23.166Z</time></trkpt>
	<trkpt lat="52.249199" lon="10.474154"><ele>95</ele><time>2015-01-07T08:31:24.167Z</time></trkpt>
	<trkpt lat="52.249171" lon="10.473938"><ele>95</ele><time>2015-01-07T08:31:25.167Z</time></trkpt>
	<trkpt lat="52.249134" lon="10.473714"><ele>95</ele><time>2015-01-07T08:31:26.162Z</time></trkpt>
	<trkpt lat="52.249096" lon="10.473526"><ele>94</ele><time>2015-01-07T08:31:27.168Z</time></trkpt>
	<trkpt lat="52.249048" lon="10.473333"><ele>94</ele><time>2015-01-07T08:31:28.142Z</time></trkpt>
	<trkpt lat="52.248996" lon="10.473151"><ele>94</ele><time>2015-01-07T08:31:29.149Z</time></trkpt>
	<trkpt lat="52.248946" lon="10.472992"><ele>94</ele><time>2015-01-07T08:31:30.167Z</time></trkpt>
	<trkpt lat="52.248891" lon="10.472836"><ele>93</ele><time>2015-01-07T08:31:31.207Z</time></trkpt>
	<trkpt lat="52.248842" lon="10.472706"><ele>93</ele><time>2015-01-07T08:31:32.156Z</time></trkpt>
	<trkpt lat="52.248795" lon="10.472588"><ele>93</ele><time>2015-01-07T08:31:33.154Z</time></trkpt>
	<trkpt lat="52.248747" lon="10.472476"><ele>93</ele><time>2015-01-07T08:31:34.116Z</time></trkpt>
	<trkpt lat="52.248704" lon="10.472382"><ele>93</ele><time>2015-01-07T08:31:35.104Z</time></trkpt>
	<trkpt lat="52.248663" lon="10.472297"><ele>92</ele><time>2015-01-07T08:31:36.139Z</time></trkpt>
	<trkpt lat="52.248630" lon="10.472228"><ele>92</ele><time>2015-01-07T08:31:37.137Z</time></trkpt>
	<trkpt lat="52.248605" lon="10.472176"><ele>91</ele><time>2015-01-07T08:31:38.101Z</time></trkpt>
	<trkpt lat="52.248586" lon="10.472136"><ele>91</ele><time>2015-01-07T08:31:39.087Z</time></trkpt>
	<trkpt lat="52.248609" lon="10.471941"><ele>92</ele><time>2015-01-07T08:31:40.083Z</time></trkpt>
	<trkpt lat="52.248654" lon="10.471858"><ele>92</ele><time>2015-01-07T08:31:41.074Z</time></trkpt>
	<trkpt lat="52.248696" lon="10.471778"><ele>92</ele><time>2015-01-07T08:31:42.063Z</time></trkpt>
	<trkpt lat="52.248743" lon="10.471689"><ele>92</ele><time>2015-01-07T08:31:43.080Z</time></trkpt>
	<trkpt lat="52.248789" lon="10.471600"><ele>92</ele><time>2015-01-07T08:31:44.079Z</time></trkpt>
	<trkpt lat="52.248839" lon="10.471506"><ele>92</ele><time>2015-01-07T08:31:45.078Z</time></trkpt>
	<trkpt lat="52.248890" lon="10.471408"><ele>93</ele><time>2015-01-07T08:31:46.139Z</time></trkpt>
	<trkpt lat="52.248945" lon="10.471303"><ele>93</ele><time>2015-01-07T08:31:47.164Z</time></trkpt>
	<trkpt lat="52.249000" lon="10.471198"><ele>93</ele><time>2015-01-07T08:31:48.158Z</time></trkpt>
	<trkpt lat="52.249054" lon="10.471096"><ele>93</ele><time>2015-01-07T08:31:49.139Z</time></trkpt>
	<trkpt lat="52.249109" lon="10.470992"><ele>93</ele><time>2015-01-07T08:31:50.135Z</time></trkpt>
	<trkpt lat="52.249164" lon="10.470886"><ele>93</ele><time>2015-01-07T08:31:51.143Z</time></trkpt>
	<trkpt lat="52.249243" lon="10.470809"><ele>93</ele><time>2015-01-07T08:31:52.185Z</time></trkpt>
	<trkpt lat="52.249298" lon="10.470705"><ele>93</ele><time>2015-01-07T08:31:53.181Z</time></trkpt>
	<trkpt lat="52.249354" lon="10.470598"><ele>93</ele><time>2015-01-07T08:31:54.167Z</time></trkpt>
	<trkpt lat="52.249414" lon="10.470490"><ele>93</ele><time>2015-01-07T08:31:55.151Z</time></trkpt>
	<trkpt lat="52.249467" lon="10.470373"><ele>93</ele><time>2015-01-07T08:31:56.137Z</time></trkpt>
	<trkpt lat="52.249516" lon="10.470255"><ele>93</ele><time>2015-01-07T08:31:57.094Z</time></trkpt>
	<trkpt lat="52.249561" lon="10.470131"><ele>93</ele><time>2015-01-07T08:31:58.082Z</time></trkpt>
	<trkpt lat="52.249596" lon="10.470013"><ele>93</ele><time>2015-01-07T08:31:59.091Z</time></trkpt>
	<trkpt lat="52.249624" lon="10.469887"><ele>93</ele><time>2015-01-07T08:32:00.108Z</time></trkpt>
	<trkpt lat="52.249646" lon="10.469756"><ele>93</ele><time>2015-01-07T08:32:01.118Z</time></trkpt>
	<trkpt lat="52.249662" lon="10.469626"><ele>93</ele><time>2015-01-07T08:32:02.111Z</time></trkpt>
	<trkpt lat="52.249669" lon="10.469497"><ele>93</ele><time>2015-01-07T08:32:03.131Z</time></trkpt>
	<trkpt lat="52.249670" lon="10.469364"><ele>93</ele><time>2015-01-07T08:32:04.127Z</time></trkpt>
	<trkpt lat="52.249674" lon="10.469231"><ele>94</ele><time>2015-01-07T08:32:05.128Z</time></trkpt>
	<trkpt lat="52.249674" lon="10.469094"><ele>94</ele><time>2015-01-07T08:32:06.125Z</time></trkpt>
	<trkpt lat="52.249673" lon="10.468960"><ele>94</ele><time>2015-01-07T08:32:07.079Z</time></trkpt>
	<trkpt lat="52.249670" lon="10.468799"><ele>94</ele><time>2015-01-07T08:32:08.119Z</time></trkpt>
	<trkpt lat="52.249669" lon="10.468651"><ele>94</ele><time>2015-01-07T08:32:09.122Z</time></trkpt>
	<trkpt lat="52.249659" lon="10.468511"><ele>94</ele><time>2015-01-07T08:32:10.125Z</time></trkpt>
	<trkpt lat="52.249658" lon="10.468359"><ele>94</ele><time>2015-01-07T08:32:11.128Z</time></trkpt>
	<trkpt lat="52.249665" lon="10.468223"><ele>94</ele><time>2015-01-07T08:32:12.131Z</time></trkpt>
	<trkpt lat="52.249680" lon="10.468097"><ele>94</ele><time>2015-01-07T08:32:13.139Z</time></trkpt>
	<trkpt lat="52.249714" lon="10.467958"><ele>94</ele><time>2015-01-07T08:32:14.120Z</time></trkpt>
	<trkpt lat="52.249755" lon="10.467838"><ele>94</ele><time>2015-01-07T08:32:15.102Z</time></trkpt>
	<trkpt lat="52.249810" lon="10.467729"><ele>94</ele><time>2015-01-07T08:32:16.101Z</time></trkpt>
	<trkpt lat="52.249868" lon="10.467641"><ele>94</ele><time>2015-01-07T08:32:17.129Z</time></trkpt>
	<trkpt lat="52.249941" lon="10.467561"><ele>94</ele><time>2015-01-07T08:32:18.138Z</time></trkpt>
	<trkpt lat="52.250018" lon="10.467496"><ele>94</ele><time>2015-01-07T08:32:19.120Z</time></trkpt>
	<trkpt lat="52.250103" lon="10.467462"><ele>94</ele><time>2015-01-07T08:32:20.119Z</time></trkpt>
	<trkpt lat="52.250187" lon="10.467442"><ele>94</ele><time>2015-01-07T08:32:21.131Z</time></trkpt>
	<trkpt lat="52.250276" lon="10.467430"><ele>94</ele><time>2015-01-07T08:32:22.117Z</time></trkpt>
	<trkpt lat="52.250359" lon="10.467427"><ele>95</ele><time>2015-01-07T08:32:23.104Z</time></trkpt>
	<trkpt lat="52.250460" lon="10.467431"><ele>95</ele><time>2015-01-07T08:32:24.102Z</time></trkpt>
	<trkpt lat="52.250545" lon="10.467429"><ele>95</ele><time>2015-01-07T08:32:25.108Z</time></trkpt>
	<trkpt lat="52.250632" lon="10.467428"><ele>95</ele><time>2015-01-07T08:32:26.134Z</time></trkpt>
	<trkpt lat="52.250719" lon="10.467427"><ele>94</ele><time>2015-01-07T08:32:27.126Z</time></trkpt>
	<trkpt lat="52.250805" lon="10.467428"><ele>94</ele><time>2015-01-07T08:32:28.134Z</time></trkpt>
	<trkpt lat="52.250890" lon="10.467426"><ele>94</ele><time>2015-01-07T08:32:29.119Z</time></trkpt>
	<trkpt lat="52.250974" lon="10.467424"><ele>94</ele><time>2015-01-07T08:32:30.131Z</time></trkpt>
	<trkpt lat="52.251053" lon="10.467422"><ele>94</ele><time>2015-01-07T08:32:31.163Z</time></trkpt>
	<trkpt lat="52.251129" lon="10.467421"><ele>94</ele><time>2015-01-07T08:32:32.151Z</time></trkpt>
	<trkpt lat="52.251203" lon="10.467421"><ele>94</ele><time>2015-01-07T08:32:33.113Z</time></trkpt>
	<trkpt lat="52.251271" lon="10.467420"><ele>94</ele><time>2015-01-07T08:32:34.094Z</time></trkpt>
	<trkpt lat="52.251324" lon="10.467415"><ele>94</ele><time>2015-01-07T08:32:35.118Z</time></trkpt>
	<trkpt lat="52.251361" lon="10.467410"><ele>93</ele><time>2015-01-07T08:32:36.115Z</time></trkpt>
	<trkpt lat="52.251390" lon="10.467417"><ele>94</ele><time>2015-01-07T08:32:37.106Z</time></trkpt>
	<trkpt lat="52.251420" lon="10.467434"><ele>94</ele><time>2015-01-07T08:32:38.101Z</time></trkpt>
	<trkpt lat="52.251431" lon="10.467457"><ele>94</ele><time>2015-01-07T08:32:39.116Z</time></trkpt>
	<trkpt lat="52.251444" lon="10.467500"><ele>94</ele><time>2015-01-07T08:32:40.112Z</time></trkpt>
	<trkpt lat="52.251450" lon="10.467551"><ele>94</ele><time>2015-01-07T08:32:41.096Z</time></trkpt>
	<trkpt lat="52.251446" lon="10.467609"><ele>94</ele><time>2015-01-07T08:32:42.120Z</time></trkpt>
	<trkpt lat="52.251440" lon="10.467675"><ele>94</ele><time>2015-01-07T08:32:43.104Z</time></trkpt>
	<trkpt lat="52.251436" lon="10.467743"><ele>94</ele><time>2015-01-07T08:32:44.101Z</time></trkpt>
	<trkpt lat="52.251432" lon="10.467817"><ele>94</ele><time>2015-01-07T08:32:45.121Z</time></trkpt>
	<trkpt lat="52.251427" lon="10.467886"><ele>94</ele><time>2015-01-07T08:32:46.093Z</time></trkpt>
	<trkpt lat="52.251424" lon="10.467956"><ele>94</ele><time>2015-01-07T08:32:47.116Z</time></trkpt>
	<trkpt lat="52.251424" lon="10.468024"><ele>94</ele><time>2015-01-07T08:32:48.117Z</time></trkpt>
	<trkpt lat="52.251423" lon="10.468090"><ele>94</ele><time>2015-01-07T08:32:49.125Z</time></trkpt>
	<trkpt lat="52.251422" lon="10.468151"><ele>94</ele><time>2015-01-07T08:32:50.122Z</time></trkpt>
	<trkpt lat="52.251423" lon="10.468217"><ele>94</ele><time>2015-01-07T08:32:51.121Z</time></trkpt>
	<trkpt lat="52.251422" lon="10.468281"><ele>94</ele><time>2015-01-07T08:32:52.144Z</time></trkpt>
	<trkpt lat="52.251424" lon="10.468347"><ele>94</ele><time>2015-01-07T08:32:53.119Z</time></trkpt>
	<trkpt lat="52.251423" lon="10.468406"><ele>94</ele><time>2015-01-07T08:32:54.130Z</time></trkpt>
	<trkpt lat="52.251423" lon="10.468477"><ele>94</ele><time>2015-01-07T08:32:55.163Z</time></trkpt>
	<trkpt lat="52.251417" lon="10.468550"><ele>94</ele><time>2015-01-07T08:32:56.154Z</time></trkpt>
	<trkpt lat="52.251422" lon="10.468621"><ele>94</ele><time>2015-01-07T08:32:57.145Z</time></trkpt>
	<trkpt lat="52.251423" lon="10.468690"><ele>94</ele><time>2015-01-07T08:32:58.147Z</time></trkpt>
	<trkpt lat="52.251427" lon="10.468756"><ele>94</ele><time>2015-01-07T08:32:59.130Z</time></trkpt>
	<trkpt lat="52.251427" lon="10.468821"><ele>94</ele><time>2015-01-07T08:33:00.119Z</time></trkpt>
	<trkpt lat="52.251425" lon="10.468882"><ele>94</ele><time>2015-01-07T08:33:01.128Z</time></trkpt>
	<trkpt lat="52.251425" lon="10.468945"><ele>94</ele><time>2015-01-07T08:33:02.139Z</time></trkpt>
	<trkpt lat="52.251413" lon="10.468982"><ele>94</ele><time>2015-01-07T08:33:03.147Z</time></trkpt>
	<trkpt lat="52.251415" lon="10.469030"><ele>94</ele><time>2015-01-07T08:33:04.145Z</time></trkpt>
	<trkpt lat="52.251414" lon="10.469074"><ele>94</ele><time>2015-01-07T08:33:05.148Z</time></trkpt>
	<trkpt lat="52.251413" lon="10.469120"><ele>94</ele><time>2015-01-07T08:33:06.129Z</time></trkpt>
	<trkpt lat="52.251411" lon="10.469165"><ele>94</ele><time>2015-01-07T08:33:07.106Z</time></trkpt>
	<trkpt lat="52.251408" lon="10.469228"><ele>94</ele><time>2015-01-07T08:33:08.151Z</time></trkpt>
	<trkpt lat="52.251403" lon="10.469272"><ele>94</ele><time>2015-01-07T08:33:09.162Z</time></trkpt>
	<trkpt lat="52.251400" lon="10.469315"><ele>93</ele><time>2015-01-07T08:33:10.160Z</time></trkpt>
	<trkpt lat="52.251397" lon="10.469347"><ele>93</ele><time>2015-01-07T08:33:11.172Z</time></trkpt>
	<trkpt lat="52.251394" lon="10.469377"><ele>93</ele><time>2015-01-07T08:33:12.195Z</time></trkpt>
	<trkpt lat="52.251384" lon="10.469404"><ele>93</ele><time>2015-01-07T08:33:13.096Z</time></trkpt>
	<trkpt lat="52.251373" lon="10.469433"><ele>94</ele><time>2015-01-07T08:33:14.143Z</time></trkpt>
	<trkpt lat="52.251367" lon="10.469462"><ele>94</ele><time>2015-01-07T08:33:15.116Z</time></trkpt>
	<trkpt lat="52.251367" lon="10.469480"><ele>94</ele><time>2015-01-07T08:33:16.101Z</time></trkpt>
	<trkpt lat="52.251364" lon="10.469492"><ele>94</ele><time>2015-01-07T08:33:17.173Z</time></trkpt>
	<trkpt lat="52.251363" lon="10.469495"><ele>94</ele><time>2015-01-07T08:33:18.085Z</time></trkpt>
	<trkpt lat="52.251363" lon="10.469495"><ele>94</ele><time>2015-01-07T08:33:22.133Z</time></trkpt>
	<trkpt lat="52.251381" lon="10.469480"><ele>94</ele><time>2015-01-07T08:33:23.074Z</time></trkpt>
	<trkpt lat="52.251385" lon="10.469485"><ele>94</ele><time>2015-01-07T08:33:27.073Z</time></trkpt>
	<trkpt lat="52.251383" lon="10.469497"><ele>94</ele><time>2015-01-07T08:33:28.093Z</time></trkpt>
	<trkpt lat="52.251424" lon="10.469463"><ele>94</ele><time>2015-01-07T08:33:29.149Z</time></trkpt>
	<trkpt lat="52.251424" lon="10.469463"><ele>94</ele><time>2015-01-07T08:33:30.104Z</time></trkpt>
	<trkpt lat="52.251434" lon="10.469478"><ele>94</ele><time>2015-01-07T08:33:31.111Z</time></trkpt>
	<trkpt lat="52.251435" lon="10.469474"><ele>94</ele><time>2015-01-07T08:33:41.056Z</time></trkpt>
	<trkpt lat="52.251456" lon="10.469479"><ele>94</ele><time>2015-01-07T08:33:42.093Z</time></trkpt>
	<trkpt lat="52.251464" lon="10.469482"><ele>94</ele><time>2015-01-07T08:33:43.099Z</time></trkpt>
	<trkpt lat="52.251472" lon="10.469492"><ele>94</ele><time>2015-01-07T08:33:44.064Z</time></trkpt>
	<trkpt lat="52.251482" lon="10.469503"><ele>94</ele><time>2015-01-07T08:33:45.057Z</time></trkpt>
	<trkpt lat="52.251442" lon="10.469460"><ele>94</ele><time>2015-01-07T08:33:46.052Z</time></trkpt>
	<trkpt lat="52.251432" lon="10.469455"><ele>94</ele><time>2015-01-07T08:33:47.070Z</time></trkpt>
	<trkpt lat="52.251424" lon="10.469454"><ele>94</ele><time>2015-01-07T08:33:48.056Z</time></trkpt>
	<trkpt lat="52.251420" lon="10.469460"><ele>94</ele><time>2015-01-07T08:33:49.089Z</time></trkpt>
	<trkpt lat="52.251418" lon="10.469471"><ele>94</ele><time>2015-01-07T08:33:50.086Z</time></trkpt>
	<trkpt lat="52.251417" lon="10.469484"><ele>94</ele><time>2015-01-07T08:33:51.086Z</time></trkpt>
	<trkpt lat="52.251417" lon="10.469494"><ele>94</ele><time>2015-01-07T08:33:52.114Z</time></trkpt>
	<trkpt lat="52.251418" lon="10.469507"><ele>94</ele><time>2015-01-07T08:33:53.103Z</time></trkpt>
	<trkpt lat="52.251419" lon="10.469521"><ele>94</ele><time>2015-01-07T08:33:54.070Z</time></trkpt>
	<trkpt lat="52.251411" lon="10.469528"><ele>94</ele><time>2015-01-07T08:33:55.087Z</time></trkpt>
	<trkpt lat="52.251398" lon="10.469532"><ele>94</ele><time>2015-01-07T08:33:56.085Z</time></trkpt>
	<trkpt lat="52.251379" lon="10.469530"><ele>94</ele><time>2015-01-07T08:33:57.085Z</time></trkpt>
	<trkpt lat="52.251358" lon="10.469530"><ele>94</ele><time>2015-01-07T08:33:58.130Z</time></trkpt>
	<trkpt lat="52.251340" lon="10.469526"><ele>94</ele><time>2015-01-07T08:33:59.083Z</time></trkpt>
	<trkpt lat="52.251325" lon="10.469521"><ele>94</ele><time>2015-01-07T08:34:00.058Z</time></trkpt>
	<trkpt lat="52.251308" lon="10.469522"><ele>94</ele><time>2015-01-07T08:34:01.106Z</time></trkpt>
	<trkpt lat="52.251294" lon="10.469525"><ele>94</ele><time>2015-01-07T08:34:02.111Z</time></trkpt>
	<trkpt lat="52.251284" lon="10.469531"><ele>94</ele><time>2015-01-07T08:34:03.097Z</time></trkpt>
	<trkpt lat="52.251277" lon="10.469534"><ele>94</ele><time>2015-01-07T08:34:04.070Z</time></trkpt>
	<trkpt lat="52.251269" lon="10.469535"><ele>94</ele><time>2015-01-07T08:34:05.078Z</time></trkpt>
	<trkpt lat="52.251259" lon="10.469534"><ele>94</ele><time>2015-01-07T08:34:06.077Z</time></trkpt>
	<trkpt lat="52.251249" lon="10.469524"><ele>94</ele><time>2015-01-07T08:34:07.068Z</time></trkpt>
	<trkpt lat="52.251239" lon="10.469506"><ele>94</ele><time>2015-01-07T08:34:08.057Z</time></trkpt>
	<trkpt lat="52.251237" lon="10.469499"><ele>94</ele><time>2015-01-07T08:34:09.053Z</time></trkpt>
	<trkpt lat="52.251242" lon="10.469495"><ele>94</ele><time>2015-01-07T08:34:12.045Z</time></trkpt>
	<trkpt lat="52.251245" lon="10.469486"><ele>94</ele><time>2015-01-07T08:34:13.051Z</time></trkpt>
	<trkpt lat="52.251249" lon="10.469474"><ele>95</ele><time>2015-01-07T08:34:38.059Z</time></trkpt>
	<trkpt lat="52.251245" lon="10.469536"><ele>95</ele><time>2015-01-07T08:34:39.051Z</time></trkpt>
	<trkpt lat="52.251216" lon="10.469571"><ele>94</ele><time>2015-01-07T08:34:40.044Z</time></trkpt>
	<trkpt lat="52.251191" lon="10.469608"><ele>94</ele><time>2015-01-07T08:34:41.040Z</time></trkpt>
	<trkpt lat="52.251161" lon="10.469610"><ele>94</ele><time>2015-01-07T08:34:42.040Z</time></trkpt>
	<trkpt lat="52.251132" lon="10.469621"><ele>94</ele><time>2015-01-07T08:34:43.039Z</time></trkpt>
	<trkpt lat="52.251105" lon="10.469636"><ele>95</ele><time>2015-01-07T08:34:44.059Z</time></trkpt>
	<trkpt lat="52.251078" lon="10.469659"><ele>95</ele><time>2015-01-07T08:34:45.042Z</time></trkpt>
	<trkpt lat="52.251033" lon="10.469676"><ele>94</ele><time>2015-01-07T08:34:46.041Z</time></trkpt>
	<trkpt lat="52.251020" lon="10.469684"><ele>94</ele><time>2015-01-07T08:34:47.038Z</time></trkpt>
	<trkpt lat="52.251020" lon="10.469646"><ele>94</ele><time>2015-01-07T08:34:48.049Z</time></trkpt>
	<trkpt lat="52.251030" lon="10.469578"><ele>94</ele><time>2015-01-07T08:34:49.049Z</time></trkpt>
	<trkpt lat="52.251026" lon="10.469506"><ele>94</ele><time>2015-01-07T08:34:50.036Z</time></trkpt>
	<trkpt lat="52.251023" lon="10.469488"><ele>95</ele><time>2015-01-07T08:34:51.056Z</time></trkpt>
	<trkpt lat="52.251014" lon="10.469475"><ele>94</ele><time>2015-01-07T08:34:52.043Z</time></trkpt>
	<trkpt lat="52.251022" lon="10.469483"><ele>94</ele><time>2015-01-07T08:34:53.044Z</time></trkpt>
	<trkpt lat="52.251204" lon="10.469516"><ele>94</ele><time>2015-01-07T08:34:54.045Z</time></trkpt>
	<trkpt lat="52.251192" lon="10.469532"><ele>94</ele><time>2015-01-07T08:34:55.064Z</time></trkpt>
	<trkpt lat="52.251199" lon="10.469550"><ele>94</ele><time>2015-01-07T08:34:56.045Z</time></trkpt>
	<trkpt lat="52.251210" lon="10.469569"><ele>94</ele><time>2015-01-07T08:34:57.044Z</time></trkpt>
	<trkpt lat="52.251233" lon="10.469595"><ele>94</ele><time>2015-01-07T08:34:58.042Z</time></trkpt>
	<trkpt lat="52.251255" lon="10.469629"><ele>94</ele><time>2015-01-07T08:34:59.052Z</time></trkpt>
	<trkpt lat="52.251267" lon="10.469674"><ele>94</ele><time>2015-01-07T08:35:00.053Z</time></trkpt>
	<trkpt lat="52.251281" lon="10.469708"><ele>94</ele><time>2015-01-07T08:35:01.058Z</time></trkpt>
	<trkpt lat="52.251291" lon="10.469730"><ele>94</ele><time>2015-01-07T08:35:02.048Z</time></trkpt>
	<trkpt lat="52.251299" lon="10.469748"><ele>94</ele><time>2015-01-07T08:35:03.052Z</time></trkpt>
	<trkpt lat="52.251305" lon="10.469765"><ele>94</ele><time>2015-01-07T08:35:04.081Z</time></trkpt>
	<trkpt lat="52.251309" lon="10.469782"><ele>95</ele><time>2015-01-07T08:35:05.064Z</time></trkpt>
	<trkpt lat="52.251311" lon="10.469802"><ele>94</ele><time>2015-01-07T08:35:06.071Z</time></trkpt>
	<trkpt lat="52.251288" lon="10.469822"><ele>94</ele><time>2015-01-07T08:35:07.064Z</time></trkpt>
	<trkpt lat="52.251261" lon="10.469819"><ele>94</ele><time>2015-01-07T08:35:08.057Z</time></trkpt>
	<trkpt lat="52.251257" lon="10.469774"><ele>95</ele><time>2015-01-07T08:35:09.059Z</time></trkpt>
	<trkpt lat="52.251260" lon="10.469742"><ele>94</ele><time>2015-01-07T08:35:10.062Z</time></trkpt>
	<trkpt lat="52.251269" lon="10.469700"><ele>94</ele><time>2015-01-07T08:35:11.069Z</time></trkpt>
	<trkpt lat="52.251285" lon="10.469664"><ele>94</ele><time>2015-01-07T08:35:12.062Z</time></trkpt>
	<trkpt lat="52.251295" lon="10.469626"><ele>94</ele><time>2015-01-07T08:35:13.073Z</time></trkpt>
	<trkpt lat="52.251307" lon="10.469593"><ele>94</ele><time>2015-01-07T08:35:14.074Z</time></trkpt>
	<trkpt lat="52.251321" lon="10.469563"><ele>94</ele><time>2015-01-07T08:35:15.078Z</time></trkpt>
	<trkpt lat="52.251333" lon="10.469541"><ele>94</ele><time>2015-01-07T08:35:16.078Z</time></trkpt>
	<trkpt lat="52.251339" lon="10.469509"><ele>94</ele><time>2015-01-07T08:35:17.079Z</time></trkpt>
	<trkpt lat="52.251345" lon="10.469480"><ele>94</ele><time>2015-01-07T08:35:18.079Z</time></trkpt>
	<trkpt lat="52.251352" lon="10.469456"><ele>93</ele><time>2015-01-07T08:35:19.079Z</time></trkpt>
	<trkpt lat="52.251361" lon="10.469438"><ele>94</ele><time>2015-01-07T08:35:20.078Z</time></trkpt>
	<trkpt lat="52.251373" lon="10.469424"><ele>94</ele><time>2015-01-07T08:35:21.076Z</time></trkpt>
	<trkpt lat="52.251385" lon="10.469409"><ele>94</ele><time>2015-01-07T08:35:22.075Z</time></trkpt>
	<trkpt lat="52.251399" lon="10.469414"><ele>93</ele><time>2015-01-07T08:35:23.071Z</time></trkpt>
	<trkpt lat="52.251410" lon="10.469426"><ele>94</ele><time>2015-01-07T08:35:24.069Z</time></trkpt>
	<trkpt lat="52.251415" lon="10.469441"><ele>93</ele><time>2015-01-07T08:35:25.068Z</time></trkpt>
	<trkpt lat="52.251418" lon="10.469457"><ele>93</ele><time>2015-01-07T08:35:26.066Z</time></trkpt>
	<trkpt lat="52.251419" lon="10.469466"><ele>93</ele><time>2015-01-07T08:35:59.095Z</time></trkpt>
	<trkpt lat="52.251441" lon="10.469538"><ele>93</ele><time>2015-01-07T08:36:00.109Z</time></trkpt>
	<trkpt lat="52.251454" lon="10.469555"><ele>93</ele><time>2015-01-07T08:36:01.079Z</time></trkpt>
	<trkpt lat="52.251466" lon="10.469564"><ele>93</ele><time>2015-01-07T08:36:02.079Z</time></trkpt>
	<trkpt lat="52.251473" lon="10.469560"><ele>93</ele><time>2015-01-07T08:36:03.079Z</time></trkpt>
	<trkpt lat="52.251477" lon="10.469554"><ele>93</ele><time>2015-01-07T08:36:04.069Z</time></trkpt>
	<trkpt lat="52.251476" lon="10.469540"><ele>93</ele><time>2015-01-07T08:36:12.085Z</time></trkpt>
	<trkpt lat="52.251474" lon="10.469535"><ele>93</ele><time>2015-01-07T08:36:13.080Z</time></trkpt>
	<trkpt lat="52.251470" lon="10.469529"><ele>93</ele><time>2015-01-07T08:36:14.073Z</time></trkpt>
	<trkpt lat="52.251466" lon="10.469523"><ele>93</ele><time>2015-01-07T08:36:15.081Z</time></trkpt>
	<trkpt lat="52.251466" lon="10.469523"><ele>93</ele><time>2015-01-07T08:36:17.088Z</time></trkpt>
	<trkpt lat="52.251462" lon="10.469506"><ele>93</ele><time>2015-01-07T08:36:18.094Z</time></trkpt>
	<trkpt lat="52.251463" lon="10.469492"><ele>93</ele><time>2015-01-07T08:36:19.084Z</time></trkpt>
	<trkpt lat="52.251461" lon="10.469465"><ele>93</ele><time>2015-01-07T08:36:20.070Z</time></trkpt>
	<trkpt lat="52.251460" lon="10.469429"><ele>93</ele><time>2015-01-07T08:36:21.068Z</time></trkpt>
	<trkpt lat="52.251419" lon="10.469382"><ele>93</ele><time>2015-01-07T08:36:22.081Z</time></trkpt>
	<trkpt lat="52.251419" lon="10.469323"><ele>93</ele><time>2015-01-07T08:36:23.081Z</time></trkpt>
	<trkpt lat="52.251419" lon="10.469260"><ele>93</ele><time>2015-01-07T08:36:24.082Z</time></trkpt>
	<trkpt lat="52.251419" lon="10.469206"><ele>93</ele><time>2015-01-07T08:36:25.078Z</time></trkpt>
	<trkpt lat="52.251419" lon="10.469132"><ele>93</ele><time>2015-01-07T08:36:26.085Z</time></trkpt>
	<trkpt lat="52.251419" lon="10.469082"><ele>93</ele><time>2015-01-07T08:36:27.080Z</time></trkpt>
	<trkpt lat="52.251419" lon="10.469033"><ele>93</ele><time>2015-01-07T08:36:28.079Z</time></trkpt>
	<trkpt lat="52.251419" lon="10.468980"><ele>93</ele><time>2015-01-07T08:36:29.117Z</time></trkpt>
	<trkpt lat="52.251419" lon="10.468927"><ele>93</ele><time>2015-01-07T08:36:30.111Z</time></trkpt>
	<trkpt lat="52.251419" lon="10.468873"><ele>93</ele><time>2015-01-07T08:36:31.095Z</time></trkpt>
	<trkpt lat="52.251419" lon="10.468809"><ele>94</ele><time>2015-01-07T08:36:32.104Z</time></trkpt>
	<trkpt lat="52.251420" lon="10.468743"><ele>93</ele><time>2015-01-07T08:36:33.104Z</time></trkpt>
	<trkpt lat="52.251420" lon="10.468674"><ele>93</ele><time>2015-01-07T08:36:34.076Z</time></trkpt>
	<trkpt lat="52.251420" lon="10.468608"><ele>93</ele><time>2015-01-07T08:36:35.087Z</time></trkpt>
	<trkpt lat="52.251420" lon="10.468552"><ele>93</ele><time>2015-01-07T08:36:36.100Z</time></trkpt>
	<trkpt lat="52.251420" lon="10.468481"><ele>93</ele><time>2015-01-07T08:36:37.098Z</time></trkpt>
	<trkpt lat="52.251420" lon="10.468412"><ele>93</ele><time>2015-01-07T08:36:38.108Z</time></trkpt>
	<trkpt lat="52.251420" lon="10.468357"><ele>93</ele><time>2015-01-07T08:36:39.094Z</time></trkpt>
	<trkpt lat="52.251420" lon="10.468278"><ele>93</ele><time>2015-01-07T08:36:40.077Z</time></trkpt>
	<trkpt lat="52.251420" lon="10.468201"><ele>93</ele><time>2015-01-07T08:36:41.103Z</time></trkpt>
	<trkpt lat="52.251420" lon="10.468123"><ele>93</ele><time>2015-01-07T08:36:42.107Z</time></trkpt>
	<trkpt lat="52.251420" lon="10.467993"><ele>93</ele><time>2015-01-07T08:36:43.085Z</time></trkpt>
	<trkpt lat="52.251421" lon="10.467909"><ele>93</ele><time>2015-01-07T08:36:44.084Z</time></trkpt>
	<trkpt lat="52.251421" lon="10.467834"><ele>93</ele><time>2015-01-07T08:36:45.091Z</time></trkpt>
	<trkpt lat="52.251421" lon="10.467749"><ele>93</ele><time>2015-01-07T08:36:46.090Z</time></trkpt>
	<trkpt lat="52.251421" lon="10.467655"><ele>93</ele><time>2015-01-07T08:36:47.098Z</time></trkpt>
	<trkpt lat="52.251421" lon="10.467590"><ele>93</ele><time>2015-01-07T08:36:48.096Z</time></trkpt>
	<trkpt lat="52.251421" lon="10.467560"><ele>93</ele><time>2015-01-07T08:36:49.097Z</time></trkpt>
	<trkpt lat="52.251421" lon="10.467550"><ele>93</ele><time>2015-01-07T08:36:50.100Z</time></trkpt>
	<trkpt lat="52.251421" lon="10.467538"><ele>93</ele><time>2015-01-07T08:36:51.099Z</time></trkpt>
	<trkpt lat="52.251421" lon="10.467533"><ele>93</ele><time>2015-01-07T08:36:52.097Z</time></trkpt>
	<trkpt lat="52.251421" lon="10.467485"><ele>93</ele><time>2015-01-07T08:36:53.084Z</time></trkpt>
	<trkpt lat="52.251421" lon="10.467456"><ele>93</ele><time>2015-01-07T08:36:54.098Z</time></trkpt>
	<trkpt lat="52.251417" lon="10.467433"><ele>93</ele><time>2015-01-07T08:36:55.102Z</time></trkpt>
	<trkpt lat="52.251333" lon="10.467415"><ele>93</ele><time>2015-01-07T08:36:56.122Z</time></trkpt>
	<trkpt lat="52.251289" lon="10.467417"><ele>94</ele><time>2015-01-07T08:36:57.146Z</time></trkpt>
	<trkpt lat="52.251234" lon="10.467420"><ele>93</ele><time>2015-01-07T08:36:58.135Z</time></trkpt>
	<trkpt lat="52.251153" lon="10.467424"><ele>94</ele><time>2015-01-07T08:36:59.123Z</time></trkpt>
	<trkpt lat="52.251075" lon="10.467428"><ele>94</ele><time>2015-01-07T08:37:00.123Z</time></trkpt>
	<trkpt lat="52.250968" lon="10.467433"><ele>95</ele><time>2015-01-07T08:37:01.130Z</time></trkpt>
	<trkpt lat="52.250855" lon="10.467439"><ele>95</ele><time>2015-01-07T08:37:02.134Z</time></trkpt>
	<trkpt lat="52.250754" lon="10.467444"><ele>94</ele><time>2015-01-07T08:37:03.126Z</time></trkpt>
	<trkpt lat="52.250648" lon="10.467449"><ele>94</ele><time>2015-01-07T08:37:04.104Z</time></trkpt>
	<trkpt lat="52.250533" lon="10.467455"><ele>94</ele><time>2015-01-07T08:37:05.140Z</time></trkpt>
	<trkpt lat="52.250442" lon="10.467460"><ele>94</ele><time>2015-01-07T08:37:06.118Z</time></trkpt>
	<trkpt lat="52.250356" lon="10.467464"><ele>93</ele><time>2015-01-07T08:37:07.129Z</time></trkpt>
	<trkpt lat="52.250264" lon="10.467469"><ele>93</ele><time>2015-01-07T08:37:08.170Z</time></trkpt>
	<trkpt lat="52.250186" lon="10.467473"><ele>93</ele><time>2015-01-07T08:37:09.141Z</time></trkpt>
	<trkpt lat="52.250105" lon="10.467479"><ele>93</ele><time>2015-01-07T08:37:10.129Z</time></trkpt>
	<trkpt lat="52.250032" lon="10.467495"><ele>93</ele><time>2015-01-07T08:37:11.122Z</time></trkpt>
	<trkpt lat="52.249941" lon="10.467541"><ele>93</ele><time>2015-01-07T08:37:12.097Z</time></trkpt>
	<trkpt lat="52.249864" lon="10.467606"><ele>93</ele><time>2015-01-07T08:37:13.111Z</time></trkpt>
	<trkpt lat="52.249792" lon="10.467706"><ele>93</ele><time>2015-01-07T08:37:14.090Z</time></trkpt>
	<trkpt lat="52.249739" lon="10.467821"><ele>93</ele><time>2015-01-07T08:37:15.093Z</time></trkpt>
	<trkpt lat="52.249706" lon="10.467918"><ele>93</ele><time>2015-01-07T08:37:16.104Z</time></trkpt>
	<trkpt lat="52.249671" lon="10.468044"><ele>93</ele><time>2015-01-07T08:37:17.107Z</time></trkpt>
	<trkpt lat="52.249654" lon="10.468158"><ele>93</ele><time>2015-01-07T08:37:18.090Z</time></trkpt>
	<trkpt lat="52.249649" lon="10.468315"><ele>93</ele><time>2015-01-07T08:37:19.119Z</time></trkpt>
	<trkpt lat="52.249644" lon="10.468453"><ele>93</ele><time>2015-01-07T08:37:20.134Z</time></trkpt>
	<trkpt lat="52.249641" lon="10.468599"><ele>93</ele><time>2015-01-07T08:37:21.150Z</time></trkpt>
	<trkpt lat="52.249638" lon="10.468740"><ele>93</ele><time>2015-01-07T08:37:22.129Z</time></trkpt>
	<trkpt lat="52.249635" lon="10.468869"><ele>93</ele><time>2015-01-07T08:37:23.117Z</time></trkpt>
	<trkpt lat="52.249632" lon="10.469022"><ele>93</ele><time>2015-01-07T08:37:24.173Z</time></trkpt>
	<trkpt lat="52.249628" lon="10.469181"><ele>92</ele><time>2015-01-07T08:37:25.163Z</time></trkpt>
	<trkpt lat="52.249626" lon="10.469314"><ele>92</ele><time>2015-01-07T08:37:26.153Z</time></trkpt>
	<trkpt lat="52.249622" lon="10.469473"><ele>92</ele><time>2015-01-07T08:37:27.149Z</time></trkpt>
	<trkpt lat="52.249621" lon="10.469507"><ele>92</ele><time>2015-01-07T08:37:28.138Z</time></trkpt>
	<trkpt lat="52.249613" lon="10.469717"><ele>92</ele><time>2015-01-07T08:37:29.127Z</time></trkpt>
	<trkpt lat="52.249589" lon="10.469883"><ele>92</ele><time>2015-01-07T08:37:30.081Z</time></trkpt>
	<trkpt lat="52.249551" lon="10.470050"><ele>92</ele><time>2015-01-07T08:37:31.115Z</time></trkpt>
	<trkpt lat="52.249513" lon="10.470178"><ele>92</ele><time>2015-01-07T08:37:32.139Z</time></trkpt>
	<trkpt lat="52.249472" lon="10.470288"><ele>92</ele><time>2015-01-07T08:37:33.134Z</time></trkpt>
	<trkpt lat="52.249417" lon="10.470398"><ele>92</ele><time>2015-01-07T08:37:34.126Z</time></trkpt>
	<trkpt lat="52.249365" lon="10.470501"><ele>92</ele><time>2015-01-07T08:37:35.111Z</time></trkpt>
	<trkpt lat="52.249306" lon="10.470615"><ele>91</ele><time>2015-01-07T08:37:36.076Z</time></trkpt>
	<trkpt lat="52.249243" lon="10.470736"><ele>91</ele><time>2015-01-07T08:37:37.103Z</time></trkpt>
	<trkpt lat="52.249187" lon="10.470843"><ele>91</ele><time>2015-01-07T08:37:38.097Z</time></trkpt>
	<trkpt lat="52.249131" lon="10.470948"><ele>91</ele><time>2015-01-07T08:37:39.099Z</time></trkpt>
	<trkpt lat="52.249063" lon="10.471079"><ele>91</ele><time>2015-01-07T08:37:40.114Z</time></trkpt>
	<trkpt lat="52.248998" lon="10.471202"><ele>91</ele><time>2015-01-07T08:37:41.138Z</time></trkpt>
	<trkpt lat="52.248935" lon="10.471322"><ele>91</ele><time>2015-01-07T08:37:42.091Z</time></trkpt>
	<trkpt lat="52.248874" lon="10.471438"><ele>91</ele><time>2015-01-07T08:37:43.120Z</time></trkpt>
	<trkpt lat="52.248813" lon="10.471555"><ele>91</ele><time>2015-01-07T08:37:44.160Z</time></trkpt>
	<trkpt lat="52.248774" lon="10.471630"><ele>91</ele><time>2015-01-07T08:37:45.116Z</time></trkpt>
	<trkpt lat="52.248731" lon="10.471712"><ele>90</ele><time>2015-01-07T08:37:46.119Z</time></trkpt>
	<trkpt lat="52.248699" lon="10.471772"><ele>90</ele><time>2015-01-07T08:37:47.081Z</time></trkpt>
	<trkpt lat="52.248673" lon="10.471821"><ele>90</ele><time>2015-01-07T08:37:48.118Z</time></trkpt>
	<trkpt lat="52.248660" lon="10.471845"><ele>90</ele><time>2015-01-07T08:37:49.118Z</time></trkpt>
	<trkpt lat="52.248655" lon="10.471856"><ele>90</ele><time>2015-01-07T08:37:50.081Z</time></trkpt>
	<trkpt lat="52.248656" lon="10.471853"><ele>90</ele><time>2015-01-07T08:38:08.070Z</time></trkpt>
	<trkpt lat="52.248667" lon="10.471834"><ele>90</ele><time>2015-01-07T08:38:09.108Z</time></trkpt>
	<trkpt lat="52.248661" lon="10.471844"><ele>90</ele><time>2015-01-07T08:38:10.105Z</time></trkpt>
	<trkpt lat="52.248646" lon="10.471873"><ele>90</ele><time>2015-01-07T08:38:11.085Z</time></trkpt>
	<trkpt lat="52.248626" lon="10.471910"><ele>90</ele><time>2015-01-07T08:38:12.094Z</time></trkpt>
	<trkpt lat="52.248602" lon="10.471954"><ele>90</ele><time>2015-01-07T08:38:13.072Z</time></trkpt>
	<trkpt lat="52.248574" lon="10.472007"><ele>90</ele><time>2015-01-07T08:38:14.060Z</time></trkpt>
	<trkpt lat="52.248547" lon="10.472056"><ele>90</ele><time>2015-01-07T08:38:15.077Z</time></trkpt>
	<trkpt lat="52.248547" lon="10.472060"><ele>90</ele><time>2015-01-07T08:38:17.076Z</time></trkpt>
	<trkpt lat="52.248445" lon="10.472243"><ele>90</ele><time>2015-01-07T08:38:18.080Z</time></trkpt>
	<trkpt lat="52.248500" lon="10.472437"><ele>90</ele><time>2015-01-07T08:38:19.085Z</time></trkpt>
	<trkpt lat="52.248546" lon="10.472534"><ele>90</ele><time>2015-01-07T08:38:20.083Z</time></trkpt>
	<trkpt lat="52.248598" lon="10.472647"><ele>91</ele><time>2015-01-07T08:38:21.072Z</time></trkpt>
	<trkpt lat="52.248652" lon="10.472773"><ele>90</ele><time>2015-01-07T08:38:22.074Z</time></trkpt>
	<trkpt lat="52.248708" lon="10.472911"><ele>91</ele><time>2015-01-07T08:38:23.077Z</time></trkpt>
	<trkpt lat="52.248758" lon="10.473043"><ele>91</ele><time>2015-01-07T08:38:24.089Z</time></trkpt>
	<trkpt lat="52.248820" lon="10.473221"><ele>91</ele><time>2015-01-07T08:38:25.100Z</time></trkpt>
	<trkpt lat="52.248875" lon="10.473396"><ele>92</ele><time>2015-01-07T08:38:26.152Z</time></trkpt>
	<trkpt lat="52.248929" lon="10.473596"><ele>92</ele><time>2015-01-07T08:38:27.166Z</time></trkpt>
	<trkpt lat="52.248978" lon="10.473810"><ele>92</ele><time>2015-01-07T08:38:28.143Z</time></trkpt>
	<trkpt lat="52.249013" lon="10.474012"><ele>92</ele><time>2015-01-07T08:38:29.128Z</time></trkpt>
	<trkpt lat="52.249041" lon="10.474215"><ele>92</ele><time>2015-01-07T08:38:30.125Z</time></trkpt>
	<trkpt lat="52.249065" lon="10.474417"><ele>91</ele><time>2015-01-07T08:38:31.116Z</time></trkpt>
	<trkpt lat="52.249082" lon="10.474620"><ele>91</ele><time>2015-01-07T08:38:32.113Z</time></trkpt>
	<trkpt lat="52.249092" lon="10.474822"><ele>91</ele><time>2015-01-07T08:38:33.102Z</time></trkpt>
	<trkpt lat="52.249093" lon="10.475052"><ele>91</ele><time>2015-01-07T08:38:34.115Z</time></trkpt>
	<trkpt lat="52.249092" lon="10.475257"><ele>92</ele><time>2015-01-07T08:38:35.125Z</time></trkpt>
	<trkpt lat="52.249090" lon="10.475458"><ele>92</ele><time>2015-01-07T08:38:36.111Z</time></trkpt>
	<trkpt lat="52.249089" lon="10.475652"><ele>92</ele><time>2015-01-07T08:38:37.128Z</time></trkpt>
	<trkpt lat="52.249088" lon="10.475858"><ele>91</ele><time>2015-01-07T08:38:38.161Z</time></trkpt>
	<trkpt lat="52.249086" lon="10.476057"><ele>91</ele><time>2015-01-07T08:38:39.119Z</time></trkpt>
	<trkpt lat="52.249085" lon="10.476248"><ele>91</ele><time>2015-01-07T08:38:40.068Z</time></trkpt>
	<trkpt lat="52.249083" lon="10.476451"><ele>91</ele><time>2015-01-07T08:38:41.076Z</time></trkpt>
	<trkpt lat="52.249082" lon="10.476652"><ele>91</ele><time>2015-01-07T08:38:42.059Z</time></trkpt>
	<trkpt lat="52.249081" lon="10.476860"><ele>91</ele><time>2015-01-07T08:38:43.055Z</time></trkpt>
	<trkpt lat="52.249079" lon="10.477046"><ele>92</ele><time>2015-01-07T08:38:44.055Z</time></trkpt>
	<trkpt lat="52.249076" lon="10.477267"><ele>92</ele><time>2015-01-07T08:38:45.053Z</time></trkpt>
	<trkpt lat="52.249074" lon="10.477466"><ele>92</ele><time>2015-01-07T08:38:46.047Z</time></trkpt>
	<trkpt lat="52.249071" lon="10.477666"><ele>92</ele><time>2015-01-07T08:38:47.045Z</time></trkpt>
	<trkpt lat="52.249069" lon="10.477858"><ele>91</ele><time>2015-01-07T08:38:48.054Z</time></trkpt>
	<trkpt lat="52.249067" lon="10.478044"><ele>91</ele><time>2015-01-07T08:38:49.085Z</time></trkpt>
	<trkpt lat="52.249065" lon="10.478198"><ele>91</ele><time>2015-01-07T08:38:50.067Z</time></trkpt>
	<trkpt lat="52.249062" lon="10.478379"><ele>91</ele><time>2015-01-07T08:38:51.069Z</time></trkpt>
	<trkpt lat="52.249060" lon="10.478559"><ele>91</ele><time>2015-01-07T08:38:52.066Z</time></trkpt>
	<trkpt lat="52.249060" lon="10.478733"><ele>91</ele><time>2015-01-07T08:38:53.064Z</time></trkpt>
	<trkpt lat="52.249060" lon="10.478899"><ele>91</ele><time>2015-01-07T08:38:54.093Z</time></trkpt>
	<trkpt lat="52.249060" lon="10.479055"><ele>91</ele><time>2015-01-07T08:38:55.100Z</time></trkpt>
	<trkpt lat="52.249060" lon="10.479167"><ele>90</ele><time>2015-01-07T08:38:56.089Z</time></trkpt>
	<trkpt lat="52.249061" lon="10.479262"><ele>90</ele><time>2015-01-07T08:38:57.128Z</time></trkpt>
	<trkpt lat="52.249061" lon="10.479337"><ele>90</ele><time>2015-01-07T08:38:58.133Z</time></trkpt>
	<trkpt lat="52.249061" lon="10.479421"><ele>90</ele><time>2015-01-07T08:38:59.127Z</time></trkpt>
	<trkpt lat="52.249061" lon="10.479485"><ele>90</ele><time>2015-01-07T08:39:00.120Z</time></trkpt>
	<trkpt lat="52.249061" lon="10.479533"><ele>90</ele><time>2015-01-07T08:39:01.110Z</time></trkpt>
	<trkpt lat="52.249061" lon="10.479563"><ele>90</ele><time>2015-01-07T08:39:02.104Z</time></trkpt>
	<trkpt lat="52.249061" lon="10.479554"><ele>90</ele><time>2015-01-07T08:39:08.105Z</time></trkpt>
	<trkpt lat="52.249061" lon="10.479531"><ele>90</ele><time>2015-01-07T08:39:09.114Z</time></trkpt>
	<trkpt lat="52.249061" lon="10.479527"><ele>90</ele><time>2015-01-07T08:39:13.066Z</time></trkpt>
	<trkpt lat="52.249061" lon="10.479552"><ele>90</ele><time>2015-01-07T08:39:14.063Z</time></trkpt>
	<trkpt lat="52.249061" lon="10.479559"><ele>90</ele><time>2015-01-07T08:39:25.121Z</time></trkpt>
	<trkpt lat="52.249061" lon="10.479585"><ele>90</ele><time>2015-01-07T08:39:26.137Z</time></trkpt>
	<trkpt lat="52.249061" lon="10.479585"><ele>90</ele><time>2015-01-07T08:39:38.097Z</time></trkpt>
	<trkpt lat="52.249061" lon="10.479524"><ele>90</ele><time>2015-01-07T08:39:39.116Z</time></trkpt>
	<trkpt lat="52.249061" lon="10.479523"><ele>90</ele><time>2015-01-07T08:39:43.070Z</time></trkpt>
	<trkpt lat="52.249061" lon="10.479487"><ele>90</ele><time>2015-01-07T08:39:44.070Z</time></trkpt>
	<trkpt lat="52.249061" lon="10.479500"><ele>90</ele><time>2015-01-07T08:39:45.070Z</time></trkpt>
	<trkpt lat="52.249061" lon="10.479536"><ele>90</ele><time>2015-01-07T08:39:46.071Z</time></trkpt>
	<trkpt lat="52.249061" lon="10.479591"><ele>90</ele><time>2015-01-07T08:39:47.073Z</time></trkpt>
	<trkpt lat="52.249061" lon="10.479665"><ele>90</ele><time>2015-01-07T08:39:48.072Z</time></trkpt>
	<trkpt lat="52.249061" lon="10.479744"><ele>90</ele><time>2015-01-07T08:39:49.081Z</time></trkpt>
	<trkpt lat="52.249062" lon="10.479815"><ele>90</ele><time>2015-01-07T08:39:50.069Z</time></trkpt>
	<trkpt lat="52.249062" lon="10.479913"><ele>90</ele><time>2015-01-07T08:39:51.073Z</time></trkpt>
	<trkpt lat="52.249062" lon="10.480052"><ele>90</ele><time>2015-01-07T08:39:52.075Z</time></trkpt>
	<trkpt lat="52.249064" lon="10.480189"><ele>90</ele><time>2015-01-07T08:39:53.068Z</time></trkpt>
	<trkpt lat="52.249069" lon="10.480338"><ele>90</ele><time>2015-01-07T08:39:54.103Z</time></trkpt>
	<trkpt lat="52.249074" lon="10.480492"><ele>90</ele><time>2015-01-07T08:39:55.151Z</time></trkpt>
	<trkpt lat="52.249081" lon="10.480668"><ele>91</ele><time>2015-01-07T08:39:56.157Z</time></trkpt>
	<trkpt lat="52.249088" lon="10.480854"><ele>91</ele><time>2015-01-07T08:39:57.149Z</time></trkpt>
	<trkpt lat="52.249095" lon="10.481051"><ele>91</ele><time>2015-01-07T08:39:58.141Z</time></trkpt>
	<trkpt lat="52.249102" lon="10.481240"><ele>90</ele><time>2015-01-07T08:39:59.149Z</time></trkpt>
	<trkpt lat="52.249109" lon="10.481429"><ele>90</ele><time>2015-01-07T08:40:00.142Z</time></trkpt>
	<trkpt lat="52.249117" lon="10.481616"><ele>91</ele><time>2015-01-07T08:40:01.196Z</time></trkpt>
	<trkpt lat="52.249124" lon="10.481807"><ele>91</ele><time>2015-01-07T08:40:02.220Z</time></trkpt>
	<trkpt lat="52.249131" lon="10.482010"><ele>90</ele><time>2015-01-07T08:40:03.094Z</time></trkpt>
	<trkpt lat="52.249139" lon="10.482220"><ele>90</ele><time>2015-01-07T08:40:04.125Z</time></trkpt>
	<trkpt lat="52.249147" lon="10.482422"><ele>90</ele><time>2015-01-07T08:40:05.128Z</time></trkpt>
	<trkpt lat="52.249155" lon="10.482628"><ele>90</ele><time>2015-01-07T08:40:06.114Z</time></trkpt>
	<trkpt lat="52.249163" lon="10.482830"><ele>90</ele><time>2015-01-07T08:40:07.136Z</time></trkpt>
	<trkpt lat="52.249170" lon="10.483040"><ele>90</ele><time>2015-01-07T08:40:08.132Z</time></trkpt>
	<trkpt lat="52.249177" lon="10.483240"><ele>90</ele><time>2015-01-07T08:40:09.096Z</time></trkpt>
	<trkpt lat="52.249179" lon="10.483449"><ele>90</ele><time>2015-01-07T08:40:10.106Z</time></trkpt>
	<trkpt lat="52.249172" lon="10.483659"><ele>90</ele><time>2015-01-07T08:40:11.080Z</time></trkpt>
	<trkpt lat="52.249160" lon="10.483870"><ele>90</ele><time>2015-01-07T08:40:12.108Z</time></trkpt>
	<trkpt lat="52.249143" lon="10.484072"><ele>90</ele><time>2015-01-07T08:40:13.127Z</time></trkpt>
	<trkpt lat="52.249124" lon="10.484257"><ele>90</ele><time>2015-01-07T08:40:14.178Z</time></trkpt>
	<trkpt lat="52.249096" lon="10.484453"><ele>90</ele><time>2015-01-07T08:40:15.176Z</time></trkpt>
	<trkpt lat="52.249069" lon="10.484618"><ele>90</ele><time>2015-01-07T08:40:16.173Z</time></trkpt>
	<trkpt lat="52.249041" lon="10.484785"><ele>89</ele><time>2015-01-07T08:40:17.179Z</time></trkpt>
	<trkpt lat="52.249016" lon="10.484929"><ele>89</ele><time>2015-01-07T08:40:18.171Z</time></trkpt>
	<trkpt lat="52.248992" lon="10.485067"><ele>89</ele><time>2015-01-07T08:40:19.169Z</time></trkpt>
	<trkpt lat="52.248973" lon="10.485172"><ele>89</ele><time>2015-01-07T08:40:20.177Z</time></trkpt>
	<trkpt lat="52.248956" lon="10.485271"><ele>88</ele><time>2015-01-07T08:40:21.171Z</time></trkpt>
	<trkpt lat="52.248944" lon="10.485342"><ele>88</ele><time>2015-01-07T08:40:22.129Z</time></trkpt>
	<trkpt lat="52.248936" lon="10.485387"><ele>88</ele><time>2015-01-07T08:40:23.108Z</time></trkpt>
	<trkpt lat="52.248933" lon="10.485407"><ele>88</ele><time>2015-01-07T08:40:24.163Z</time></trkpt>
	<trkpt lat="52.248932" lon="10.485410"><ele>88</ele><time>2015-01-07T08:40:29.164Z</time></trkpt>
	<trkpt lat="52.248929" lon="10.485425"><ele>88</ele><time>2015-01-07T08:40:30.160Z</time></trkpt>
	<trkpt lat="52.248928" lon="10.485432"><ele>88</ele><time>2015-01-07T08:40:38.144Z</time></trkpt>
	<trkpt lat="52.248924" lon="10.485455"><ele>88</ele><time>2015-01-07T08:40:39.102Z</time></trkpt>
	<trkpt lat="52.248923" lon="10.485460"><ele>88</ele><time>2015-01-07T08:40:56.166Z</time></trkpt>
	<trkpt lat="52.248918" lon="10.485489"><ele>89</ele><time>2015-01-07T08:40:57.169Z</time></trkpt>
	<trkpt lat="52.248909" lon="10.485539"><ele>89</ele><time>2015-01-07T08:40:58.140Z</time></trkpt>
	<trkpt lat="52.248900" lon="10.485589"><ele>89</ele><time>2015-01-07T08:40:59.137Z</time></trkpt>
	<trkpt lat="52.248890" lon="10.485645"><ele>88</ele><time>2015-01-07T08:41:00.146Z</time></trkpt>
	<trkpt lat="52.248881" lon="10.485695"><ele>88</ele><time>2015-01-07T08:41:01.139Z</time></trkpt>
	<trkpt lat="52.248871" lon="10.485747"><ele>88</ele><time>2015-01-07T08:41:02.137Z</time></trkpt>
	<trkpt lat="52.248868" lon="10.485766"><ele>88</ele><time>2015-01-07T08:41:03.088Z</time></trkpt>
	<trkpt lat="52.248855" lon="10.485847"><ele>88</ele><time>2015-01-07T08:41:04.090Z</time></trkpt>
	<trkpt lat="52.248846" lon="10.485909"><ele>88</ele><time>2015-01-07T08:41:05.123Z</time></trkpt>
	<trkpt lat="52.248839" lon="10.485941"><ele>88</ele><time>2015-01-07T08:41:06.135Z</time></trkpt>
	<trkpt lat="52.248698" lon="10.485898"><ele>88</ele><time>2015-01-07T08:41:07.156Z</time></trkpt>
	<trkpt lat="52.248645" lon="10.485873"><ele>88</ele><time>2015-01-07T08:41:08.147Z</time></trkpt>
	<trkpt lat="52.248582" lon="10.485838"><ele>89</ele><time>2015-01-07T08:41:09.147Z</time></trkpt>
	<trkpt lat="52.248502" lon="10.485785"><ele>89</ele><time>2015-01-07T08:41:10.131Z</time></trkpt>
	<trkpt lat="52.248430" lon="10.485744"><ele>89</ele><time>2015-01-07T08:41:11.116Z</time></trkpt>
	<trkpt lat="52.248366" lon="10.485713"><ele>88</ele><time>2015-01-07T08:41:12.131Z</time></trkpt>
	<trkpt lat="52.248312" lon="10.485694"><ele>88</ele><time>2015-01-07T08:41:13.130Z</time></trkpt>
	<trkpt lat="52.248262" lon="10.485682"><ele>88</ele><time>2015-01-07T08:41:14.128Z</time></trkpt>
	<trkpt lat="52.248230" lon="10.485682"><ele>87</ele><time>2015-01-07T08:41:15.129Z</time></trkpt>
	<trkpt lat="52.248223" lon="10.485689"><ele>87</ele><time>2015-01-07T08:41:16.133Z</time></trkpt>
	<trkpt lat="52.248200" lon="10.485695"><ele>87</ele><time>2015-01-07T08:41:17.134Z</time></trkpt>
	<trkpt lat="52.248202" lon="10.485697"><ele>87</ele><time>2015-01-07T08:41:18.129Z</time></trkpt>
	<trkpt lat="52.248190" lon="10.485706"><ele>87</ele><time>2015-01-07T08:41:19.124Z</time></trkpt>
	<trkpt lat="52.248178" lon="10.485709"><ele>87</ele><time>2015-01-07T08:41:20.108Z</time></trkpt>
	<trkpt lat="52.248175" lon="10.485711"><ele>87</ele><time>2015-01-07T08:41:22.137Z</time></trkpt>
	<trkpt lat="52.248172" lon="10.485693"><ele>87</ele><time>2015-01-07T08:41:23.161Z</time></trkpt>
	<trkpt lat="52.248170" lon="10.485703"><ele>88</ele><time>2015-01-07T08:41:32.161Z</time></trkpt>
	<trkpt lat="52.248150" lon="10.485717"><ele>88</ele><time>2015-01-07T08:41:33.139Z</time></trkpt>
	<trkpt lat="52.248114" lon="10.485718"><ele>88</ele><time>2015-01-07T08:41:34.142Z</time></trkpt>
	<trkpt lat="52.248064" lon="10.485748"><ele>88</ele><time>2015-01-07T08:41:35.159Z</time></trkpt>
	<trkpt lat="52.248002" lon="10.485793"><ele>88</ele><time>2015-01-07T08:41:36.148Z</time></trkpt>
	<trkpt lat="52.247942" lon="10.485841"><ele>88</ele><time>2015-01-07T08:41:37.156Z</time></trkpt>
	<trkpt lat="52.247899" lon="10.485892"><ele>89</ele><time>2015-01-07T08:41:38.167Z</time></trkpt>
	<trkpt lat="52.247803" lon="10.486005"><ele>89</ele><time>2015-01-07T08:41:39.134Z</time></trkpt>
	<trkpt lat="52.247724" lon="10.486124"><ele>89</ele><time>2015-01-07T08:41:40.117Z</time></trkpt>
	<trkpt lat="52.247641" lon="10.486255"><ele>88</ele><time>2015-01-07T08:41:41.107Z</time></trkpt>
	<trkpt lat="52.247553" lon="10.486393"><ele>89</ele><time>2015-01-07T08:41:42.103Z</time></trkpt>
	<trkpt lat="52.247459" lon="10.486541"><ele>89</ele><time>2015-01-07T08:41:43.103Z</time></trkpt>
	<trkpt lat="52.247363" lon="10.486693"><ele>89</ele><time>2015-01-07T08:41:44.114Z</time></trkpt>
	<trkpt lat="52.247267" lon="10.486843"><ele>88</ele><time>2015-01-07T08:41:45.111Z</time></trkpt>
	<trkpt lat="52.247169" lon="10.487000"><ele>88</ele><time>2015-01-07T08:41:46.103Z</time></trkpt>
	<trkpt lat="52.247064" lon="10.487172"><ele>88</ele><time>2015-01-07T08:41:47.098Z</time></trkpt>
	<trkpt lat="52.246971" lon="10.487326"><ele>87</ele><time>2015-01-07T08:41:48.099Z</time></trkpt>
	<trkpt lat="52.246870" lon="10.487493"><ele>87</ele><time>2015-01-07T08:41:49.110Z</time></trkpt>
	<trkpt lat="52.246766" lon="10.487666"><ele>87</ele><time>2015-01-07T08:41:50.126Z</time></trkpt>
	<trkpt lat="52.246667" lon="10.487830"><ele>87</ele><time>2015-01-07T08:41:51.104Z</time></trkpt>
	<trkpt lat="52.246569" lon="10.487992"><ele>87</ele><time>2015-01-07T08:41:52.134Z</time></trkpt>
	<trkpt lat="52.246472" lon="10.488154"><ele>86</ele><time>2015-01-07T08:41:53.183Z</time></trkpt>
	<trkpt lat="52.246381" lon="10.488304"><ele>86</ele><time>2015-01-07T08:41:54.154Z</time></trkpt>
	<trkpt lat="52.246273" lon="10.488453"><ele>86</ele><time>2015-01-07T08:41:55.123Z</time></trkpt>
	<trkpt lat="52.246168" lon="10.488597"><ele>86</ele><time>2015-01-07T08:41:56.155Z</time></trkpt>
	<trkpt lat="52.246064" lon="10.488740"><ele>86</ele><time>2015-01-07T08:41:57.144Z</time></trkpt>
	<trkpt lat="52.245948" lon="10.488864"><ele>86</ele><time>2015-01-07T08:41:58.121Z</time></trkpt>
	<trkpt lat="52.245825" lon="10.488957"><ele>85</ele><time>2015-01-07T08:41:59.115Z</time></trkpt>
	<trkpt lat="52.245718" lon="10.489033"><ele>85</ele><time>2015-01-07T08:42:00.090Z</time></trkpt>
	<trkpt lat="52.245609" lon="10.489107"><ele>84</ele><time>2015-01-07T08:42:01.129Z</time></trkpt>
	<trkpt lat="52.245512" lon="10.489172"><ele>84</ele><time>2015-01-07T08:42:02.173Z</time></trkpt>
	<trkpt lat="52.245404" lon="10.489235"><ele>84</ele><time>2015-01-07T08:42:03.160Z</time></trkpt>
	<trkpt lat="52.245298" lon="10.489281"><ele>84</ele><time>2015-01-07T08:42:04.141Z</time></trkpt>
	<trkpt lat="52.245189" lon="10.489318"><ele>84</ele><time>2015-01-07T08:42:05.144Z</time></trkpt>
	<trkpt lat="52.245070" lon="10.489353"><ele>85</ele><time>2015-01-07T08:42:06.178Z</time></trkpt>
	<trkpt lat="52.244948" lon="10.489379"><ele>85</ele><time>2015-01-07T08:42:07.090Z</time></trkpt>
	<trkpt lat="52.244821" lon="10.489393"><ele>85</ele><time>2015-01-07T08:42:08.126Z</time></trkpt>
	<trkpt lat="52.244694" lon="10.489395"><ele>85</ele><time>2015-01-07T08:42:09.121Z</time></trkpt>
	<trkpt lat="52.244573" lon="10.489386"><ele>85</ele><time>2015-01-07T08:42:10.141Z</time></trkpt>
	<trkpt lat="52.244429" lon="10.489363"><ele>85</ele><time>2015-01-07T08:42:11.175Z</time></trkpt>
	<trkpt lat="52.244303" lon="10.489330"><ele>85</ele><time>2015-01-07T08:42:12.092Z</time></trkpt>
	<trkpt lat="52.244169" lon="10.489280"><ele>85</ele><time>2015-01-07T08:42:13.140Z</time></trkpt>
	<trkpt lat="52.244023" lon="10.489217"><ele>84</ele><time>2015-01-07T08:42:14.126Z</time></trkpt>
	<trkpt lat="52.243890" lon="10.489142"><ele>84</ele><time>2015-01-07T08:42:15.113Z</time></trkpt>
	<trkpt lat="52.243758" lon="10.489063"><ele>84</ele><time>2015-01-07T08:42:16.133Z</time></trkpt>
	<trkpt lat="52.243626" lon="10.488975"><ele>84</ele><time>2015-01-07T08:42:17.162Z</time></trkpt>
	<trkpt lat="52.243484" lon="10.488887"><ele>84</ele><time>2015-01-07T08:42:18.160Z</time></trkpt>
	<trkpt lat="52.243342" lon="10.488784"><ele>84</ele><time>2015-01-07T08:42:19.114Z</time></trkpt>
	<trkpt lat="52.243216" lon="10.488689"><ele>84</ele><time>2015-01-07T08:42:20.140Z</time></trkpt>
	<trkpt lat="52.243082" lon="10.488593"><ele>84</ele><time>2015-01-07T08:42:21.179Z</time></trkpt>
	<trkpt lat="52.242944" lon="10.488494"><ele>84</ele><time>2015-01-07T08:42:22.189Z</time></trkpt>
	<trkpt lat="52.242815" lon="10.488402"><ele>84</ele><time>2015-01-07T08:42:23.091Z</time></trkpt>
	<trkpt lat="52.242689" lon="10.488313"><ele>84</ele><time>2015-01-07T08:42:24.148Z</time></trkpt>
	<trkpt lat="52.242562" lon="10.488218"><ele>84</ele><time>2015-01-07T08:42:25.110Z</time></trkpt>
	<trkpt lat="52.242429" lon="10.488134"><ele>83</ele><time>2015-01-07T08:42:26.071Z</time></trkpt>
	<trkpt lat="52.242295" lon="10.488051"><ele>83</ele><time>2015-01-07T08:42:27.070Z</time></trkpt>
	<trkpt lat="52.242170" lon="10.487976"><ele>83</ele><time>2015-01-07T08:42:28.071Z</time></trkpt>
	<trkpt lat="52.242049" lon="10.487909"><ele>83</ele><time>2015-01-07T08:42:29.074Z</time></trkpt>
	<trkpt lat="52.241936" lon="10.487851"><ele>82</ele><time>2015-01-07T08:42:30.092Z</time></trkpt>
	<trkpt lat="52.241831" lon="10.487800"><ele>82</ele><time>2015-01-07T08:42:31.094Z</time></trkpt>
	<trkpt lat="52.241733" lon="10.487755"><ele>82</ele><time>2015-01-07T08:42:32.092Z</time></trkpt>
	<trkpt lat="52.241645" lon="10.487715"><ele>82</ele><time>2015-01-07T08:42:33.078Z</time></trkpt>
	<trkpt lat="52.241565" lon="10.487685"><ele>81</ele><time>2015-01-07T08:42:34.085Z</time></trkpt>
	<trkpt lat="52.241494" lon="10.487664"><ele>81</ele><time>2015-01-07T08:42:35.086Z</time></trkpt>
	<trkpt lat="52.241436" lon="10.487650"><ele>81</ele><time>2015-01-07T08:42:36.085Z</time></trkpt>
	<trkpt lat="52.241393" lon="10.487642"><ele>80</ele><time>2015-01-07T08:42:37.082Z</time></trkpt>
	<trkpt lat="52.241363" lon="10.487637"><ele>80</ele><time>2015-01-07T08:42:38.084Z</time></trkpt>
	<trkpt lat="52.241350" lon="10.487635"><ele>80</ele><time>2015-01-07T08:42:39.074Z</time></trkpt>
	<trkpt lat="52.241343" lon="10.487635"><ele>80</ele><time>2015-01-07T08:42:40.070Z</time></trkpt>
	<trkpt lat="52.241338" lon="10.487641"><ele>80</ele><time>2015-01-07T08:42:46.081Z</time></trkpt>
	<trkpt lat="52.241326" lon="10.487640"><ele>81</ele><time>2015-01-07T08:42:47.082Z</time></trkpt>
	<trkpt lat="52.241304" lon="10.487636"><ele>81</ele><time>2015-01-07T08:42:48.082Z</time></trkpt>
	<trkpt lat="52.241261" lon="10.487631"><ele>81</ele><time>2015-01-07T08:42:49.083Z</time></trkpt>
	<trkpt lat="52.241215" lon="10.487622"><ele>81</ele><time>2015-01-07T08:42:50.083Z</time></trkpt>
	<trkpt lat="52.241153" lon="10.487614"><ele>81</ele><time>2015-01-07T08:42:51.083Z</time></trkpt>
	<trkpt lat="52.241132" lon="10.487617"><ele>81</ele><time>2015-01-07T08:42:52.074Z</time></trkpt>
	<trkpt lat="52.241040" lon="10.487611"><ele>82</ele><time>2015-01-07T08:42:53.097Z</time></trkpt>
	<trkpt lat="52.240885" lon="10.487592"><ele>82</ele><time>2015-01-07T08:42:54.153Z</time></trkpt>
	<trkpt lat="52.240770" lon="10.487589"><ele>82</ele><time>2015-01-07T08:42:55.130Z</time></trkpt>
	<trkpt lat="52.240655" lon="10.487591"><ele>82</ele><time>2015-01-07T08:42:56.091Z</time></trkpt>
	<trkpt lat="52.240530" lon="10.487598"><ele>82</ele><time>2015-01-07T08:42:57.131Z</time></trkpt>
	<trkpt lat="52.240402" lon="10.487608"><ele>82</ele><time>2015-01-07T08:42:58.145Z</time></trkpt>
	<trkpt lat="52.240265" lon="10.487624"><ele>82</ele><time>2015-01-07T08:42:59.153Z</time></trkpt>
	<trkpt lat="52.240134" lon="10.487643"><ele>83</ele><time>2015-01-07T08:43:00.137Z</time></trkpt>
	<trkpt lat="52.239995" lon="10.487667"><ele>83</ele><time>2015-01-07T08:43:01.159Z</time></trkpt>
	<trkpt lat="52.239849" lon="10.487698"><ele>83</ele><time>2015-01-07T08:43:02.120Z</time></trkpt>
	<trkpt lat="52.239697" lon="10.487744"><ele>84</ele><time>2015-01-07T08:43:03.115Z</time></trkpt>
	<trkpt lat="52.239546" lon="10.487789"><ele>84</ele><time>2015-01-07T08:43:04.160Z</time></trkpt>
	<trkpt lat="52.239401" lon="10.487845"><ele>84</ele><time>2015-01-07T08:43:05.176Z</time></trkpt>
	<trkpt lat="52.239262" lon="10.487889"><ele>84</ele><time>2015-01-07T08:43:06.118Z</time></trkpt>
	<trkpt lat="52.239114" lon="10.487937"><ele>85</ele><time>2015-01-07T08:43:07.090Z</time></trkpt>
	<trkpt lat="52.238987" lon="10.487979"><ele>85</ele><time>2015-01-07T08:43:08.130Z</time></trkpt>
	<trkpt lat="52.238859" lon="10.488017"><ele>85</ele><time>2015-01-07T08:43:09.137Z</time></trkpt>
	<trkpt lat="52.238739" lon="10.488054"><ele>86</ele><time>2015-01-07T08:43:10.143Z</time></trkpt>
	<trkpt lat="52.238634" lon="10.488082"><ele>86</ele><time>2015-01-07T08:43:11.077Z</time></trkpt>
	<trkpt lat="52.238529" lon="10.488107"><ele>86</ele><time>2015-01-07T08:43:12.082Z</time></trkpt>
	<trkpt lat="52.238440" lon="10.488125"><ele>86</ele><time>2015-01-07T08:43:13.075Z</time></trkpt>
	<trkpt lat="52.238359" lon="10.488134"><ele>86</ele><time>2015-01-07T08:43:14.087Z</time></trkpt>
	<trkpt lat="52.238285" lon="10.488149"><ele>87</ele><time>2015-01-07T08:43:15.110Z</time></trkpt>
	<trkpt lat="52.238228" lon="10.488159"><ele>87</ele><time>2015-01-07T08:43:16.105Z</time></trkpt>
	<trkpt lat="52.238175" lon="10.488168"><ele>87</ele><time>2015-01-07T08:43:17.103Z</time></trkpt>
	<trkpt lat="52.238129" lon="10.488174"><ele>87</ele><time>2015-01-07T08:43:18.078Z</time></trkpt>
	<trkpt lat="52.238095" lon="10.488176"><ele>87</ele><time>2015-01-07T08:43:19.086Z</time></trkpt>
	<trkpt lat="52.238069" lon="10.488181"><ele>87</ele><time>2015-01-07T08:43:20.095Z</time></trkpt>
	<trkpt lat="52.238052" lon="10.488186"><ele>87</ele><time>2015-01-07T08:43:21.083Z</time></trkpt>
	<trkpt lat="52.238049" lon="10.488186"><ele>87</ele><time>2015-01-07T08:43:22.106Z</time></trkpt>
	<trkpt lat="52.238047" lon="10.488186"><ele>87</ele><time>2015-01-07T08:43:43.067Z</time></trkpt>
	<trkpt lat="52.238025" lon="10.488192"><ele>87</ele><time>2015-01-07T08:43:44.067Z</time></trkpt>
	<trkpt lat="52.238008" lon="10.488192"><ele>87</ele><time>2015-01-07T08:43:45.085Z</time></trkpt>
	<trkpt lat="52.237973" lon="10.488197"><ele>87</ele><time>2015-01-07T08:43:46.090Z</time></trkpt>
	<trkpt lat="52.237923" lon="10.488199"><ele>88</ele><time>2015-01-07T08:43:47.085Z</time></trkpt>
	<trkpt lat="52.237870" lon="10.488205"><ele>88</ele><time>2015-01-07T08:43:48.087Z</time></trkpt>
	<trkpt lat="52.237809" lon="10.488207"><ele>88</ele><time>2015-01-07T08:43:49.076Z</time></trkpt>
	<trkpt lat="52.237734" lon="10.488208"><ele>89</ele><time>2015-01-07T08:43:50.073Z</time></trkpt>
	<trkpt lat="52.237636" lon="10.488203"><ele>90</ele><time>2015-01-07T08:43:51.099Z</time></trkpt>
	<trkpt lat="52.237542" lon="10.488197"><ele>90</ele><time>2015-01-07T08:43:52.165Z</time></trkpt>
	<trkpt lat="52.237443" lon="10.488190"><ele>90</ele><time>2015-01-07T08:43:53.147Z</time></trkpt>
	<trkpt lat="52.237340" lon="10.488180"><ele>90</ele><time>2015-01-07T08:43:54.150Z</time></trkpt>
	<trkpt lat="52.237227" lon="10.488168"><ele>91</ele><time>2015-01-07T08:43:55.144Z</time></trkpt>
	<trkpt lat="52.237114" lon="10.488147"><ele>91</ele><time>2015-01-07T08:43:56.144Z</time></trkpt>
	<trkpt lat="52.237002" lon="10.488130"><ele>91</ele><time>2015-01-07T08:43:57.131Z</time></trkpt>
	<trkpt lat="52.236884" lon="10.488113"><ele>91</ele><time>2015-01-07T08:43:58.148Z</time></trkpt>
	<trkpt lat="52.236758" lon="10.488094"><ele>91</ele><time>2015-01-07T08:43:59.155Z</time></trkpt>
	<trkpt lat="52.236639" lon="10.488076"><ele>91</ele><time>2015-01-07T08:44:00.153Z</time></trkpt>
	<trkpt lat="52.236517" lon="10.488059"><ele>90</ele><time>2015-01-07T08:44:01.189Z</time></trkpt>
	<trkpt lat="52.236394" lon="10.488041"><ele>90</ele><time>2015-01-07T08:44:02.214Z</time></trkpt>
	<trkpt lat="52.236263" lon="10.488020"><ele>90</ele><time>2015-01-07T08:44:03.212Z</time></trkpt>
	<trkpt lat="52.236138" lon="10.488000"><ele>89</ele><time>2015-01-07T08:44:04.117Z</time></trkpt>
	<trkpt lat="52.236013" lon="10.487980"><ele>89</ele><time>2015-01-07T08:44:05.210Z</time></trkpt>
	<trkpt lat="52.235882" lon="10.487957"><ele>88</ele><time>2015-01-07T08:44:06.091Z</time></trkpt>
	<trkpt lat="52.235758" lon="10.487938"><ele>87</ele><time>2015-01-07T08:44:07.103Z</time></trkpt>
	<trkpt lat="52.235635" lon="10.487914"><ele>87</ele><time>2015-01-07T08:44:08.120Z</time></trkpt>
	<trkpt lat="52.235516" lon="10.487888"><ele>86</ele><time>2015-01-07T08:44:09.121Z</time></trkpt>
	<trkpt lat="52.235398" lon="10.487865"><ele>86</ele><time>2015-01-07T08:44:10.109Z</time></trkpt>
	<trkpt lat="52.235278" lon="10.487836"><ele>85</ele><time>2015-01-07T08:44:11.096Z</time></trkpt>
	<trkpt lat="52.235162" lon="10.487813"><ele>85</ele><time>2015-01-07T08:44:12.103Z</time></trkpt>
	<trkpt lat="52.235043" lon="10.487789"><ele>85</ele><time>2015-01-07T08:44:13.071Z</time></trkpt>
	<trkpt lat="52.234927" lon="10.487767"><ele>84</ele><time>2015-01-07T08:44:14.076Z</time></trkpt>
	<trkpt lat="52.234820" lon="10.487743"><ele>84</ele><time>2015-01-07T08:44:15.094Z</time></trkpt>
	<trkpt lat="52.234728" lon="10.487726"><ele>83</ele><time>2015-01-07T08:44:16.083Z</time></trkpt>
	<trkpt lat="52.234642" lon="10.487711"><ele>83</ele><time>2015-01-07T08:44:17.088Z</time></trkpt>
	<trkpt lat="52.234567" lon="10.487698"><ele>83</ele><time>2015-01-07T08:44:18.072Z</time></trkpt>
	<trkpt lat="52.234498" lon="10.487689"><ele>82</ele><time>2015-01-07T08:44:19.068Z</time></trkpt>
	<trkpt lat="52.234437" lon="10.487682"><ele>82</ele><time>2015-01-07T08:44:20.112Z</time></trkpt>
	<trkpt lat="52.234384" lon="10.487676"><ele>82</ele><time>2015-01-07T08:44:21.171Z</time></trkpt>
	<trkpt lat="52.234346" lon="10.487673"><ele>82</ele><time>2015-01-07T08:44:22.163Z</time></trkpt>
	<trkpt lat="52.234310" lon="10.487671"><ele>82</ele><time>2015-01-07T08:44:23.159Z</time></trkpt>
	<trkpt lat="52.234282" lon="10.487667"><ele>82</ele><time>2015-01-07T08:44:24.140Z</time></trkpt>
	<trkpt lat="52.234260" lon="10.487667"><ele>82</ele><time>2015-01-07T08:44:25.138Z</time></trkpt>
	<trkpt lat="52.234249" lon="10.487665"><ele>82</ele><time>2015-01-07T08:44:26.146Z</time></trkpt>
	<trkpt lat="52.234241" lon="10.487667"><ele>82</ele><time>2015-01-07T08:44:27.144Z</time></trkpt>
	<trkpt lat="52.234241" lon="10.487672"><ele>82</ele><time>2015-01-07T08:44:28.134Z</time></trkpt>
	<trkpt lat="52.234236" lon="10.487672"><ele>82</ele><time>2015-01-07T08:45:09.157Z</time></trkpt>
	<trkpt lat="52.234233" lon="10.487644"><ele>82</ele><time>2015-01-07T08:45:10.174Z</time></trkpt>
	<trkpt lat="52.234213" lon="10.487647"><ele>82</ele><time>2015-01-07T08:45:11.167Z</time></trkpt>
	<trkpt lat="52.234179" lon="10.487652"><ele>82</ele><time>2015-01-07T08:45:12.154Z</time></trkpt>
	<trkpt lat="52.234133" lon="10.487647"><ele>82</ele><time>2015-01-07T08:45:13.167Z</time></trkpt>
	<trkpt lat="52.234074" lon="10.487641"><ele>83</ele><time>2015-01-07T08:45:14.119Z</time></trkpt>
	<trkpt lat="52.234006" lon="10.487645"><ele>83</ele><time>2015-01-07T08:45:15.151Z</time></trkpt>
	<trkpt lat="52.233926" lon="10.487651"><ele>83</ele><time>2015-01-07T08:45:16.153Z</time></trkpt>
	<trkpt lat="52.233830" lon="10.487651"><ele>83</ele><time>2015-01-07T08:45:17.106Z</time></trkpt>
	<trkpt lat="52.233730" lon="10.487648"><ele>84</ele><time>2015-01-07T08:45:18.124Z</time></trkpt>
	<trkpt lat="52.233626" lon="10.487637"><ele>84</ele><time>2015-01-07T08:45:19.156Z</time></trkpt>
	<trkpt lat="52.233534" lon="10.487648"><ele>84</ele><time>2015-01-07T08:45:20.149Z</time></trkpt>
	<trkpt lat="52.233424" lon="10.487642"><ele>85</ele><time>2015-01-07T08:45:21.174Z</time></trkpt>
	<trkpt lat="52.233301" lon="10.487636"><ele>85</ele><time>2015-01-07T08:45:22.182Z</time></trkpt>
	<trkpt lat="52.233214" lon="10.487627"><ele>85</ele><time>2015-01-07T08:45:23.183Z</time></trkpt>
	<trkpt lat="52.233047" lon="10.487657"><ele>86</ele><time>2015-01-07T08:45:24.153Z</time></trkpt>
	<trkpt lat="52.232933" lon="10.487622"><ele>86</ele><time>2015-01-07T08:45:25.128Z</time></trkpt>
	<trkpt lat="52.232807" lon="10.487620"><ele>86</ele><time>2015-01-07T08:45:26.141Z</time></trkpt>
	<trkpt lat="52.232683" lon="10.487614"><ele>87</ele><time>2015-01-07T08:45:27.159Z</time></trkpt>
	<trkpt lat="52.232557" lon="10.487612"><ele>87</ele><time>2015-01-07T08:45:28.158Z</time></trkpt>
	<trkpt lat="52.232438" lon="10.487619"><ele>87</ele><time>2015-01-07T08:45:29.180Z</time></trkpt>
	<trkpt lat="52.232319" lon="10.487633"><ele>87</ele><time>2015-01-07T08:45:30.103Z</time></trkpt>
	<trkpt lat="52.232204" lon="10.487654"><ele>87</ele><time>2015-01-07T08:45:31.089Z</time></trkpt>
	<trkpt lat="52.232096" lon="10.487683"><ele>87</ele><time>2015-01-07T08:45:32.091Z</time></trkpt>
	<trkpt lat="52.231989" lon="10.487723"><ele>87</ele><time>2015-01-07T08:45:33.093Z</time></trkpt>
	<trkpt lat="52.231873" lon="10.487776"><ele>88</ele><time>2015-01-07T08:45:34.088Z</time></trkpt>
	<trkpt lat="52.231756" lon="10.487835"><ele>88</ele><time>2015-01-07T08:45:35.091Z</time></trkpt>
	<trkpt lat="52.231646" lon="10.487899"><ele>88</ele><time>2015-01-07T08:45:36.095Z</time></trkpt>
	<trkpt lat="52.231535" lon="10.487975"><ele>88</ele><time>2015-01-07T08:45:37.090Z</time></trkpt>
	<trkpt lat="52.231437" lon="10.488059"><ele>88</ele><time>2015-01-07T08:45:38.095Z</time></trkpt>
	<trkpt lat="52.231327" lon="10.488166"><ele>89</ele><time>2015-01-07T08:45:39.099Z</time></trkpt>
	<trkpt lat="52.231227" lon="10.488275"><ele>89</ele><time>2015-01-07T08:45:40.134Z</time></trkpt>
	<trkpt lat="52.231133" lon="10.488386"><ele>89</ele><time>2015-01-07T08:45:41.146Z</time></trkpt>
	<trkpt lat="52.231038" lon="10.488520"><ele>89</ele><time>2015-01-07T08:45:42.143Z</time></trkpt>
	<trkpt lat="52.230949" lon="10.488652"><ele>90</ele><time>2015-01-07T08:45:43.139Z</time></trkpt>
	<trkpt lat="52.230857" lon="10.488800"><ele>90</ele><time>2015-01-07T08:45:44.147Z</time></trkpt>
	<trkpt lat="52.230778" lon="10.488950"><ele>90</ele><time>2015-01-07T08:45:45.154Z</time></trkpt>
	<trkpt lat="52.230697" lon="10.489125"><ele>90</ele><time>2015-01-07T08:45:46.166Z</time></trkpt>
	<trkpt lat="52.230629" lon="10.489290"><ele>90</ele><time>2015-01-07T08:45:47.148Z</time></trkpt>
	<trkpt lat="52.230564" lon="10.489463"><ele>91</ele><time>2015-01-07T08:45:48.138Z</time></trkpt>
	<trkpt lat="52.230493" lon="10.489660"><ele>91</ele><time>2015-01-07T08:45:49.145Z</time></trkpt>
	<trkpt lat="52.230418" lon="10.489897"><ele>91</ele><time>2015-01-07T08:45:50.170Z</time></trkpt>
	<trkpt lat="52.230349" lon="10.490132"><ele>91</ele><time>2015-01-07T08:45:51.144Z</time></trkpt>
	<trkpt lat="52.230277" lon="10.490385"><ele>91</ele><time>2015-01-07T08:45:52.153Z</time></trkpt>
	<trkpt lat="52.230196" lon="10.490656"><ele>91</ele><time>2015-01-07T08:45:53.187Z</time></trkpt>
	<trkpt lat="52.230119" lon="10.490926"><ele>91</ele><time>2015-01-07T08:45:54.170Z</time></trkpt>
	<trkpt lat="52.230039" lon="10.491207"><ele>91</ele><time>2015-01-07T08:45:55.174Z</time></trkpt>
	<trkpt lat="52.229959" lon="10.491489"><ele>92</ele><time>2015-01-07T08:45:56.174Z</time></trkpt>
	<trkpt lat="52.229878" lon="10.491800"><ele>92</ele><time>2015-01-07T08:45:57.173Z</time></trkpt>
	<trkpt lat="52.229808" lon="10.492092"><ele>92</ele><time>2015-01-07T08:45:58.147Z</time></trkpt>
	<trkpt lat="52.229736" lon="10.492392"><ele>92</ele><time>2015-01-07T08:45:59.136Z</time></trkpt>
	<trkpt lat="52.229666" lon="10.492680"><ele>92</ele><time>2015-01-07T08:46:00.146Z</time></trkpt>
	<trkpt lat="52.229596" lon="10.492977"><ele>92</ele><time>2015-01-07T08:46:01.141Z</time></trkpt>
	<trkpt lat="52.229530" lon="10.493262"><ele>91</ele><time>2015-01-07T08:46:02.171Z</time></trkpt>
	<trkpt lat="52.229463" lon="10.493553"><ele>91</ele><time>2015-01-07T08:46:03.147Z</time></trkpt>
	<trkpt lat="52.229393" lon="10.493847"><ele>91</ele><time>2015-01-07T08:46:04.171Z</time></trkpt>
	<trkpt lat="52.229332" lon="10.494130"><ele>90</ele><time>2015-01-07T08:46:05.167Z</time></trkpt>
	<trkpt lat="52.229263" lon="10.494422"><ele>90</ele><time>2015-01-07T08:46:06.145Z</time></trkpt>
	<trkpt lat="52.229193" lon="10.494721"><ele>90</ele><time>2015-01-07T08:46:07.151Z</time></trkpt>
	<trkpt lat="52.229113" lon="10.495008"><ele>90</ele><time>2015-01-07T08:46:08.148Z</time></trkpt>
	<trkpt lat="52.229046" lon="10.495297"><ele>90</ele><time>2015-01-07T08:46:09.151Z</time></trkpt>
	<trkpt lat="52.228975" lon="10.495583"><ele>90</ele><time>2015-01-07T08:46:10.153Z</time></trkpt>
	<trkpt lat="52.228904" lon="10.495888"><ele>89</ele><time>2015-01-07T08:46:11.139Z</time></trkpt>
	<trkpt lat="52.228835" lon="10.496178"><ele>89</ele><time>2015-01-07T08:46:12.127Z</time></trkpt>
	<trkpt lat="52.228765" lon="10.496469"><ele>88</ele><time>2015-01-07T08:46:13.126Z</time></trkpt>
	<trkpt lat="52.228694" lon="10.496775"><ele>88</ele><time>2015-01-07T08:46:14.090Z</time></trkpt>
	<trkpt lat="52.228624" lon="10.497054"><ele>88</ele><time>2015-01-07T08:46:15.121Z</time></trkpt>
	<trkpt lat="52.228556" lon="10.497338"><ele>87</ele><time>2015-01-07T08:46:16.150Z</time></trkpt>
	<trkpt lat="52.228491" lon="10.497607"><ele>87</ele><time>2015-01-07T08:46:17.144Z</time></trkpt>
	<trkpt lat="52.228429" lon="10.497846"><ele>86</ele><time>2015-01-07T08:46:18.130Z</time></trkpt>
	<trkpt lat="52.228350" lon="10.498174"><ele>86</ele><time>2015-01-07T08:46:19.135Z</time></trkpt>
	<trkpt lat="52.228279" lon="10.498462"><ele>86</ele><time>2015-01-07T08:46:20.126Z</time></trkpt>
	<trkpt lat="52.228208" lon="10.498754"><ele>85</ele><time>2015-01-07T08:46:21.118Z</time></trkpt>
	<trkpt lat="52.228138" lon="10.499041"><ele>85</ele><time>2015-01-07T08:46:22.129Z</time></trkpt>
	<trkpt lat="52.228073" lon="10.499318"><ele>85</ele><time>2015-01-07T08:46:23.157Z</time></trkpt>
	<trkpt lat="52.228008" lon="10.499595"><ele>84</ele><time>2015-01-07T08:46:24.118Z</time></trkpt>
	<trkpt lat="52.227942" lon="10.499861"><ele>84</ele><time>2015-01-07T08:46:25.142Z</time></trkpt>
	<trkpt lat="52.227879" lon="10.500119"><ele>83</ele><time>2015-01-07T08:46:26.145Z</time></trkpt>
	<trkpt lat="52.227821" lon="10.500358"><ele>83</ele><time>2015-01-07T08:46:27.138Z</time></trkpt>
	<trkpt lat="52.227769" lon="10.500581"><ele>83</ele><time>2015-01-07T08:46:28.138Z</time></trkpt>
	<trkpt lat="52.227714" lon="10.500804"><ele>82</ele><time>2015-01-07T08:46:29.107Z</time></trkpt>
	<trkpt lat="52.227663" lon="10.501021"><ele>81</ele><time>2015-01-07T08:46:30.122Z</time></trkpt>
	<trkpt lat="52.227615" lon="10.501209"><ele>81</ele><time>2015-01-07T08:46:31.131Z</time></trkpt>
	<trkpt lat="52.227570" lon="10.501382"><ele>80</ele><time>2015-01-07T08:46:32.128Z</time></trkpt>
	<trkpt lat="52.227532" lon="10.501535"><ele>80</ele><time>2015-01-07T08:46:33.108Z</time></trkpt>
	<trkpt lat="52.227497" lon="10.501679"><ele>80</ele><time>2015-01-07T08:46:34.154Z</time></trkpt>
	<trkpt lat="52.227458" lon="10.501826"><ele>80</ele><time>2015-01-07T08:46:35.147Z</time></trkpt>
	<trkpt lat="52.227424" lon="10.501960"><ele>80</ele><time>2015-01-07T08:46:36.135Z</time></trkpt>
	<trkpt lat="52.227395" lon="10.502091"><ele>80</ele><time>2015-01-07T08:46:37.132Z</time></trkpt>
	<trkpt lat="52.227364" lon="10.502240"><ele>80</ele><time>2015-01-07T08:46:38.100Z</time></trkpt>
	<trkpt lat="52.227330" lon="10.502400"><ele>80</ele><time>2015-01-07T08:46:39.057Z</time></trkpt>
	<trkpt lat="52.227297" lon="10.502547"><ele>80</ele><time>2015-01-07T08:46:40.083Z</time></trkpt>
	<trkpt lat="52.227264" lon="10.502686"><ele>79</ele><time>2015-01-07T08:46:41.093Z</time></trkpt>
	<trkpt lat="52.227239" lon="10.502801"><ele>79</ele><time>2015-01-07T08:46:42.102Z</time></trkpt>
	<trkpt lat="52.227215" lon="10.502900"><ele>78</ele><time>2015-01-07T08:46:43.158Z</time></trkpt>
	<trkpt lat="52.227191" lon="10.502979"><ele>78</ele><time>2015-01-07T08:46:44.162Z</time></trkpt>
	<trkpt lat="52.227175" lon="10.503037"><ele>78</ele><time>2015-01-07T08:46:45.099Z</time></trkpt>
	<trkpt lat="52.227160" lon="10.503094"><ele>78</ele><time>2015-01-07T08:46:46.106Z</time></trkpt>
	<trkpt lat="52.227153" lon="10.503121"><ele>78</ele><time>2015-01-07T08:46:47.114Z</time></trkpt>
	<trkpt lat="52.227151" lon="10.503151"><ele>78</ele><time>2015-01-07T08:46:48.175Z</time></trkpt>
	<trkpt lat="52.227150" lon="10.503192"><ele>79</ele><time>2015-01-07T08:46:49.168Z</time></trkpt>
	<trkpt lat="52.227141" lon="10.503265"><ele>79</ele><time>2015-01-07T08:46:50.159Z</time></trkpt>
	<trkpt lat="52.227122" lon="10.503355"><ele>79</ele><time>2015-01-07T08:46:51.159Z</time></trkpt>
	<trkpt lat="52.227098" lon="10.503440"><ele>79</ele><time>2015-01-07T08:46:52.145Z</time></trkpt>
	<trkpt lat="52.227072" lon="10.503527"><ele>79</ele><time>2015-01-07T08:46:53.126Z</time></trkpt>
	<trkpt lat="52.227032" lon="10.503634"><ele>79</ele><time>2015-01-07T08:46:54.126Z</time></trkpt>
	<trkpt lat="52.227002" lon="10.503731"><ele>79</ele><time>2015-01-07T08:46:55.142Z</time></trkpt>
	<trkpt lat="52.226969" lon="10.503829"><ele>78</ele><time>2015-01-07T08:46:56.188Z</time></trkpt>
	<trkpt lat="52.226938" lon="10.503929"><ele>78</ele><time>2015-01-07T08:46:57.140Z</time></trkpt>
	<trkpt lat="52.226917" lon="10.503994"><ele>78</ele><time>2015-01-07T08:46:58.105Z</time></trkpt>
	<trkpt lat="52.226909" lon="10.504038"><ele>78</ele><time>2015-01-07T08:46:59.143Z</time></trkpt>
	<trkpt lat="52.226902" lon="10.504070"><ele>78</ele><time>2015-01-07T08:47:00.160Z</time></trkpt>
	<trkpt lat="52.226900" lon="10.504078"><ele>78</ele><time>2015-01-07T08:47:01.192Z</time></trkpt>
	<trkpt lat="52.226902" lon="10.504079"><ele>78</ele><time>2015-01-07T08:47:02.104Z</time></trkpt>
	<trkpt lat="52.226916" lon="10.504090"><ele>78</ele><time>2015-01-07T08:47:03.114Z</time></trkpt>
	<trkpt lat="52.226901" lon="10.504086"><ele>78</ele><time>2015-01-07T08:47:04.122Z</time></trkpt>
	<trkpt lat="52.226900" lon="10.504104"><ele>78</ele><time>2015-01-07T08:47:05.140Z</time></trkpt>
	<trkpt lat="52.226892" lon="10.504147"><ele>78</ele><time>2015-01-07T08:47:06.159Z</time></trkpt>
	<trkpt lat="52.226874" lon="10.504196"><ele>78</ele><time>2015-01-07T08:47:07.197Z</time></trkpt>
	<trkpt lat="52.226847" lon="10.504232"><ele>78</ele><time>2015-01-07T08:47:08.120Z</time></trkpt>
	<trkpt lat="52.226805" lon="10.504249"><ele>78</ele><time>2015-01-07T08:47:09.168Z</time></trkpt>
	<trkpt lat="52.226752" lon="10.504258"><ele>79</ele><time>2015-01-07T08:47:10.194Z</time></trkpt>
	<trkpt lat="52.226681" lon="10.504246"><ele>79</ele><time>2015-01-07T08:47:11.116Z</time></trkpt>
	<trkpt lat="52.226602" lon="10.504234"><ele>79</ele><time>2015-01-07T08:47:12.162Z</time></trkpt>
	<trkpt lat="52.226503" lon="10.504216"><ele>79</ele><time>2015-01-07T08:47:13.149Z</time></trkpt>
	<trkpt lat="52.226395" lon="10.504187"><ele>80</ele><time>2015-01-07T08:47:14.150Z</time></trkpt>
	<trkpt lat="52.226285" lon="10.504157"><ele>80</ele><time>2015-01-07T08:47:15.203Z</time></trkpt>
	<trkpt lat="52.226171" lon="10.504127"><ele>80</ele><time>2015-01-07T08:47:16.100Z</time></trkpt>
	<trkpt lat="52.226034" lon="10.504096"><ele>80</ele><time>2015-01-07T08:47:17.145Z</time></trkpt>
	<trkpt lat="52.225900" lon="10.504058"><ele>81</ele><time>2015-01-07T08:47:18.171Z</time></trkpt>
	<trkpt lat="52.225769" lon="10.504019"><ele>81</ele><time>2015-01-07T08:47:19.165Z</time></trkpt>
	<trkpt lat="52.225629" lon="10.503994"><ele>81</ele><time>2015-01-07T08:47:20.148Z</time></trkpt>
	<trkpt lat="52.225506" lon="10.503976"><ele>80</ele><time>2015-01-07T08:47:21.133Z</time></trkpt>
	<trkpt lat="52.225369" lon="10.503951"><ele>80</ele><time>2015-01-07T08:47:22.144Z</time></trkpt>
	<trkpt lat="52.225240" lon="10.503925"><ele>80</ele><time>2015-01-07T08:47:23.163Z</time></trkpt>
	<trkpt lat="52.225118" lon="10.503899"><ele>81</ele><time>2015-01-07T08:47:24.163Z</time></trkpt>
	<trkpt lat="52.225006" lon="10.503870"><ele>80</ele><time>2015-01-07T08:47:25.159Z</time></trkpt>
	<trkpt lat="52.224879" lon="10.503846"><ele>80</ele><time>2015-01-07T08:47:26.162Z</time></trkpt>
	<trkpt lat="52.224806" lon="10.503836"><ele>80</ele><time>2015-01-07T08:47:27.159Z</time></trkpt>
	<trkpt lat="52.224638" lon="10.503791"><ele>81</ele><time>2015-01-07T08:47:28.133Z</time></trkpt>
	<trkpt lat="52.224514" lon="10.503760"><ele>81</ele><time>2015-01-07T08:47:29.102Z</time></trkpt>
	<trkpt lat="52.224396" lon="10.503731"><ele>81</ele><time>2015-01-07T08:47:30.122Z</time></trkpt>
	<trkpt lat="52.224276" lon="10.503710"><ele>81</ele><time>2015-01-07T08:47:31.168Z</time></trkpt>
	<trkpt lat="52.224163" lon="10.503692"><ele>81</ele><time>2015-01-07T08:47:32.117Z</time></trkpt>
	<trkpt lat="52.224065" lon="10.503678"><ele>81</ele><time>2015-01-07T08:47:33.133Z</time></trkpt>
	<trkpt lat="52.223964" lon="10.503662"><ele>80</ele><time>2015-01-07T08:47:34.130Z</time></trkpt>
	<trkpt lat="52.223876" lon="10.503651"><ele>79</ele><time>2015-01-07T08:47:35.175Z</time></trkpt>
	<trkpt lat="52.223808" lon="10.503638"><ele>79</ele><time>2015-01-07T08:47:36.122Z</time></trkpt>
	<trkpt lat="52.223770" lon="10.503630"><ele>79</ele><time>2015-01-07T08:47:37.143Z</time></trkpt>
	<trkpt lat="52.223742" lon="10.503620"><ele>79</ele><time>2015-01-07T08:47:38.091Z</time></trkpt>
	<trkpt lat="52.223723" lon="10.503614"><ele>79</ele><time>2015-01-07T08:47:39.093Z</time></trkpt>
	<trkpt lat="52.223711" lon="10.503612"><ele>79</ele><time>2015-01-07T08:47:40.108Z</time></trkpt>
	<trkpt lat="52.223712" lon="10.503614"><ele>79</ele><time>2015-01-07T08:48:00.102Z</time></trkpt>
	<trkpt lat="52.223708" lon="10.503598"><ele>79</ele><time>2015-01-07T08:48:01.123Z</time></trkpt>
	<trkpt lat="52.223690" lon="10.503593"><ele>79</ele><time>2015-01-07T08:48:02.097Z</time></trkpt>
	<trkpt lat="52.223672" lon="10.503587"><ele>79</ele><time>2015-01-07T08:48:03.115Z</time></trkpt>
	<trkpt lat="52.223656" lon="10.503583"><ele>79</ele><time>2015-01-07T08:48:04.108Z</time></trkpt>
	<trkpt lat="52.223645" lon="10.503575"><ele>79</ele><time>2015-01-07T08:48:05.088Z</time></trkpt>
	<trkpt lat="52.223630" lon="10.503569"><ele>79</ele><time>2015-01-07T08:48:06.084Z</time></trkpt>
	<trkpt lat="52.223622" lon="10.503566"><ele>79</ele><time>2015-01-07T08:48:07.100Z</time></trkpt>
	<trkpt lat="52.223615" lon="10.503565"><ele>79</ele><time>2015-01-07T08:48:08.111Z</time></trkpt>
	<trkpt lat="52.223611" lon="10.503561"><ele>79</ele><time>2015-01-07T08:48:09.095Z</time></trkpt>
	<trkpt lat="52.223605" lon="10.503560"><ele>79</ele><time>2015-01-07T08:48:10.078Z</time></trkpt>
	<trkpt lat="52.223593" lon="10.503556"><ele>79</ele><time>2015-01-07T08:48:11.107Z</time></trkpt>
	<trkpt lat="52.223566" lon="10.503557"><ele>79</ele><time>2015-01-07T08:48:12.101Z</time></trkpt>
	<trkpt lat="52.223529" lon="10.503576"><ele>79</ele><time>2015-01-07T08:48:13.083Z</time></trkpt>
	<trkpt lat="52.223474" lon="10.503602"><ele>79</ele><time>2015-01-07T08:48:14.081Z</time></trkpt>
	<trkpt lat="52.223436" lon="10.503673"><ele>79</ele><time>2015-01-07T08:48:15.078Z</time></trkpt>
	<trkpt lat="52.223391" lon="10.503757"><ele>79</ele><time>2015-01-07T08:48:16.096Z</time></trkpt>
	<trkpt lat="52.223320" lon="10.503869"><ele>79</ele><time>2015-01-07T08:48:17.107Z</time></trkpt>
	<trkpt lat="52.223241" lon="10.503980"><ele>78</ele><time>2015-01-07T08:48:18.151Z</time></trkpt>
	<trkpt lat="52.223158" lon="10.504095"><ele>78</ele><time>2015-01-07T08:48:19.147Z</time></trkpt>
	<trkpt lat="52.223068" lon="10.504220"><ele>78</ele><time>2015-01-07T08:48:20.141Z</time></trkpt>
	<trkpt lat="52.222970" lon="10.504358"><ele>79</ele><time>2015-01-07T08:48:21.140Z</time></trkpt>
	<trkpt lat="52.222864" lon="10.504506"><ele>79</ele><time>2015-01-07T08:48:22.149Z</time></trkpt>
	<trkpt lat="52.222768" lon="10.504665"><ele>79</ele><time>2015-01-07T08:48:23.141Z</time></trkpt>
	<trkpt lat="52.222699" lon="10.504802"><ele>78</ele><time>2015-01-07T08:48:24.120Z</time></trkpt>
	<trkpt lat="52.222622" lon="10.504963"><ele>78</ele><time>2015-01-07T08:48:25.155Z</time></trkpt>
	<trkpt lat="52.222546" lon="10.505119"><ele>78</ele><time>2015-01-07T08:48:26.192Z</time></trkpt>
	<trkpt lat="52.222464" lon="10.505289"><ele>77</ele><time>2015-01-07T08:48:27.105Z</time></trkpt>
	<trkpt lat="52.222389" lon="10.505441"><ele>78</ele><time>2015-01-07T08:48:28.170Z</time></trkpt>
	<trkpt lat="52.222315" lon="10.505590"><ele>77</ele><time>2015-01-07T08:48:29.187Z</time></trkpt>
	<trkpt lat="52.222240" lon="10.505737"><ele>77</ele><time>2015-01-07T08:48:30.119Z</time></trkpt>
	<trkpt lat="52.222155" lon="10.505881"><ele>77</ele><time>2015-01-07T08:48:31.109Z</time></trkpt>
	<trkpt lat="52.222073" lon="10.506009"><ele>77</ele><time>2015-01-07T08:48:32.111Z</time></trkpt>
	<trkpt lat="52.221985" lon="10.506141"><ele>77</ele><time>2015-01-07T08:48:33.104Z</time></trkpt>
	<trkpt lat="52.221916" lon="10.506252"><ele>77</ele><time>2015-01-07T08:48:34.098Z</time></trkpt>
	<trkpt lat="52.221846" lon="10.506383"><ele>77</ele><time>2015-01-07T08:48:35.094Z</time></trkpt>
	<trkpt lat="52.221788" lon="10.506494"><ele>77</ele><time>2015-01-07T08:48:36.058Z</time></trkpt>
	<trkpt lat="52.221726" lon="10.506613"><ele>76</ele><time>2015-01-07T08:48:37.059Z</time></trkpt>
	<trkpt lat="52.221658" lon="10.506742"><ele>76</ele><time>2015-01-07T08:48:38.056Z</time></trkpt>
	<trkpt lat="52.221543" lon="10.506745"><ele>76</ele><time>2015-01-07T08:48:39.067Z</time></trkpt>
	<trkpt lat="52.221455" lon="10.506797"><ele>76</ele><time>2015-01-07T08:48:40.067Z</time></trkpt>
	<trkpt lat="52.221365" lon="10.506816"><ele>76</ele><time>2015-01-07T08:48:41.061Z</time></trkpt>
	<trkpt lat="52.221277" lon="10.506799"><ele>76</ele><time>2015-01-07T08:48:42.069Z</time></trkpt>
	<trkpt lat="52.221177" lon="10.506763"><ele>77</ele><time>2015-01-07T08:48:43.064Z</time></trkpt>
	<trkpt lat="52.221078" lon="10.506708"><ele>77</ele><time>2015-01-07T08:48:44.058Z</time></trkpt>
	<trkpt lat="52.220982" lon="10.506664"><ele>77</ele><time>2015-01-07T08:48:45.077Z</time></trkpt>
	<trkpt lat="52.220881" lon="10.506637"><ele>77</ele><time>2015-01-07T08:48:46.093Z</time></trkpt>
	<trkpt lat="52.220779" lon="10.506631"><ele>77</ele><time>2015-01-07T08:48:47.089Z</time></trkpt>
	<trkpt lat="52.220700" lon="10.506622"><ele>77</ele><time>2015-01-07T08:48:48.088Z</time></trkpt>
	<trkpt lat="52.220623" lon="10.506636"><ele>77</ele><time>2015-01-07T08:48:49.104Z</time></trkpt>
	<trkpt lat="52.220515" lon="10.506682"><ele>77</ele><time>2015-01-07T08:48:50.122Z</time></trkpt>
	<trkpt lat="52.220487" lon="10.506725"><ele>77</ele><time>2015-01-07T08:48:51.077Z</time></trkpt>
	<trkpt lat="52.220432" lon="10.506793"><ele>77</ele><time>2015-01-07T08:48:52.076Z</time></trkpt>
	<trkpt lat="52.220382" lon="10.506889"><ele>77</ele><time>2015-01-07T08:48:53.112Z</time></trkpt>
	<trkpt lat="52.220362" lon="10.506992"><ele>77</ele><time>2015-01-07T08:48:54.149Z</time></trkpt>
	<trkpt lat="52.220351" lon="10.507108"><ele>77</ele><time>2015-01-07T08:48:55.209Z</time></trkpt>
	<trkpt lat="52.220365" lon="10.507198"><ele>77</ele><time>2015-01-07T08:48:56.084Z</time></trkpt>
	<trkpt lat="52.220385" lon="10.507319"><ele>77</ele><time>2015-01-07T08:48:57.085Z</time></trkpt>
	<trkpt lat="52.220431" lon="10.507513"><ele>77</ele><time>2015-01-07T08:48:58.114Z</time></trkpt>
	<trkpt lat="52.220472" lon="10.507646"><ele>77</ele><time>2015-01-07T08:48:59.089Z</time></trkpt>
	<trkpt lat="52.220512" lon="10.507780"><ele>77</ele><time>2015-01-07T08:49:00.100Z</time></trkpt>
	<trkpt lat="52.220545" lon="10.507874"><ele>77</ele><time>2015-01-07T08:49:01.091Z</time></trkpt>
	<trkpt lat="52.220593" lon="10.508000"><ele>77</ele><time>2015-01-07T08:49:02.083Z</time></trkpt>
	<trkpt lat="52.220643" lon="10.508127"><ele>77</ele><time>2015-01-07T08:49:03.064Z</time></trkpt>
	<trkpt lat="52.220694" lon="10.508279"><ele>77</ele><time>2015-01-07T08:49:04.073Z</time></trkpt>
	<trkpt lat="52.220735" lon="10.508432"><ele>76</ele><time>2015-01-07T08:49:05.072Z</time></trkpt>
	<trkpt lat="52.220770" lon="10.508596"><ele>76</ele><time>2015-01-07T08:49:06.060Z</time></trkpt>
	<trkpt lat="52.220792" lon="10.508776"><ele>76</ele><time>2015-01-07T08:49:07.060Z</time></trkpt>
	<trkpt lat="52.220809" lon="10.508943"><ele>76</ele><time>2015-01-07T08:49:08.068Z</time></trkpt>
	<trkpt lat="52.220812" lon="10.509096"><ele>76</ele><time>2015-01-07T08:49:09.073Z</time></trkpt>
	<trkpt lat="52.220809" lon="10.509251"><ele>76</ele><time>2015-01-07T08:49:10.062Z</time></trkpt>
	<trkpt lat="52.220806" lon="10.509397"><ele>76</ele><time>2015-01-07T08:49:11.064Z</time></trkpt>
	<trkpt lat="52.220803" lon="10.509523"><ele>77</ele><time>2015-01-07T08:49:12.059Z</time></trkpt>
	<trkpt lat="52.220796" lon="10.509645"><ele>76</ele><time>2015-01-07T08:49:13.056Z</time></trkpt>
	<trkpt lat="52.220787" lon="10.509777"><ele>77</ele><time>2015-01-07T08:49:14.061Z</time></trkpt>
	<trkpt lat="52.220765" lon="10.509921"><ele>76</ele><time>2015-01-07T08:49:15.062Z</time></trkpt>
	<trkpt lat="52.220725" lon="10.510051"><ele>76</ele><time>2015-01-07T08:49:16.061Z</time></trkpt>
	<trkpt lat="52.220664" lon="10.510174"><ele>76</ele><time>2015-01-07T08:49:17.060Z</time></trkpt>
	<trkpt lat="52.220580" lon="10.510264"><ele>76</ele><time>2015-01-07T08:49:18.060Z</time></trkpt>
	<trkpt lat="52.220488" lon="10.510342"><ele>76</ele><time>2015-01-07T08:49:19.061Z</time></trkpt>
	<trkpt lat="52.220394" lon="10.510407"><ele>76</ele><time>2015-01-07T08:49:20.061Z</time></trkpt>
	<trkpt lat="52.220293" lon="10.510459"><ele>77</ele><time>2015-01-07T08:49:21.060Z</time></trkpt>
	<trkpt lat="52.220189" lon="10.510502"><ele>76</ele><time>2015-01-07T08:49:22.061Z</time></trkpt>
	<trkpt lat="52.220074" lon="10.510526"><ele>77</ele><time>2015-01-07T08:49:23.077Z</time></trkpt>
	<trkpt lat="52.219959" lon="10.510536"><ele>77</ele><time>2015-01-07T08:49:24.082Z</time></trkpt>
	<trkpt lat="52.219840" lon="10.510537"><ele>77</ele><time>2015-01-07T08:49:25.087Z</time></trkpt>
	<trkpt lat="52.219716" lon="10.510538"><ele>78</ele><time>2015-01-07T08:49:26.089Z</time></trkpt>
	<trkpt lat="52.219585" lon="10.510540"><ele>78</ele><time>2015-01-07T08:49:27.085Z</time></trkpt>
	<trkpt lat="52.219452" lon="10.510538"><ele>78</ele><time>2015-01-07T08:49:28.087Z</time></trkpt>
	<trkpt lat="52.219316" lon="10.510535"><ele>78</ele><time>2015-01-07T08:49:29.088Z</time></trkpt>
	<trkpt lat="52.219174" lon="10.510537"><ele>78</ele><time>2015-01-07T08:49:30.082Z</time></trkpt>
	<trkpt lat="52.219021" lon="10.510540"><ele>78</ele><time>2015-01-07T08:49:31.068Z</time></trkpt>
	<trkpt lat="52.218870" lon="10.510546"><ele>78</ele><time>2015-01-07T08:49:32.077Z</time></trkpt>
	<trkpt lat="52.218719" lon="10.510549"><ele>78</ele><time>2015-01-07T08:49:33.073Z</time></trkpt>
	<trkpt lat="52.218568" lon="10.510552"><ele>78</ele><time>2015-01-07T08:49:34.085Z</time></trkpt>
	<trkpt lat="52.218426" lon="10.510556"><ele>78</ele><time>2015-01-07T08:49:35.087Z</time></trkpt>
	<trkpt lat="52.218280" lon="10.510559"><ele>78</ele><time>2015-01-07T08:49:36.102Z</time></trkpt>
	<trkpt lat="52.218140" lon="10.510564"><ele>78</ele><time>2015-01-07T08:49:37.102Z</time></trkpt>
	<trkpt lat="52.218007" lon="10.510569"><ele>78</ele><time>2015-01-07T08:49:38.108Z</time></trkpt>
	<trkpt lat="52.217873" lon="10.510585"><ele>77</ele><time>2015-01-07T08:49:39.109Z</time></trkpt>
	<trkpt lat="52.217749" lon="10.510621"><ele>77</ele><time>2015-01-07T08:49:40.089Z</time></trkpt>
	<trkpt lat="52.217621" lon="10.510683"><ele>78</ele><time>2015-01-07T08:49:41.089Z</time></trkpt>
	<trkpt lat="52.217504" lon="10.510771"><ele>78</ele><time>2015-01-07T08:49:42.089Z</time></trkpt>
	<trkpt lat="52.217396" lon="10.510881"><ele>78</ele><time>2015-01-07T08:49:43.091Z</time></trkpt>
	<trkpt lat="52.217283" lon="10.511002"><ele>78</ele><time>2015-01-07T08:49:44.089Z</time></trkpt>
	<trkpt lat="52.217177" lon="10.511138"><ele>77</ele><time>2015-01-07T08:49:45.082Z</time></trkpt>
	<trkpt lat="52.217067" lon="10.511287"><ele>77</ele><time>2015-01-07T08:49:46.082Z</time></trkpt>
	<trkpt lat="52.216953" lon="10.511442"><ele>77</ele><time>2015-01-07T08:49:47.087Z</time></trkpt>
	<trkpt lat="52.216842" lon="10.511596"><ele>77</ele><time>2015-01-07T08:49:48.087Z</time></trkpt>
	<trkpt lat="52.216729" lon="10.511753"><ele>77</ele><time>2015-01-07T08:49:49.076Z</time></trkpt>
	<trkpt lat="52.216625" lon="10.511896"><ele>77</ele><time>2015-01-07T08:49:50.097Z</time></trkpt>
	<trkpt lat="52.216516" lon="10.512047"><ele>77</ele><time>2015-01-07T08:49:51.098Z</time></trkpt>
	<trkpt lat="52.216410" lon="10.512197"><ele>77</ele><time>2015-01-07T08:49:52.080Z</time></trkpt>
	<trkpt lat="52.216303" lon="10.512344"><ele>77</ele><time>2015-01-07T08:49:53.088Z</time></trkpt>
	<trkpt lat="52.216228" lon="10.512534"><ele>77</ele><time>2015-01-07T08:49:54.075Z</time></trkpt>
	<trkpt lat="52.216130" lon="10.512669"><ele>77</ele><time>2015-01-07T08:49:55.067Z</time></trkpt>
	<trkpt lat="52.216019" lon="10.512816"><ele>77</ele><time>2015-01-07T08:49:56.063Z</time></trkpt>
	<trkpt lat="52.215924" lon="10.512945"><ele>77</ele><time>2015-01-07T08:49:57.062Z</time></trkpt>
	<trkpt lat="52.215835" lon="10.513107"><ele>77</ele><time>2015-01-07T08:49:58.063Z</time></trkpt>
	<trkpt lat="52.215759" lon="10.513277"><ele>77</ele><time>2015-01-07T08:49:59.064Z</time></trkpt>
	<trkpt lat="52.215682" lon="10.513455"><ele>77</ele><time>2015-01-07T08:50:00.070Z</time></trkpt>
	<trkpt lat="52.215609" lon="10.513627"><ele>77</ele><time>2015-01-07T08:50:01.063Z</time></trkpt>
	<trkpt lat="52.215530" lon="10.513810"><ele>77</ele><time>2015-01-07T08:50:02.061Z</time></trkpt>
	<trkpt lat="52.215456" lon="10.513983"><ele>77</ele><time>2015-01-07T08:50:03.066Z</time></trkpt>
	<trkpt lat="52.215384" lon="10.514150"><ele>77</ele><time>2015-01-07T08:50:04.066Z</time></trkpt>
	<trkpt lat="52.215327" lon="10.514283"><ele>77</ele><time>2015-01-07T08:50:05.063Z</time></trkpt>
	<trkpt lat="52.215236" lon="10.514497"><ele>77</ele><time>2015-01-07T08:50:06.064Z</time></trkpt>
	<trkpt lat="52.215163" lon="10.514669"><ele>77</ele><time>2015-01-07T08:50:07.065Z</time></trkpt>
	<trkpt lat="52.215092" lon="10.514837"><ele>77</ele><time>2015-01-07T08:50:08.065Z</time></trkpt>
	<trkpt lat="52.215019" lon="10.515009"><ele>78</ele><time>2015-01-07T08:50:09.068Z</time></trkpt>
	<trkpt lat="52.214950" lon="10.515173"><ele>77</ele><time>2015-01-07T08:50:10.092Z</time></trkpt>
	<trkpt lat="52.214874" lon="10.515354"><ele>78</ele><time>2015-01-07T08:50:11.114Z</time></trkpt>
	<trkpt lat="52.214799" lon="10.515530"><ele>77</ele><time>2015-01-07T08:50:12.162Z</time></trkpt>
	<trkpt lat="52.214725" lon="10.515707"><ele>77</ele><time>2015-01-07T08:50:13.157Z</time></trkpt>
	<trkpt lat="52.214642" lon="10.515903"><ele>77</ele><time>2015-01-07T08:50:14.143Z</time></trkpt>
	<trkpt lat="52.214572" lon="10.516070"><ele>77</ele><time>2015-01-07T08:50:15.097Z</time></trkpt>
	<trkpt lat="52.214499" lon="10.516242"><ele>77</ele><time>2015-01-07T08:50:16.116Z</time></trkpt>
	<trkpt lat="52.214428" lon="10.516411"><ele>77</ele><time>2015-01-07T08:50:17.123Z</time></trkpt>
	<trkpt lat="52.214359" lon="10.516574"><ele>76</ele><time>2015-01-07T08:50:18.111Z</time></trkpt>
	<trkpt lat="52.214295" lon="10.516727"><ele>76</ele><time>2015-01-07T08:50:19.112Z</time></trkpt>
	<trkpt lat="52.214236" lon="10.516867"><ele>76</ele><time>2015-01-07T08:50:20.103Z</time></trkpt>
	<trkpt lat="52.214187" lon="10.516985"><ele>76</ele><time>2015-01-07T08:50:21.102Z</time></trkpt>
	<trkpt lat="52.214138" lon="10.517105"><ele>76</ele><time>2015-01-07T08:50:22.103Z</time></trkpt>
	<trkpt lat="52.214080" lon="10.517197"><ele>76</ele><time>2015-01-07T08:50:23.107Z</time></trkpt>
	<trkpt lat="52.214020" lon="10.517281"><ele>76</ele><time>2015-01-07T08:50:24.109Z</time></trkpt>
	<trkpt lat="52.213964" lon="10.517356"><ele>76</ele><time>2015-01-07T08:50:25.079Z</time></trkpt>
	<trkpt lat="52.213905" lon="10.517429"><ele>76</ele><time>2015-01-07T08:50:26.092Z</time></trkpt>
	<trkpt lat="52.213841" lon="10.517509"><ele>77</ele><time>2015-01-07T08:50:27.082Z</time></trkpt>
	<trkpt lat="52.213777" lon="10.517590"><ele>77</ele><time>2015-01-07T08:50:28.078Z</time></trkpt>
	<trkpt lat="52.213714" lon="10.517669"><ele>77</ele><time>2015-01-07T08:50:29.082Z</time></trkpt>
	<trkpt lat="52.213652" lon="10.517747"><ele>77</ele><time>2015-01-07T08:50:30.090Z</time></trkpt>
	<trkpt lat="52.213581" lon="10.517836"><ele>77</ele><time>2015-01-07T08:50:31.113Z</time></trkpt>
	<trkpt lat="52.213518" lon="10.517914"><ele>77</ele><time>2015-01-07T08:50:32.091Z</time></trkpt>
	<trkpt lat="52.213454" lon="10.517995"><ele>77</ele><time>2015-01-07T08:50:33.075Z</time></trkpt>
	<trkpt lat="52.213390" lon="10.518075"><ele>77</ele><time>2015-01-07T08:50:34.093Z</time></trkpt>
	<trkpt lat="52.213320" lon="10.518163"><ele>77</ele><time>2015-01-07T08:50:35.100Z</time></trkpt>
	<trkpt lat="52.213251" lon="10.518250"><ele>77</ele><time>2015-01-07T08:50:36.096Z</time></trkpt>
	<trkpt lat="52.213188" lon="10.518328"><ele>78</ele><time>2015-01-07T08:50:37.093Z</time></trkpt>
	<trkpt lat="52.213124" lon="10.518408"><ele>77</ele><time>2015-01-07T08:50:38.092Z</time></trkpt>
	<trkpt lat="52.213104" lon="10.518433"><ele>78</ele><time>2015-01-07T08:50:39.084Z</time></trkpt>
	<trkpt lat="52.212996" lon="10.518566"><ele>78</ele><time>2015-01-07T08:50:40.093Z</time></trkpt>
	<trkpt lat="52.212935" lon="10.518640"><ele>78</ele><time>2015-01-07T08:50:41.108Z</time></trkpt>
	<trkpt lat="52.212874" lon="10.518715"><ele>78</ele><time>2015-01-07T08:50:42.126Z</time></trkpt>
	<trkpt lat="52.212811" lon="10.518792"><ele>78</ele><time>2015-01-07T08:50:43.126Z</time></trkpt>
	<trkpt lat="52.212761" lon="10.518853"><ele>78</ele><time>2015-01-07T08:50:44.123Z</time></trkpt>
	<trkpt lat="52.212727" lon="10.518895"><ele>77</ele><time>2015-01-07T08:50:45.112Z</time></trkpt>
	<trkpt lat="52.212708" lon="10.518918"><ele>77</ele><time>2015-01-07T08:50:46.105Z</time></trkpt>
	<trkpt lat="52.212702" lon="10.518925"><ele>77</ele><time>2015-01-07T08:50:47.107Z</time></trkpt>
	<trkpt lat="52.212707" lon="10.518920"><ele>77</ele><time>2015-01-07T08:50:48.092Z</time></trkpt>
	<trkpt lat="52.212710" lon="10.518915"><ele>77</ele><time>2015-01-07T08:50:49.091Z</time></trkpt>
	<trkpt lat="52.212706" lon="10.518920"><ele>77</ele><time>2015-01-07T08:50:53.090Z</time></trkpt>
	<trkpt lat="52.212689" lon="10.518941"><ele>78</ele><time>2015-01-07T08:50:54.089Z</time></trkpt>
	<trkpt lat="52.212685" lon="10.518945"><ele>78</ele><time>2015-01-07T08:50:55.106Z</time></trkpt>
	<trkpt lat="52.212625" lon="10.519021"><ele>78</ele><time>2015-01-07T08:50:56.105Z</time></trkpt>
	<trkpt lat="52.212587" lon="10.519068"><ele>78</ele><time>2015-01-07T08:50:57.106Z</time></trkpt>
	<trkpt lat="52.212549" lon="10.519115"><ele>78</ele><time>2015-01-07T08:50:58.110Z</time></trkpt>
	<trkpt lat="52.212513" lon="10.519160"><ele>78</ele><time>2015-01-07T08:50:59.112Z</time></trkpt>
	<trkpt lat="52.212477" lon="10.519205"><ele>78</ele><time>2015-01-07T08:51:00.117Z</time></trkpt>
	<trkpt lat="52.212442" lon="10.519249"><ele>78</ele><time>2015-01-07T08:51:01.117Z</time></trkpt>
	<trkpt lat="52.212408" lon="10.519292"><ele>78</ele><time>2015-01-07T08:51:02.118Z</time></trkpt>
	<trkpt lat="52.212375" lon="10.519333"><ele>78</ele><time>2015-01-07T08:51:03.148Z</time></trkpt>
	<trkpt lat="52.212338" lon="10.519379"><ele>78</ele><time>2015-01-07T08:51:04.148Z</time></trkpt>
	<trkpt lat="52.212302" lon="10.519424"><ele>78</ele><time>2015-01-07T08:51:05.120Z</time></trkpt>
	<trkpt lat="52.212273" lon="10.519460"><ele>77</ele><time>2015-01-07T08:51:06.146Z</time></trkpt>
	<trkpt lat="52.212256" lon="10.519481"><ele>77</ele><time>2015-01-07T08:51:07.146Z</time></trkpt>
	<trkpt lat="52.212239" lon="10.519503"><ele>77</ele><time>2015-01-07T08:51:08.144Z</time></trkpt>
	<trkpt lat="52.212215" lon="10.519532"><ele>78</ele><time>2015-01-07T08:51:09.148Z</time></trkpt>
	<trkpt lat="52.212180" lon="10.519577"><ele>78</ele><time>2015-01-07T08:51:10.147Z</time></trkpt>
	<trkpt lat="52.212137" lon="10.519630"><ele>78</ele><time>2015-01-07T08:51:11.144Z</time></trkpt>
	<trkpt lat="52.212092" lon="10.519687"><ele>78</ele><time>2015-01-07T08:51:12.182Z</time></trkpt>
	<trkpt lat="52.212043" lon="10.519748"><ele>78</ele><time>2015-01-07T08:51:13.172Z</time></trkpt>
	<trkpt lat="52.211995" lon="10.519808"><ele>78</ele><time>2015-01-07T08:51:14.111Z</time></trkpt>
	<trkpt lat="52.211950" lon="10.519864"><ele>77</ele><time>2015-01-07T08:51:15.111Z</time></trkpt>
	<trkpt lat="52.211906" lon="10.519918"><ele>77</ele><time>2015-01-07T08:51:16.154Z</time></trkpt>
	<trkpt lat="52.211862" lon="10.519973"><ele>77</ele><time>2015-01-07T08:51:17.179Z</time></trkpt>
	<trkpt lat="52.211814" lon="10.520033"><ele>77</ele><time>2015-01-07T08:51:18.162Z</time></trkpt>
	<trkpt lat="52.211766" lon="10.520092"><ele>77</ele><time>2015-01-07T08:51:19.173Z</time></trkpt>
	<trkpt lat="52.211724" lon="10.520144"><ele>77</ele><time>2015-01-07T08:51:20.219Z</time></trkpt>
	<trkpt lat="52.211684" lon="10.520194"><ele>77</ele><time>2015-01-07T08:51:21.190Z</time></trkpt>
	<trkpt lat="52.211642" lon="10.520246"><ele>77</ele><time>2015-01-07T08:51:22.194Z</time></trkpt>
	<trkpt lat="52.211598" lon="10.520300"><ele>77</ele><time>2015-01-07T08:51:23.214Z</time></trkpt>
	<trkpt lat="52.211554" lon="10.520355"><ele>77</ele><time>2015-01-07T08:51:24.200Z</time></trkpt>
	<trkpt lat="52.211503" lon="10.520418"><ele>77</ele><time>2015-01-07T08:51:25.188Z</time></trkpt>
	<trkpt lat="52.211447" lon="10.520485"><ele>77</ele><time>2015-01-07T08:51:26.164Z</time></trkpt>
	<trkpt lat="52.211389" lon="10.520555"><ele>77</ele><time>2015-01-07T08:51:27.134Z</time></trkpt>
	<trkpt lat="52.211328" lon="10.520628"><ele>77</ele><time>2015-01-07T08:51:28.170Z</time></trkpt>
	<trkpt lat="52.211266" lon="10.520694"><ele>77</ele><time>2015-01-07T08:51:29.211Z</time></trkpt>
	<trkpt lat="52.211198" lon="10.520766"><ele>77</ele><time>2015-01-07T08:51:30.208Z</time></trkpt>
	<trkpt lat="52.211125" lon="10.520839"><ele>77</ele><time>2015-01-07T08:51:31.190Z</time></trkpt>
	<trkpt lat="52.211055" lon="10.520910"><ele>77</ele><time>2015-01-07T08:51:32.193Z</time></trkpt>
	<trkpt lat="52.210995" lon="10.520970"><ele>77</ele><time>2015-01-07T08:51:33.181Z</time></trkpt>
	<trkpt lat="52.210907" lon="10.521042"><ele>77</ele><time>2015-01-07T08:51:34.140Z</time></trkpt>
	<trkpt lat="52.210833" lon="10.521102"><ele>77</ele><time>2015-01-07T08:51:35.188Z</time></trkpt>
	<trkpt lat="52.210763" lon="10.521158"><ele>77</ele><time>2015-01-07T08:51:36.205Z</time></trkpt>
	<trkpt lat="52.210699" lon="10.521210"><ele>77</ele><time>2015-01-07T08:51:37.171Z</time></trkpt>
	<trkpt lat="52.210636" lon="10.521257"><ele>77</ele><time>2015-01-07T08:51:38.204Z</time></trkpt>
	<trkpt lat="52.210579" lon="10.521300"><ele>77</ele><time>2015-01-07T08:51:39.223Z</time></trkpt>
	<trkpt lat="52.210531" lon="10.521336"><ele>77</ele><time>2015-01-07T08:51:40.167Z</time></trkpt>
	<trkpt lat="52.210492" lon="10.521365"><ele>77</ele><time>2015-01-07T08:51:41.146Z</time></trkpt>
	<trkpt lat="52.210459" lon="10.521389"><ele>77</ele><time>2015-01-07T08:51:42.172Z</time></trkpt>
	<trkpt lat="52.210435" lon="10.521407"><ele>77</ele><time>2015-01-07T08:51:43.170Z</time></trkpt>
	<trkpt lat="52.210418" lon="10.521419"><ele>77</ele><time>2015-01-07T08:51:44.161Z</time></trkpt>
	<trkpt lat="52.210400" lon="10.521433"><ele>77</ele><time>2015-01-07T08:51:45.187Z</time></trkpt>
	<trkpt lat="52.210371" lon="10.521454"><ele>77</ele><time>2015-01-07T08:51:46.198Z</time></trkpt>
	<trkpt lat="52.210333" lon="10.521483"><ele>77</ele><time>2015-01-07T08:51:47.203Z</time></trkpt>
	<trkpt lat="52.210293" lon="10.521512"><ele>77</ele><time>2015-01-07T08:51:48.176Z</time></trkpt>
	<trkpt lat="52.210295" lon="10.521511"><ele>78</ele><time>2015-01-07T08:51:50.139Z</time></trkpt>
	<trkpt lat="52.210105" lon="10.521572"><ele>78</ele><time>2015-01-07T08:51:51.158Z</time></trkpt>
	<trkpt lat="52.210032" lon="10.521609"><ele>78</ele><time>2015-01-07T08:51:52.193Z</time></trkpt>
	<trkpt lat="52.209950" lon="10.521654"><ele>78</ele><time>2015-01-07T08:51:53.194Z</time></trkpt>
	<trkpt lat="52.209866" lon="10.521699"><ele>78</ele><time>2015-01-07T08:51:54.164Z</time></trkpt>
	<trkpt lat="52.209780" lon="10.521750"><ele>78</ele><time>2015-01-07T08:51:55.172Z</time></trkpt>
	<trkpt lat="52.209698" lon="10.521804"><ele>78</ele><time>2015-01-07T08:51:56.189Z</time></trkpt>
	<trkpt lat="52.209622" lon="10.521863"><ele>78</ele><time>2015-01-07T08:51:57.173Z</time></trkpt>
	<trkpt lat="52.209541" lon="10.521930"><ele>78</ele><time>2015-01-07T08:51:58.186Z</time></trkpt>
	<trkpt lat="52.209460" lon="10.522006"><ele>78</ele><time>2015-01-07T08:51:59.150Z</time></trkpt>
	<trkpt lat="52.209379" lon="10.522081"><ele>78</ele><time>2015-01-07T08:52:00.130Z</time></trkpt>
	<trkpt lat="52.209299" lon="10.522155"><ele>78</ele><time>2015-01-07T08:52:01.157Z</time></trkpt>
	<trkpt lat="52.209240" lon="10.522210"><ele>78</ele><time>2015-01-07T08:52:02.191Z</time></trkpt>
	<trkpt lat="52.209135" lon="10.522277"><ele>78</ele><time>2015-01-07T08:52:03.182Z</time></trkpt>
	<trkpt lat="52.209049" lon="10.522329"><ele>78</ele><time>2015-01-07T08:52:04.174Z</time></trkpt>
	<trkpt lat="52.208961" lon="10.522369"><ele>78</ele><time>2015-01-07T08:52:05.178Z</time></trkpt>
	<trkpt lat="52.208904" lon="10.522385"><ele>77</ele><time>2015-01-07T08:52:06.159Z</time></trkpt>
	<trkpt lat="52.208832" lon="10.522390"><ele>77</ele><time>2015-01-07T08:52:07.161Z</time></trkpt>
	<trkpt lat="52.208775" lon="10.522389"><ele>78</ele><time>2015-01-07T08:52:08.209Z</time></trkpt>
	<trkpt lat="52.208715" lon="10.522387"><ele>78</ele><time>2015-01-07T08:52:09.210Z</time></trkpt>
	<trkpt lat="52.208660" lon="10.522386"><ele>77</ele><time>2015-01-07T08:52:10.210Z</time></trkpt>
	<trkpt lat="52.208605" lon="10.522385"><ele>77</ele><time>2015-01-07T08:52:11.200Z</time></trkpt>
	<trkpt lat="52.208572" lon="10.522385"><ele>77</ele><time>2015-01-07T08:52:12.214Z</time></trkpt>
	<trkpt lat="52.208512" lon="10.522385"><ele>77</ele><time>2015-01-07T08:52:13.181Z</time></trkpt>
	<trkpt lat="52.208475" lon="10.522386"><ele>77</ele><time>2015-01-07T08:52:14.118Z</time></trkpt>
	<trkpt lat="52.208452" lon="10.522386"><ele>77</ele><time>2015-01-07T08:52:15.130Z</time></trkpt>
	<trkpt lat="52.208429" lon="10.522386"><ele>77</ele><time>2015-01-07T08:52:16.108Z</time></trkpt>
	<trkpt lat="52.208414" lon="10.522386"><ele>77</ele><time>2015-01-07T08:52:17.109Z</time></trkpt>
	<trkpt lat="52.208413" lon="10.522386"><ele>76</ele><time>2015-01-07T08:52:18.130Z</time></trkpt>
	<trkpt lat="52.208408" lon="10.522386"><ele>77</ele><time>2015-01-07T08:52:24.104Z</time></trkpt>
	<trkpt lat="52.208405" lon="10.522386"><ele>77</ele><time>2015-01-07T08:52:25.097Z</time></trkpt>
	<trkpt lat="52.208395" lon="10.522387"><ele>77</ele><time>2015-01-07T08:52:26.106Z</time></trkpt>
	<trkpt lat="52.208383" lon="10.522388"><ele>77</ele><time>2015-01-07T08:52:27.104Z</time></trkpt>
	<trkpt lat="52.208375" lon="10.522388"><ele>77</ele><time>2015-01-07T08:52:28.094Z</time></trkpt>
	<trkpt lat="52.208404" lon="10.522386"><ele>77</ele><time>2015-01-07T08:52:29.097Z</time></trkpt>
	<trkpt lat="52.208401" lon="10.522386"><ele>77</ele><time>2015-01-07T08:52:30.099Z</time></trkpt>
	<trkpt lat="52.208401" lon="10.522386"><ele>77</ele><time>2015-01-07T08:52:35.095Z</time></trkpt>
	<trkpt lat="52.208399" lon="10.522386"><ele>77</ele><time>2015-01-07T08:52:36.127Z</time></trkpt>
	<trkpt lat="52.208394" lon="10.522387"><ele>77</ele><time>2015-01-07T08:52:37.137Z</time></trkpt>
	<trkpt lat="52.208388" lon="10.522387"><ele>77</ele><time>2015-01-07T08:52:38.115Z</time></trkpt>
	<trkpt lat="52.208391" lon="10.522387"><ele>77</ele><time>2015-01-07T08:52:39.094Z</time></trkpt>
	<trkpt lat="52.208399" lon="10.522386"><ele>77</ele><time>2015-01-07T08:52:40.092Z</time></trkpt>
	<trkpt lat="52.208404" lon="10.522386"><ele>77</ele><time>2015-01-07T08:52:41.109Z</time></trkpt>
	<trkpt lat="52.208413" lon="10.522386"><ele>77</ele><time>2015-01-07T08:52:42.087Z</time></trkpt>
	<trkpt lat="52.208426" lon="10.522386"><ele>77</ele><time>2015-01-07T08:52:43.085Z</time></trkpt>
	<trkpt lat="52.208441" lon="10.522380"><ele>77</ele><time>2015-01-07T08:52:44.124Z</time></trkpt>
	<trkpt lat="52.208465" lon="10.522386"><ele>77</ele><time>2015-01-07T08:52:45.106Z</time></trkpt>
	<trkpt lat="52.208474" lon="10.522385"><ele>77</ele><time>2015-01-07T08:52:48.087Z</time></trkpt>
	<trkpt lat="52.208488" lon="10.522385"><ele>77</ele><time>2015-01-07T08:52:49.085Z</time></trkpt>
	<trkpt lat="52.208492" lon="10.522381"><ele>77</ele><time>2015-01-07T08:52:50.083Z</time></trkpt>
	<trkpt lat="52.208501" lon="10.522385"><ele>77</ele><time>2015-01-07T08:52:51.105Z</time></trkpt>
	<trkpt lat="52.208513" lon="10.522380"><ele>77</ele><time>2015-01-07T08:52:52.116Z</time></trkpt>
	<trkpt lat="52.208520" lon="10.522382"><ele>78</ele><time>2015-01-07T08:52:53.088Z</time></trkpt>
	<trkpt lat="52.208525" lon="10.522385"><ele>78</ele><time>2015-01-07T08:52:54.081Z</time></trkpt>
	<trkpt lat="52.208520" lon="10.522385"><ele>78</ele><time>2015-01-07T08:52:56.099Z</time></trkpt>
	<trkpt lat="52.208503" lon="10.522385"><ele>77</ele><time>2015-01-07T08:52:57.091Z</time></trkpt>
	<trkpt lat="52.208491" lon="10.522385"><ele>78</ele><time>2015-01-07T08:52:58.079Z</time></trkpt>
	<trkpt lat="52.208478" lon="10.522386"><ele>77</ele><time>2015-01-07T08:52:59.077Z</time></trkpt>
	<trkpt lat="52.208471" lon="10.522386"><ele>78</ele><time>2015-01-07T08:53:00.080Z</time></trkpt>
	<trkpt lat="52.208468" lon="10.522386"><ele>78</ele><time>2015-01-07T08:53:01.087Z</time></trkpt>
	<trkpt lat="52.208471" lon="10.522386"><ele>78</ele><time>2015-01-07T08:53:05.111Z</time></trkpt>
	<trkpt lat="52.208477" lon="10.522365"><ele>78</ele><time>2015-01-07T08:53:06.098Z</time></trkpt>
	<trkpt lat="52.208124" lon="10.522307"><ele>78</ele><time>2015-01-07T08:53:07.084Z</time></trkpt>
	<trkpt lat="52.208473" lon="10.522143"><ele>78</ele><time>2015-01-07T08:53:08.107Z</time></trkpt>
	<trkpt lat="52.208472" lon="10.522132"><ele>77</ele><time>2015-01-07T08:53:09.113Z</time></trkpt>
	<trkpt lat="52.208473" lon="10.522121"><ele>78</ele><time>2015-01-07T08:53:10.106Z</time></trkpt>
	<trkpt lat="52.208479" lon="10.522118"><ele>77</ele><time>2015-01-07T08:53:12.080Z</time></trkpt>
	<trkpt lat="52.208487" lon="10.522119"><ele>77</ele><time>2015-01-07T08:53:13.111Z</time></trkpt>
	<trkpt lat="52.208493" lon="10.522123"><ele>77</ele><time>2015-01-07T08:53:14.109Z</time></trkpt>
	<trkpt lat="52.208510" lon="10.522125"><ele>77</ele><time>2015-01-07T08:53:15.108Z</time></trkpt>
	<trkpt lat="52.208532" lon="10.522120"><ele>77</ele><time>2015-01-07T08:53:16.122Z</time></trkpt>
	<trkpt lat="52.208543" lon="10.522115"><ele>77</ele><time>2015-01-07T08:53:17.108Z</time></trkpt>
	<trkpt lat="52.208548" lon="10.522108"><ele>77</ele><time>2015-01-07T08:53:18.093Z</time></trkpt>
	<trkpt lat="52.208552" lon="10.522107"><ele>77</ele><time>2015-01-07T08:53:19.069Z</time></trkpt>
	<trkpt lat="52.208556" lon="10.522111"><ele>77</ele><time>2015-01-07T08:53:20.097Z</time></trkpt>
	<trkpt lat="52.208559" lon="10.522120"><ele>78</ele><time>2015-01-07T08:53:21.088Z</time></trkpt>
	<trkpt lat="52.208555" lon="10.522128"><ele>77</ele><time>2015-01-07T08:53:22.065Z</time></trkpt>
	<trkpt lat="52.208549" lon="10.522144"><ele>77</ele><time>2015-01-07T08:53:23.075Z</time></trkpt>
	<trkpt lat="52.208542" lon="10.522144"><ele>77</ele><time>2015-01-07T08:53:25.083Z</time></trkpt>
	<trkpt lat="52.208540" lon="10.522133"><ele>77</ele><time>2015-01-07T08:53:26.089Z</time></trkpt>
	<trkpt lat="52.208538" lon="10.522119"><ele>77</ele><time>2015-01-07T08:53:27.096Z</time></trkpt>
	<trkpt lat="52.208540" lon="10.522105"><ele>77</ele><time>2015-01-07T08:53:28.079Z</time></trkpt>
	<trkpt lat="52.208545" lon="10.522091"><ele>77</ele><time>2015-01-07T08:53:29.075Z</time></trkpt>
	<trkpt lat="52.208551" lon="10.522079"><ele>77</ele><time>2015-01-07T08:53:30.074Z</time></trkpt>
	<trkpt lat="52.208561" lon="10.522068"><ele>78</ele><time>2015-01-07T08:53:31.064Z</time></trkpt>
	<trkpt lat="52.208572" lon="10.522058"><ele>78</ele><time>2015-01-07T08:53:32.065Z</time></trkpt>
	<trkpt lat="52.208581" lon="10.522049"><ele>78</ele><time>2015-01-07T08:53:33.064Z</time></trkpt>
	<trkpt lat="52.208589" lon="10.522043"><ele>78</ele><time>2015-01-07T08:53:34.082Z</time></trkpt>
	<trkpt lat="52.208597" lon="10.522036"><ele>79</ele><time>2015-01-07T08:53:35.061Z</time></trkpt>
	<trkpt lat="52.208606" lon="10.522032"><ele>78</ele><time>2015-01-07T08:53:36.063Z</time></trkpt>
	<trkpt lat="52.208608" lon="10.522042"><ele>78</ele><time>2015-01-07T08:53:38.064Z</time></trkpt>
	<trkpt lat="52.208610" lon="10.522057"><ele>78</ele><time>2015-01-07T08:53:39.064Z</time></trkpt>
	<trkpt lat="52.208610" lon="10.522072"><ele>78</ele><time>2015-01-07T08:53:40.062Z</time></trkpt>
	<trkpt lat="52.208613" lon="10.522087"><ele>79</ele><time>2015-01-07T08:53:41.064Z</time></trkpt>
	<trkpt lat="52.208608" lon="10.522097"><ele>78</ele><time>2015-01-07T08:53:44.064Z</time></trkpt>
	<trkpt lat="52.208601" lon="10.522102"><ele>78</ele><time>2015-01-07T08:53:45.064Z</time></trkpt>
	<trkpt lat="52.208600" lon="10.522108"><ele>78</ele><time>2015-01-07T08:53:46.065Z</time></trkpt>
	<trkpt lat="52.208606" lon="10.522119"><ele>79</ele><time>2015-01-07T08:53:47.065Z</time></trkpt>
	<trkpt lat="52.208627" lon="10.522130"><ele>78</ele><time>2015-01-07T08:53:48.074Z</time></trkpt>
	<trkpt lat="52.208650" lon="10.522133"><ele>78</ele><time>2015-01-07T08:53:49.078Z</time></trkpt>
	<trkpt lat="52.208675" lon="10.522128"><ele>78</ele><time>2015-01-07T08:53:50.078Z</time></trkpt>
	<trkpt lat="52.208694" lon="10.522123"><ele>78</ele><time>2015-01-07T08:53:51.077Z</time></trkpt>
	<trkpt lat="52.208711" lon="10.522113"><ele>78</ele><time>2015-01-07T08:53:52.076Z</time></trkpt>
	<trkpt lat="52.208722" lon="10.522118"><ele>78</ele><time>2015-01-07T08:53:53.076Z</time></trkpt>
	<trkpt lat="52.208727" lon="10.522144"><ele>78</ele><time>2015-01-07T08:53:54.078Z</time></trkpt>
	<trkpt lat="52.208723" lon="10.522179"><ele>78</ele><time>2015-01-07T08:53:55.078Z</time></trkpt>
	<trkpt lat="52.208710" lon="10.522203"><ele>78</ele><time>2015-01-07T08:53:56.078Z</time></trkpt>
	<trkpt lat="52.208699" lon="10.522218"><ele>78</ele><time>2015-01-07T08:53:57.078Z</time></trkpt>
	<trkpt lat="52.208691" lon="10.522215"><ele>78</ele><time>2015-01-07T08:53:58.078Z</time></trkpt>
	<trkpt lat="52.208681" lon="10.522205"><ele>78</ele><time>2015-01-07T08:53:59.078Z</time></trkpt>
	<trkpt lat="52.208667" lon="10.522195"><ele>79</ele><time>2015-01-07T08:54:00.077Z</time></trkpt>
	<trkpt lat="52.208654" lon="10.522184"><ele>79</ele><time>2015-01-07T08:54:01.078Z</time></trkpt>
	<trkpt lat="52.208639" lon="10.522176"><ele>78</ele><time>2015-01-07T08:54:02.078Z</time></trkpt>
	<trkpt lat="52.208626" lon="10.522168"><ele>78</ele><time>2015-01-07T08:54:03.069Z</time></trkpt>
	<trkpt lat="52.208615" lon="10.522160"><ele>79</ele><time>2015-01-07T08:54:04.069Z</time></trkpt>
	<trkpt lat="52.208607" lon="10.522157"><ele>78</ele><time>2015-01-07T08:54:05.076Z</time></trkpt>
	<trkpt lat="52.208599" lon="10.522161"><ele>78</ele><time>2015-01-07T08:54:06.078Z</time></trkpt>
	<trkpt lat="52.208572" lon="10.522180"><ele>78</ele><time>2015-01-07T08:54:07.078Z</time></trkpt>
	<trkpt lat="52.208536" lon="10.522209"><ele>77</ele><time>2015-01-07T08:54:08.078Z</time></trkpt>
	<trkpt lat="52.208504" lon="10.522235"><ele>77</ele><time>2015-01-07T08:54:09.078Z</time></trkpt>
	<trkpt lat="52.208487" lon="10.522214"><ele>77</ele><time>2015-01-07T08:54:10.080Z</time></trkpt>
	<trkpt lat="52.208493" lon="10.522183"><ele>77</ele><time>2015-01-07T08:54:11.083Z</time></trkpt>
	<trkpt lat="52.208503" lon="10.522148"><ele>77</ele><time>2015-01-07T08:54:12.083Z</time></trkpt>
	<trkpt lat="52.208510" lon="10.522113"><ele>77</ele><time>2015-01-07T08:54:13.082Z</time></trkpt>
	<trkpt lat="52.208517" lon="10.522083"><ele>77</ele><time>2015-01-07T08:54:14.084Z</time></trkpt>
	<trkpt lat="52.208516" lon="10.522067"><ele>77</ele><time>2015-01-07T08:54:15.088Z</time></trkpt>
	<trkpt lat="52.208510" lon="10.522055"><ele>77</ele><time>2015-01-07T08:54:16.097Z</time></trkpt>
	<trkpt lat="52.208505" lon="10.522044"><ele>77</ele><time>2015-01-07T08:54:17.095Z</time></trkpt>
	<trkpt lat="52.208500" lon="10.522036"><ele>77</ele><time>2015-01-07T08:54:18.095Z</time></trkpt>
	<trkpt lat="52.208492" lon="10.522030"><ele>77</ele><time>2015-01-07T08:54:19.095Z</time></trkpt>
	<trkpt lat="52.208481" lon="10.522022"><ele>77</ele><time>2015-01-07T08:54:20.095Z</time></trkpt>
	<trkpt lat="52.208466" lon="10.522017"><ele>77</ele><time>2015-01-07T08:54:21.095Z</time></trkpt>
	<trkpt lat="52.208454" lon="10.522017"><ele>77</ele><time>2015-01-07T08:54:22.095Z</time></trkpt>
	<trkpt lat="52.208443" lon="10.522024"><ele>77</ele><time>2015-01-07T08:54:23.098Z</time></trkpt>
	<trkpt lat="52.208434" lon="10.522033"><ele>77</ele><time>2015-01-07T08:54:24.098Z</time></trkpt>
	<trkpt lat="52.208427" lon="10.522045"><ele>77</ele><time>2015-01-07T08:54:25.097Z</time></trkpt>
	<trkpt lat="52.208422" lon="10.522056"><ele>77</ele><time>2015-01-07T08:54:26.095Z</time></trkpt>
	<trkpt lat="52.208416" lon="10.522076"><ele>77</ele><time>2015-01-07T08:54:27.082Z</time></trkpt>
	<trkpt lat="52.208411" lon="10.522092"><ele>77</ele><time>2015-01-07T08:54:28.081Z</time></trkpt>
	<trkpt lat="52.208408" lon="10.522106"><ele>77</ele><time>2015-01-07T08:54:29.097Z</time></trkpt>
	<trkpt lat="52.208407" lon="10.522127"><ele>77</ele><time>2015-01-07T08:54:30.093Z</time></trkpt>
	<trkpt lat="52.208403" lon="10.522148"><ele>77</ele><time>2015-01-07T08:54:31.084Z</time></trkpt>
	<trkpt lat="52.208402" lon="10.522165"><ele>77</ele><time>2015-01-07T08:54:32.104Z</time></trkpt>
	<trkpt lat="52.208405" lon="10.522177"><ele>77</ele><time>2015-01-07T08:54:33.104Z</time></trkpt>
	<trkpt lat="52.208407" lon="10.522188"><ele>77</ele><time>2015-01-07T08:54:34.078Z</time></trkpt>
	<trkpt lat="52.208410" lon="10.522196"><ele>77</ele><time>2015-01-07T08:54:35.080Z</time></trkpt>
	<trkpt lat="52.208412" lon="10.522204"><ele>77</ele><time>2015-01-07T08:54:36.084Z</time></trkpt>
	<trkpt lat="52.208414" lon="10.522217"><ele>77</ele><time>2015-01-07T08:54:38.093Z</time></trkpt>
	<trkpt lat="52.208421" lon="10.522222"><ele>77</ele><time>2015-01-07T08:54:39.090Z</time></trkpt>
	<trkpt lat="52.208427" lon="10.522222"><ele>77</ele><time>2015-01-07T08:54:40.092Z</time></trkpt>
	<trkpt lat="52.208435" lon="10.522220"><ele>77</ele><time>2015-01-07T08:54:41.115Z</time></trkpt>
	<trkpt lat="52.208443" lon="10.522227"><ele>77</ele><time>2015-01-07T08:54:42.120Z</time></trkpt>
	<trkpt lat="52.208450" lon="10.522233"><ele>77</ele><time>2015-01-07T08:54:43.115Z</time></trkpt>
	<trkpt lat="52.208458" lon="10.522240"><ele>77</ele><time>2015-01-07T08:54:44.086Z</time></trkpt>
	<trkpt lat="52.208466" lon="10.522244"><ele>77</ele><time>2015-01-07T08:54:45.087Z</time></trkpt>
	<trkpt lat="52.208469" lon="10.522251"><ele>77</ele><time>2015-01-07T08:54:46.120Z</time></trkpt>
	<trkpt lat="52.208461" lon="10.522263"><ele>77</ele><time>2015-01-07T08:54:47.100Z</time></trkpt>
	<trkpt lat="52.208445" lon="10.522273"><ele>77</ele><time>2015-01-07T08:54:48.086Z</time></trkpt>
	<trkpt lat="52.208432" lon="10.522282"><ele>77</ele><time>2015-01-07T08:54:49.097Z</time></trkpt>
	<trkpt lat="52.208424" lon="10.522292"><ele>77</ele><time>2015-01-07T08:54:50.097Z</time></trkpt>
	<trkpt lat="52.208423" lon="10.522305"><ele>78</ele><time>2015-01-07T08:54:57.091Z</time></trkpt>
	<trkpt lat="52.208422" lon="10.522307"><ele>78</ele><time>2015-01-07T08:54:58.119Z</time></trkpt>
	<trkpt lat="52.208413" lon="10.522313"><ele>77</ele><time>2015-01-07T08:54:59.124Z</time></trkpt>
	<trkpt lat="52.208402" lon="10.522320"><ele>77</ele><time>2015-01-07T08:55:00.123Z</time></trkpt>
	<trkpt lat="52.208393" lon="10.522327"><ele>77</ele><time>2015-01-07T08:55:01.093Z</time></trkpt>
	<trkpt lat="52.208393" lon="10.522327"><ele>78</ele><time>2015-01-07T08:55:28.090Z</time></trkpt>
	<trkpt lat="52.208395" lon="10.522370"><ele>78</ele><time>2015-01-07T08:55:29.097Z</time></trkpt>
	<trkpt lat="52.208406" lon="10.522370"><ele>78</ele><time>2015-01-07T08:55:30.086Z</time></trkpt>
	<trkpt lat="52.208429" lon="10.522352"><ele>78</ele><time>2015-01-07T08:55:31.074Z</time></trkpt>
	<trkpt lat="52.208442" lon="10.522335"><ele>77</ele><time>2015-01-07T08:55:32.068Z</time></trkpt>
	<trkpt lat="52.208442" lon="10.522335"><ele>78</ele><time>2015-01-07T08:55:33.096Z</time></trkpt>
	<trkpt lat="52.208439" lon="10.522349"><ele>78</ele><time>2015-01-07T08:55:34.061Z</time></trkpt>
	<trkpt lat="52.208442" lon="10.522350"><ele>77</ele><time>2015-01-07T08:55:38.083Z</time></trkpt>
	<trkpt lat="52.208452" lon="10.522357"><ele>77</ele><time>2015-01-07T08:55:39.082Z</time></trkpt>
	<trkpt lat="52.208450" lon="10.522361"><ele>78</ele><time>2015-01-07T08:55:40.079Z</time></trkpt>
	<trkpt lat="52.208444" lon="10.522368"><ele>78</ele><time>2015-01-07T08:55:41.074Z</time></trkpt>
	<trkpt lat="52.208438" lon="10.522374"><ele>78</ele><time>2015-01-07T08:55:43.068Z</time></trkpt>
	<trkpt lat="52.208432" lon="10.522373"><ele>78</ele><time>2015-01-07T08:55:44.076Z</time></trkpt>
	<trkpt lat="52.208429" lon="10.522360"><ele>78</ele><time>2015-01-07T08:55:46.075Z</time></trkpt>
	<trkpt lat="52.208427" lon="10.522358"><ele>78</ele><time>2015-01-07T08:55:47.070Z</time></trkpt>
	<trkpt lat="52.208430" lon="10.522364"><ele>78</ele><time>2015-01-07T08:55:48.067Z</time></trkpt>
	<trkpt lat="52.208435" lon="10.522372"><ele>78</ele><time>2015-01-07T08:55:49.154Z</time></trkpt>
	<trkpt lat="52.208436" lon="10.522378"><ele>78</ele><time>2015-01-07T08:55:57.071Z</time></trkpt>
	<trkpt lat="52.208417" lon="10.522349"><ele>78</ele><time>2015-01-07T08:55:58.070Z</time></trkpt>
	<trkpt lat="52.208413" lon="10.522342"><ele>77</ele><time>2015-01-07T08:56:20.081Z</time></trkpt>
	<trkpt lat="52.208407" lon="10.522344"><ele>77</ele><time>2015-01-07T08:56:21.105Z</time></trkpt>
	<trkpt lat="52.208397" lon="10.522350"><ele>77</ele><time>2015-01-07T08:56:22.084Z</time></trkpt>
	<trkpt lat="52.208376" lon="10.522359"><ele>77</ele><time>2015-01-07T08:56:23.086Z</time></trkpt>
	<trkpt lat="52.208344" lon="10.522391"><ele>78</ele><time>2015-01-07T08:56:24.091Z</time></trkpt>
	<trkpt lat="52.208308" lon="10.522393"><ele>77</ele><time>2015-01-07T08:56:25.086Z</time></trkpt>
	<trkpt lat="52.208273" lon="10.522396"><ele>77</ele><time>2015-01-07T08:56:26.084Z</time></trkpt>
	<trkpt lat="52.208246" lon="10.522398"><ele>77</ele><time>2015-01-07T08:56:27.083Z</time></trkpt>
	<trkpt lat="52.208223" lon="10.522356"><ele>77</ele><time>2015-01-07T08:56:28.082Z</time></trkpt>
	<trkpt lat="52.208205" lon="10.522361"><ele>77</ele><time>2015-01-07T08:56:29.074Z</time></trkpt>
	<trkpt lat="52.208195" lon="10.522369"><ele>77</ele><time>2015-01-07T08:56:30.077Z</time></trkpt>
	<trkpt lat="52.208202" lon="10.522394"><ele>77</ele><time>2015-01-07T08:56:31.086Z</time></trkpt>
	<trkpt lat="52.208210" lon="10.522406"><ele>77</ele><time>2015-01-07T08:56:32.109Z</time></trkpt>
	<trkpt lat="52.208210" lon="10.522406"><ele>76</ele><time>2015-01-07T08:56:33.108Z</time></trkpt>
	<trkpt lat="52.208224" lon="10.522403"><ele>77</ele><time>2015-01-07T08:56:34.106Z</time></trkpt>
	<trkpt lat="52.208226" lon="10.522395"><ele>76</ele><time>2015-01-07T08:56:35.099Z</time></trkpt>
	<trkpt lat="52.208233" lon="10.522378"><ele>76</ele><time>2015-01-07T08:56:36.095Z</time></trkpt>
	<trkpt lat="52.208243" lon="10.522367"><ele>77</ele><time>2015-01-07T08:56:37.092Z</time></trkpt>
	<trkpt lat="52.208238" lon="10.522371"><ele>77</ele><time>2015-01-07T08:56:42.094Z</time></trkpt>
	<trkpt lat="52.208261" lon="10.522389"><ele>77</ele><time>2015-01-07T08:56:43.096Z</time></trkpt>
	<trkpt lat="52.208290" lon="10.522397"><ele>77</ele><time>2015-01-07T08:56:44.094Z</time></trkpt>
	<trkpt lat="52.208316" lon="10.522395"><ele>77</ele><time>2015-01-07T08:56:45.098Z</time></trkpt>
	<trkpt lat="52.208351" lon="10.522390"><ele>77</ele><time>2015-01-07T08:56:46.100Z</time></trkpt>
	<trkpt lat="52.208397" lon="10.522387"><ele>77</ele><time>2015-01-07T08:56:47.099Z</time></trkpt>
	<trkpt lat="52.208454" lon="10.522386"><ele>77</ele><time>2015-01-07T08:56:48.126Z</time></trkpt>
	<trkpt lat="52.208520" lon="10.522385"><ele>78</ele><time>2015-01-07T08:56:49.090Z</time></trkpt>
	<trkpt lat="52.208598" lon="10.522385"><ele>77</ele><time>2015-01-07T08:56:50.101Z</time></trkpt>
	<trkpt lat="52.208658" lon="10.522386"><ele>77</ele><time>2015-01-07T08:56:51.075Z</time></trkpt>
	<trkpt lat="52.208733" lon="10.522388"><ele>77</ele><time>2015-01-07T08:56:52.091Z</time></trkpt>
	<trkpt lat="52.208805" lon="10.522389"><ele>78</ele><time>2015-01-07T08:56:53.082Z</time></trkpt>
	<trkpt lat="52.208877" lon="10.522388"><ele>78</ele><time>2015-01-07T08:56:54.066Z</time></trkpt>
	<trkpt lat="52.208953" lon="10.522372"><ele>78</ele><time>2015-01-07T08:56:55.069Z</time></trkpt>
	<trkpt lat="52.209017" lon="10.522345"><ele>78</ele><time>2015-01-07T08:56:56.066Z</time></trkpt>
	<trkpt lat="52.209080" lon="10.522312"><ele>78</ele><time>2015-01-07T08:56:57.065Z</time></trkpt>
	<trkpt lat="52.209152" lon="10.522266"><ele>78</ele><time>2015-01-07T08:56:58.064Z</time></trkpt>
	<trkpt lat="52.209235" lon="10.522213"><ele>78</ele><time>2015-01-07T08:56:59.064Z</time></trkpt>
	<trkpt lat="52.209304" lon="10.522151"><ele>77</ele><time>2015-01-07T08:57:00.064Z</time></trkpt>
	<trkpt lat="52.209374" lon="10.522086"><ele>77</ele><time>2015-01-07T08:57:01.065Z</time></trkpt>
	<trkpt lat="52.209439" lon="10.522025"><ele>78</ele><time>2015-01-07T08:57:02.065Z</time></trkpt>
	<trkpt lat="52.209502" lon="10.521966"><ele>78</ele><time>2015-01-07T08:57:03.065Z</time></trkpt>
	<trkpt lat="52.209559" lon="10.521915"><ele>77</ele><time>2015-01-07T08:57:04.081Z</time></trkpt>
	<trkpt lat="52.209615" lon="10.521868"><ele>77</ele><time>2015-01-07T08:57:05.088Z</time></trkpt>
	<trkpt lat="52.209666" lon="10.521828"><ele>77</ele><time>2015-01-07T08:57:06.079Z</time></trkpt>
	<trkpt lat="52.209705" lon="10.521799"><ele>77</ele><time>2015-01-07T08:57:07.071Z</time></trkpt>
	<trkpt lat="52.209739" lon="10.521776"><ele>77</ele><time>2015-01-07T08:57:08.065Z</time></trkpt>
	<trkpt lat="52.209782" lon="10.521748"><ele>77</ele><time>2015-01-07T08:57:09.063Z</time></trkpt>
	<trkpt lat="52.209837" lon="10.521715"><ele>77</ele><time>2015-01-07T08:57:10.066Z</time></trkpt>
	<trkpt lat="52.209897" lon="10.521683"><ele>77</ele><time>2015-01-07T08:57:11.068Z</time></trkpt>
	<trkpt lat="52.209958" lon="10.521649"><ele>77</ele><time>2015-01-07T08:57:12.068Z</time></trkpt>
	<trkpt lat="52.210025" lon="10.521613"><ele>77</ele><time>2015-01-07T08:57:13.066Z</time></trkpt>
	<trkpt lat="52.210084" lon="10.521581"><ele>77</ele><time>2015-01-07T08:57:14.065Z</time></trkpt>
	<trkpt lat="52.210093" lon="10.521576"><ele>77</ele><time>2015-01-07T08:57:16.071Z</time></trkpt>
	<trkpt lat="52.210254" lon="10.521526"><ele>76</ele><time>2015-01-07T08:57:17.105Z</time></trkpt>
	<trkpt lat="52.210289" lon="10.521515"><ele>76</ele><time>2015-01-07T08:57:18.139Z</time></trkpt>
	<trkpt lat="52.210307" lon="10.521573"><ele>76</ele><time>2015-01-07T08:57:19.119Z</time></trkpt>
	<trkpt lat="52.210329" lon="10.521647"><ele>77</ele><time>2015-01-07T08:57:20.116Z</time></trkpt>
	<trkpt lat="52.210359" lon="10.521751"><ele>77</ele><time>2015-01-07T08:57:21.115Z</time></trkpt>
	<trkpt lat="52.210391" lon="10.521863"><ele>77</ele><time>2015-01-07T08:57:22.114Z</time></trkpt>
	<trkpt lat="52.210426" lon="10.521986"><ele>77</ele><time>2015-01-07T08:57:23.115Z</time></trkpt>
	<trkpt lat="52.210463" lon="10.522114"><ele>77</ele><time>2015-01-07T08:57:24.114Z</time></trkpt>
	<trkpt lat="52.210502" lon="10.522246"><ele>77</ele><time>2015-01-07T08:57:25.112Z</time></trkpt>
	<trkpt lat="52.210542" lon="10.522385"><ele>77</ele><time>2015-01-07T08:57:26.117Z</time></trkpt>
	<trkpt lat="52.210579" lon="10.522516"><ele>77</ele><time>2015-01-07T08:57:27.137Z</time></trkpt>
	<trkpt lat="52.210619" lon="10.522652"><ele>77</ele><time>2015-01-07T08:57:28.131Z</time></trkpt>
	<trkpt lat="52.210657" lon="10.522783"><ele>77</ele><time>2015-01-07T08:57:29.115Z</time></trkpt>
	<trkpt lat="52.210693" lon="10.522908"><ele>77</ele><time>2015-01-07T08:57:30.147Z</time></trkpt>
	<trkpt lat="52.210728" lon="10.523028"><ele>77</ele><time>2015-01-07T08:57:31.151Z</time></trkpt>
	<trkpt lat="52.210757" lon="10.523132"><ele>76</ele><time>2015-01-07T08:57:32.137Z</time></trkpt>
	<trkpt lat="52.210779" lon="10.523208"><ele>76</ele><time>2015-01-07T08:57:33.137Z</time></trkpt>
	<trkpt lat="52.210797" lon="10.523271"><ele>76</ele><time>2015-01-07T08:57:34.150Z</time></trkpt>
	<trkpt lat="52.210808" lon="10.523308"><ele>76</ele><time>2015-01-07T08:57:35.135Z</time></trkpt>
	<trkpt lat="52.210816" lon="10.523336"><ele>76</ele><time>2015-01-07T08:57:36.110Z</time></trkpt>
	<trkpt lat="52.210821" lon="10.523351"><ele>77</ele><time>2015-01-07T08:57:37.128Z</time></trkpt>
	<trkpt lat="52.210826" lon="10.523370"><ele>77</ele><time>2015-01-07T08:57:38.126Z</time></trkpt>
	<trkpt lat="52.210827" lon="10.523374"><ele>77</ele><time>2015-01-07T08:57:39.143Z</time></trkpt>
	<trkpt lat="52.210833" lon="10.523392"><ele>77</ele><time>2015-01-07T08:57:40.149Z</time></trkpt>
	<trkpt lat="52.210843" lon="10.523428"><ele>77</ele><time>2015-01-07T08:57:41.157Z</time></trkpt>
	<trkpt lat="52.210845" lon="10.523434"><ele>77</ele><time>2015-01-07T08:57:42.137Z</time></trkpt>
	<trkpt lat="52.210913" lon="10.523451"><ele>77</ele><time>2015-01-07T08:57:43.124Z</time></trkpt>
	<trkpt lat="52.210969" lon="10.523413"><ele>77</ele><time>2015-01-07T08:57:44.130Z</time></trkpt>
	<trkpt lat="52.211026" lon="10.523390"><ele>77</ele><time>2015-01-07T08:57:45.118Z</time></trkpt>
	<trkpt lat="52.211100" lon="10.523356"><ele>78</ele><time>2015-01-07T08:57:46.142Z</time></trkpt>
	<trkpt lat="52.211187" lon="10.523319"><ele>78</ele><time>2015-01-07T08:57:47.137Z</time></trkpt>
	<trkpt lat="52.211283" lon="10.523281"><ele>79</ele><time>2015-01-07T08:57:48.148Z</time></trkpt>
	<trkpt lat="52.211388" lon="10.523233"><ele>78</ele><time>2015-01-07T08:57:49.179Z</time></trkpt>
	<trkpt lat="52.211484" lon="10.523191"><ele>79</ele><time>2015-01-07T08:57:50.165Z</time></trkpt>
	<trkpt lat="52.211598" lon="10.523136"><ele>79</ele><time>2015-01-07T08:57:51.135Z</time></trkpt>
	<trkpt lat="52.211720" lon="10.523093"><ele>79</ele><time>2015-01-07T08:57:52.117Z</time></trkpt>
	<trkpt lat="52.211844" lon="10.523050"><ele>78</ele><time>2015-01-07T08:57:53.150Z</time></trkpt>
	<trkpt lat="52.211951" lon="10.523005"><ele>78</ele><time>2015-01-07T08:57:54.172Z</time></trkpt>
	<trkpt lat="52.212062" lon="10.522957"><ele>78</ele><time>2015-01-07T08:57:55.166Z</time></trkpt>
	<trkpt lat="52.212161" lon="10.522915"><ele>78</ele><time>2015-01-07T08:57:56.162Z</time></trkpt>
	<trkpt lat="52.212259" lon="10.522871"><ele>79</ele><time>2015-01-07T08:57:57.158Z</time></trkpt>
	<trkpt lat="52.212349" lon="10.522834"><ele>78</ele><time>2015-01-07T08:57:58.153Z</time></trkpt>
	<trkpt lat="52.212438" lon="10.522823"><ele>78</ele><time>2015-01-07T08:57:59.170Z</time></trkpt>
	<trkpt lat="52.212519" lon="10.522795"><ele>78</ele><time>2015-01-07T08:58:00.166Z</time></trkpt>
	<trkpt lat="52.212595" lon="10.522768"><ele>78</ele><time>2015-01-07T08:58:01.171Z</time></trkpt>
	<trkpt lat="52.212654" lon="10.522731"><ele>77</ele><time>2015-01-07T08:58:02.181Z</time></trkpt>
	<trkpt lat="52.212715" lon="10.522689"><ele>77</ele><time>2015-01-07T08:58:03.167Z</time></trkpt>
	<trkpt lat="52.212680" lon="10.522668"><ele>77</ele><time>2015-01-07T08:58:04.187Z</time></trkpt>
	<trkpt lat="52.212807" lon="10.522797"><ele>77</ele><time>2015-01-07T08:58:05.113Z</time></trkpt>
	<trkpt lat="52.212846" lon="10.522914"><ele>77</ele><time>2015-01-07T08:58:06.127Z</time></trkpt>
	<trkpt lat="52.212872" lon="10.523023"><ele>78</ele><time>2015-01-07T08:58:07.119Z</time></trkpt>
	<trkpt lat="52.212907" lon="10.523158"><ele>78</ele><time>2015-01-07T08:58:08.130Z</time></trkpt>
	<trkpt lat="52.212928" lon="10.523183"><ele>78</ele><time>2015-01-07T08:58:09.154Z</time></trkpt>
	<trkpt lat="52.212991" lon="10.523464"><ele>78</ele><time>2015-01-07T08:58:10.114Z</time></trkpt>
	<trkpt lat="52.213029" lon="10.523633"><ele>78</ele><time>2015-01-07T08:58:11.126Z</time></trkpt>
	<trkpt lat="52.213093" lon="10.523842"><ele>78</ele><time>2015-01-07T08:58:12.148Z</time></trkpt>
	<trkpt lat="52.213141" lon="10.524047"><ele>78</ele><time>2015-01-07T08:58:13.172Z</time></trkpt>
	<trkpt lat="52.213198" lon="10.524234"><ele>78</ele><time>2015-01-07T08:58:14.114Z</time></trkpt>
	<trkpt lat="52.213247" lon="10.524442"><ele>79</ele><time>2015-01-07T08:58:15.135Z</time></trkpt>
	<trkpt lat="52.213297" lon="10.524640"><ele>79</ele><time>2015-01-07T08:58:16.117Z</time></trkpt>
	<trkpt lat="52.213361" lon="10.524841"><ele>78</ele><time>2015-01-07T08:58:17.099Z</time></trkpt>
	<trkpt lat="52.213413" lon="10.525044"><ele>78</ele><time>2015-01-07T08:58:18.145Z</time></trkpt>
	<trkpt lat="52.213464" lon="10.525256"><ele>78</ele><time>2015-01-07T08:58:19.166Z</time></trkpt>
	<trkpt lat="52.213515" lon="10.525447"><ele>78</ele><time>2015-01-07T08:58:20.111Z</time></trkpt>
	<trkpt lat="52.213563" lon="10.525633"><ele>78</ele><time>2015-01-07T08:58:21.129Z</time></trkpt>
	<trkpt lat="52.213621" lon="10.525823"><ele>78</ele><time>2015-01-07T08:58:22.139Z</time></trkpt>
	<trkpt lat="52.213675" lon="10.526026"><ele>78</ele><time>2015-01-07T08:58:23.098Z</time></trkpt>
	<trkpt lat="52.213729" lon="10.526218"><ele>78</ele><time>2015-01-07T08:58:24.151Z</time></trkpt>
	<trkpt lat="52.213782" lon="10.526415"><ele>78</ele><time>2015-01-07T08:58:25.154Z</time></trkpt>
	<trkpt lat="52.213840" lon="10.526620"><ele>79</ele><time>2015-01-07T08:58:26.156Z</time></trkpt>
	<trkpt lat="52.213900" lon="10.526827"><ele>79</ele><time>2015-01-07T08:58:27.148Z</time></trkpt>
	<trkpt lat="52.213950" lon="10.527040"><ele>79</ele><time>2015-01-07T08:58:28.145Z</time></trkpt>
	<trkpt lat="52.214006" lon="10.527235"><ele>79</ele><time>2015-01-07T08:58:29.150Z</time></trkpt>
	<trkpt lat="52.214058" lon="10.527441"><ele>79</ele><time>2015-01-07T08:58:30.133Z</time></trkpt>
	<trkpt lat="52.214114" lon="10.527650"><ele>79</ele><time>2015-01-07T08:58:31.141Z</time></trkpt>
	<trkpt lat="52.214162" lon="10.527839"><ele>79</ele><time>2015-01-07T08:58:32.126Z</time></trkpt>
	<trkpt lat="52.214217" lon="10.528047"><ele>79</ele><time>2015-01-07T08:58:33.128Z</time></trkpt>
	<trkpt lat="52.214277" lon="10.528251"><ele>79</ele><time>2015-01-07T08:58:34.144Z</time></trkpt>
	<trkpt lat="52.214327" lon="10.528454"><ele>79</ele><time>2015-01-07T08:58:35.105Z</time></trkpt>
	<trkpt lat="52.214374" lon="10.528659"><ele>80</ele><time>2015-01-07T08:58:36.102Z</time></trkpt>
	<trkpt lat="52.214438" lon="10.528874"><ele>80</ele><time>2015-01-07T08:58:37.107Z</time></trkpt>
	<trkpt lat="52.214500" lon="10.529079"><ele>80</ele><time>2015-01-07T08:58:38.122Z</time></trkpt>
	<trkpt lat="52.214555" lon="10.529287"><ele>80</ele><time>2015-01-07T08:58:39.089Z</time></trkpt>
	<trkpt lat="52.214616" lon="10.529493"><ele>80</ele><time>2015-01-07T08:58:40.103Z</time></trkpt>
	<trkpt lat="52.214682" lon="10.529710"><ele>80</ele><time>2015-01-07T08:58:41.106Z</time></trkpt>
	<trkpt lat="52.214747" lon="10.529934"><ele>80</ele><time>2015-01-07T08:58:42.100Z</time></trkpt>
	<trkpt lat="52.214821" lon="10.530173"><ele>81</ele><time>2015-01-07T08:58:43.120Z</time></trkpt>
	<trkpt lat="52.214881" lon="10.530405"><ele>81</ele><time>2015-01-07T08:58:44.112Z</time></trkpt>
	<trkpt lat="52.214947" lon="10.530635"><ele>81</ele><time>2015-01-07T08:58:45.147Z</time></trkpt>
	<trkpt lat="52.215012" lon="10.530862"><ele>81</ele><time>2015-01-07T08:58:46.132Z</time></trkpt>
	<trkpt lat="52.215077" lon="10.531085"><ele>81</ele><time>2015-01-07T08:58:47.111Z</time></trkpt>
	<trkpt lat="52.215139" lon="10.531303"><ele>82</ele><time>2015-01-07T08:58:48.097Z</time></trkpt>
	<trkpt lat="52.215198" lon="10.531526"><ele>82</ele><time>2015-01-07T08:58:49.099Z</time></trkpt>
	<trkpt lat="52.215260" lon="10.531758"><ele>83</ele><time>2015-01-07T08:58:50.121Z</time></trkpt>
	<trkpt lat="52.215317" lon="10.531985"><ele>83</ele><time>2015-01-07T08:58:51.138Z</time></trkpt>
	<trkpt lat="52.215376" lon="10.532211"><ele>84</ele><time>2015-01-07T08:58:52.164Z</time></trkpt>
	<trkpt lat="52.215433" lon="10.532438"><ele>84</ele><time>2015-01-07T08:58:53.156Z</time></trkpt>
	<trkpt lat="52.215500" lon="10.532665"><ele>84</ele><time>2015-01-07T08:58:54.138Z</time></trkpt>
	<trkpt lat="52.215557" lon="10.532883"><ele>85</ele><time>2015-01-07T08:58:55.130Z</time></trkpt>
	<trkpt lat="52.215622" lon="10.533099"><ele>85</ele><time>2015-01-07T08:58:56.131Z</time></trkpt>
	<trkpt lat="52.215690" lon="10.533294"><ele>85</ele><time>2015-01-07T08:58:57.133Z</time></trkpt>
	<trkpt lat="52.215748" lon="10.533491"><ele>85</ele><time>2015-01-07T08:58:58.146Z</time></trkpt>
	<trkpt lat="52.215796" lon="10.533669"><ele>86</ele><time>2015-01-07T08:58:59.146Z</time></trkpt>
	<trkpt lat="52.215844" lon="10.533841"><ele>85</ele><time>2015-01-07T08:59:00.134Z</time></trkpt>
	<trkpt lat="52.215882" lon="10.533985"><ele>86</ele><time>2015-01-07T08:59:01.157Z</time></trkpt>
	<trkpt lat="52.215927" lon="10.534095"><ele>85</ele><time>2015-01-07T08:59:02.160Z</time></trkpt>
	<trkpt lat="52.215949" lon="10.534194"><ele>85</ele><time>2015-01-07T08:59:03.093Z</time></trkpt>
	<trkpt lat="52.215971" lon="10.534286"><ele>85</ele><time>2015-01-07T08:59:04.094Z</time></trkpt>
	<trkpt lat="52.215994" lon="10.534368"><ele>85</ele><time>2015-01-07T08:59:05.090Z</time></trkpt>
	<trkpt lat="52.216022" lon="10.534460"><ele>85</ele><time>2015-01-07T08:59:06.097Z</time></trkpt>
	<trkpt lat="52.216036" lon="10.534512"><ele>85</ele><time>2015-01-07T08:59:07.089Z</time></trkpt>
	<trkpt lat="52.216069" lon="10.534554"><ele>85</ele><time>2015-01-07T08:59:08.092Z</time></trkpt>
	<trkpt lat="52.216110" lon="10.534572"><ele>86</ele><time>2015-01-07T08:59:09.084Z</time></trkpt>
	<trkpt lat="52.216166" lon="10.534575"><ele>86</ele><time>2015-01-07T08:59:10.085Z</time></trkpt>
	<trkpt lat="52.216240" lon="10.534564"><ele>86</ele><time>2015-01-07T08:59:11.082Z</time></trkpt>
	<trkpt lat="52.216340" lon="10.534544"><ele>86</ele><time>2015-01-07T08:59:12.093Z</time></trkpt>
	<trkpt lat="52.216445" lon="10.534531"><ele>86</ele><time>2015-01-07T08:59:13.086Z</time></trkpt>
	<trkpt lat="52.216559" lon="10.534499"><ele>86</ele><time>2015-01-07T08:59:14.104Z</time></trkpt>
	<trkpt lat="52.216679" lon="10.534490"><ele>86</ele><time>2015-01-07T08:59:15.102Z</time></trkpt>
	<trkpt lat="52.216811" lon="10.534455"><ele>86</ele><time>2015-01-07T08:59:16.099Z</time></trkpt>
	<trkpt lat="52.216945" lon="10.534411"><ele>85</ele><time>2015-01-07T08:59:17.078Z</time></trkpt>
	<trkpt lat="52.217085" lon="10.534345"><ele>85</ele><time>2015-01-07T08:59:18.083Z</time></trkpt>
	<trkpt lat="52.217235" lon="10.534265"><ele>85</ele><time>2015-01-07T08:59:19.083Z</time></trkpt>
	<trkpt lat="52.217398" lon="10.534193"><ele>85</ele><time>2015-01-07T08:59:20.091Z</time></trkpt>
	<trkpt lat="52.217569" lon="10.534107"><ele>83</ele><time>2015-01-07T08:59:21.111Z</time></trkpt>
	<trkpt lat="52.217741" lon="10.534030"><ele>83</ele><time>2015-01-07T08:59:22.131Z</time></trkpt>
	<trkpt lat="52.217925" lon="10.533944"><ele>82</ele><time>2015-01-07T08:59:23.146Z</time></trkpt>
	<trkpt lat="52.218116" lon="10.533864"><ele>82</ele><time>2015-01-07T08:59:24.148Z</time></trkpt>
	<trkpt lat="52.218307" lon="10.533813"><ele>83</ele><time>2015-01-07T08:59:25.146Z</time></trkpt>
	<trkpt lat="52.218509" lon="10.533764"><ele>83</ele><time>2015-01-07T08:59:26.134Z</time></trkpt>
	<trkpt lat="52.218719" lon="10.533724"><ele>83</ele><time>2015-01-07T08:59:27.143Z</time></trkpt>
	<trkpt lat="52.218930" lon="10.533676"><ele>83</ele><time>2015-01-07T08:59:28.121Z</time></trkpt>
	<trkpt lat="52.219149" lon="10.533630"><ele>84</ele><time>2015-01-07T08:59:29.132Z</time></trkpt>
	<trkpt lat="52.219368" lon="10.533592"><ele>84</ele><time>2015-01-07T08:59:30.155Z</time></trkpt>
	<trkpt lat="52.219588" lon="10.533553"><ele>84</ele><time>2015-01-07T08:59:31.166Z</time></trkpt>
	<trkpt lat="52.219811" lon="10.533513"><ele>84</ele><time>2015-01-07T08:59:32.155Z</time></trkpt>
	<trkpt lat="52.220045" lon="10.533474"><ele>85</ele><time>2015-01-07T08:59:33.170Z</time></trkpt>
	<trkpt lat="52.220271" lon="10.533436"><ele>85</ele><time>2015-01-07T08:59:34.119Z</time></trkpt>
	<trkpt lat="52.220497" lon="10.533396"><ele>86</ele><time>2015-01-07T08:59:35.132Z</time></trkpt>
	<trkpt lat="52.220731" lon="10.533349"><ele>86</ele><time>2015-01-07T08:59:36.114Z</time></trkpt>
	<trkpt lat="52.220966" lon="10.533311"><ele>86</ele><time>2015-01-07T08:59:37.093Z</time></trkpt>
	<trkpt lat="52.221191" lon="10.533281"><ele>86</ele><time>2015-01-07T08:59:38.084Z</time></trkpt>
	<trkpt lat="52.221419" lon="10.533243"><ele>86</ele><time>2015-01-07T08:59:39.094Z</time></trkpt>
	<trkpt lat="52.221642" lon="10.533206"><ele>86</ele><time>2015-01-07T08:59:40.093Z</time></trkpt>
	<trkpt lat="52.221861" lon="10.533171"><ele>86</ele><time>2015-01-07T08:59:41.085Z</time></trkpt>
	<trkpt lat="52.222084" lon="10.533144"><ele>86</ele><time>2015-01-07T08:59:42.095Z</time></trkpt>
	<trkpt lat="52.222311" lon="10.533104"><ele>86</ele><time>2015-01-07T08:59:43.102Z</time></trkpt>
	<trkpt lat="52.222532" lon="10.533063"><ele>86</ele><time>2015-01-07T08:59:44.099Z</time></trkpt>
	<trkpt lat="52.222759" lon="10.533039"><ele>86</ele><time>2015-01-07T08:59:45.113Z</time></trkpt>
	<trkpt lat="52.222980" lon="10.533005"><ele>86</ele><time>2015-01-07T08:59:46.108Z</time></trkpt>
	<trkpt lat="52.223205" lon="10.532972"><ele>85</ele><time>2015-01-07T08:59:47.113Z</time></trkpt>
	<trkpt lat="52.223427" lon="10.532933"><ele>85</ele><time>2015-01-07T08:59:48.112Z</time></trkpt>
	<trkpt lat="52.223649" lon="10.532902"><ele>85</ele><time>2015-01-07T08:59:49.111Z</time></trkpt>
	<trkpt lat="52.223881" lon="10.532867"><ele>85</ele><time>2015-01-07T08:59:50.103Z</time></trkpt>
	<trkpt lat="52.224109" lon="10.532826"><ele>85</ele><time>2015-01-07T08:59:51.119Z</time></trkpt>
	<trkpt lat="52.224331" lon="10.532786"><ele>84</ele><time>2015-01-07T08:59:52.114Z</time></trkpt>
	<trkpt lat="52.224565" lon="10.532746"><ele>84</ele><time>2015-01-07T08:59:53.107Z</time></trkpt>
	<trkpt lat="52.224806" lon="10.532699"><ele>84</ele><time>2015-01-07T08:59:54.122Z</time></trkpt>
	<trkpt lat="52.225037" lon="10.532668"><ele>84</ele><time>2015-01-07T08:59:55.118Z</time></trkpt>
	<trkpt lat="52.225265" lon="10.532637"><ele>84</ele><time>2015-01-07T08:59:56.107Z</time></trkpt>
	<trkpt lat="52.225494" lon="10.532608"><ele>84</ele><time>2015-01-07T08:59:57.116Z</time></trkpt>
	<trkpt lat="52.225711" lon="10.532574"><ele>84</ele><time>2015-01-07T08:59:58.119Z</time></trkpt>
	<trkpt lat="52.225919" lon="10.532537"><ele>84</ele><time>2015-01-07T08:59:59.124Z</time></trkpt>
	<trkpt lat="52.226128" lon="10.532482"><ele>84</ele><time>2015-01-07T09:00:00.144Z</time></trkpt>
	<trkpt lat="52.226352" lon="10.532439"><ele>84</ele><time>2015-01-07T09:00:01.105Z</time></trkpt>
	<trkpt lat="52.226554" lon="10.532404"><ele>84</ele><time>2015-01-07T09:00:02.107Z</time></trkpt>
	<trkpt lat="52.226768" lon="10.532353"><ele>84</ele><time>2015-01-07T09:00:03.121Z</time></trkpt>
	<trkpt lat="52.226977" lon="10.532292"><ele>84</ele><time>2015-01-07T09:00:04.108Z</time></trkpt>
	<trkpt lat="52.227178" lon="10.532241"><ele>85</ele><time>2015-01-07T09:00:05.109Z</time></trkpt>
	<trkpt lat="52.227381" lon="10.532181"><ele>85</ele><time>2015-01-07T09:00:06.109Z</time></trkpt>
	<trkpt lat="52.227575" lon="10.532115"><ele>85</ele><time>2015-01-07T09:00:07.102Z</time></trkpt>
	<trkpt lat="52.227767" lon="10.532051"><ele>85</ele><time>2015-01-07T09:00:08.109Z</time></trkpt>
	<trkpt lat="52.227951" lon="10.531972"><ele>85</ele><time>2015-01-07T09:00:09.106Z</time></trkpt>
	<trkpt lat="52.228135" lon="10.531900"><ele>85</ele><time>2015-01-07T09:00:10.091Z</time></trkpt>
	<trkpt lat="52.228309" lon="10.531834"><ele>84</ele><time>2015-01-07T09:00:11.111Z</time></trkpt>
	<trkpt lat="52.228491" lon="10.531771"><ele>85</ele><time>2015-01-07T09:00:12.114Z</time></trkpt>
	<trkpt lat="52.228832" lon="10.531531"><ele>84</ele><time>2015-01-07T09:00:14.085Z</time></trkpt>
	<trkpt lat="52.229023" lon="10.531569"><ele>84</ele><time>2015-01-07T09:00:15.071Z</time></trkpt>
	<trkpt lat="52.229200" lon="10.531488"><ele>84</ele><time>2015-01-07T09:00:16.085Z</time></trkpt>
	<trkpt lat="52.229364" lon="10.531399"><ele>85</ele><time>2015-01-07T09:00:17.111Z</time></trkpt>
	<trkpt lat="52.229518" lon="10.531301"><ele>85</ele><time>2015-01-07T09:00:18.131Z</time></trkpt>
	<trkpt lat="52.229672" lon="10.531215"><ele>84</ele><time>2015-01-07T09:00:19.129Z</time></trkpt>
	<trkpt lat="52.229827" lon="10.531152"><ele>84</ele><time>2015-01-07T09:00:20.099Z</time></trkpt>
	<trkpt lat="52.229971" lon="10.531069"><ele>84</ele><time>2015-01-07T09:00:21.127Z</time></trkpt>
	<trkpt lat="52.230126" lon="10.530991"><ele>84</ele><time>2015-01-07T09:00:22.136Z</time></trkpt>
	<trkpt lat="52.230268" lon="10.530912"><ele>84</ele><time>2015-01-07T09:00:23.100Z</time></trkpt>
	<trkpt lat="52.230420" lon="10.530825"><ele>84</ele><time>2015-01-07T09:00:24.092Z</time></trkpt>
	<trkpt lat="52.230567" lon="10.530752"><ele>84</ele><time>2015-01-07T09:00:25.090Z</time></trkpt>
	<trkpt lat="52.230708" lon="10.530677"><ele>84</ele><time>2015-01-07T09:00:26.091Z</time></trkpt>
	<trkpt lat="52.230857" lon="10.530608"><ele>84</ele><time>2015-01-07T09:00:27.124Z</time></trkpt>
	<trkpt lat="52.231002" lon="10.530539"><ele>84</ele><time>2015-01-07T09:00:28.094Z</time></trkpt>
	<trkpt lat="52.231148" lon="10.530459"><ele>83</ele><time>2015-01-07T09:00:29.120Z</time></trkpt>
	<trkpt lat="52.231295" lon="10.530379"><ele>83</ele><time>2015-01-07T09:00:30.118Z</time></trkpt>
	<trkpt lat="52.231437" lon="10.530311"><ele>83</ele><time>2015-01-07T09:00:31.121Z</time></trkpt>
	<trkpt lat="52.231574" lon="10.530239"><ele>83</ele><time>2015-01-07T09:00:32.115Z</time></trkpt>
	<trkpt lat="52.231726" lon="10.530159"><ele>83</ele><time>2015-01-07T09:00:33.113Z</time></trkpt>
	<trkpt lat="52.231865" lon="10.530075"><ele>82</ele><time>2015-01-07T09:00:34.129Z</time></trkpt>
	<trkpt lat="52.232013" lon="10.530002"><ele>83</ele><time>2015-01-07T09:00:35.130Z</time></trkpt>
	<trkpt lat="52.232144" lon="10.529929"><ele>82</ele><time>2015-01-07T09:00:36.126Z</time></trkpt>
	<trkpt lat="52.232278" lon="10.529861"><ele>81</ele><time>2015-01-07T09:00:37.119Z</time></trkpt>
	<trkpt lat="52.232388" lon="10.529785"><ele>81</ele><time>2015-01-07T09:00:38.129Z</time></trkpt>
	<trkpt lat="52.232502" lon="10.529721"><ele>82</ele><time>2015-01-07T09:00:39.165Z</time></trkpt>
	<trkpt lat="52.232618" lon="10.529669"><ele>81</ele><time>2015-01-07T09:00:40.168Z</time></trkpt>
	<trkpt lat="52.232740" lon="10.529616"><ele>81</ele><time>2015-01-07T09:00:41.175Z</time></trkpt>
	<trkpt lat="52.232857" lon="10.529558"><ele>81</ele><time>2015-01-07T09:00:42.144Z</time></trkpt>
	<trkpt lat="52.232978" lon="10.529492"><ele>81</ele><time>2015-01-07T09:00:43.133Z</time></trkpt>
	<trkpt lat="52.233095" lon="10.529419"><ele>81</ele><time>2015-01-07T09:00:44.128Z</time></trkpt>
	<trkpt lat="52.233215" lon="10.529349"><ele>81</ele><time>2015-01-07T09:00:45.126Z</time></trkpt>
	<trkpt lat="52.233347" lon="10.529289"><ele>81</ele><time>2015-01-07T09:00:46.131Z</time></trkpt>
	<trkpt lat="52.233483" lon="10.529226"><ele>81</ele><time>2015-01-07T09:00:47.132Z</time></trkpt>
	<trkpt lat="52.233624" lon="10.529157"><ele>81</ele><time>2015-01-07T09:00:48.147Z</time></trkpt>
	<trkpt lat="52.233776" lon="10.529089"><ele>82</ele><time>2015-01-07T09:00:49.161Z</time></trkpt>
	<trkpt lat="52.233942" lon="10.529022"><ele>82</ele><time>2015-01-07T09:00:50.166Z</time></trkpt>
	<trkpt lat="52.234109" lon="10.528967"><ele>82</ele><time>2015-01-07T09:00:51.150Z</time></trkpt>
	<trkpt lat="52.234274" lon="10.528892"><ele>81</ele><time>2015-01-07T09:00:52.143Z</time></trkpt>
	<trkpt lat="52.234447" lon="10.528818"><ele>81</ele><time>2015-01-07T09:00:53.146Z</time></trkpt>
	<trkpt lat="52.234617" lon="10.528749"><ele>81</ele><time>2015-01-07T09:00:54.123Z</time></trkpt>
	<trkpt lat="52.234790" lon="10.528699"><ele>81</ele><time>2015-01-07T09:00:55.116Z</time></trkpt>
	<trkpt lat="52.234947" lon="10.528636"><ele>81</ele><time>2015-01-07T09:00:56.125Z</time></trkpt>
	<trkpt lat="52.235132" lon="10.528579"><ele>81</ele><time>2015-01-07T09:00:57.118Z</time></trkpt>
	<trkpt lat="52.235292" lon="10.528534"><ele>81</ele><time>2015-01-07T09:00:58.122Z</time></trkpt>
	<trkpt lat="52.235461" lon="10.528490"><ele>81</ele><time>2015-01-07T09:00:59.144Z</time></trkpt>
	<trkpt lat="52.235623" lon="10.528439"><ele>81</ele><time>2015-01-07T09:01:00.150Z</time></trkpt>
	<trkpt lat="52.235794" lon="10.528374"><ele>81</ele><time>2015-01-07T09:01:01.134Z</time></trkpt>
	<trkpt lat="52.235948" lon="10.528330"><ele>81</ele><time>2015-01-07T09:01:02.124Z</time></trkpt>
	<trkpt lat="52.236103" lon="10.528296"><ele>81</ele><time>2015-01-07T09:01:03.126Z</time></trkpt>
	<trkpt lat="52.236255" lon="10.528263"><ele>81</ele><time>2015-01-07T09:01:04.141Z</time></trkpt>
	<trkpt lat="52.236396" lon="10.528247"><ele>81</ele><time>2015-01-07T09:01:05.119Z</time></trkpt>
	<trkpt lat="52.236535" lon="10.528229"><ele>82</ele><time>2015-01-07T09:01:06.111Z</time></trkpt>
	<trkpt lat="52.236670" lon="10.528215"><ele>82</ele><time>2015-01-07T09:01:07.135Z</time></trkpt>
	<trkpt lat="52.236798" lon="10.528199"><ele>82</ele><time>2015-01-07T09:01:08.173Z</time></trkpt>
	<trkpt lat="52.236924" lon="10.528178"><ele>82</ele><time>2015-01-07T09:01:09.164Z</time></trkpt>
	<trkpt lat="52.237045" lon="10.528160"><ele>82</ele><time>2015-01-07T09:01:10.111Z</time></trkpt>
	<trkpt lat="52.237160" lon="10.528148"><ele>82</ele><time>2015-01-07T09:01:11.148Z</time></trkpt>
	<trkpt lat="52.237263" lon="10.528135"><ele>82</ele><time>2015-01-07T09:01:12.138Z</time></trkpt>
	<trkpt lat="52.237367" lon="10.528121"><ele>82</ele><time>2015-01-07T09:01:13.137Z</time></trkpt>
	<trkpt lat="52.237466" lon="10.528113"><ele>82</ele><time>2015-01-07T09:01:14.143Z</time></trkpt>
	<trkpt lat="52.237567" lon="10.528109"><ele>82</ele><time>2015-01-07T09:01:15.138Z</time></trkpt>
	<trkpt lat="52.237661" lon="10.528133"><ele>82</ele><time>2015-01-07T09:01:16.126Z</time></trkpt>
	<trkpt lat="52.237734" lon="10.528173"><ele>81</ele><time>2015-01-07T09:01:17.133Z</time></trkpt>
	<trkpt lat="52.237816" lon="10.528241"><ele>81</ele><time>2015-01-07T09:01:18.148Z</time></trkpt>
	<trkpt lat="52.237890" lon="10.528342"><ele>81</ele><time>2015-01-07T09:01:19.120Z</time></trkpt>
	<trkpt lat="52.237942" lon="10.528461"><ele>81</ele><time>2015-01-07T09:01:20.096Z</time></trkpt>
	<trkpt lat="52.237990" lon="10.528595"><ele>81</ele><time>2015-01-07T09:01:21.105Z</time></trkpt>
	<trkpt lat="52.238013" lon="10.528749"><ele>81</ele><time>2015-01-07T09:01:22.113Z</time></trkpt>
	<trkpt lat="52.238006" lon="10.528915"><ele>80</ele><time>2015-01-07T09:01:23.140Z</time></trkpt>
	<trkpt lat="52.237990" lon="10.529074"><ele>80</ele><time>2015-01-07T09:01:24.153Z</time></trkpt>
	<trkpt lat="52.237935" lon="10.529220"><ele>79</ele><time>2015-01-07T09:01:25.158Z</time></trkpt>
	<trkpt lat="52.237864" lon="10.529352"><ele>79</ele><time>2015-01-07T09:01:26.138Z</time></trkpt>
	<trkpt lat="52.237783" lon="10.529453"><ele>78</ele><time>2015-01-07T09:01:27.101Z</time></trkpt>
	<trkpt lat="52.237692" lon="10.529502"><ele>78</ele><time>2015-01-07T09:01:28.123Z</time></trkpt>
	<trkpt lat="52.237592" lon="10.529519"><ele>77</ele><time>2015-01-07T09:01:29.133Z</time></trkpt>
	<trkpt lat="52.237500" lon="10.529521"><ele>76</ele><time>2015-01-07T09:01:30.134Z</time></trkpt>
	<trkpt lat="52.237409" lon="10.529493"><ele>76</ele><time>2015-01-07T09:01:31.130Z</time></trkpt>
	<trkpt lat="52.237343" lon="10.529439"><ele>76</ele><time>2015-01-07T09:01:32.148Z</time></trkpt>
	<trkpt lat="52.237283" lon="10.529343"><ele>75</ele><time>2015-01-07T09:01:33.160Z</time></trkpt>
	<trkpt lat="52.237244" lon="10.529286"><ele>75</ele><time>2015-01-07T09:01:34.103Z</time></trkpt>
	<trkpt lat="52.237194" lon="10.529189"><ele>75</ele><time>2015-01-07T09:01:35.108Z</time></trkpt>
	<trkpt lat="52.237164" lon="10.529087"><ele>75</ele><time>2015-01-07T09:01:36.109Z</time></trkpt>
	<trkpt lat="52.237158" lon="10.528978"><ele>75</ele><time>2015-01-07T09:01:37.169Z</time></trkpt>
	<trkpt lat="52.237155" lon="10.528872"><ele>75</ele><time>2015-01-07T09:01:38.165Z</time></trkpt>
	<trkpt lat="52.237143" lon="10.528727"><ele>75</ele><time>2015-01-07T09:01:39.159Z</time></trkpt>
	<trkpt lat="52.237146" lon="10.528588"><ele>75</ele><time>2015-01-07T09:01:40.135Z</time></trkpt>
	<trkpt lat="52.237154" lon="10.528417"><ele>76</ele><time>2015-01-07T09:01:41.136Z</time></trkpt>
	<trkpt lat="52.237158" lon="10.528261"><ele>76</ele><time>2015-01-07T09:01:42.132Z</time></trkpt>
	<trkpt lat="52.237167" lon="10.528087"><ele>76</ele><time>2015-01-07T09:01:43.117Z</time></trkpt>
	<trkpt lat="52.237173" lon="10.527950"><ele>77</ele><time>2015-01-07T09:01:44.095Z</time></trkpt>
	<trkpt lat="52.237199" lon="10.527692"><ele>77</ele><time>2015-01-07T09:01:45.082Z</time></trkpt>
	<trkpt lat="52.237228" lon="10.527444"><ele>77</ele><time>2015-01-07T09:01:46.086Z</time></trkpt>
	<trkpt lat="52.237253" lon="10.527229"><ele>77</ele><time>2015-01-07T09:01:47.085Z</time></trkpt>
	<trkpt lat="52.237265" lon="10.526973"><ele>78</ele><time>2015-01-07T09:01:48.098Z</time></trkpt>
	<trkpt lat="52.237267" lon="10.526834"><ele>78</ele><time>2015-01-07T09:01:49.138Z</time></trkpt>
	<trkpt lat="52.237286" lon="10.526506"><ele>78</ele><time>2015-01-07T09:01:50.128Z</time></trkpt>
	<trkpt lat="52.237295" lon="10.526261"><ele>78</ele><time>2015-01-07T09:01:51.086Z</time></trkpt>
	<trkpt lat="52.237303" lon="10.526034"><ele>79</ele><time>2015-01-07T09:01:52.116Z</time></trkpt>
	<trkpt lat="52.237311" lon="10.525762"><ele>79</ele><time>2015-01-07T09:01:53.145Z</time></trkpt>
	<trkpt lat="52.237324" lon="10.525490"><ele>79</ele><time>2015-01-07T09:01:54.142Z</time></trkpt>
	<trkpt lat="52.237317" lon="10.525235"><ele>79</ele><time>2015-01-07T09:01:55.105Z</time></trkpt>
	<trkpt lat="52.237310" lon="10.524993"><ele>79</ele><time>2015-01-07T09:01:56.122Z</time></trkpt>
	<trkpt lat="52.237294" lon="10.524738"><ele>79</ele><time>2015-01-07T09:01:57.141Z</time></trkpt>
	<trkpt lat="52.237277" lon="10.524484"><ele>79</ele><time>2015-01-07T09:01:58.107Z</time></trkpt>
	<trkpt lat="52.237253" lon="10.524239"><ele>80</ele><time>2015-01-07T09:01:59.135Z</time></trkpt>
	<trkpt lat="52.237219" lon="10.523975"><ele>80</ele><time>2015-01-07T09:02:00.158Z</time></trkpt>
	<trkpt lat="52.237194" lon="10.523712"><ele>80</ele><time>2015-01-07T09:02:01.109Z</time></trkpt>
	<trkpt lat="52.237171" lon="10.523421"><ele>81</ele><time>2015-01-07T09:02:02.132Z</time></trkpt>
	<trkpt lat="52.237138" lon="10.523124"><ele>81</ele><time>2015-01-07T09:02:03.124Z</time></trkpt>
	<trkpt lat="52.237107" lon="10.522821"><ele>82</ele><time>2015-01-07T09:02:04.145Z</time></trkpt>
	<trkpt lat="52.237066" lon="10.522527"><ele>81</ele><time>2015-01-07T09:02:05.145Z</time></trkpt>
	<trkpt lat="52.237020" lon="10.522210"><ele>82</ele><time>2015-01-07T09:02:06.134Z</time></trkpt>
	<trkpt lat="52.236972" lon="10.521910"><ele>82</ele><time>2015-01-07T09:02:07.161Z</time></trkpt>
	<trkpt lat="52.236921" lon="10.521617"><ele>82</ele><time>2015-01-07T09:02:08.145Z</time></trkpt>
	<trkpt lat="52.236871" lon="10.521316"><ele>81</ele><time>2015-01-07T09:02:09.152Z</time></trkpt>
	<trkpt lat="52.236826" lon="10.521006"><ele>81</ele><time>2015-01-07T09:02:10.145Z</time></trkpt>
	<trkpt lat="52.236765" lon="10.520705"><ele>81</ele><time>2015-01-07T09:02:11.141Z</time></trkpt>
	<trkpt lat="52.236697" lon="10.520399"><ele>82</ele><time>2015-01-07T09:02:12.152Z</time></trkpt>
	<trkpt lat="52.236626" lon="10.520090"><ele>81</ele><time>2015-01-07T09:02:13.150Z</time></trkpt>
	<trkpt lat="52.236553" lon="10.519814"><ele>81</ele><time>2015-01-07T09:02:14.113Z</time></trkpt>
	<trkpt lat="52.236469" lon="10.519510"><ele>81</ele><time>2015-01-07T09:02:15.142Z</time></trkpt>
	<trkpt lat="52.236385" lon="10.519211"><ele>81</ele><time>2015-01-07T09:02:16.185Z</time></trkpt>
	<trkpt lat="52.236309" lon="10.518939"><ele>81</ele><time>2015-01-07T09:02:17.115Z</time></trkpt>
	<trkpt lat="52.236227" lon="10.518636"><ele>81</ele><time>2015-01-07T09:02:18.126Z</time></trkpt>
	<trkpt lat="52.236149" lon="10.518342"><ele>81</ele><time>2015-01-07T09:02:19.119Z</time></trkpt>
	<trkpt lat="52.236057" lon="10.518029"><ele>81</ele><time>2015-01-07T09:02:20.124Z</time></trkpt>
	<trkpt lat="52.235963" lon="10.517735"><ele>81</ele><time>2015-01-07T09:02:21.113Z</time></trkpt>
	<trkpt lat="52.235873" lon="10.517455"><ele>81</ele><time>2015-01-07T09:02:22.121Z</time></trkpt>
	<trkpt lat="52.235780" lon="10.517179"><ele>82</ele><time>2015-01-07T09:02:23.117Z</time></trkpt>
	<trkpt lat="52.235688" lon="10.516902"><ele>82</ele><time>2015-01-07T09:02:24.088Z</time></trkpt>
	<trkpt lat="52.235593" lon="10.516622"><ele>82</ele><time>2015-01-07T09:02:25.098Z</time></trkpt>
	<trkpt lat="52.235526" lon="10.516298"><ele>83</ele><time>2015-01-07T09:02:26.120Z</time></trkpt>
	<trkpt lat="52.235446" lon="10.516009"><ele>83</ele><time>2015-01-07T09:02:27.098Z</time></trkpt>
	<trkpt lat="52.235374" lon="10.515712"><ele>83</ele><time>2015-01-07T09:02:28.117Z</time></trkpt>
	<trkpt lat="52.235303" lon="10.515412"><ele>84</ele><time>2015-01-07T09:02:29.145Z</time></trkpt>
	<trkpt lat="52.235240" lon="10.515106"><ele>84</ele><time>2015-01-07T09:02:30.099Z</time></trkpt>
	<trkpt lat="52.235184" lon="10.514792"><ele>84</ele><time>2015-01-07T09:02:31.108Z</time></trkpt>
	<trkpt lat="52.235134" lon="10.514470"><ele>85</ele><time>2015-01-07T09:02:32.093Z</time></trkpt>
	<trkpt lat="52.235087" lon="10.514163"><ele>85</ele><time>2015-01-07T09:02:33.106Z</time></trkpt>
	<trkpt lat="52.235046" lon="10.513863"><ele>84</ele><time>2015-01-07T09:02:34.111Z</time></trkpt>
	<trkpt lat="52.235030" lon="10.513568"><ele>84</ele><time>2015-01-07T09:02:35.155Z</time></trkpt>
	<trkpt lat="52.235014" lon="10.513270"><ele>84</ele><time>2015-01-07T09:02:36.159Z</time></trkpt>
	<trkpt lat="52.235016" lon="10.512977"><ele>84</ele><time>2015-01-07T09:02:37.112Z</time></trkpt>
	<trkpt lat="52.235015" lon="10.512691"><ele>84</ele><time>2015-01-07T09:02:38.148Z</time></trkpt>
	<trkpt lat="52.235018" lon="10.512420"><ele>84</ele><time>2015-01-07T09:02:39.142Z</time></trkpt>
	<trkpt lat="52.235021" lon="10.512141"><ele>83</ele><time>2015-01-07T09:02:40.134Z</time></trkpt>
	<trkpt lat="52.235023" lon="10.511874"><ele>83</ele><time>2015-01-07T09:02:41.129Z</time></trkpt>
	<trkpt lat="52.235047" lon="10.511601"><ele>83</ele><time>2015-01-07T09:02:42.138Z</time></trkpt>
	<trkpt lat="52.235082" lon="10.511329"><ele>83</ele><time>2015-01-07T09:02:43.161Z</time></trkpt>
	<trkpt lat="52.235129" lon="10.511067"><ele>82</ele><time>2015-01-07T09:02:44.161Z</time></trkpt>
	<trkpt lat="52.235188" lon="10.510822"><ele>83</ele><time>2015-01-07T09:02:45.162Z</time></trkpt>
	<trkpt lat="52.235268" lon="10.510580"><ele>82</ele><time>2015-01-07T09:02:46.114Z</time></trkpt>
	<trkpt lat="52.235351" lon="10.510397"><ele>82</ele><time>2015-01-07T09:02:47.149Z</time></trkpt>
	<trkpt lat="52.235491" lon="10.510176"><ele>81</ele><time>2015-01-07T09:02:48.133Z</time></trkpt>
	<trkpt lat="52.235609" lon="10.509991"><ele>80</ele><time>2015-01-07T09:02:49.133Z</time></trkpt>
	<trkpt lat="52.235748" lon="10.509843"><ele>80</ele><time>2015-01-07T09:02:50.093Z</time></trkpt>
	<trkpt lat="52.235894" lon="10.509729"><ele>79</ele><time>2015-01-07T09:02:51.089Z</time></trkpt>
	<trkpt lat="52.236031" lon="10.509631"><ele>78</ele><time>2015-01-07T09:02:52.089Z</time></trkpt>
	<trkpt lat="52.236174" lon="10.509593"><ele>77</ele><time>2015-01-07T09:02:53.090Z</time></trkpt>
	<trkpt lat="52.236331" lon="10.509559"><ele>77</ele><time>2015-01-07T09:02:54.084Z</time></trkpt>
	<trkpt lat="52.236482" lon="10.509528"><ele>78</ele><time>2015-01-07T09:02:55.089Z</time></trkpt>
	<trkpt lat="52.236645" lon="10.509503"><ele>78</ele><time>2015-01-07T09:02:56.115Z</time></trkpt>
	<trkpt lat="52.236799" lon="10.509483"><ele>78</ele><time>2015-01-07T09:02:57.101Z</time></trkpt>
	<trkpt lat="52.236977" lon="10.509457"><ele>78</ele><time>2015-01-07T09:02:58.094Z</time></trkpt>
	<trkpt lat="52.237145" lon="10.509442"><ele>79</ele><time>2015-01-07T09:02:59.083Z</time></trkpt>
	<trkpt lat="52.237321" lon="10.509429"><ele>79</ele><time>2015-01-07T09:03:00.107Z</time></trkpt>
	<trkpt lat="52.237514" lon="10.509427"><ele>79</ele><time>2015-01-07T09:03:01.138Z</time></trkpt>
	<trkpt lat="52.237705" lon="10.509438"><ele>80</ele><time>2015-01-07T09:03:02.137Z</time></trkpt>
	<trkpt lat="52.237890" lon="10.509462"><ele>80</ele><time>2015-01-07T09:03:03.130Z</time></trkpt>
	<trkpt lat="52.238094" lon="10.509501"><ele>80</ele><time>2015-01-07T09:03:04.164Z</time></trkpt>
	<trkpt lat="52.238300" lon="10.509521"><ele>80</ele><time>2015-01-07T09:03:05.165Z</time></trkpt>
	<trkpt lat="52.238494" lon="10.509553"><ele>80</ele><time>2015-01-07T09:03:06.135Z</time></trkpt>
	<trkpt lat="52.238704" lon="10.509576"><ele>80</ele><time>2015-01-07T09:03:07.128Z</time></trkpt>
	<trkpt lat="52.238914" lon="10.509598"><ele>80</ele><time>2015-01-07T09:03:08.142Z</time></trkpt>
	<trkpt lat="52.239139" lon="10.509606"><ele>80</ele><time>2015-01-07T09:03:09.131Z</time></trkpt>
	<trkpt lat="52.239346" lon="10.509619"><ele>80</ele><time>2015-01-07T09:03:10.120Z</time></trkpt>
	<trkpt lat="52.239572" lon="10.509654"><ele>80</ele><time>2015-01-07T09:03:11.100Z</time></trkpt>
	<trkpt lat="52.239784" lon="10.509671"><ele>80</ele><time>2015-01-07T09:03:12.115Z</time></trkpt>
	<trkpt lat="52.240002" lon="10.509697"><ele>80</ele><time>2015-01-07T09:03:13.132Z</time></trkpt>
	<trkpt lat="52.240215" lon="10.509722"><ele>80</ele><time>2015-01-07T09:03:14.127Z</time></trkpt>
	<trkpt lat="52.240425" lon="10.509744"><ele>80</ele><time>2015-01-07T09:03:15.146Z</time></trkpt>
	<trkpt lat="52.240636" lon="10.509769"><ele>79</ele><time>2015-01-07T09:03:16.110Z</time></trkpt>
	<trkpt lat="52.240847" lon="10.509792"><ele>79</ele><time>2015-01-07T09:03:17.116Z</time></trkpt>
	<trkpt lat="52.241062" lon="10.509794"><ele>80</ele><time>2015-01-07T09:03:18.129Z</time></trkpt>
	<trkpt lat="52.241272" lon="10.509814"><ele>80</ele><time>2015-01-07T09:03:19.096Z</time></trkpt>
	<trkpt lat="52.241461" lon="10.509837"><ele>79</ele><time>2015-01-07T09:03:20.100Z</time></trkpt>
	<trkpt lat="52.241649" lon="10.509861"><ele>80</ele><time>2015-01-07T09:03:21.084Z</time></trkpt>
	<trkpt lat="52.241853" lon="10.509883"><ele>80</ele><time>2015-01-07T09:03:22.084Z</time></trkpt>
	<trkpt lat="52.242061" lon="10.509919"><ele>80</ele><time>2015-01-07T09:03:23.092Z</time></trkpt>
	<trkpt lat="52.242252" lon="10.509932"><ele>79</ele><time>2015-01-07T09:03:24.091Z</time></trkpt>
	<trkpt lat="52.242442" lon="10.509944"><ele>79</ele><time>2015-01-07T09:03:25.099Z</time></trkpt>
	<trkpt lat="52.242626" lon="10.509963"><ele>79</ele><time>2015-01-07T09:03:26.108Z</time></trkpt>
	<trkpt lat="52.242797" lon="10.509966"><ele>79</ele><time>2015-01-07T09:03:27.114Z</time></trkpt>
	<trkpt lat="52.242975" lon="10.509966"><ele>79</ele><time>2015-01-07T09:03:28.105Z</time></trkpt>
	<trkpt lat="52.243149" lon="10.509956"><ele>79</ele><time>2015-01-07T09:03:29.118Z</time></trkpt>
	<trkpt lat="52.243321" lon="10.509956"><ele>80</ele><time>2015-01-07T09:03:30.136Z</time></trkpt>
	<trkpt lat="52.243495" lon="10.509971"><ele>80</ele><time>2015-01-07T09:03:31.143Z</time></trkpt>
	<trkpt lat="52.243656" lon="10.510003"><ele>80</ele><time>2015-01-07T09:03:32.121Z</time></trkpt>
	<trkpt lat="52.243814" lon="10.510064"><ele>79</ele><time>2015-01-07T09:03:33.103Z</time></trkpt>
	<trkpt lat="52.243968" lon="10.510138"><ele>79</ele><time>2015-01-07T09:03:34.114Z</time></trkpt>
	<trkpt lat="52.244126" lon="10.510203"><ele>78</ele><time>2015-01-07T09:03:35.142Z</time></trkpt>
	<trkpt lat="52.244279" lon="10.510259"><ele>78</ele><time>2015-01-07T09:03:36.146Z</time></trkpt>
	<trkpt lat="52.244430" lon="10.510291"><ele>78</ele><time>2015-01-07T09:03:37.169Z</time></trkpt>
	<trkpt lat="52.244578" lon="10.510332"><ele>77</ele><time>2015-01-07T09:03:38.165Z</time></trkpt>
	<trkpt lat="52.244721" lon="10.510389"><ele>77</ele><time>2015-01-07T09:03:39.169Z</time></trkpt>
	<trkpt lat="52.244863" lon="10.510450"><ele>76</ele><time>2015-01-07T09:03:40.137Z</time></trkpt>
	<trkpt lat="52.244993" lon="10.510512"><ele>76</ele><time>2015-01-07T09:03:41.091Z</time></trkpt>
	<trkpt lat="52.245109" lon="10.510579"><ele>75</ele><time>2015-01-07T09:03:42.110Z</time></trkpt>
	<trkpt lat="52.245212" lon="10.510637"><ele>75</ele><time>2015-01-07T09:03:43.123Z</time></trkpt>
	<trkpt lat="52.245289" lon="10.510685"><ele>74</ele><time>2015-01-07T09:03:44.098Z</time></trkpt>
	<trkpt lat="52.245362" lon="10.510730"><ele>74</ele><time>2015-01-07T09:03:45.104Z</time></trkpt>
	<trkpt lat="52.245415" lon="10.510768"><ele>73</ele><time>2015-01-07T09:03:46.091Z</time></trkpt>
	<trkpt lat="52.245435" lon="10.510795"><ele>73</ele><time>2015-01-07T09:03:47.086Z</time></trkpt>
	<trkpt lat="52.245434" lon="10.510802"><ele>73</ele><time>2015-01-07T09:03:48.081Z</time></trkpt>
	<trkpt lat="52.245433" lon="10.510808"><ele>73</ele><time>2015-01-07T09:03:49.080Z</time></trkpt>
	<trkpt lat="52.245438" lon="10.510785"><ele>73</ele><time>2015-01-07T09:03:50.081Z</time></trkpt>
	<trkpt lat="52.245439" lon="10.510782"><ele>74</ele><time>2015-01-07T09:04:23.098Z</time></trkpt>
	<trkpt lat="52.245438" lon="10.510786"><ele>74</ele><time>2015-01-07T09:04:24.096Z</time></trkpt>
	<trkpt lat="52.245535" lon="10.510843"><ele>74</ele><time>2015-01-07T09:04:25.096Z</time></trkpt>
	<trkpt lat="52.245588" lon="10.510876"><ele>74</ele><time>2015-01-07T09:04:26.096Z</time></trkpt>
	<trkpt lat="52.245633" lon="10.510904"><ele>74</ele><time>2015-01-07T09:04:27.100Z</time></trkpt>
	<trkpt lat="52.245677" lon="10.510936"><ele>74</ele><time>2015-01-07T09:04:28.104Z</time></trkpt>
	<trkpt lat="52.245742" lon="10.510981"><ele>74</ele><time>2015-01-07T09:04:29.122Z</time></trkpt>
	<trkpt lat="52.245824" lon="10.511042"><ele>74</ele><time>2015-01-07T09:04:30.164Z</time></trkpt>
	<trkpt lat="52.245895" lon="10.511088"><ele>74</ele><time>2015-01-07T09:04:31.154Z</time></trkpt>
	<trkpt lat="52.245976" lon="10.511131"><ele>74</ele><time>2015-01-07T09:04:32.158Z</time></trkpt>
	<trkpt lat="52.245992" lon="10.511142"><ele>74</ele><time>2015-01-07T09:04:33.166Z</time></trkpt>
	<trkpt lat="52.246138" lon="10.511205"><ele>74</ele><time>2015-01-07T09:04:34.213Z</time></trkpt>
	<trkpt lat="52.246237" lon="10.511236"><ele>74</ele><time>2015-01-07T09:04:35.170Z</time></trkpt>
	<trkpt lat="52.246330" lon="10.511265"><ele>74</ele><time>2015-01-07T09:04:36.165Z</time></trkpt>
	<trkpt lat="52.246433" lon="10.511298"><ele>74</ele><time>2015-01-07T09:04:37.224Z</time></trkpt>
	<trkpt lat="52.246538" lon="10.511331"><ele>74</ele><time>2015-01-07T09:04:38.139Z</time></trkpt>
	<trkpt lat="52.246639" lon="10.511361"><ele>74</ele><time>2015-01-07T09:04:39.166Z</time></trkpt>
	<trkpt lat="52.246742" lon="10.511392"><ele>74</ele><time>2015-01-07T09:04:40.210Z</time></trkpt>
	<trkpt lat="52.246846" lon="10.511421"><ele>74</ele><time>2015-01-07T09:04:41.203Z</time></trkpt>
	<trkpt lat="52.246952" lon="10.511448"><ele>74</ele><time>2015-01-07T09:04:42.154Z</time></trkpt>
	<trkpt lat="52.247052" lon="10.511470"><ele>74</ele><time>2015-01-07T09:04:43.204Z</time></trkpt>
	<trkpt lat="52.247168" lon="10.511484"><ele>74</ele><time>2015-01-07T09:04:44.219Z</time></trkpt>
	<trkpt lat="52.247285" lon="10.511501"><ele>74</ele><time>2015-01-07T09:04:45.199Z</time></trkpt>
	<trkpt lat="52.247407" lon="10.511512"><ele>74</ele><time>2015-01-07T09:04:46.152Z</time></trkpt>
	<trkpt lat="52.247518" lon="10.511513"><ele>74</ele><time>2015-01-07T09:04:47.139Z</time></trkpt>
	<trkpt lat="52.247624" lon="10.511514"><ele>74</ele><time>2015-01-07T09:04:48.151Z</time></trkpt>
	<trkpt lat="52.247735" lon="10.511515"><ele>74</ele><time>2015-01-07T09:04:49.232Z</time></trkpt>
	<trkpt lat="52.247844" lon="10.511509"><ele>74</ele><time>2015-01-07T09:04:50.222Z</time></trkpt>
	<trkpt lat="52.247967" lon="10.511500"><ele>75</ele><time>2015-01-07T09:04:51.157Z</time></trkpt>
	<trkpt lat="52.248088" lon="10.511490"><ele>75</ele><time>2015-01-07T09:04:52.150Z</time></trkpt>
	<trkpt lat="52.248219" lon="10.511478"><ele>75</ele><time>2015-01-07T09:04:53.158Z</time></trkpt>
	<trkpt lat="52.248338" lon="10.511460"><ele>75</ele><time>2015-01-07T09:04:54.110Z</time></trkpt>
	<trkpt lat="52.248478" lon="10.511442"><ele>75</ele><time>2015-01-07T09:04:55.089Z</time></trkpt>
	<trkpt lat="52.248620" lon="10.511436"><ele>76</ele><time>2015-01-07T09:04:56.104Z</time></trkpt>
	<trkpt lat="52.248755" lon="10.511414"><ele>76</ele><time>2015-01-07T09:04:57.103Z</time></trkpt>
	<trkpt lat="52.248889" lon="10.511374"><ele>76</ele><time>2015-01-07T09:04:58.112Z</time></trkpt>
	<trkpt lat="52.249026" lon="10.511333"><ele>76</ele><time>2015-01-07T09:04:59.150Z</time></trkpt>
	<trkpt lat="52.249158" lon="10.511301"><ele>76</ele><time>2015-01-07T09:05:00.157Z</time></trkpt>
	<trkpt lat="52.249301" lon="10.511260"><ele>76</ele><time>2015-01-07T09:05:01.152Z</time></trkpt>
	<trkpt lat="52.249442" lon="10.511220"><ele>76</ele><time>2015-01-07T09:05:02.180Z</time></trkpt>
	<trkpt lat="52.249595" lon="10.511189"><ele>76</ele><time>2015-01-07T09:05:03.179Z</time></trkpt>
	<trkpt lat="52.249736" lon="10.511153"><ele>76</ele><time>2015-01-07T09:05:04.151Z</time></trkpt>
	<trkpt lat="52.249881" lon="10.511118"><ele>76</ele><time>2015-01-07T09:05:05.137Z</time></trkpt>
	<trkpt lat="52.250015" lon="10.511087"><ele>76</ele><time>2015-01-07T09:05:06.126Z</time></trkpt>
	<trkpt lat="52.250160" lon="10.511047"><ele>76</ele><time>2015-01-07T09:05:07.124Z</time></trkpt>
	<trkpt lat="52.250297" lon="10.511008"><ele>76</ele><time>2015-01-07T09:05:08.124Z</time></trkpt>
	<trkpt lat="52.250425" lon="10.510974"><ele>75</ele><time>2015-01-07T09:05:09.124Z</time></trkpt>
	<trkpt lat="52.250560" lon="10.510939"><ele>75</ele><time>2015-01-07T09:05:10.135Z</time></trkpt>
	<trkpt lat="52.250689" lon="10.510905"><ele>75</ele><time>2015-01-07T09:05:11.138Z</time></trkpt>
	<trkpt lat="52.250814" lon="10.510874"><ele>75</ele><time>2015-01-07T09:05:12.134Z</time></trkpt>
	<trkpt lat="52.250934" lon="10.510839"><ele>75</ele><time>2015-01-07T09:05:13.136Z</time></trkpt>
	<trkpt lat="52.251057" lon="10.510806"><ele>75</ele><time>2015-01-07T09:05:14.140Z</time></trkpt>
	<trkpt lat="52.251179" lon="10.510771"><ele>75</ele><time>2015-01-07T09:05:15.138Z</time></trkpt>
	<trkpt lat="52.251296" lon="10.510740"><ele>75</ele><time>2015-01-07T09:05:16.138Z</time></trkpt>
	<trkpt lat="52.251409" lon="10.510710"><ele>75</ele><time>2015-01-07T09:05:17.139Z</time></trkpt>
	<trkpt lat="52.251524" lon="10.510680"><ele>75</ele><time>2015-01-07T09:05:18.127Z</time></trkpt>
	<trkpt lat="52.251638" lon="10.510650"><ele>75</ele><time>2015-01-07T09:05:19.177Z</time></trkpt>
	<trkpt lat="52.251748" lon="10.510627"><ele>75</ele><time>2015-01-07T09:05:20.214Z</time></trkpt>
	<trkpt lat="52.251804" lon="10.510625"><ele>75</ele><time>2015-01-07T09:05:21.183Z</time></trkpt>
	<trkpt lat="52.251965" lon="10.510583"><ele>75</ele><time>2015-01-07T09:05:22.177Z</time></trkpt>
	<trkpt lat="52.252056" lon="10.510558"><ele>75</ele><time>2015-01-07T09:05:23.163Z</time></trkpt>
	<trkpt lat="52.252155" lon="10.510505"><ele>75</ele><time>2015-01-07T09:05:24.179Z</time></trkpt>
	<trkpt lat="52.252243" lon="10.510444"><ele>75</ele><time>2015-01-07T09:05:25.205Z</time></trkpt>
	<trkpt lat="52.252330" lon="10.510361"><ele>75</ele><time>2015-01-07T09:05:26.215Z</time></trkpt>
	<trkpt lat="52.252415" lon="10.510249"><ele>75</ele><time>2015-01-07T09:05:27.189Z</time></trkpt>
	<trkpt lat="52.252498" lon="10.510131"><ele>75</ele><time>2015-01-07T09:05:28.182Z</time></trkpt>
	<trkpt lat="52.252585" lon="10.510003"><ele>76</ele><time>2015-01-07T09:05:29.186Z</time></trkpt>
	<trkpt lat="52.252675" lon="10.509872"><ele>76</ele><time>2015-01-07T09:05:30.168Z</time></trkpt>
	<trkpt lat="52.252769" lon="10.509741"><ele>76</ele><time>2015-01-07T09:05:31.163Z</time></trkpt>
	<trkpt lat="52.252855" lon="10.509617"><ele>76</ele><time>2015-01-07T09:05:32.159Z</time></trkpt>
	<trkpt lat="52.252940" lon="10.509499"><ele>76</ele><time>2015-01-07T09:05:33.135Z</time></trkpt>
	<trkpt lat="52.253014" lon="10.509394"><ele>75</ele><time>2015-01-07T09:05:34.165Z</time></trkpt>
	<trkpt lat="52.253075" lon="10.509312"><ele>75</ele><time>2015-01-07T09:05:35.165Z</time></trkpt>
	<trkpt lat="52.253114" lon="10.509251"><ele>74</ele><time>2015-01-07T09:05:36.154Z</time></trkpt>
	<trkpt lat="52.253143" lon="10.509222"><ele>74</ele><time>2015-01-07T09:05:37.154Z</time></trkpt>
	<trkpt lat="52.253155" lon="10.509244"><ele>74</ele><time>2015-01-07T09:05:38.163Z</time></trkpt>
	<trkpt lat="52.253081" lon="10.509273"><ele>74</ele><time>2015-01-07T09:05:39.163Z</time></trkpt>
	<trkpt lat="52.253214" lon="10.509345"><ele>75</ele><time>2015-01-07T09:05:40.161Z</time></trkpt>
	<trkpt lat="52.253250" lon="10.509410"><ele>75</ele><time>2015-01-07T09:05:41.127Z</time></trkpt>
	<trkpt lat="52.253298" lon="10.509497"><ele>75</ele><time>2015-01-07T09:05:42.123Z</time></trkpt>
	<trkpt lat="52.253341" lon="10.509576"><ele>75</ele><time>2015-01-07T09:05:43.121Z</time></trkpt>
	<trkpt lat="52.253392" lon="10.509669"><ele>75</ele><time>2015-01-07T09:05:44.118Z</time></trkpt>
	<trkpt lat="52.253423" lon="10.509725"><ele>75</ele><time>2015-01-07T09:05:45.117Z</time></trkpt>
	<trkpt lat="52.253445" lon="10.509775"><ele>75</ele><time>2015-01-07T09:05:46.148Z</time></trkpt>
	<trkpt lat="52.253474" lon="10.509870"><ele>75</ele><time>2015-01-07T09:05:47.157Z</time></trkpt>
	<trkpt lat="52.253494" lon="10.509964"><ele>75</ele><time>2015-01-07T09:05:48.156Z</time></trkpt>
	<trkpt lat="52.253497" lon="10.509976"><ele>74</ele><time>2015-01-07T09:05:51.175Z</time></trkpt>
	<trkpt lat="52.253529" lon="10.510238"><ele>74</ele><time>2015-01-07T09:05:52.160Z</time></trkpt>
	<trkpt lat="52.253537" lon="10.510298"><ele>74</ele><time>2015-01-07T09:05:53.159Z</time></trkpt>
	<trkpt lat="52.253542" lon="10.510342"><ele>74</ele><time>2015-01-07T09:05:54.142Z</time></trkpt>
	<trkpt lat="52.253542" lon="10.510339"><ele>75</ele><time>2015-01-07T09:05:56.139Z</time></trkpt>
	<trkpt lat="52.253690" lon="10.510390"><ele>75</ele><time>2015-01-07T09:05:57.131Z</time></trkpt>
	<trkpt lat="52.253747" lon="10.510413"><ele>75</ele><time>2015-01-07T09:05:58.149Z</time></trkpt>
	<trkpt lat="52.253812" lon="10.510441"><ele>75</ele><time>2015-01-07T09:05:59.147Z</time></trkpt>
	<trkpt lat="52.253898" lon="10.510479"><ele>75</ele><time>2015-01-07T09:06:00.146Z</time></trkpt>
	<trkpt lat="52.253972" lon="10.510506"><ele>75</ele><time>2015-01-07T09:06:01.132Z</time></trkpt>
	<trkpt lat="52.254050" lon="10.510533"><ele>75</ele><time>2015-01-07T09:06:02.136Z</time></trkpt>
	<trkpt lat="52.254135" lon="10.510564"><ele>75</ele><time>2015-01-07T09:06:03.151Z</time></trkpt>
	<trkpt lat="52.254211" lon="10.510591"><ele>75</ele><time>2015-01-07T09:06:04.145Z</time></trkpt>
	<trkpt lat="52.254292" lon="10.510620"><ele>75</ele><time>2015-01-07T09:06:05.153Z</time></trkpt>
	<trkpt lat="52.254377" lon="10.510651"><ele>75</ele><time>2015-01-07T09:06:06.182Z</time></trkpt>
	<trkpt lat="52.254463" lon="10.510681"><ele>75</ele><time>2015-01-07T09:06:07.184Z</time></trkpt>
	<trkpt lat="52.254564" lon="10.510717"><ele>75</ele><time>2015-01-07T09:06:08.198Z</time></trkpt>
	<trkpt lat="52.254661" lon="10.510752"><ele>75</ele><time>2015-01-07T09:06:09.207Z</time></trkpt>
	<trkpt lat="52.254752" lon="10.510785"><ele>75</ele><time>2015-01-07T09:06:10.164Z</time></trkpt>
	<trkpt lat="52.254845" lon="10.510818"><ele>75</ele><time>2015-01-07T09:06:11.153Z</time></trkpt>
	<trkpt lat="52.254937" lon="10.510851"><ele>75</ele><time>2015-01-07T09:06:12.183Z</time></trkpt>
	<trkpt lat="52.255035" lon="10.510887"><ele>75</ele><time>2015-01-07T09:06:13.235Z</time></trkpt>
	<trkpt lat="52.255129" lon="10.510920"><ele>75</ele><time>2015-01-07T09:06:14.210Z</time></trkpt>
	<trkpt lat="52.255218" lon="10.510953"><ele>75</ele><time>2015-01-07T09:06:15.180Z</time></trkpt>
	<trkpt lat="52.255316" lon="10.510988"><ele>75</ele><time>2015-01-07T09:06:16.208Z</time></trkpt>
	<trkpt lat="52.255407" lon="10.511021"><ele>75</ele><time>2015-01-07T09:06:17.200Z</time></trkpt>
	<trkpt lat="52.255495" lon="10.511052"><ele>75</ele><time>2015-01-07T09:06:18.191Z</time></trkpt>
	<trkpt lat="52.255582" lon="10.511083"><ele>75</ele><time>2015-01-07T09:06:19.185Z</time></trkpt>
	<trkpt lat="52.255661" lon="10.511112"><ele>74</ele><time>2015-01-07T09:06:20.158Z</time></trkpt>
	<trkpt lat="52.255730" lon="10.511137"><ele>74</ele><time>2015-01-07T09:06:21.165Z</time></trkpt>
	<trkpt lat="52.255789" lon="10.511158"><ele>74</ele><time>2015-01-07T09:06:22.150Z</time></trkpt>
	<trkpt lat="52.255837" lon="10.511175"><ele>74</ele><time>2015-01-07T09:06:23.152Z</time></trkpt>
	<trkpt lat="52.255872" lon="10.511188"><ele>73</ele><time>2015-01-07T09:06:24.175Z</time></trkpt>
	<trkpt lat="52.255898" lon="10.511197"><ele>73</ele><time>2015-01-07T09:06:25.165Z</time></trkpt>
	<trkpt lat="52.255918" lon="10.511204"><ele>73</ele><time>2015-01-07T09:06:26.186Z</time></trkpt>
	<trkpt lat="52.255936" lon="10.511211"><ele>73</ele><time>2015-01-07T09:06:27.165Z</time></trkpt>
	<trkpt lat="52.255936" lon="10.511211"><ele>73</ele><time>2015-01-07T09:06:37.128Z</time></trkpt>
	<trkpt lat="52.255922" lon="10.511206"><ele>73</ele><time>2015-01-07T09:06:38.150Z</time></trkpt>
	<trkpt lat="52.255923" lon="10.511206"><ele>73</ele><time>2015-01-07T09:06:42.232Z</time></trkpt>
	<trkpt lat="52.255934" lon="10.511210"><ele>73</ele><time>2015-01-07T09:06:43.172Z</time></trkpt>
	<trkpt lat="52.255962" lon="10.511220"><ele>73</ele><time>2015-01-07T09:06:44.122Z</time></trkpt>
	<trkpt lat="52.256000" lon="10.511234"><ele>73</ele><time>2015-01-07T09:06:45.131Z</time></trkpt>
	<trkpt lat="52.256034" lon="10.511246"><ele>73</ele><time>2015-01-07T09:06:46.154Z</time></trkpt>
	<trkpt lat="52.256058" lon="10.511255"><ele>73</ele><time>2015-01-07T09:06:47.173Z</time></trkpt>
	<trkpt lat="52.256088" lon="10.511265"><ele>73</ele><time>2015-01-07T09:06:48.175Z</time></trkpt>
	<trkpt lat="52.256113" lon="10.511274"><ele>73</ele><time>2015-01-07T09:06:49.171Z</time></trkpt>
	<trkpt lat="52.256113" lon="10.511274"><ele>73</ele><time>2015-01-07T09:06:50.155Z</time></trkpt>
	<trkpt lat="52.256188" lon="10.511294"><ele>74</ele><time>2015-01-07T09:06:51.161Z</time></trkpt>
	<trkpt lat="52.256211" lon="10.511298"><ele>73</ele><time>2015-01-07T09:06:52.191Z</time></trkpt>
	<trkpt lat="52.256237" lon="10.511134"><ele>74</ele><time>2015-01-07T09:06:53.191Z</time></trkpt>
	<trkpt lat="52.256235" lon="10.511014"><ele>74</ele><time>2015-01-07T09:06:54.153Z</time></trkpt>
	<trkpt lat="52.256225" lon="10.510903"><ele>74</ele><time>2015-01-07T09:06:55.125Z</time></trkpt>
	<trkpt lat="52.256206" lon="10.510764"><ele>75</ele><time>2015-01-07T09:06:56.165Z</time></trkpt>
	<trkpt lat="52.256180" lon="10.510610"><ele>75</ele><time>2015-01-07T09:06:57.180Z</time></trkpt>
	<trkpt lat="52.256160" lon="10.510467"><ele>75</ele><time>2015-01-07T09:06:58.187Z</time></trkpt>
	<trkpt lat="52.256134" lon="10.510281"><ele>75</ele><time>2015-01-07T09:06:59.152Z</time></trkpt>
	<trkpt lat="52.256109" lon="10.510099"><ele>75</ele><time>2015-01-07T09:07:00.138Z</time></trkpt>
	<trkpt lat="52.256083" lon="10.509918"><ele>76</ele><time>2015-01-07T09:07:01.154Z</time></trkpt>
	<trkpt lat="52.256053" lon="10.509744"><ele>75</ele><time>2015-01-07T09:07:02.165Z</time></trkpt>
	<trkpt lat="52.256024" lon="10.509585"><ele>75</ele><time>2015-01-07T09:07:03.192Z</time></trkpt>
	<trkpt lat="52.255995" lon="10.509424"><ele>75</ele><time>2015-01-07T09:07:04.119Z</time></trkpt>
	<trkpt lat="52.255969" lon="10.509280"><ele>75</ele><time>2015-01-07T09:07:05.202Z</time></trkpt>
	<trkpt lat="52.255950" lon="10.509172"><ele>74</ele><time>2015-01-07T09:07:06.193Z</time></trkpt>
	<trkpt lat="52.255933" lon="10.509078"><ele>74</ele><time>2015-01-07T09:07:07.109Z</time></trkpt>
	<trkpt lat="52.255921" lon="10.509014"><ele>74</ele><time>2015-01-07T09:07:08.115Z</time></trkpt>
	<trkpt lat="52.255910" lon="10.508953"><ele>74</ele><time>2015-01-07T09:07:09.131Z</time></trkpt>
	<trkpt lat="52.255900" lon="10.508938"><ele>74</ele><time>2015-01-07T09:07:10.141Z</time></trkpt>
	<trkpt lat="52.255984" lon="10.508834"><ele>74</ele><time>2015-01-07T09:07:11.143Z</time></trkpt>
	<trkpt lat="52.256022" lon="10.508821"><ele>74</ele><time>2015-01-07T09:07:12.159Z</time></trkpt>
	<trkpt lat="52.256068" lon="10.508804"><ele>74</ele><time>2015-01-07T09:07:13.199Z</time></trkpt>
	<trkpt lat="52.256144" lon="10.508777"><ele>74</ele><time>2015-01-07T09:07:14.198Z</time></trkpt>
	<trkpt lat="52.256218" lon="10.508751"><ele>75</ele><time>2015-01-07T09:07:15.146Z</time></trkpt>
	<trkpt lat="52.256302" lon="10.508721"><ele>74</ele><time>2015-01-07T09:07:16.104Z</time></trkpt>
	<trkpt lat="52.256359" lon="10.508700"><ele>74</ele><time>2015-01-07T09:07:17.101Z</time></trkpt>
	<trkpt lat="52.256432" lon="10.508674"><ele>74</ele><time>2015-01-07T09:07:18.168Z</time></trkpt>
	<trkpt lat="52.256500" lon="10.508649"><ele>74</ele><time>2015-01-07T09:07:19.221Z</time></trkpt>
	<trkpt lat="52.256567" lon="10.508626"><ele>74</ele><time>2015-01-07T09:07:20.240Z</time></trkpt>
	<trkpt lat="52.256630" lon="10.508603"><ele>74</ele><time>2015-01-07T09:07:21.227Z</time></trkpt>
	<trkpt lat="52.256689" lon="10.508582"><ele>75</ele><time>2015-01-07T09:07:22.180Z</time></trkpt>
	<trkpt lat="52.256743" lon="10.508563"><ele>74</ele><time>2015-01-07T09:07:23.177Z</time></trkpt>
	<trkpt lat="52.256780" lon="10.508549"><ele>74</ele><time>2015-01-07T09:07:24.166Z</time></trkpt>
	<trkpt lat="52.256803" lon="10.508541"><ele>74</ele><time>2015-01-07T09:07:25.133Z</time></trkpt>
	<trkpt lat="52.256822" lon="10.508534"><ele>74</ele><time>2015-01-07T09:07:26.173Z</time></trkpt>
	<trkpt lat="52.256841" lon="10.508526"><ele>74</ele><time>2015-01-07T09:07:27.208Z</time></trkpt>
	<trkpt lat="52.256833" lon="10.508427"><ele>75</ele><time>2015-01-07T09:07:28.126Z</time></trkpt>
	<trkpt lat="52.256817" lon="10.508358"><ele>75</ele><time>2015-01-07T09:07:29.155Z</time></trkpt>
	<trkpt lat="52.256805" lon="10.508304"><ele>75</ele><time>2015-01-07T09:07:30.114Z</time></trkpt>
	<trkpt lat="52.256795" lon="10.508260"><ele>75</ele><time>2015-01-07T09:07:31.130Z</time></trkpt>
	<trkpt lat="52.256786" lon="10.508223"><ele>75</ele><time>2015-01-07T09:07:32.126Z</time></trkpt>
	<trkpt lat="52.256781" lon="10.508200"><ele>75</ele><time>2015-01-07T09:07:33.131Z</time></trkpt>
	<trkpt lat="52.256777" lon="10.508180"><ele>75</ele><time>2015-01-07T09:07:34.133Z</time></trkpt>
	<trkpt lat="52.256772" lon="10.508159"><ele>75</ele><time>2015-01-07T09:07:35.129Z</time></trkpt>
	<trkpt lat="52.256767" lon="10.508138"><ele>75</ele><time>2015-01-07T09:07:36.100Z</time></trkpt>
	<trkpt lat="52.256764" lon="10.508122"><ele>75</ele><time>2015-01-07T09:07:37.088Z</time></trkpt>
	<trkpt lat="52.256763" lon="10.508120"><ele>75</ele><time>2015-01-07T09:08:26.118Z</time></trkpt>
	<trkpt lat="52.256760" lon="10.508105"><ele>75</ele><time>2015-01-07T09:08:27.147Z</time></trkpt>
	<trkpt lat="52.256760" lon="10.508107"><ele>76</ele><time>2015-01-07T09:09:06.118Z</time></trkpt>
</trkseg>
</trk>
</gpx>